<?xml version="1.0" encoding="UTF-8" standalone="no" ?>
<gpx xmlns="http://www.topografix.com/GPX/1/1" xmlns:xsi="http://www.w3.org/2001/XMLSchema-instance" xsi:schemaLocation="http://www.topografix.com/GPX/1/1 http://www.topografix.com/GPX/1/1/gpx.xsd" version="1.1" creator="VisuGPX - https://www.visugpx.com">
  <metadata>
    <name>Pornichet 30/05/2021</name>
    <desc><![CDATA[Sortie VTT du dimanche 30 mai 2021]]></desc>
  </metadata>
  <trk>
    <name><![CDATA[Pornichet Cyclisme]]></name>
    <trkseg>
      <trkpt lat="47.26395" lon="-2.31558">
        <ele>9.2</ele>
        <time>2021-05-30T06:58:45.000Z</time>
      </trkpt>
      <trkpt lat="47.26395" lon="-2.31574">
        <ele>9.2</ele>
        <time>2021-05-30T06:58:49.000Z</time>
      </trkpt>
      <trkpt lat="47.26395" lon="-2.31579">
        <ele>-0.20000000298023</ele>
        <time>2021-05-30T06:58:50.000Z</time>
      </trkpt>
      <trkpt lat="47.26395" lon="-2.31587">
        <ele>-0.20000000298023</ele>
        <time>2021-05-30T06:58:52.000Z</time>
      </trkpt>
      <trkpt lat="47.26393" lon="-2.31616">
        <ele>-0.20000000298023</ele>
        <time>2021-05-30T06:59:00.000Z</time>
      </trkpt>
      <trkpt lat="47.2639" lon="-2.31638">
        <ele>-0.20000000298023</ele>
        <time>2021-05-30T06:59:05.000Z</time>
      </trkpt>
      <trkpt lat="47.26386" lon="-2.31639">
        <ele>-0.20000000298023</ele>
        <time>2021-05-30T06:59:06.000Z</time>
      </trkpt>
      <trkpt lat="47.26377" lon="-2.31643">
        <ele>-0.20000000298023</ele>
        <time>2021-05-30T06:59:08.000Z</time>
      </trkpt>
      <trkpt lat="47.26338" lon="-2.31663">
        <ele>-1</ele>
        <time>2021-05-30T06:59:16.000Z</time>
      </trkpt>
      <trkpt lat="47.26333" lon="-2.31665">
        <ele>-1.3999999761581</ele>
        <time>2021-05-30T06:59:17.000Z</time>
      </trkpt>
      <trkpt lat="47.26328" lon="-2.31669">
        <ele>-1.7999999523163</ele>
        <time>2021-05-30T06:59:18.000Z</time>
      </trkpt>
      <trkpt lat="47.26323" lon="-2.31671">
        <ele>-2.2000000476837</ele>
        <time>2021-05-30T06:59:19.000Z</time>
      </trkpt>
      <trkpt lat="47.26309" lon="-2.31678">
        <ele>-2.2000000476837</ele>
        <time>2021-05-30T06:59:22.000Z</time>
      </trkpt>
      <trkpt lat="47.26292" lon="-2.31689">
        <ele>-2.5999999046326</ele>
        <time>2021-05-30T06:59:26.000Z</time>
      </trkpt>
      <trkpt lat="47.26289" lon="-2.31693">
        <ele>-3</ele>
        <time>2021-05-30T06:59:27.000Z</time>
      </trkpt>
      <trkpt lat="47.26288" lon="-2.31698">
        <ele>-3.4000000953674</ele>
        <time>2021-05-30T06:59:28.000Z</time>
      </trkpt>
      <trkpt lat="47.26288" lon="-2.31703">
        <ele>-3.7999999523163</ele>
        <time>2021-05-30T06:59:29.000Z</time>
      </trkpt>
      <trkpt lat="47.26287" lon="-2.31709">
        <ele>-4.4000000953674</ele>
        <time>2021-05-30T06:59:30.000Z</time>
      </trkpt>
      <trkpt lat="47.2629" lon="-2.31748">
        <ele>-4.4000000953674</ele>
        <time>2021-05-30T06:59:36.000Z</time>
      </trkpt>
      <trkpt lat="47.26291" lon="-2.31793">
        <ele>-4.4000000953674</ele>
        <time>2021-05-30T06:59:43.000Z</time>
      </trkpt>
      <trkpt lat="47.26289" lon="-2.31799">
        <ele>-4.4000000953674</ele>
        <time>2021-05-30T06:59:46.000Z</time>
      </trkpt>
      <trkpt lat="47.26287" lon="-2.31796">
        <ele>-4.4000000953674</ele>
        <time>2021-05-30T06:59:51.000Z</time>
      </trkpt>
      <trkpt lat="47.26286" lon="-2.31794">
        <ele>-4.4000000953674</ele>
        <time>2021-05-30T06:59:52.000Z</time>
      </trkpt>
      <trkpt lat="47.26284" lon="-2.3178">
        <ele>-4.4000000953674</ele>
        <time>2021-05-30T06:59:57.000Z</time>
      </trkpt>
      <trkpt lat="47.26286" lon="-2.31754">
        <ele>-4.4000000953674</ele>
        <time>2021-05-30T07:00:01.000Z</time>
      </trkpt>
      <trkpt lat="47.26281" lon="-2.31709">
        <ele>-4.4000000953674</ele>
        <time>2021-05-30T07:00:07.000Z</time>
      </trkpt>
      <trkpt lat="47.2628" lon="-2.31693">
        <ele>-4.4000000953674</ele>
        <time>2021-05-30T07:00:09.000Z</time>
      </trkpt>
      <trkpt lat="47.26287" lon="-2.31684">
        <ele>-4.4000000953674</ele>
        <time>2021-05-30T07:00:11.000Z</time>
      </trkpt>
      <trkpt lat="47.26298" lon="-2.31677">
        <ele>-4.4000000953674</ele>
        <time>2021-05-30T07:00:14.000Z</time>
      </trkpt>
      <trkpt lat="47.26306" lon="-2.31672">
        <ele>-4.4000000953674</ele>
        <time>2021-05-30T07:00:16.000Z</time>
      </trkpt>
      <trkpt lat="47.26317" lon="-2.31665">
        <ele>-4.4000000953674</ele>
        <time>2021-05-30T07:00:19.000Z</time>
      </trkpt>
      <trkpt lat="47.26325" lon="-2.31661">
        <ele>-4.4000000953674</ele>
        <time>2021-05-30T07:00:21.000Z</time>
      </trkpt>
      <trkpt lat="47.26342" lon="-2.31651">
        <ele>-3.7999999523163</ele>
        <time>2021-05-30T07:00:24.000Z</time>
      </trkpt>
      <trkpt lat="47.26346" lon="-2.31648">
        <ele>-3.4000000953674</ele>
        <time>2021-05-30T07:00:26.000Z</time>
      </trkpt>
      <trkpt lat="47.26351" lon="-2.31645">
        <ele>-3</ele>
        <time>2021-05-30T07:00:27.000Z</time>
      </trkpt>
      <trkpt lat="47.26355" lon="-2.31642">
        <ele>-2.5999999046326</ele>
        <time>2021-05-30T07:00:28.000Z</time>
      </trkpt>
      <trkpt lat="47.26359" lon="-2.3164">
        <ele>-2.2000000476837</ele>
        <time>2021-05-30T07:00:29.000Z</time>
      </trkpt>
      <trkpt lat="47.26378" lon="-2.31627">
        <ele>-2.2000000476837</ele>
        <time>2021-05-30T07:00:34.000Z</time>
      </trkpt>
      <trkpt lat="47.26383" lon="-2.31617">
        <ele>-2.2000000476837</ele>
        <time>2021-05-30T07:00:36.000Z</time>
      </trkpt>
      <trkpt lat="47.26387" lon="-2.31601">
        <ele>-1.7999999523163</ele>
        <time>2021-05-30T07:00:39.000Z</time>
      </trkpt>
      <trkpt lat="47.26387" lon="-2.31595">
        <ele>-1.3999999761581</ele>
        <time>2021-05-30T07:00:40.000Z</time>
      </trkpt>
      <trkpt lat="47.26387" lon="-2.31589">
        <ele>-1</ele>
        <time>2021-05-30T07:00:41.000Z</time>
      </trkpt>
      <trkpt lat="47.26387" lon="-2.31583">
        <ele>-0.60000002384186</ele>
        <time>2021-05-30T07:00:42.000Z</time>
      </trkpt>
      <trkpt lat="47.26386" lon="-2.31577">
        <ele>-0.20000000298023</ele>
        <time>2021-05-30T07:00:43.000Z</time>
      </trkpt>
      <trkpt lat="47.26386" lon="-2.31559">
        <ele>-0.20000000298023</ele>
        <time>2021-05-30T07:00:46.000Z</time>
      </trkpt>
      <trkpt lat="47.26385" lon="-2.31524">
        <ele>-0.20000000298023</ele>
        <time>2021-05-30T07:00:52.000Z</time>
      </trkpt>
      <trkpt lat="47.26387" lon="-2.31519">
        <ele>-0.20000000298023</ele>
        <time>2021-05-30T07:00:54.000Z</time>
      </trkpt>
      <trkpt lat="47.26388" lon="-2.31518">
        <ele>-0.20000000298023</ele>
        <time>2021-05-30T07:00:55.000Z</time>
      </trkpt>
      <trkpt lat="47.26392" lon="-2.31515">
        <ele>-0.20000000298023</ele>
        <time>2021-05-30T07:01:00.000Z</time>
      </trkpt>
      <trkpt lat="47.26394" lon="-2.31518">
        <ele>-0.20000000298023</ele>
        <time>2021-05-30T07:01:33.000Z</time>
      </trkpt>
      <trkpt lat="47.26391" lon="-2.31522">
        <ele>-0.20000000298023</ele>
        <time>2021-05-30T07:01:35.000Z</time>
      </trkpt>
      <trkpt lat="47.26389" lon="-2.31511">
        <ele>-0.20000000298023</ele>
        <time>2021-05-30T07:01:38.000Z</time>
      </trkpt>
      <trkpt lat="47.26387" lon="-2.31499">
        <ele>-0.20000000298023</ele>
        <time>2021-05-30T07:01:40.000Z</time>
      </trkpt>
      <trkpt lat="47.26384" lon="-2.31479">
        <ele>-0.20000000298023</ele>
        <time>2021-05-30T07:01:43.000Z</time>
      </trkpt>
      <trkpt lat="47.26378" lon="-2.31452">
        <ele>0.20000000298023</ele>
        <time>2021-05-30T07:01:47.000Z</time>
      </trkpt>
      <trkpt lat="47.26376" lon="-2.31445">
        <ele>0.60000002384186</ele>
        <time>2021-05-30T07:01:48.000Z</time>
      </trkpt>
      <trkpt lat="47.26374" lon="-2.31439">
        <ele>1</ele>
        <time>2021-05-30T07:01:49.000Z</time>
      </trkpt>
      <trkpt lat="47.26371" lon="-2.31433">
        <ele>1.3999999761581</ele>
        <time>2021-05-30T07:01:50.000Z</time>
      </trkpt>
      <trkpt lat="47.26368" lon="-2.31427">
        <ele>1.7999999523163</ele>
        <time>2021-05-30T07:01:51.000Z</time>
      </trkpt>
      <trkpt lat="47.26349" lon="-2.31388">
        <ele>1.7999999523163</ele>
        <time>2021-05-30T07:01:58.000Z</time>
      </trkpt>
      <trkpt lat="47.26331" lon="-2.31353">
        <ele>1.7999999523163</ele>
        <time>2021-05-30T07:02:04.000Z</time>
      </trkpt>
      <trkpt lat="47.26315" lon="-2.31355">
        <ele>1.7999999523163</ele>
        <time>2021-05-30T07:02:07.000Z</time>
      </trkpt>
      <trkpt lat="47.26297" lon="-2.3137">
        <ele>1.7999999523163</ele>
        <time>2021-05-30T07:02:10.000Z</time>
      </trkpt>
      <trkpt lat="47.26284" lon="-2.3138">
        <ele>1.7999999523163</ele>
        <time>2021-05-30T07:02:12.000Z</time>
      </trkpt>
      <trkpt lat="47.26277" lon="-2.31385">
        <ele>1.3999999761581</ele>
        <time>2021-05-30T07:02:13.000Z</time>
      </trkpt>
      <trkpt lat="47.2627" lon="-2.3139">
        <ele>1</ele>
        <time>2021-05-30T07:02:14.000Z</time>
      </trkpt>
      <trkpt lat="47.26264" lon="-2.31397">
        <ele>0.60000002384186</ele>
        <time>2021-05-30T07:02:15.000Z</time>
      </trkpt>
      <trkpt lat="47.26258" lon="-2.31403">
        <ele>0.20000000298023</ele>
        <time>2021-05-30T07:02:16.000Z</time>
      </trkpt>
      <trkpt lat="47.26252" lon="-2.31411">
        <ele>-0.20000000298023</ele>
        <time>2021-05-30T07:02:17.000Z</time>
      </trkpt>
      <trkpt lat="47.26233" lon="-2.31445">
        <ele>-0.20000000298023</ele>
        <time>2021-05-30T07:02:21.000Z</time>
      </trkpt>
      <trkpt lat="47.26228" lon="-2.31453">
        <ele>-0.20000000298023</ele>
        <time>2021-05-30T07:02:22.000Z</time>
      </trkpt>
      <trkpt lat="47.2621" lon="-2.31468">
        <ele>-0.20000000298023</ele>
        <time>2021-05-30T07:02:25.000Z</time>
      </trkpt>
      <trkpt lat="47.26203" lon="-2.31472">
        <ele>-0.20000000298023</ele>
        <time>2021-05-30T07:02:26.000Z</time>
      </trkpt>
      <trkpt lat="47.26164" lon="-2.31487">
        <ele>-0.20000000298023</ele>
        <time>2021-05-30T07:02:32.000Z</time>
      </trkpt>
      <trkpt lat="47.26138" lon="-2.31513">
        <ele>-0.20000000298023</ele>
        <time>2021-05-30T07:02:39.000Z</time>
      </trkpt>
      <trkpt lat="47.26117" lon="-2.31536">
        <ele>-0.20000000298023</ele>
        <time>2021-05-30T07:02:43.000Z</time>
      </trkpt>
      <trkpt lat="47.26107" lon="-2.3155">
        <ele>-0.20000000298023</ele>
        <time>2021-05-30T07:02:45.000Z</time>
      </trkpt>
      <trkpt lat="47.26073" lon="-2.31595">
        <ele>-0.20000000298023</ele>
        <time>2021-05-30T07:02:51.000Z</time>
      </trkpt>
      <trkpt lat="47.26035" lon="-2.31643">
        <ele>-0.20000000298023</ele>
        <time>2021-05-30T07:02:58.000Z</time>
      </trkpt>
      <trkpt lat="47.26003" lon="-2.31668">
        <ele>-0.20000000298023</ele>
        <time>2021-05-30T07:03:03.000Z</time>
      </trkpt>
      <trkpt lat="47.25966" lon="-2.3169">
        <ele>-0.20000000298023</ele>
        <time>2021-05-30T07:03:09.000Z</time>
      </trkpt>
      <trkpt lat="47.25945" lon="-2.31713">
        <ele>-0.20000000298023</ele>
        <time>2021-05-30T07:03:13.000Z</time>
      </trkpt>
      <trkpt lat="47.25941" lon="-2.31721">
        <ele>-0.20000000298023</ele>
        <time>2021-05-30T07:03:14.000Z</time>
      </trkpt>
      <trkpt lat="47.25916" lon="-2.31771">
        <ele>-0.20000000298023</ele>
        <time>2021-05-30T07:03:20.000Z</time>
      </trkpt>
      <trkpt lat="47.25885" lon="-2.31841">
        <ele>-0.20000000298023</ele>
        <time>2021-05-30T07:03:28.000Z</time>
      </trkpt>
      <trkpt lat="47.25859" lon="-2.31885">
        <ele>-0.20000000298023</ele>
        <time>2021-05-30T07:03:34.000Z</time>
      </trkpt>
      <trkpt lat="47.25853" lon="-2.31891">
        <ele>-0.20000000298023</ele>
        <time>2021-05-30T07:03:35.000Z</time>
      </trkpt>
      <trkpt lat="47.25821" lon="-2.31915">
        <ele>-0.20000000298023</ele>
        <time>2021-05-30T07:03:41.000Z</time>
      </trkpt>
      <trkpt lat="47.25794" lon="-2.31937">
        <ele>0.20000000298023</ele>
        <time>2021-05-30T07:03:47.000Z</time>
      </trkpt>
      <trkpt lat="47.25789" lon="-2.3194">
        <ele>1</ele>
        <time>2021-05-30T07:03:48.000Z</time>
      </trkpt>
      <trkpt lat="47.25785" lon="-2.31944">
        <ele>1.3999999761581</ele>
        <time>2021-05-30T07:03:49.000Z</time>
      </trkpt>
      <trkpt lat="47.25781" lon="-2.31947">
        <ele>1.7999999523163</ele>
        <time>2021-05-30T07:03:50.000Z</time>
      </trkpt>
      <trkpt lat="47.2576" lon="-2.31964">
        <ele>1.7999999523163</ele>
        <time>2021-05-30T07:03:55.000Z</time>
      </trkpt>
      <trkpt lat="47.25756" lon="-2.31967">
        <ele>2.2000000476837</ele>
        <time>2021-05-30T07:03:56.000Z</time>
      </trkpt>
      <trkpt lat="47.25752" lon="-2.3197">
        <ele>2.5999999046326</ele>
        <time>2021-05-30T07:03:57.000Z</time>
      </trkpt>
      <trkpt lat="47.25747" lon="-2.31974">
        <ele>3.2000000476837</ele>
        <time>2021-05-30T07:03:58.000Z</time>
      </trkpt>
      <trkpt lat="47.25743" lon="-2.31977">
        <ele>3.5999999046326</ele>
        <time>2021-05-30T07:03:59.000Z</time>
      </trkpt>
      <trkpt lat="47.25739" lon="-2.3198">
        <ele>4</ele>
        <time>2021-05-30T07:04:00.000Z</time>
      </trkpt>
      <trkpt lat="47.25724" lon="-2.31993">
        <ele>4</ele>
        <time>2021-05-30T07:04:04.000Z</time>
      </trkpt>
      <trkpt lat="47.25716" lon="-2.31997">
        <ele>4.4000000953674</ele>
        <time>2021-05-30T07:04:06.000Z</time>
      </trkpt>
      <trkpt lat="47.25713" lon="-2.31998">
        <ele>4.8000001907349</ele>
        <time>2021-05-30T07:04:07.000Z</time>
      </trkpt>
      <trkpt lat="47.2571" lon="-2.31999">
        <ele>5.1999998092651</ele>
        <time>2021-05-30T07:04:08.000Z</time>
      </trkpt>
      <trkpt lat="47.25707" lon="-2.31999">
        <ele>5.5999999046326</ele>
        <time>2021-05-30T07:04:09.000Z</time>
      </trkpt>
      <trkpt lat="47.25704" lon="-2.31998">
        <ele>6</ele>
        <time>2021-05-30T07:04:10.000Z</time>
      </trkpt>
      <trkpt lat="47.25699" lon="-2.31998">
        <ele>6</ele>
        <time>2021-05-30T07:04:12.000Z</time>
      </trkpt>
      <trkpt lat="47.25695" lon="-2.32">
        <ele>6</ele>
        <time>2021-05-30T07:04:14.000Z</time>
      </trkpt>
      <trkpt lat="47.25687" lon="-2.32014">
        <ele>6</ele>
        <time>2021-05-30T07:04:18.000Z</time>
      </trkpt>
      <trkpt lat="47.25685" lon="-2.32019">
        <ele>6.4000000953674</ele>
        <time>2021-05-30T07:04:19.000Z</time>
      </trkpt>
      <trkpt lat="47.25682" lon="-2.32024">
        <ele>6.8000001907349</ele>
        <time>2021-05-30T07:04:20.000Z</time>
      </trkpt>
      <trkpt lat="47.25679" lon="-2.32028">
        <ele>7.4000000953674</ele>
        <time>2021-05-30T07:04:21.000Z</time>
      </trkpt>
      <trkpt lat="47.25675" lon="-2.32032">
        <ele>7.8000001907349</ele>
        <time>2021-05-30T07:04:22.000Z</time>
      </trkpt>
      <trkpt lat="47.25671" lon="-2.32036">
        <ele>8.1999998092651</ele>
        <time>2021-05-30T07:04:23.000Z</time>
      </trkpt>
      <trkpt lat="47.25658" lon="-2.3205">
        <ele>8.1999998092651</ele>
        <time>2021-05-30T07:04:27.000Z</time>
      </trkpt>
      <trkpt lat="47.25651" lon="-2.32057">
        <ele>8.1999998092651</ele>
        <time>2021-05-30T07:04:29.000Z</time>
      </trkpt>
      <trkpt lat="47.25617" lon="-2.3209">
        <ele>8.1999998092651</ele>
        <time>2021-05-30T07:04:38.000Z</time>
      </trkpt>
      <trkpt lat="47.25613" lon="-2.32108">
        <ele>8.1999998092651</ele>
        <time>2021-05-30T07:04:41.000Z</time>
      </trkpt>
      <trkpt lat="47.25615" lon="-2.3212">
        <ele>8.1999998092651</ele>
        <time>2021-05-30T07:04:43.000Z</time>
      </trkpt>
      <trkpt lat="47.25619" lon="-2.32133">
        <ele>8.1999998092651</ele>
        <time>2021-05-30T07:04:45.000Z</time>
      </trkpt>
      <trkpt lat="47.25635" lon="-2.32176">
        <ele>8.1999998092651</ele>
        <time>2021-05-30T07:04:51.000Z</time>
      </trkpt>
      <trkpt lat="47.25641" lon="-2.32198">
        <ele>8.6000003814697</ele>
        <time>2021-05-30T07:04:54.000Z</time>
      </trkpt>
      <trkpt lat="47.25643" lon="-2.32206">
        <ele>9</ele>
        <time>2021-05-30T07:04:55.000Z</time>
      </trkpt>
      <trkpt lat="47.25644" lon="-2.32214">
        <ele>9.3999996185303</ele>
        <time>2021-05-30T07:04:56.000Z</time>
      </trkpt>
      <trkpt lat="47.25646" lon="-2.32222">
        <ele>9.8000001907349</ele>
        <time>2021-05-30T07:04:57.000Z</time>
      </trkpt>
      <trkpt lat="47.25647" lon="-2.32231">
        <ele>10.199999809265</ele>
        <time>2021-05-30T07:04:58.000Z</time>
      </trkpt>
      <trkpt lat="47.25651" lon="-2.32273">
        <ele>10.199999809265</ele>
        <time>2021-05-30T07:05:02.000Z</time>
      </trkpt>
      <trkpt lat="47.25654" lon="-2.32322">
        <ele>9.8000001907349</ele>
        <time>2021-05-30T07:05:06.000Z</time>
      </trkpt>
      <trkpt lat="47.25655" lon="-2.32335">
        <ele>9.3999996185303</ele>
        <time>2021-05-30T07:05:07.000Z</time>
      </trkpt>
      <trkpt lat="47.25655" lon="-2.32348">
        <ele>9</ele>
        <time>2021-05-30T07:05:08.000Z</time>
      </trkpt>
      <trkpt lat="47.25656" lon="-2.32362">
        <ele>8.3999996185303</ele>
        <time>2021-05-30T07:05:09.000Z</time>
      </trkpt>
      <trkpt lat="47.25657" lon="-2.32375">
        <ele>7.8000001907349</ele>
        <time>2021-05-30T07:05:10.000Z</time>
      </trkpt>
      <trkpt lat="47.25657" lon="-2.32388">
        <ele>7.1999998092651</ele>
        <time>2021-05-30T07:05:11.000Z</time>
      </trkpt>
      <trkpt lat="47.25658" lon="-2.32399">
        <ele>6.5999999046326</ele>
        <time>2021-05-30T07:05:12.000Z</time>
      </trkpt>
      <trkpt lat="47.25658" lon="-2.3241">
        <ele>6</ele>
        <time>2021-05-30T07:05:13.000Z</time>
      </trkpt>
      <trkpt lat="47.2566" lon="-2.3242">
        <ele>5.4000000953674</ele>
        <time>2021-05-30T07:05:14.000Z</time>
      </trkpt>
      <trkpt lat="47.25662" lon="-2.3243">
        <ele>4.8000001907349</ele>
        <time>2021-05-30T07:05:15.000Z</time>
      </trkpt>
      <trkpt lat="47.25663" lon="-2.3244">
        <ele>4.1999998092651</ele>
        <time>2021-05-30T07:05:16.000Z</time>
      </trkpt>
      <trkpt lat="47.25664" lon="-2.32449">
        <ele>3.5999999046326</ele>
        <time>2021-05-30T07:05:17.000Z</time>
      </trkpt>
      <trkpt lat="47.2567" lon="-2.32477">
        <ele>3.5999999046326</ele>
        <time>2021-05-30T07:05:20.000Z</time>
      </trkpt>
      <trkpt lat="47.25688" lon="-2.32532">
        <ele>3.5999999046326</ele>
        <time>2021-05-30T07:05:27.000Z</time>
      </trkpt>
      <trkpt lat="47.25706" lon="-2.32582">
        <ele>3.5999999046326</ele>
        <time>2021-05-30T07:05:34.000Z</time>
      </trkpt>
      <trkpt lat="47.25708" lon="-2.32589">
        <ele>4</ele>
        <time>2021-05-30T07:05:35.000Z</time>
      </trkpt>
      <trkpt lat="47.2571" lon="-2.32596">
        <ele>4.4000000953674</ele>
        <time>2021-05-30T07:05:36.000Z</time>
      </trkpt>
      <trkpt lat="47.25711" lon="-2.32604">
        <ele>4.8000001907349</ele>
        <time>2021-05-30T07:05:37.000Z</time>
      </trkpt>
      <trkpt lat="47.25713" lon="-2.32611">
        <ele>5.1999998092651</ele>
        <time>2021-05-30T07:05:38.000Z</time>
      </trkpt>
      <trkpt lat="47.25712" lon="-2.32618">
        <ele>5.5999999046326</ele>
        <time>2021-05-30T07:05:39.000Z</time>
      </trkpt>
      <trkpt lat="47.2571" lon="-2.32624">
        <ele>5.5999999046326</ele>
        <time>2021-05-30T07:05:40.000Z</time>
      </trkpt>
      <trkpt lat="47.25695" lon="-2.32631">
        <ele>5.5999999046326</ele>
        <time>2021-05-30T07:05:43.000Z</time>
      </trkpt>
      <trkpt lat="47.25665" lon="-2.32645">
        <ele>6.4000000953674</ele>
        <time>2021-05-30T07:05:49.000Z</time>
      </trkpt>
      <trkpt lat="47.25659" lon="-2.32647">
        <ele>7</ele>
        <time>2021-05-30T07:05:50.000Z</time>
      </trkpt>
      <trkpt lat="47.25654" lon="-2.3265">
        <ele>7.4000000953674</ele>
        <time>2021-05-30T07:05:51.000Z</time>
      </trkpt>
      <trkpt lat="47.25649" lon="-2.32652">
        <ele>7.8000001907349</ele>
        <time>2021-05-30T07:05:52.000Z</time>
      </trkpt>
      <trkpt lat="47.25617" lon="-2.32665">
        <ele>7.8000001907349</ele>
        <time>2021-05-30T07:05:58.000Z</time>
      </trkpt>
      <trkpt lat="47.25602" lon="-2.32673">
        <ele>8.1999998092651</ele>
        <time>2021-05-30T07:06:01.000Z</time>
      </trkpt>
      <trkpt lat="47.25597" lon="-2.32675">
        <ele>8.6000003814697</ele>
        <time>2021-05-30T07:06:02.000Z</time>
      </trkpt>
      <trkpt lat="47.25591" lon="-2.32677">
        <ele>9</ele>
        <time>2021-05-30T07:06:03.000Z</time>
      </trkpt>
      <trkpt lat="47.25586" lon="-2.32679">
        <ele>9.3999996185303</ele>
        <time>2021-05-30T07:06:04.000Z</time>
      </trkpt>
      <trkpt lat="47.2558" lon="-2.32681">
        <ele>9.8000001907349</ele>
        <time>2021-05-30T07:06:05.000Z</time>
      </trkpt>
      <trkpt lat="47.25539" lon="-2.32698">
        <ele>9.8000001907349</ele>
        <time>2021-05-30T07:06:12.000Z</time>
      </trkpt>
      <trkpt lat="47.25514" lon="-2.32704">
        <ele>9.8000001907349</ele>
        <time>2021-05-30T07:06:16.000Z</time>
      </trkpt>
      <trkpt lat="47.25502" lon="-2.32705">
        <ele>9.8000001907349</ele>
        <time>2021-05-30T07:06:18.000Z</time>
      </trkpt>
      <trkpt lat="47.2549" lon="-2.32708">
        <ele>9.8000001907349</ele>
        <time>2021-05-30T07:06:20.000Z</time>
      </trkpt>
      <trkpt lat="47.25479" lon="-2.32716">
        <ele>9.8000001907349</ele>
        <time>2021-05-30T07:06:22.000Z</time>
      </trkpt>
      <trkpt lat="47.25469" lon="-2.32727">
        <ele>9.8000001907349</ele>
        <time>2021-05-30T07:06:24.000Z</time>
      </trkpt>
      <trkpt lat="47.25455" lon="-2.32746">
        <ele>9.8000001907349</ele>
        <time>2021-05-30T07:06:27.000Z</time>
      </trkpt>
      <trkpt lat="47.25439" lon="-2.32771">
        <ele>9.8000001907349</ele>
        <time>2021-05-30T07:06:31.000Z</time>
      </trkpt>
      <trkpt lat="47.25434" lon="-2.32786">
        <ele>9.8000001907349</ele>
        <time>2021-05-30T07:06:33.000Z</time>
      </trkpt>
      <trkpt lat="47.25422" lon="-2.32801">
        <ele>9.8000001907349</ele>
        <time>2021-05-30T07:06:36.000Z</time>
      </trkpt>
      <trkpt lat="47.25413" lon="-2.32815">
        <ele>9.8000001907349</ele>
        <time>2021-05-30T07:06:38.000Z</time>
      </trkpt>
      <trkpt lat="47.25394" lon="-2.32842">
        <ele>9.8000001907349</ele>
        <time>2021-05-30T07:06:42.000Z</time>
      </trkpt>
      <trkpt lat="47.25356" lon="-2.32882">
        <ele>9.8000001907349</ele>
        <time>2021-05-30T07:06:49.000Z</time>
      </trkpt>
      <trkpt lat="47.25313" lon="-2.32924">
        <ele>9.8000001907349</ele>
        <time>2021-05-30T07:06:57.000Z</time>
      </trkpt>
      <trkpt lat="47.25309" lon="-2.32949">
        <ele>9.8000001907349</ele>
        <time>2021-05-30T07:07:00.000Z</time>
      </trkpt>
      <trkpt lat="47.25315" lon="-2.32971">
        <ele>9.8000001907349</ele>
        <time>2021-05-30T07:07:03.000Z</time>
      </trkpt>
      <trkpt lat="47.25323" lon="-2.32985">
        <ele>9.8000001907349</ele>
        <time>2021-05-30T07:07:05.000Z</time>
      </trkpt>
      <trkpt lat="47.25332" lon="-2.33008">
        <ele>9.8000001907349</ele>
        <time>2021-05-30T07:07:08.000Z</time>
      </trkpt>
      <trkpt lat="47.25344" lon="-2.3304">
        <ele>9.8000001907349</ele>
        <time>2021-05-30T07:07:12.000Z</time>
      </trkpt>
      <trkpt lat="47.2535" lon="-2.33054">
        <ele>9.8000001907349</ele>
        <time>2021-05-30T07:07:14.000Z</time>
      </trkpt>
      <trkpt lat="47.2537" lon="-2.33103">
        <ele>9.8000001907349</ele>
        <time>2021-05-30T07:07:22.000Z</time>
      </trkpt>
      <trkpt lat="47.25371" lon="-2.33111">
        <ele>9.8000001907349</ele>
        <time>2021-05-30T07:07:26.000Z</time>
      </trkpt>
      <trkpt lat="47.25373" lon="-2.33113">
        <ele>14</ele>
        <time>2021-05-30T07:12:33.000Z</time>
      </trkpt>
      <trkpt lat="47.25376" lon="-2.33121">
        <ele>14</ele>
        <time>2021-05-30T07:12:36.000Z</time>
      </trkpt>
      <trkpt lat="47.25378" lon="-2.33129">
        <ele>14.39999961853</ele>
        <time>2021-05-30T07:12:38.000Z</time>
      </trkpt>
      <trkpt lat="47.2538" lon="-2.33132">
        <ele>14.800000190735</ele>
        <time>2021-05-30T07:12:39.000Z</time>
      </trkpt>
      <trkpt lat="47.25381" lon="-2.33136">
        <ele>15.199999809265</ele>
        <time>2021-05-30T07:12:40.000Z</time>
      </trkpt>
      <trkpt lat="47.25382" lon="-2.3314">
        <ele>15.60000038147</ele>
        <time>2021-05-30T07:12:41.000Z</time>
      </trkpt>
      <trkpt lat="47.25382" lon="-2.33145">
        <ele>16</ele>
        <time>2021-05-30T07:12:42.000Z</time>
      </trkpt>
      <trkpt lat="47.25374" lon="-2.33162">
        <ele>16</ele>
        <time>2021-05-30T07:12:46.000Z</time>
      </trkpt>
      <trkpt lat="47.25368" lon="-2.3317">
        <ele>16</ele>
        <time>2021-05-30T07:12:48.000Z</time>
      </trkpt>
      <trkpt lat="47.25355" lon="-2.33187">
        <ele>16</ele>
        <time>2021-05-30T07:12:52.000Z</time>
      </trkpt>
      <trkpt lat="47.25335" lon="-2.33214">
        <ele>16</ele>
        <time>2021-05-30T07:12:58.000Z</time>
      </trkpt>
      <trkpt lat="47.25332" lon="-2.33217">
        <ele>16</ele>
        <time>2021-05-30T07:12:59.000Z</time>
      </trkpt>
      <trkpt lat="47.2532" lon="-2.33229">
        <ele>16</ele>
        <time>2021-05-30T07:13:02.000Z</time>
      </trkpt>
      <trkpt lat="47.25309" lon="-2.33224">
        <ele>16</ele>
        <time>2021-05-30T07:13:05.000Z</time>
      </trkpt>
      <trkpt lat="47.253" lon="-2.33208">
        <ele>16</ele>
        <time>2021-05-30T07:13:08.000Z</time>
      </trkpt>
      <trkpt lat="47.25294" lon="-2.33196">
        <ele>16</ele>
        <time>2021-05-30T07:13:10.000Z</time>
      </trkpt>
      <trkpt lat="47.25273" lon="-2.33154">
        <ele>16</ele>
        <time>2021-05-30T07:13:17.000Z</time>
      </trkpt>
      <trkpt lat="47.2525" lon="-2.33114">
        <ele>16</ele>
        <time>2021-05-30T07:13:24.000Z</time>
      </trkpt>
      <trkpt lat="47.25229" lon="-2.33072">
        <ele>16</ele>
        <time>2021-05-30T07:13:31.000Z</time>
      </trkpt>
      <trkpt lat="47.25226" lon="-2.33066">
        <ele>16.39999961853</ele>
        <time>2021-05-30T07:13:32.000Z</time>
      </trkpt>
      <trkpt lat="47.25223" lon="-2.3306">
        <ele>16.799999237061</ele>
        <time>2021-05-30T07:13:33.000Z</time>
      </trkpt>
      <trkpt lat="47.2522" lon="-2.33055">
        <ele>17.200000762939</ele>
        <time>2021-05-30T07:13:34.000Z</time>
      </trkpt>
      <trkpt lat="47.25217" lon="-2.33049">
        <ele>17.60000038147</ele>
        <time>2021-05-30T07:13:35.000Z</time>
      </trkpt>
      <trkpt lat="47.25214" lon="-2.33044">
        <ele>18</ele>
        <time>2021-05-30T07:13:36.000Z</time>
      </trkpt>
      <trkpt lat="47.25209" lon="-2.33035">
        <ele>18</ele>
        <time>2021-05-30T07:13:38.000Z</time>
      </trkpt>
      <trkpt lat="47.25202" lon="-2.33029">
        <ele>18</ele>
        <time>2021-05-30T07:13:41.000Z</time>
      </trkpt>
      <trkpt lat="47.252" lon="-2.33032">
        <ele>18</ele>
        <time>2021-05-30T07:13:42.000Z</time>
      </trkpt>
      <trkpt lat="47.25183" lon="-2.33048">
        <ele>18</ele>
        <time>2021-05-30T07:13:46.000Z</time>
      </trkpt>
      <trkpt lat="47.25159" lon="-2.33071">
        <ele>18</ele>
        <time>2021-05-30T07:13:51.000Z</time>
      </trkpt>
      <trkpt lat="47.25129" lon="-2.33087">
        <ele>18</ele>
        <time>2021-05-30T07:13:57.000Z</time>
      </trkpt>
      <trkpt lat="47.25114" lon="-2.33086">
        <ele>18</ele>
        <time>2021-05-30T07:14:01.000Z</time>
      </trkpt>
      <trkpt lat="47.25113" lon="-2.33082">
        <ele>18</ele>
        <time>2021-05-30T07:14:02.000Z</time>
      </trkpt>
      <trkpt lat="47.25115" lon="-2.33066">
        <ele>18</ele>
        <time>2021-05-30T07:14:05.000Z</time>
      </trkpt>
      <trkpt lat="47.25119" lon="-2.33055">
        <ele>18</ele>
        <time>2021-05-30T07:14:07.000Z</time>
      </trkpt>
      <trkpt lat="47.25129" lon="-2.33029">
        <ele>18</ele>
        <time>2021-05-30T07:14:11.000Z</time>
      </trkpt>
      <trkpt lat="47.25134" lon="-2.33009">
        <ele>18</ele>
        <time>2021-05-30T07:14:14.000Z</time>
      </trkpt>
      <trkpt lat="47.25133" lon="-2.32996">
        <ele>18</ele>
        <time>2021-05-30T07:14:16.000Z</time>
      </trkpt>
      <trkpt lat="47.25121" lon="-2.32978">
        <ele>18</ele>
        <time>2021-05-30T07:14:20.000Z</time>
      </trkpt>
      <trkpt lat="47.25118" lon="-2.32973">
        <ele>18</ele>
        <time>2021-05-30T07:14:21.000Z</time>
      </trkpt>
      <trkpt lat="47.25114" lon="-2.32967">
        <ele>18</ele>
        <time>2021-05-30T07:14:22.000Z</time>
      </trkpt>
      <trkpt lat="47.25105" lon="-2.32951">
        <ele>18</ele>
        <time>2021-05-30T07:14:25.000Z</time>
      </trkpt>
      <trkpt lat="47.25091" lon="-2.3293">
        <ele>18</ele>
        <time>2021-05-30T07:14:30.000Z</time>
      </trkpt>
      <trkpt lat="47.25086" lon="-2.32908">
        <ele>18</ele>
        <time>2021-05-30T07:14:34.000Z</time>
      </trkpt>
      <trkpt lat="47.25079" lon="-2.32889">
        <ele>18</ele>
        <time>2021-05-30T07:14:40.000Z</time>
      </trkpt>
      <trkpt lat="47.25079" lon="-2.32881">
        <ele>18</ele>
        <time>2021-05-30T07:14:42.000Z</time>
      </trkpt>
      <trkpt lat="47.25076" lon="-2.3287">
        <ele>18</ele>
        <time>2021-05-30T07:14:44.000Z</time>
      </trkpt>
      <trkpt lat="47.25075" lon="-2.32851">
        <ele>18</ele>
        <time>2021-05-30T07:14:48.000Z</time>
      </trkpt>
      <trkpt lat="47.25075" lon="-2.32848">
        <ele>18</ele>
        <time>2021-05-30T07:14:49.000Z</time>
      </trkpt>
      <trkpt lat="47.25074" lon="-2.32845">
        <ele>18</ele>
        <time>2021-05-30T07:14:50.000Z</time>
      </trkpt>
      <trkpt lat="47.25067" lon="-2.32839">
        <ele>18</ele>
        <time>2021-05-30T07:14:52.000Z</time>
      </trkpt>
      <trkpt lat="47.25052" lon="-2.32823">
        <ele>18.60000038147</ele>
        <time>2021-05-30T07:14:56.000Z</time>
      </trkpt>
      <trkpt lat="47.25048" lon="-2.32816">
        <ele>19</ele>
        <time>2021-05-30T07:14:57.000Z</time>
      </trkpt>
      <trkpt lat="47.25045" lon="-2.32809">
        <ele>19.39999961853</ele>
        <time>2021-05-30T07:14:58.000Z</time>
      </trkpt>
      <trkpt lat="47.25043" lon="-2.32801">
        <ele>19.799999237061</ele>
        <time>2021-05-30T07:14:59.000Z</time>
      </trkpt>
      <trkpt lat="47.25042" lon="-2.32793">
        <ele>20.200000762939</ele>
        <time>2021-05-30T07:15:00.000Z</time>
      </trkpt>
      <trkpt lat="47.25042" lon="-2.32787">
        <ele>20.200000762939</ele>
        <time>2021-05-30T07:15:01.000Z</time>
      </trkpt>
      <trkpt lat="47.25031" lon="-2.32761">
        <ele>20.200000762939</ele>
        <time>2021-05-30T07:15:06.000Z</time>
      </trkpt>
      <trkpt lat="47.25028" lon="-2.32758">
        <ele>20.200000762939</ele>
        <time>2021-05-30T07:15:07.000Z</time>
      </trkpt>
      <trkpt lat="47.25026" lon="-2.32747">
        <ele>20.200000762939</ele>
        <time>2021-05-30T07:15:10.000Z</time>
      </trkpt>
      <trkpt lat="47.25028" lon="-2.32743">
        <ele>20.200000762939</ele>
        <time>2021-05-30T07:15:11.000Z</time>
      </trkpt>
      <trkpt lat="47.2504" lon="-2.32729">
        <ele>20.200000762939</ele>
        <time>2021-05-30T07:15:15.000Z</time>
      </trkpt>
      <trkpt lat="47.25053" lon="-2.32718">
        <ele>21</ele>
        <time>2021-05-30T07:15:18.000Z</time>
      </trkpt>
      <trkpt lat="47.25058" lon="-2.32715">
        <ele>21.39999961853</ele>
        <time>2021-05-30T07:15:19.000Z</time>
      </trkpt>
      <trkpt lat="47.25062" lon="-2.32711">
        <ele>21.799999237061</ele>
        <time>2021-05-30T07:15:20.000Z</time>
      </trkpt>
      <trkpt lat="47.25067" lon="-2.32707">
        <ele>22.200000762939</ele>
        <time>2021-05-30T07:15:21.000Z</time>
      </trkpt>
      <trkpt lat="47.25083" lon="-2.32692">
        <ele>22.200000762939</ele>
        <time>2021-05-30T07:15:25.000Z</time>
      </trkpt>
      <trkpt lat="47.25086" lon="-2.32682">
        <ele>22.200000762939</ele>
        <time>2021-05-30T07:15:27.000Z</time>
      </trkpt>
      <trkpt lat="47.25078" lon="-2.32665">
        <ele>22.200000762939</ele>
        <time>2021-05-30T07:15:30.000Z</time>
      </trkpt>
      <trkpt lat="47.25073" lon="-2.32653">
        <ele>22.200000762939</ele>
        <time>2021-05-30T07:15:32.000Z</time>
      </trkpt>
      <trkpt lat="47.25068" lon="-2.32641">
        <ele>22.60000038147</ele>
        <time>2021-05-30T07:15:34.000Z</time>
      </trkpt>
      <trkpt lat="47.25064" lon="-2.32635">
        <ele>23</ele>
        <time>2021-05-30T07:15:35.000Z</time>
      </trkpt>
      <trkpt lat="47.25061" lon="-2.32629">
        <ele>23.39999961853</ele>
        <time>2021-05-30T07:15:36.000Z</time>
      </trkpt>
      <trkpt lat="47.25059" lon="-2.32624">
        <ele>23.799999237061</ele>
        <time>2021-05-30T07:15:37.000Z</time>
      </trkpt>
      <trkpt lat="47.25056" lon="-2.32617">
        <ele>24.200000762939</ele>
        <time>2021-05-30T07:15:38.000Z</time>
      </trkpt>
      <trkpt lat="47.25043" lon="-2.32589">
        <ele>24.799999237061</ele>
        <time>2021-05-30T07:15:43.000Z</time>
      </trkpt>
      <trkpt lat="47.2504" lon="-2.32583">
        <ele>25.200000762939</ele>
        <time>2021-05-30T07:15:44.000Z</time>
      </trkpt>
      <trkpt lat="47.25038" lon="-2.32577">
        <ele>25.799999237061</ele>
        <time>2021-05-30T07:15:45.000Z</time>
      </trkpt>
      <trkpt lat="47.25035" lon="-2.32571">
        <ele>26.200000762939</ele>
        <time>2021-05-30T07:15:46.000Z</time>
      </trkpt>
      <trkpt lat="47.25033" lon="-2.32566">
        <ele>26.799999237061</ele>
        <time>2021-05-30T07:15:47.000Z</time>
      </trkpt>
      <trkpt lat="47.25028" lon="-2.32547">
        <ele>26.799999237061</ele>
        <time>2021-05-30T07:15:50.000Z</time>
      </trkpt>
      <trkpt lat="47.25028" lon="-2.32533">
        <ele>26.799999237061</ele>
        <time>2021-05-30T07:15:52.000Z</time>
      </trkpt>
      <trkpt lat="47.25037" lon="-2.32513">
        <ele>26.799999237061</ele>
        <time>2021-05-30T07:15:56.000Z</time>
      </trkpt>
      <trkpt lat="47.25041" lon="-2.3251">
        <ele>27.200000762939</ele>
        <time>2021-05-30T07:15:57.000Z</time>
      </trkpt>
      <trkpt lat="47.25045" lon="-2.32507">
        <ele>27.60000038147</ele>
        <time>2021-05-30T07:15:58.000Z</time>
      </trkpt>
      <trkpt lat="47.25049" lon="-2.32505">
        <ele>28</ele>
        <time>2021-05-30T07:15:59.000Z</time>
      </trkpt>
      <trkpt lat="47.25053" lon="-2.32502">
        <ele>28.39999961853</ele>
        <time>2021-05-30T07:16:00.000Z</time>
      </trkpt>
      <trkpt lat="47.25057" lon="-2.325">
        <ele>28.799999237061</ele>
        <time>2021-05-30T07:16:01.000Z</time>
      </trkpt>
      <trkpt lat="47.25074" lon="-2.32492">
        <ele>29.200000762939</ele>
        <time>2021-05-30T07:16:05.000Z</time>
      </trkpt>
      <trkpt lat="47.25079" lon="-2.3249">
        <ele>29.60000038147</ele>
        <time>2021-05-30T07:16:06.000Z</time>
      </trkpt>
      <trkpt lat="47.25084" lon="-2.32487">
        <ele>30</ele>
        <time>2021-05-30T07:16:07.000Z</time>
      </trkpt>
      <trkpt lat="47.25089" lon="-2.32483">
        <ele>30.799999237061</ele>
        <time>2021-05-30T07:16:08.000Z</time>
      </trkpt>
      <trkpt lat="47.25093" lon="-2.3248">
        <ele>30.799999237061</ele>
        <time>2021-05-30T07:16:09.000Z</time>
      </trkpt>
      <trkpt lat="47.25102" lon="-2.3247">
        <ele>30.799999237061</ele>
        <time>2021-05-30T07:16:11.000Z</time>
      </trkpt>
      <trkpt lat="47.2511" lon="-2.32449">
        <ele>30.799999237061</ele>
        <time>2021-05-30T07:16:14.000Z</time>
      </trkpt>
      <trkpt lat="47.25109" lon="-2.3242">
        <ele>30.799999237061</ele>
        <time>2021-05-30T07:16:18.000Z</time>
      </trkpt>
      <trkpt lat="47.25107" lon="-2.324">
        <ele>31.200000762939</ele>
        <time>2021-05-30T07:16:21.000Z</time>
      </trkpt>
      <trkpt lat="47.25107" lon="-2.32393">
        <ele>31.60000038147</ele>
        <time>2021-05-30T07:16:22.000Z</time>
      </trkpt>
      <trkpt lat="47.25107" lon="-2.32386">
        <ele>32</ele>
        <time>2021-05-30T07:16:23.000Z</time>
      </trkpt>
      <trkpt lat="47.25107" lon="-2.3238">
        <ele>32.400001525879</ele>
        <time>2021-05-30T07:16:24.000Z</time>
      </trkpt>
      <trkpt lat="47.25108" lon="-2.32374">
        <ele>32.799999237061</ele>
        <time>2021-05-30T07:16:25.000Z</time>
      </trkpt>
      <trkpt lat="47.25109" lon="-2.32367">
        <ele>32.799999237061</ele>
        <time>2021-05-30T07:16:26.000Z</time>
      </trkpt>
      <trkpt lat="47.25119" lon="-2.32327">
        <ele>32.799999237061</ele>
        <time>2021-05-30T07:16:33.000Z</time>
      </trkpt>
      <trkpt lat="47.25122" lon="-2.32318">
        <ele>33.400001525879</ele>
        <time>2021-05-30T07:16:35.000Z</time>
      </trkpt>
      <trkpt lat="47.25124" lon="-2.32313">
        <ele>33.799999237061</ele>
        <time>2021-05-30T07:16:36.000Z</time>
      </trkpt>
      <trkpt lat="47.25126" lon="-2.32309">
        <ele>34.200000762939</ele>
        <time>2021-05-30T07:16:37.000Z</time>
      </trkpt>
      <trkpt lat="47.25128" lon="-2.32305">
        <ele>34.599998474121</ele>
        <time>2021-05-30T07:16:38.000Z</time>
      </trkpt>
      <trkpt lat="47.25131" lon="-2.32301">
        <ele>35</ele>
        <time>2021-05-30T07:16:39.000Z</time>
      </trkpt>
      <trkpt lat="47.25134" lon="-2.32286">
        <ele>35</ele>
        <time>2021-05-30T07:16:42.000Z</time>
      </trkpt>
      <trkpt lat="47.25134" lon="-2.32279">
        <ele>35</ele>
        <time>2021-05-30T07:16:43.000Z</time>
      </trkpt>
      <trkpt lat="47.25134" lon="-2.32273">
        <ele>35.400001525879</ele>
        <time>2021-05-30T07:16:44.000Z</time>
      </trkpt>
      <trkpt lat="47.25134" lon="-2.32267">
        <ele>36</ele>
        <time>2021-05-30T07:16:45.000Z</time>
      </trkpt>
      <trkpt lat="47.25133" lon="-2.32261">
        <ele>36.400001525879</ele>
        <time>2021-05-30T07:16:46.000Z</time>
      </trkpt>
      <trkpt lat="47.25133" lon="-2.32254">
        <ele>36.799999237061</ele>
        <time>2021-05-30T07:16:47.000Z</time>
      </trkpt>
      <trkpt lat="47.25132" lon="-2.32247">
        <ele>37.200000762939</ele>
        <time>2021-05-30T07:16:48.000Z</time>
      </trkpt>
      <trkpt lat="47.25132" lon="-2.32233">
        <ele>37.200000762939</ele>
        <time>2021-05-30T07:16:50.000Z</time>
      </trkpt>
      <trkpt lat="47.25131" lon="-2.32226">
        <ele>37.200000762939</ele>
        <time>2021-05-30T07:16:51.000Z</time>
      </trkpt>
      <trkpt lat="47.25128" lon="-2.32189">
        <ele>37.200000762939</ele>
        <time>2021-05-30T07:16:56.000Z</time>
      </trkpt>
      <trkpt lat="47.25122" lon="-2.32131">
        <ele>37.200000762939</ele>
        <time>2021-05-30T07:17:04.000Z</time>
      </trkpt>
      <trkpt lat="47.25116" lon="-2.32063">
        <ele>37.200000762939</ele>
        <time>2021-05-30T07:17:13.000Z</time>
      </trkpt>
      <trkpt lat="47.25112" lon="-2.32">
        <ele>37.200000762939</ele>
        <time>2021-05-30T07:17:21.000Z</time>
      </trkpt>
      <trkpt lat="47.2511" lon="-2.31986">
        <ele>37.200000762939</ele>
        <time>2021-05-30T07:17:23.000Z</time>
      </trkpt>
      <trkpt lat="47.25106" lon="-2.31964">
        <ele>37.200000762939</ele>
        <time>2021-05-30T07:17:26.000Z</time>
      </trkpt>
      <trkpt lat="47.25106" lon="-2.31955">
        <ele>37.599998474121</ele>
        <time>2021-05-30T07:17:27.000Z</time>
      </trkpt>
      <trkpt lat="47.25105" lon="-2.31947">
        <ele>38</ele>
        <time>2021-05-30T07:17:28.000Z</time>
      </trkpt>
      <trkpt lat="47.25105" lon="-2.31939">
        <ele>38.400001525879</ele>
        <time>2021-05-30T07:17:29.000Z</time>
      </trkpt>
      <trkpt lat="47.25104" lon="-2.31931">
        <ele>38.799999237061</ele>
        <time>2021-05-30T07:17:30.000Z</time>
      </trkpt>
      <trkpt lat="47.25103" lon="-2.31924">
        <ele>39.200000762939</ele>
        <time>2021-05-30T07:17:31.000Z</time>
      </trkpt>
      <trkpt lat="47.25096" lon="-2.31871">
        <ele>39.200000762939</ele>
        <time>2021-05-30T07:17:38.000Z</time>
      </trkpt>
      <trkpt lat="47.25089" lon="-2.31833">
        <ele>39.599998474121</ele>
        <time>2021-05-30T07:17:43.000Z</time>
      </trkpt>
      <trkpt lat="47.25088" lon="-2.31826">
        <ele>40</ele>
        <time>2021-05-30T07:17:44.000Z</time>
      </trkpt>
      <trkpt lat="47.25087" lon="-2.31818">
        <ele>40.799999237061</ele>
        <time>2021-05-30T07:17:45.000Z</time>
      </trkpt>
      <trkpt lat="47.25085" lon="-2.31811">
        <ele>41.200000762939</ele>
        <time>2021-05-30T07:17:46.000Z</time>
      </trkpt>
      <trkpt lat="47.25084" lon="-2.31804">
        <ele>41.200000762939</ele>
        <time>2021-05-30T07:17:47.000Z</time>
      </trkpt>
      <trkpt lat="47.25068" lon="-2.3174">
        <ele>41.200000762939</ele>
        <time>2021-05-30T07:17:56.000Z</time>
      </trkpt>
      <trkpt lat="47.25054" lon="-2.31686">
        <ele>41.200000762939</ele>
        <time>2021-05-30T07:18:04.000Z</time>
      </trkpt>
      <trkpt lat="47.25043" lon="-2.31651">
        <ele>41.200000762939</ele>
        <time>2021-05-30T07:18:11.000Z</time>
      </trkpt>
      <trkpt lat="47.25036" lon="-2.31638">
        <ele>41.200000762939</ele>
        <time>2021-05-30T07:18:15.000Z</time>
      </trkpt>
      <trkpt lat="47.25026" lon="-2.31626">
        <ele>41.200000762939</ele>
        <time>2021-05-30T07:18:18.000Z</time>
      </trkpt>
      <trkpt lat="47.25018" lon="-2.31619">
        <ele>41.200000762939</ele>
        <time>2021-05-30T07:18:20.000Z</time>
      </trkpt>
      <trkpt lat="47.25006" lon="-2.31606">
        <ele>41.599998474121</ele>
        <time>2021-05-30T07:18:23.000Z</time>
      </trkpt>
      <trkpt lat="47.25002" lon="-2.31601">
        <ele>42</ele>
        <time>2021-05-30T07:18:24.000Z</time>
      </trkpt>
      <trkpt lat="47.24999" lon="-2.31598">
        <ele>42.599998474121</ele>
        <time>2021-05-30T07:18:25.000Z</time>
      </trkpt>
      <trkpt lat="47.24995" lon="-2.31593">
        <ele>43</ele>
        <time>2021-05-30T07:18:26.000Z</time>
      </trkpt>
      <trkpt lat="47.24991" lon="-2.31589">
        <ele>43.400001525879</ele>
        <time>2021-05-30T07:18:27.000Z</time>
      </trkpt>
      <trkpt lat="47.24972" lon="-2.31563">
        <ele>43.400001525879</ele>
        <time>2021-05-30T07:18:32.000Z</time>
      </trkpt>
      <trkpt lat="47.24969" lon="-2.31555">
        <ele>43.400001525879</ele>
        <time>2021-05-30T07:18:33.000Z</time>
      </trkpt>
      <trkpt lat="47.24966" lon="-2.3154">
        <ele>43.400001525879</ele>
        <time>2021-05-30T07:18:35.000Z</time>
      </trkpt>
      <trkpt lat="47.24962" lon="-2.31511">
        <ele>43.400001525879</ele>
        <time>2021-05-30T07:18:39.000Z</time>
      </trkpt>
      <trkpt lat="47.2496" lon="-2.31497">
        <ele>43.400001525879</ele>
        <time>2021-05-30T07:18:41.000Z</time>
      </trkpt>
      <trkpt lat="47.24959" lon="-2.31462">
        <ele>43.400001525879</ele>
        <time>2021-05-30T07:18:46.000Z</time>
      </trkpt>
      <trkpt lat="47.24956" lon="-2.31431">
        <ele>43.799999237061</ele>
        <time>2021-05-30T07:18:50.000Z</time>
      </trkpt>
      <trkpt lat="47.24955" lon="-2.31423">
        <ele>44.200000762939</ele>
        <time>2021-05-30T07:18:51.000Z</time>
      </trkpt>
      <trkpt lat="47.24953" lon="-2.31416">
        <ele>44.599998474121</ele>
        <time>2021-05-30T07:18:52.000Z</time>
      </trkpt>
      <trkpt lat="47.24951" lon="-2.31409">
        <ele>45</ele>
        <time>2021-05-30T07:18:53.000Z</time>
      </trkpt>
      <trkpt lat="47.2495" lon="-2.31401">
        <ele>45.400001525879</ele>
        <time>2021-05-30T07:18:54.000Z</time>
      </trkpt>
      <trkpt lat="47.24937" lon="-2.31357">
        <ele>45.400001525879</ele>
        <time>2021-05-30T07:19:00.000Z</time>
      </trkpt>
      <trkpt lat="47.24922" lon="-2.31309">
        <ele>45.400001525879</ele>
        <time>2021-05-30T07:19:07.000Z</time>
      </trkpt>
      <trkpt lat="47.24915" lon="-2.31283">
        <ele>45.400001525879</ele>
        <time>2021-05-30T07:19:12.000Z</time>
      </trkpt>
      <trkpt lat="47.24903" lon="-2.31236">
        <ele>45.400001525879</ele>
        <time>2021-05-30T07:19:19.000Z</time>
      </trkpt>
      <trkpt lat="47.24885" lon="-2.3117">
        <ele>45.400001525879</ele>
        <time>2021-05-30T07:19:28.000Z</time>
      </trkpt>
      <trkpt lat="47.24883" lon="-2.31163">
        <ele>45.799999237061</ele>
        <time>2021-05-30T07:19:29.000Z</time>
      </trkpt>
      <trkpt lat="47.24881" lon="-2.31155">
        <ele>46.200000762939</ele>
        <time>2021-05-30T07:19:30.000Z</time>
      </trkpt>
      <trkpt lat="47.24879" lon="-2.31148">
        <ele>46.599998474121</ele>
        <time>2021-05-30T07:19:31.000Z</time>
      </trkpt>
      <trkpt lat="47.24876" lon="-2.31141">
        <ele>47</ele>
        <time>2021-05-30T07:19:32.000Z</time>
      </trkpt>
      <trkpt lat="47.24874" lon="-2.31133">
        <ele>47.400001525879</ele>
        <time>2021-05-30T07:19:33.000Z</time>
      </trkpt>
      <trkpt lat="47.2486" lon="-2.31081">
        <ele>47.400001525879</ele>
        <time>2021-05-30T07:19:40.000Z</time>
      </trkpt>
      <trkpt lat="47.24841" lon="-2.31032">
        <ele>47.400001525879</ele>
        <time>2021-05-30T07:19:47.000Z</time>
      </trkpt>
      <trkpt lat="47.24821" lon="-2.30982">
        <ele>47.400001525879</ele>
        <time>2021-05-30T07:19:55.000Z</time>
      </trkpt>
      <trkpt lat="47.2481" lon="-2.30968">
        <ele>47.400001525879</ele>
        <time>2021-05-30T07:19:59.000Z</time>
      </trkpt>
      <trkpt lat="47.24791" lon="-2.30978">
        <ele>47.400001525879</ele>
        <time>2021-05-30T07:20:03.000Z</time>
      </trkpt>
      <trkpt lat="47.24779" lon="-2.30985">
        <ele>47.400001525879</ele>
        <time>2021-05-30T07:20:05.000Z</time>
      </trkpt>
      <trkpt lat="47.24766" lon="-2.30991">
        <ele>47.400001525879</ele>
        <time>2021-05-30T07:20:07.000Z</time>
      </trkpt>
      <trkpt lat="47.24744" lon="-2.31001">
        <ele>47.400001525879</ele>
        <time>2021-05-30T07:20:10.000Z</time>
      </trkpt>
      <trkpt lat="47.2473" lon="-2.31011">
        <ele>47.400001525879</ele>
        <time>2021-05-30T07:20:12.000Z</time>
      </trkpt>
      <trkpt lat="47.24723" lon="-2.3102">
        <ele>46.400001525879</ele>
        <time>2021-05-30T07:20:13.000Z</time>
      </trkpt>
      <trkpt lat="47.24718" lon="-2.31028">
        <ele>46</ele>
        <time>2021-05-30T07:20:14.000Z</time>
      </trkpt>
      <trkpt lat="47.24712" lon="-2.31037">
        <ele>45.599998474121</ele>
        <time>2021-05-30T07:20:15.000Z</time>
      </trkpt>
      <trkpt lat="47.24708" lon="-2.31046">
        <ele>45</ele>
        <time>2021-05-30T07:20:16.000Z</time>
      </trkpt>
      <trkpt lat="47.24691" lon="-2.31079">
        <ele>44.599998474121</ele>
        <time>2021-05-30T07:20:20.000Z</time>
      </trkpt>
      <trkpt lat="47.24687" lon="-2.31087">
        <ele>44.200000762939</ele>
        <time>2021-05-30T07:20:21.000Z</time>
      </trkpt>
      <trkpt lat="47.24683" lon="-2.31094">
        <ele>43.799999237061</ele>
        <time>2021-05-30T07:20:22.000Z</time>
      </trkpt>
      <trkpt lat="47.24679" lon="-2.31101">
        <ele>43.400001525879</ele>
        <time>2021-05-30T07:20:23.000Z</time>
      </trkpt>
      <trkpt lat="47.24675" lon="-2.31108">
        <ele>43</ele>
        <time>2021-05-30T07:20:24.000Z</time>
      </trkpt>
      <trkpt lat="47.24672" lon="-2.31115">
        <ele>43</ele>
        <time>2021-05-30T07:20:25.000Z</time>
      </trkpt>
      <trkpt lat="47.24666" lon="-2.3113">
        <ele>43</ele>
        <time>2021-05-30T07:20:27.000Z</time>
      </trkpt>
      <trkpt lat="47.24662" lon="-2.31138">
        <ele>43</ele>
        <time>2021-05-30T07:20:28.000Z</time>
      </trkpt>
      <trkpt lat="47.24649" lon="-2.31157">
        <ele>43</ele>
        <time>2021-05-30T07:20:31.000Z</time>
      </trkpt>
      <trkpt lat="47.24615" lon="-2.31195">
        <ele>43</ele>
        <time>2021-05-30T07:20:38.000Z</time>
      </trkpt>
      <trkpt lat="47.24581" lon="-2.31231">
        <ele>43</ele>
        <time>2021-05-30T07:20:45.000Z</time>
      </trkpt>
      <trkpt lat="47.24549" lon="-2.31266">
        <ele>43</ele>
        <time>2021-05-30T07:20:52.000Z</time>
      </trkpt>
      <trkpt lat="47.24544" lon="-2.31271">
        <ele>43</ele>
        <time>2021-05-30T07:20:53.000Z</time>
      </trkpt>
      <trkpt lat="47.24528" lon="-2.31284">
        <ele>43</ele>
        <time>2021-05-30T07:20:56.000Z</time>
      </trkpt>
      <trkpt lat="47.24523" lon="-2.31289">
        <ele>43</ele>
        <time>2021-05-30T07:20:57.000Z</time>
      </trkpt>
      <trkpt lat="47.24496" lon="-2.31311">
        <ele>42.599998474121</ele>
        <time>2021-05-30T07:21:02.000Z</time>
      </trkpt>
      <trkpt lat="47.24491" lon="-2.31313">
        <ele>41.799999237061</ele>
        <time>2021-05-30T07:21:03.000Z</time>
      </trkpt>
      <trkpt lat="47.24487" lon="-2.31312">
        <ele>41.400001525879</ele>
        <time>2021-05-30T07:21:04.000Z</time>
      </trkpt>
      <trkpt lat="47.24482" lon="-2.3131">
        <ele>40.799999237061</ele>
        <time>2021-05-30T07:21:05.000Z</time>
      </trkpt>
      <trkpt lat="47.24471" lon="-2.3129">
        <ele>40.400001525879</ele>
        <time>2021-05-30T07:21:08.000Z</time>
      </trkpt>
      <trkpt lat="47.24469" lon="-2.31282">
        <ele>40</ele>
        <time>2021-05-30T07:21:09.000Z</time>
      </trkpt>
      <trkpt lat="47.24465" lon="-2.31274">
        <ele>39.599998474121</ele>
        <time>2021-05-30T07:21:10.000Z</time>
      </trkpt>
      <trkpt lat="47.24462" lon="-2.31266">
        <ele>39.200000762939</ele>
        <time>2021-05-30T07:21:11.000Z</time>
      </trkpt>
      <trkpt lat="47.24459" lon="-2.31259">
        <ele>38.799999237061</ele>
        <time>2021-05-30T07:21:12.000Z</time>
      </trkpt>
      <trkpt lat="47.24456" lon="-2.31251">
        <ele>38.799999237061</ele>
        <time>2021-05-30T07:21:13.000Z</time>
      </trkpt>
      <trkpt lat="47.24451" lon="-2.31236">
        <ele>38.799999237061</ele>
        <time>2021-05-30T07:21:15.000Z</time>
      </trkpt>
      <trkpt lat="47.24446" lon="-2.31228">
        <ele>38.799999237061</ele>
        <time>2021-05-30T07:21:17.000Z</time>
      </trkpt>
      <trkpt lat="47.24441" lon="-2.31224">
        <ele>38.400001525879</ele>
        <time>2021-05-30T07:21:19.000Z</time>
      </trkpt>
      <trkpt lat="47.24439" lon="-2.31224">
        <ele>38</ele>
        <time>2021-05-30T07:21:20.000Z</time>
      </trkpt>
      <trkpt lat="47.24437" lon="-2.31224">
        <ele>37.400001525879</ele>
        <time>2021-05-30T07:21:21.000Z</time>
      </trkpt>
      <trkpt lat="47.24435" lon="-2.31225">
        <ele>37</ele>
        <time>2021-05-30T07:21:22.000Z</time>
      </trkpt>
      <trkpt lat="47.24433" lon="-2.31226">
        <ele>36.599998474121</ele>
        <time>2021-05-30T07:21:23.000Z</time>
      </trkpt>
      <trkpt lat="47.24431" lon="-2.31226">
        <ele>36</ele>
        <time>2021-05-30T07:21:24.000Z</time>
      </trkpt>
      <trkpt lat="47.24428" lon="-2.31224">
        <ele>35.599998474121</ele>
        <time>2021-05-30T07:21:25.000Z</time>
      </trkpt>
      <trkpt lat="47.24427" lon="-2.31221">
        <ele>35.200000762939</ele>
        <time>2021-05-30T07:21:26.000Z</time>
      </trkpt>
      <trkpt lat="47.24425" lon="-2.31216">
        <ele>34.400001525879</ele>
        <time>2021-05-30T07:21:27.000Z</time>
      </trkpt>
      <trkpt lat="47.24418" lon="-2.31199">
        <ele>34.400001525879</ele>
        <time>2021-05-30T07:21:31.000Z</time>
      </trkpt>
      <trkpt lat="47.24414" lon="-2.3119">
        <ele>34.799999237061</ele>
        <time>2021-05-30T07:21:34.000Z</time>
      </trkpt>
      <trkpt lat="47.24412" lon="-2.31187">
        <ele>35.200000762939</ele>
        <time>2021-05-30T07:21:35.000Z</time>
      </trkpt>
      <trkpt lat="47.2441" lon="-2.31184">
        <ele>35.799999237061</ele>
        <time>2021-05-30T07:21:36.000Z</time>
      </trkpt>
      <trkpt lat="47.24407" lon="-2.31181">
        <ele>36.200000762939</ele>
        <time>2021-05-30T07:21:37.000Z</time>
      </trkpt>
      <trkpt lat="47.24403" lon="-2.31178">
        <ele>36.599998474121</ele>
        <time>2021-05-30T07:21:38.000Z</time>
      </trkpt>
      <trkpt lat="47.24388" lon="-2.31164">
        <ele>36.599998474121</ele>
        <time>2021-05-30T07:21:41.000Z</time>
      </trkpt>
      <trkpt lat="47.2438" lon="-2.31155">
        <ele>37</ele>
        <time>2021-05-30T07:21:43.000Z</time>
      </trkpt>
      <trkpt lat="47.24376" lon="-2.3115">
        <ele>37.599998474121</ele>
        <time>2021-05-30T07:21:44.000Z</time>
      </trkpt>
      <trkpt lat="47.24373" lon="-2.31144">
        <ele>38</ele>
        <time>2021-05-30T07:21:45.000Z</time>
      </trkpt>
      <trkpt lat="47.2437" lon="-2.31139">
        <ele>38.400001525879</ele>
        <time>2021-05-30T07:21:46.000Z</time>
      </trkpt>
      <trkpt lat="47.24367" lon="-2.31134">
        <ele>38.799999237061</ele>
        <time>2021-05-30T07:21:47.000Z</time>
      </trkpt>
      <trkpt lat="47.24357" lon="-2.31111">
        <ele>38.799999237061</ele>
        <time>2021-05-30T07:21:51.000Z</time>
      </trkpt>
      <trkpt lat="47.24354" lon="-2.311">
        <ele>38.799999237061</ele>
        <time>2021-05-30T07:21:53.000Z</time>
      </trkpt>
      <trkpt lat="47.24352" lon="-2.31094">
        <ele>38.799999237061</ele>
        <time>2021-05-30T07:21:54.000Z</time>
      </trkpt>
      <trkpt lat="47.24342" lon="-2.31065">
        <ele>38.799999237061</ele>
        <time>2021-05-30T07:21:59.000Z</time>
      </trkpt>
      <trkpt lat="47.24333" lon="-2.31046">
        <ele>38.799999237061</ele>
        <time>2021-05-30T07:22:03.000Z</time>
      </trkpt>
      <trkpt lat="47.24326" lon="-2.31038">
        <ele>38.799999237061</ele>
        <time>2021-05-30T07:22:05.000Z</time>
      </trkpt>
      <trkpt lat="47.24304" lon="-2.31036">
        <ele>38.799999237061</ele>
        <time>2021-05-30T07:22:09.000Z</time>
      </trkpt>
      <trkpt lat="47.24288" lon="-2.31035">
        <ele>38.799999237061</ele>
        <time>2021-05-30T07:22:12.000Z</time>
      </trkpt>
      <trkpt lat="47.24284" lon="-2.31034">
        <ele>38.400001525879</ele>
        <time>2021-05-30T07:22:13.000Z</time>
      </trkpt>
      <trkpt lat="47.24281" lon="-2.31031">
        <ele>38</ele>
        <time>2021-05-30T07:22:14.000Z</time>
      </trkpt>
      <trkpt lat="47.2428" lon="-2.31026">
        <ele>37.599998474121</ele>
        <time>2021-05-30T07:22:15.000Z</time>
      </trkpt>
      <trkpt lat="47.24279" lon="-2.31021">
        <ele>37</ele>
        <time>2021-05-30T07:22:16.000Z</time>
      </trkpt>
      <trkpt lat="47.2428" lon="-2.31015">
        <ele>36.599998474121</ele>
        <time>2021-05-30T07:22:17.000Z</time>
      </trkpt>
      <trkpt lat="47.24283" lon="-2.30997">
        <ele>36.599998474121</ele>
        <time>2021-05-30T07:22:20.000Z</time>
      </trkpt>
      <trkpt lat="47.24286" lon="-2.30979">
        <ele>36.599998474121</ele>
        <time>2021-05-30T07:22:23.000Z</time>
      </trkpt>
      <trkpt lat="47.24287" lon="-2.30967">
        <ele>37</ele>
        <time>2021-05-30T07:22:25.000Z</time>
      </trkpt>
      <trkpt lat="47.24287" lon="-2.30962">
        <ele>37.599998474121</ele>
        <time>2021-05-30T07:22:26.000Z</time>
      </trkpt>
      <trkpt lat="47.24288" lon="-2.30957">
        <ele>38</ele>
        <time>2021-05-30T07:22:27.000Z</time>
      </trkpt>
      <trkpt lat="47.24288" lon="-2.30952">
        <ele>38.400001525879</ele>
        <time>2021-05-30T07:22:28.000Z</time>
      </trkpt>
      <trkpt lat="47.24289" lon="-2.30947">
        <ele>38.799999237061</ele>
        <time>2021-05-30T07:22:29.000Z</time>
      </trkpt>
      <trkpt lat="47.2429" lon="-2.30935">
        <ele>39.200000762939</ele>
        <time>2021-05-30T07:22:31.000Z</time>
      </trkpt>
      <trkpt lat="47.24291" lon="-2.30929">
        <ele>39.799999237061</ele>
        <time>2021-05-30T07:22:32.000Z</time>
      </trkpt>
      <trkpt lat="47.24291" lon="-2.30924">
        <ele>40.200000762939</ele>
        <time>2021-05-30T07:22:33.000Z</time>
      </trkpt>
      <trkpt lat="47.24291" lon="-2.30918">
        <ele>40.799999237061</ele>
        <time>2021-05-30T07:22:34.000Z</time>
      </trkpt>
      <trkpt lat="47.24291" lon="-2.30912">
        <ele>41.200000762939</ele>
        <time>2021-05-30T07:22:35.000Z</time>
      </trkpt>
      <trkpt lat="47.2429" lon="-2.30906">
        <ele>41.200000762939</ele>
        <time>2021-05-30T07:22:36.000Z</time>
      </trkpt>
      <trkpt lat="47.24287" lon="-2.3088">
        <ele>41.599998474121</ele>
        <time>2021-05-30T07:22:40.000Z</time>
      </trkpt>
      <trkpt lat="47.24286" lon="-2.30874">
        <ele>42.400001525879</ele>
        <time>2021-05-30T07:22:41.000Z</time>
      </trkpt>
      <trkpt lat="47.24285" lon="-2.30867">
        <ele>42.799999237061</ele>
        <time>2021-05-30T07:22:42.000Z</time>
      </trkpt>
      <trkpt lat="47.24285" lon="-2.3086">
        <ele>43.200000762939</ele>
        <time>2021-05-30T07:22:43.000Z</time>
      </trkpt>
      <trkpt lat="47.24287" lon="-2.30842">
        <ele>43.200000762939</ele>
        <time>2021-05-30T07:22:46.000Z</time>
      </trkpt>
      <trkpt lat="47.24294" lon="-2.30825">
        <ele>43.200000762939</ele>
        <time>2021-05-30T07:22:49.000Z</time>
      </trkpt>
      <trkpt lat="47.24301" lon="-2.30816">
        <ele>43.200000762939</ele>
        <time>2021-05-30T07:22:51.000Z</time>
      </trkpt>
      <trkpt lat="47.24304" lon="-2.30813">
        <ele>43.599998474121</ele>
        <time>2021-05-30T07:22:52.000Z</time>
      </trkpt>
      <trkpt lat="47.24308" lon="-2.3081">
        <ele>44</ele>
        <time>2021-05-30T07:22:53.000Z</time>
      </trkpt>
      <trkpt lat="47.24312" lon="-2.30807">
        <ele>44.599998474121</ele>
        <time>2021-05-30T07:22:54.000Z</time>
      </trkpt>
      <trkpt lat="47.24315" lon="-2.30804">
        <ele>45</ele>
        <time>2021-05-30T07:22:55.000Z</time>
      </trkpt>
      <trkpt lat="47.24319" lon="-2.30801">
        <ele>45.400001525879</ele>
        <time>2021-05-30T07:22:56.000Z</time>
      </trkpt>
      <trkpt lat="47.24323" lon="-2.30799">
        <ele>45.400001525879</ele>
        <time>2021-05-30T07:22:57.000Z</time>
      </trkpt>
      <trkpt lat="47.24351" lon="-2.30791">
        <ele>45.400001525879</ele>
        <time>2021-05-30T07:23:03.000Z</time>
      </trkpt>
      <trkpt lat="47.24364" lon="-2.30785">
        <ele>46.200000762939</ele>
        <time>2021-05-30T07:23:06.000Z</time>
      </trkpt>
      <trkpt lat="47.24367" lon="-2.30782">
        <ele>46.599998474121</ele>
        <time>2021-05-30T07:23:07.000Z</time>
      </trkpt>
      <trkpt lat="47.24371" lon="-2.30779">
        <ele>47.200000762939</ele>
        <time>2021-05-30T07:23:08.000Z</time>
      </trkpt>
      <trkpt lat="47.24374" lon="-2.30775">
        <ele>47.599998474121</ele>
        <time>2021-05-30T07:23:09.000Z</time>
      </trkpt>
      <trkpt lat="47.24377" lon="-2.30771">
        <ele>47.599998474121</ele>
        <time>2021-05-30T07:23:10.000Z</time>
      </trkpt>
      <trkpt lat="47.24385" lon="-2.3076">
        <ele>48</ele>
        <time>2021-05-30T07:23:13.000Z</time>
      </trkpt>
      <trkpt lat="47.24387" lon="-2.30757">
        <ele>48.400001525879</ele>
        <time>2021-05-30T07:23:14.000Z</time>
      </trkpt>
      <trkpt lat="47.2439" lon="-2.30754">
        <ele>49</ele>
        <time>2021-05-30T07:23:15.000Z</time>
      </trkpt>
      <trkpt lat="47.24392" lon="-2.30751">
        <ele>49.400001525879</ele>
        <time>2021-05-30T07:23:16.000Z</time>
      </trkpt>
      <trkpt lat="47.24394" lon="-2.30748">
        <ele>49.799999237061</ele>
        <time>2021-05-30T07:23:17.000Z</time>
      </trkpt>
      <trkpt lat="47.24396" lon="-2.30735">
        <ele>49.799999237061</ele>
        <time>2021-05-30T07:23:20.000Z</time>
      </trkpt>
      <trkpt lat="47.24401" lon="-2.307">
        <ele>49.799999237061</ele>
        <time>2021-05-30T07:23:26.000Z</time>
      </trkpt>
      <trkpt lat="47.24414" lon="-2.30654">
        <ele>49.799999237061</ele>
        <time>2021-05-30T07:23:34.000Z</time>
      </trkpt>
      <trkpt lat="47.24417" lon="-2.30642">
        <ele>49.799999237061</ele>
        <time>2021-05-30T07:23:36.000Z</time>
      </trkpt>
      <trkpt lat="47.24425" lon="-2.30626">
        <ele>49.799999237061</ele>
        <time>2021-05-30T07:23:39.000Z</time>
      </trkpt>
      <trkpt lat="47.24447" lon="-2.30597">
        <ele>49.799999237061</ele>
        <time>2021-05-30T07:23:45.000Z</time>
      </trkpt>
      <trkpt lat="47.24465" lon="-2.30571">
        <ele>49.799999237061</ele>
        <time>2021-05-30T07:23:49.000Z</time>
      </trkpt>
      <trkpt lat="47.24468" lon="-2.30564">
        <ele>49.799999237061</ele>
        <time>2021-05-30T07:23:50.000Z</time>
      </trkpt>
      <trkpt lat="47.24468" lon="-2.30547">
        <ele>49.799999237061</ele>
        <time>2021-05-30T07:23:53.000Z</time>
      </trkpt>
      <trkpt lat="47.2446" lon="-2.30545">
        <ele>49</ele>
        <time>2021-05-30T07:23:56.000Z</time>
      </trkpt>
      <trkpt lat="47.24457" lon="-2.30548">
        <ele>48.599998474121</ele>
        <time>2021-05-30T07:23:57.000Z</time>
      </trkpt>
      <trkpt lat="47.24452" lon="-2.30551">
        <ele>48</ele>
        <time>2021-05-30T07:23:58.000Z</time>
      </trkpt>
      <trkpt lat="47.24448" lon="-2.30556">
        <ele>47.599998474121</ele>
        <time>2021-05-30T07:23:59.000Z</time>
      </trkpt>
      <trkpt lat="47.24444" lon="-2.30561">
        <ele>47.599998474121</ele>
        <time>2021-05-30T07:24:00.000Z</time>
      </trkpt>
      <trkpt lat="47.24434" lon="-2.3057">
        <ele>47.599998474121</ele>
        <time>2021-05-30T07:24:02.000Z</time>
      </trkpt>
      <trkpt lat="47.24424" lon="-2.30577">
        <ele>47.200000762939</ele>
        <time>2021-05-30T07:24:04.000Z</time>
      </trkpt>
      <trkpt lat="47.24419" lon="-2.3058">
        <ele>46.799999237061</ele>
        <time>2021-05-30T07:24:05.000Z</time>
      </trkpt>
      <trkpt lat="47.24413" lon="-2.30582">
        <ele>46.400001525879</ele>
        <time>2021-05-30T07:24:06.000Z</time>
      </trkpt>
      <trkpt lat="47.24408" lon="-2.30583">
        <ele>46</ele>
        <time>2021-05-30T07:24:07.000Z</time>
      </trkpt>
      <trkpt lat="47.24402" lon="-2.30583">
        <ele>45.599998474121</ele>
        <time>2021-05-30T07:24:08.000Z</time>
      </trkpt>
      <trkpt lat="47.24397" lon="-2.30582">
        <ele>45.599998474121</ele>
        <time>2021-05-30T07:24:09.000Z</time>
      </trkpt>
      <trkpt lat="47.24391" lon="-2.30579">
        <ele>45.599998474121</ele>
        <time>2021-05-30T07:24:10.000Z</time>
      </trkpt>
      <trkpt lat="47.2438" lon="-2.30573">
        <ele>45.599998474121</ele>
        <time>2021-05-30T07:24:12.000Z</time>
      </trkpt>
      <trkpt lat="47.2437" lon="-2.30563">
        <ele>45.599998474121</ele>
        <time>2021-05-30T07:24:14.000Z</time>
      </trkpt>
      <trkpt lat="47.24357" lon="-2.30547">
        <ele>45.599998474121</ele>
        <time>2021-05-30T07:24:17.000Z</time>
      </trkpt>
      <trkpt lat="47.2435" lon="-2.30533">
        <ele>45.599998474121</ele>
        <time>2021-05-30T07:24:19.000Z</time>
      </trkpt>
      <trkpt lat="47.24353" lon="-2.30499">
        <ele>45.599998474121</ele>
        <time>2021-05-30T07:24:23.000Z</time>
      </trkpt>
      <trkpt lat="47.24355" lon="-2.30492">
        <ele>46</ele>
        <time>2021-05-30T07:24:24.000Z</time>
      </trkpt>
      <trkpt lat="47.24358" lon="-2.30485">
        <ele>46.599998474121</ele>
        <time>2021-05-30T07:24:25.000Z</time>
      </trkpt>
      <trkpt lat="47.24361" lon="-2.30478">
        <ele>47</ele>
        <time>2021-05-30T07:24:26.000Z</time>
      </trkpt>
      <trkpt lat="47.24364" lon="-2.30471">
        <ele>47.400001525879</ele>
        <time>2021-05-30T07:24:27.000Z</time>
      </trkpt>
      <trkpt lat="47.24367" lon="-2.30464">
        <ele>48</ele>
        <time>2021-05-30T07:24:28.000Z</time>
      </trkpt>
      <trkpt lat="47.24368" lon="-2.30455">
        <ele>48</ele>
        <time>2021-05-30T07:24:30.000Z</time>
      </trkpt>
      <trkpt lat="47.24367" lon="-2.30452">
        <ele>48.400001525879</ele>
        <time>2021-05-30T07:24:31.000Z</time>
      </trkpt>
      <trkpt lat="47.24365" lon="-2.30451">
        <ele>48.799999237061</ele>
        <time>2021-05-30T07:24:32.000Z</time>
      </trkpt>
      <trkpt lat="47.24363" lon="-2.30451">
        <ele>49.200000762939</ele>
        <time>2021-05-30T07:24:33.000Z</time>
      </trkpt>
      <trkpt lat="47.2436" lon="-2.30452">
        <ele>49.599998474121</ele>
        <time>2021-05-30T07:24:34.000Z</time>
      </trkpt>
      <trkpt lat="47.24357" lon="-2.30453">
        <ele>50</ele>
        <time>2021-05-30T07:24:35.000Z</time>
      </trkpt>
      <trkpt lat="47.2435" lon="-2.30452">
        <ele>50</ele>
        <time>2021-05-30T07:24:37.000Z</time>
      </trkpt>
      <trkpt lat="47.24347" lon="-2.30451">
        <ele>50</ele>
        <time>2021-05-30T07:24:38.000Z</time>
      </trkpt>
      <trkpt lat="47.24336" lon="-2.30445">
        <ele>50</ele>
        <time>2021-05-30T07:24:41.000Z</time>
      </trkpt>
      <trkpt lat="47.24327" lon="-2.30439">
        <ele>50</ele>
        <time>2021-05-30T07:24:43.000Z</time>
      </trkpt>
      <trkpt lat="47.24322" lon="-2.30436">
        <ele>50</ele>
        <time>2021-05-30T07:24:44.000Z</time>
      </trkpt>
      <trkpt lat="47.24318" lon="-2.30433">
        <ele>50.400001525879</ele>
        <time>2021-05-30T07:24:45.000Z</time>
      </trkpt>
      <trkpt lat="47.24314" lon="-2.3043">
        <ele>50.799999237061</ele>
        <time>2021-05-30T07:24:46.000Z</time>
      </trkpt>
      <trkpt lat="47.2431" lon="-2.30428">
        <ele>51.200000762939</ele>
        <time>2021-05-30T07:24:47.000Z</time>
      </trkpt>
      <trkpt lat="47.24306" lon="-2.30426">
        <ele>51.599998474121</ele>
        <time>2021-05-30T07:24:48.000Z</time>
      </trkpt>
      <trkpt lat="47.24302" lon="-2.30424">
        <ele>52</ele>
        <time>2021-05-30T07:24:49.000Z</time>
      </trkpt>
      <trkpt lat="47.24285" lon="-2.30412">
        <ele>52</ele>
        <time>2021-05-30T07:24:54.000Z</time>
      </trkpt>
      <trkpt lat="47.24267" lon="-2.30387">
        <ele>52</ele>
        <time>2021-05-30T07:24:59.000Z</time>
      </trkpt>
      <trkpt lat="47.24244" lon="-2.30341">
        <ele>52.400001525879</ele>
        <time>2021-05-30T07:25:06.000Z</time>
      </trkpt>
      <trkpt lat="47.24241" lon="-2.30335">
        <ele>52.799999237061</ele>
        <time>2021-05-30T07:25:07.000Z</time>
      </trkpt>
      <trkpt lat="47.24237" lon="-2.3033">
        <ele>53.200000762939</ele>
        <time>2021-05-30T07:25:08.000Z</time>
      </trkpt>
      <trkpt lat="47.24234" lon="-2.30328">
        <ele>53.599998474121</ele>
        <time>2021-05-30T07:25:09.000Z</time>
      </trkpt>
      <trkpt lat="47.2423" lon="-2.30329">
        <ele>54</ele>
        <time>2021-05-30T07:25:10.000Z</time>
      </trkpt>
      <trkpt lat="47.24216" lon="-2.30336">
        <ele>53.599998474121</ele>
        <time>2021-05-30T07:25:13.000Z</time>
      </trkpt>
      <trkpt lat="47.24212" lon="-2.30335">
        <ele>53</ele>
        <time>2021-05-30T07:25:14.000Z</time>
      </trkpt>
      <trkpt lat="47.24209" lon="-2.30332">
        <ele>52.599998474121</ele>
        <time>2021-05-30T07:25:15.000Z</time>
      </trkpt>
      <trkpt lat="47.24206" lon="-2.30328">
        <ele>52</ele>
        <time>2021-05-30T07:25:16.000Z</time>
      </trkpt>
      <trkpt lat="47.24204" lon="-2.30322">
        <ele>51.400001525879</ele>
        <time>2021-05-30T07:25:17.000Z</time>
      </trkpt>
      <trkpt lat="47.24202" lon="-2.30315">
        <ele>50.799999237061</ele>
        <time>2021-05-30T07:25:18.000Z</time>
      </trkpt>
      <trkpt lat="47.242" lon="-2.30306">
        <ele>50.200000762939</ele>
        <time>2021-05-30T07:25:19.000Z</time>
      </trkpt>
      <trkpt lat="47.24198" lon="-2.30296">
        <ele>49.400001525879</ele>
        <time>2021-05-30T07:25:20.000Z</time>
      </trkpt>
      <trkpt lat="47.24197" lon="-2.30287">
        <ele>49.400001525879</ele>
        <time>2021-05-30T07:25:21.000Z</time>
      </trkpt>
      <trkpt lat="47.24189" lon="-2.30243">
        <ele>49.400001525879</ele>
        <time>2021-05-30T07:25:27.000Z</time>
      </trkpt>
      <trkpt lat="47.24184" lon="-2.30244">
        <ele>49</ele>
        <time>2021-05-30T07:25:29.000Z</time>
      </trkpt>
      <trkpt lat="47.2418" lon="-2.30246">
        <ele>48.599998474121</ele>
        <time>2021-05-30T07:25:30.000Z</time>
      </trkpt>
      <trkpt lat="47.24177" lon="-2.30248">
        <ele>48.200000762939</ele>
        <time>2021-05-30T07:25:31.000Z</time>
      </trkpt>
      <trkpt lat="47.24173" lon="-2.30247">
        <ele>47.799999237061</ele>
        <time>2021-05-30T07:25:32.000Z</time>
      </trkpt>
      <trkpt lat="47.2417" lon="-2.30244">
        <ele>47.400001525879</ele>
        <time>2021-05-30T07:25:33.000Z</time>
      </trkpt>
      <trkpt lat="47.24157" lon="-2.3022">
        <ele>47.400001525879</ele>
        <time>2021-05-30T07:25:38.000Z</time>
      </trkpt>
      <trkpt lat="47.24153" lon="-2.30211">
        <ele>47.799999237061</ele>
        <time>2021-05-30T07:25:40.000Z</time>
      </trkpt>
      <trkpt lat="47.24151" lon="-2.30206">
        <ele>48.200000762939</ele>
        <time>2021-05-30T07:25:41.000Z</time>
      </trkpt>
      <trkpt lat="47.24149" lon="-2.30201">
        <ele>48.599998474121</ele>
        <time>2021-05-30T07:25:42.000Z</time>
      </trkpt>
      <trkpt lat="47.24147" lon="-2.30197">
        <ele>49</ele>
        <time>2021-05-30T07:25:43.000Z</time>
      </trkpt>
      <trkpt lat="47.24145" lon="-2.30192">
        <ele>49.400001525879</ele>
        <time>2021-05-30T07:25:44.000Z</time>
      </trkpt>
      <trkpt lat="47.24137" lon="-2.3017">
        <ele>49.799999237061</ele>
        <time>2021-05-30T07:25:49.000Z</time>
      </trkpt>
      <trkpt lat="47.24135" lon="-2.30167">
        <ele>50.400001525879</ele>
        <time>2021-05-30T07:25:50.000Z</time>
      </trkpt>
      <trkpt lat="47.24133" lon="-2.30166">
        <ele>50.799999237061</ele>
        <time>2021-05-30T07:25:51.000Z</time>
      </trkpt>
      <trkpt lat="47.24132" lon="-2.30165">
        <ele>51.200000762939</ele>
        <time>2021-05-30T07:25:52.000Z</time>
      </trkpt>
      <trkpt lat="47.2413" lon="-2.30163">
        <ele>51.599998474121</ele>
        <time>2021-05-30T07:25:53.000Z</time>
      </trkpt>
      <trkpt lat="47.24129" lon="-2.30163">
        <ele>52.200000762939</ele>
        <time>2021-05-30T07:25:54.000Z</time>
      </trkpt>
      <trkpt lat="47.24128" lon="-2.30162">
        <ele>52.599998474121</ele>
        <time>2021-05-30T07:25:55.000Z</time>
      </trkpt>
      <trkpt lat="47.24128" lon="-2.30162">
        <ele>53.200000762939</ele>
        <time>2021-05-30T07:25:56.000Z</time>
      </trkpt>
      <trkpt lat="47.24127" lon="-2.30161">
        <ele>53.599998474121</ele>
        <time>2021-05-30T07:25:57.000Z</time>
      </trkpt>
      <trkpt lat="47.2412" lon="-2.30162">
        <ele>55.599998474121</ele>
        <time>2021-05-30T07:27:40.000Z</time>
      </trkpt>
      <trkpt lat="47.24118" lon="-2.30163">
        <ele>55.599998474121</ele>
        <time>2021-05-30T07:27:41.000Z</time>
      </trkpt>
      <trkpt lat="47.24111" lon="-2.30163">
        <ele>55.599998474121</ele>
        <time>2021-05-30T07:27:44.000Z</time>
      </trkpt>
      <trkpt lat="47.24109" lon="-2.30162">
        <ele>55.599998474121</ele>
        <time>2021-05-30T07:27:45.000Z</time>
      </trkpt>
      <trkpt lat="47.24103" lon="-2.30162">
        <ele>55.599998474121</ele>
        <time>2021-05-30T07:27:50.000Z</time>
      </trkpt>
      <trkpt lat="47.24097" lon="-2.30164">
        <ele>57.599998474121</ele>
        <time>2021-05-30T07:27:59.000Z</time>
      </trkpt>
      <trkpt lat="47.24093" lon="-2.30165">
        <ele>57.599998474121</ele>
        <time>2021-05-30T07:28:01.000Z</time>
      </trkpt>
      <trkpt lat="47.24087" lon="-2.3017">
        <ele>57.599998474121</ele>
        <time>2021-05-30T07:28:03.000Z</time>
      </trkpt>
      <trkpt lat="47.24077" lon="-2.30177">
        <ele>57.599998474121</ele>
        <time>2021-05-30T07:28:06.000Z</time>
      </trkpt>
      <trkpt lat="47.24065" lon="-2.30181">
        <ele>57.599998474121</ele>
        <time>2021-05-30T07:28:08.000Z</time>
      </trkpt>
      <trkpt lat="47.24045" lon="-2.30193">
        <ele>57.599998474121</ele>
        <time>2021-05-30T07:28:13.000Z</time>
      </trkpt>
      <trkpt lat="47.24041" lon="-2.30193">
        <ele>57.599998474121</ele>
        <time>2021-05-30T07:28:14.000Z</time>
      </trkpt>
      <trkpt lat="47.24036" lon="-2.30187">
        <ele>57.599998474121</ele>
        <time>2021-05-30T07:28:16.000Z</time>
      </trkpt>
      <trkpt lat="47.24031" lon="-2.30179">
        <ele>57.599998474121</ele>
        <time>2021-05-30T07:28:18.000Z</time>
      </trkpt>
      <trkpt lat="47.24026" lon="-2.30173">
        <ele>58</ele>
        <time>2021-05-30T07:28:20.000Z</time>
      </trkpt>
      <trkpt lat="47.24024" lon="-2.30171">
        <ele>58.400001525879</ele>
        <time>2021-05-30T07:28:21.000Z</time>
      </trkpt>
      <trkpt lat="47.2402" lon="-2.30169">
        <ele>58.799999237061</ele>
        <time>2021-05-30T07:28:22.000Z</time>
      </trkpt>
      <trkpt lat="47.24016" lon="-2.30168">
        <ele>59.200000762939</ele>
        <time>2021-05-30T07:28:23.000Z</time>
      </trkpt>
      <trkpt lat="47.24012" lon="-2.30167">
        <ele>59.599998474121</ele>
        <time>2021-05-30T07:28:24.000Z</time>
      </trkpt>
      <trkpt lat="47.24004" lon="-2.30162">
        <ele>59.599998474121</ele>
        <time>2021-05-30T07:28:26.000Z</time>
      </trkpt>
      <trkpt lat="47.23979" lon="-2.30145">
        <ele>59.599998474121</ele>
        <time>2021-05-30T07:28:33.000Z</time>
      </trkpt>
      <trkpt lat="47.23977" lon="-2.30141">
        <ele>59.599998474121</ele>
        <time>2021-05-30T07:28:34.000Z</time>
      </trkpt>
      <trkpt lat="47.23975" lon="-2.30131">
        <ele>59.599998474121</ele>
        <time>2021-05-30T07:28:36.000Z</time>
      </trkpt>
      <trkpt lat="47.2398" lon="-2.30105">
        <ele>59.599998474121</ele>
        <time>2021-05-30T07:28:41.000Z</time>
      </trkpt>
      <trkpt lat="47.23989" lon="-2.30065">
        <ele>59.599998474121</ele>
        <time>2021-05-30T07:28:47.000Z</time>
      </trkpt>
      <trkpt lat="47.23999" lon="-2.30039">
        <ele>59.599998474121</ele>
        <time>2021-05-30T07:28:52.000Z</time>
      </trkpt>
      <trkpt lat="47.24014" lon="-2.3001">
        <ele>59.599998474121</ele>
        <time>2021-05-30T07:28:58.000Z</time>
      </trkpt>
      <trkpt lat="47.24025" lon="-2.29993">
        <ele>60</ele>
        <time>2021-05-30T07:29:02.000Z</time>
      </trkpt>
      <trkpt lat="47.24028" lon="-2.29989">
        <ele>60.400001525879</ele>
        <time>2021-05-30T07:29:03.000Z</time>
      </trkpt>
      <trkpt lat="47.2403" lon="-2.29985">
        <ele>60.799999237061</ele>
        <time>2021-05-30T07:29:04.000Z</time>
      </trkpt>
      <trkpt lat="47.24033" lon="-2.29982">
        <ele>61.200000762939</ele>
        <time>2021-05-30T07:29:05.000Z</time>
      </trkpt>
      <trkpt lat="47.24036" lon="-2.2998">
        <ele>61.599998474121</ele>
        <time>2021-05-30T07:29:06.000Z</time>
      </trkpt>
      <trkpt lat="47.24048" lon="-2.29982">
        <ele>61.599998474121</ele>
        <time>2021-05-30T07:29:09.000Z</time>
      </trkpt>
      <trkpt lat="47.24066" lon="-2.29986">
        <ele>61.599998474121</ele>
        <time>2021-05-30T07:29:14.000Z</time>
      </trkpt>
      <trkpt lat="47.24084" lon="-2.29997">
        <ele>61.599998474121</ele>
        <time>2021-05-30T07:29:19.000Z</time>
      </trkpt>
      <trkpt lat="47.24103" lon="-2.30007">
        <ele>61.599998474121</ele>
        <time>2021-05-30T07:29:25.000Z</time>
      </trkpt>
      <trkpt lat="47.24115" lon="-2.30005">
        <ele>61.599998474121</ele>
        <time>2021-05-30T07:29:29.000Z</time>
      </trkpt>
      <trkpt lat="47.24119" lon="-2.29999">
        <ele>61.599998474121</ele>
        <time>2021-05-30T07:29:31.000Z</time>
      </trkpt>
      <trkpt lat="47.24122" lon="-2.29991">
        <ele>61.599998474121</ele>
        <time>2021-05-30T07:29:33.000Z</time>
      </trkpt>
      <trkpt lat="47.24132" lon="-2.29982">
        <ele>61.599998474121</ele>
        <time>2021-05-30T07:29:37.000Z</time>
      </trkpt>
      <trkpt lat="47.24145" lon="-2.29981">
        <ele>61.599998474121</ele>
        <time>2021-05-30T07:29:40.000Z</time>
      </trkpt>
      <trkpt lat="47.24152" lon="-2.29981">
        <ele>61.599998474121</ele>
        <time>2021-05-30T07:29:42.000Z</time>
      </trkpt>
      <trkpt lat="47.24159" lon="-2.29985">
        <ele>61.599998474121</ele>
        <time>2021-05-30T07:29:45.000Z</time>
      </trkpt>
      <trkpt lat="47.24173" lon="-2.3">
        <ele>61.599998474121</ele>
        <time>2021-05-30T07:29:50.000Z</time>
      </trkpt>
      <trkpt lat="47.24182" lon="-2.3003">
        <ele>61.599998474121</ele>
        <time>2021-05-30T07:29:56.000Z</time>
      </trkpt>
      <trkpt lat="47.24176" lon="-2.30034">
        <ele>61.599998474121</ele>
        <time>2021-05-30T07:30:00.000Z</time>
      </trkpt>
      <trkpt lat="47.24168" lon="-2.30032">
        <ele>61.599998474121</ele>
        <time>2021-05-30T07:30:03.000Z</time>
      </trkpt>
      <trkpt lat="47.24165" lon="-2.30027">
        <ele>61.599998474121</ele>
        <time>2021-05-30T07:30:05.000Z</time>
      </trkpt>
      <trkpt lat="47.24164" lon="-2.30023">
        <ele>61.599998474121</ele>
        <time>2021-05-30T07:30:06.000Z</time>
      </trkpt>
      <trkpt lat="47.24159" lon="-2.30004">
        <ele>61.599998474121</ele>
        <time>2021-05-30T07:30:11.000Z</time>
      </trkpt>
      <trkpt lat="47.24157" lon="-2.29985">
        <ele>61.599998474121</ele>
        <time>2021-05-30T07:30:19.000Z</time>
      </trkpt>
      <trkpt lat="47.24157" lon="-2.29982">
        <ele>61.599998474121</ele>
        <time>2021-05-30T07:30:21.000Z</time>
      </trkpt>
      <trkpt lat="47.24158" lon="-2.29982">
        <ele>63.799999237061</ele>
        <time>2021-05-30T07:31:03.000Z</time>
      </trkpt>
      <trkpt lat="47.24158" lon="-2.29976">
        <ele>63.799999237061</ele>
        <time>2021-05-30T07:31:05.000Z</time>
      </trkpt>
      <trkpt lat="47.24159" lon="-2.29955">
        <ele>63.799999237061</ele>
        <time>2021-05-30T07:31:10.000Z</time>
      </trkpt>
      <trkpt lat="47.24161" lon="-2.29932">
        <ele>63.799999237061</ele>
        <time>2021-05-30T07:31:16.000Z</time>
      </trkpt>
      <trkpt lat="47.24172" lon="-2.29907">
        <ele>63.799999237061</ele>
        <time>2021-05-30T07:31:22.000Z</time>
      </trkpt>
      <trkpt lat="47.24177" lon="-2.29892">
        <ele>63.799999237061</ele>
        <time>2021-05-30T07:31:27.000Z</time>
      </trkpt>
      <trkpt lat="47.24177" lon="-2.29861">
        <ele>63.799999237061</ele>
        <time>2021-05-30T07:31:34.000Z</time>
      </trkpt>
      <trkpt lat="47.24177" lon="-2.29845">
        <ele>63.799999237061</ele>
        <time>2021-05-30T07:31:37.000Z</time>
      </trkpt>
      <trkpt lat="47.24175" lon="-2.29841">
        <ele>63.799999237061</ele>
        <time>2021-05-30T07:31:38.000Z</time>
      </trkpt>
      <trkpt lat="47.24171" lon="-2.29837">
        <ele>63.799999237061</ele>
        <time>2021-05-30T07:31:41.000Z</time>
      </trkpt>
      <trkpt lat="47.2417" lon="-2.29838">
        <ele>63.799999237061</ele>
        <time>2021-05-30T07:31:42.000Z</time>
      </trkpt>
      <trkpt lat="47.24161" lon="-2.29844">
        <ele>63.799999237061</ele>
        <time>2021-05-30T07:31:46.000Z</time>
      </trkpt>
      <trkpt lat="47.24152" lon="-2.2985">
        <ele>63.799999237061</ele>
        <time>2021-05-30T07:31:49.000Z</time>
      </trkpt>
      <trkpt lat="47.24143" lon="-2.29856">
        <ele>63.799999237061</ele>
        <time>2021-05-30T07:31:52.000Z</time>
      </trkpt>
      <trkpt lat="47.24121" lon="-2.29862">
        <ele>63.799999237061</ele>
        <time>2021-05-30T07:31:58.000Z</time>
      </trkpt>
      <trkpt lat="47.24117" lon="-2.29862">
        <ele>64.199996948242</ele>
        <time>2021-05-30T07:31:59.000Z</time>
      </trkpt>
      <trkpt lat="47.24113" lon="-2.29862">
        <ele>64.599998474121</ele>
        <time>2021-05-30T07:32:00.000Z</time>
      </trkpt>
      <trkpt lat="47.24107" lon="-2.2986">
        <ele>65</ele>
        <time>2021-05-30T07:32:01.000Z</time>
      </trkpt>
      <trkpt lat="47.24103" lon="-2.29858">
        <ele>65.400001525879</ele>
        <time>2021-05-30T07:32:02.000Z</time>
      </trkpt>
      <trkpt lat="47.241" lon="-2.29854">
        <ele>65.800003051758</ele>
        <time>2021-05-30T07:32:03.000Z</time>
      </trkpt>
      <trkpt lat="47.24093" lon="-2.29827">
        <ele>65.800003051758</ele>
        <time>2021-05-30T07:32:07.000Z</time>
      </trkpt>
      <trkpt lat="47.24085" lon="-2.29779">
        <ele>65.800003051758</ele>
        <time>2021-05-30T07:32:13.000Z</time>
      </trkpt>
      <trkpt lat="47.24083" lon="-2.29772">
        <ele>65.800003051758</ele>
        <time>2021-05-30T07:32:14.000Z</time>
      </trkpt>
      <trkpt lat="47.24076" lon="-2.29749">
        <ele>65.800003051758</ele>
        <time>2021-05-30T07:32:17.000Z</time>
      </trkpt>
      <trkpt lat="47.24074" lon="-2.29742">
        <ele>65.800003051758</ele>
        <time>2021-05-30T07:32:18.000Z</time>
      </trkpt>
      <trkpt lat="47.24058" lon="-2.29686">
        <ele>65.800003051758</ele>
        <time>2021-05-30T07:32:26.000Z</time>
      </trkpt>
      <trkpt lat="47.24049" lon="-2.29645">
        <ele>65.800003051758</ele>
        <time>2021-05-30T07:32:31.000Z</time>
      </trkpt>
      <trkpt lat="47.24049" lon="-2.29638">
        <ele>65.800003051758</ele>
        <time>2021-05-30T07:32:32.000Z</time>
      </trkpt>
      <trkpt lat="47.24057" lon="-2.29617">
        <ele>65.800003051758</ele>
        <time>2021-05-30T07:32:36.000Z</time>
      </trkpt>
      <trkpt lat="47.2406" lon="-2.29613">
        <ele>65.800003051758</ele>
        <time>2021-05-30T07:32:37.000Z</time>
      </trkpt>
      <trkpt lat="47.24072" lon="-2.29602">
        <ele>65.800003051758</ele>
        <time>2021-05-30T07:32:40.000Z</time>
      </trkpt>
      <trkpt lat="47.24078" lon="-2.29599">
        <ele>65.800003051758</ele>
        <time>2021-05-30T07:32:41.000Z</time>
      </trkpt>
      <trkpt lat="47.24102" lon="-2.29579">
        <ele>65.800003051758</ele>
        <time>2021-05-30T07:32:45.000Z</time>
      </trkpt>
      <trkpt lat="47.24106" lon="-2.29571">
        <ele>65.800003051758</ele>
        <time>2021-05-30T07:32:46.000Z</time>
      </trkpt>
      <trkpt lat="47.24107" lon="-2.29553">
        <ele>65.800003051758</ele>
        <time>2021-05-30T07:32:48.000Z</time>
      </trkpt>
      <trkpt lat="47.24103" lon="-2.29527">
        <ele>65.800003051758</ele>
        <time>2021-05-30T07:32:51.000Z</time>
      </trkpt>
      <trkpt lat="47.24098" lon="-2.2951">
        <ele>65.800003051758</ele>
        <time>2021-05-30T07:32:53.000Z</time>
      </trkpt>
      <trkpt lat="47.24095" lon="-2.29494">
        <ele>65.800003051758</ele>
        <time>2021-05-30T07:32:55.000Z</time>
      </trkpt>
      <trkpt lat="47.24095" lon="-2.29479">
        <ele>65.800003051758</ele>
        <time>2021-05-30T07:32:57.000Z</time>
      </trkpt>
      <trkpt lat="47.24097" lon="-2.29467">
        <ele>65.800003051758</ele>
        <time>2021-05-30T07:32:59.000Z</time>
      </trkpt>
      <trkpt lat="47.241" lon="-2.29458">
        <ele>65.800003051758</ele>
        <time>2021-05-30T07:33:01.000Z</time>
      </trkpt>
      <trkpt lat="47.24116" lon="-2.29443">
        <ele>65.800003051758</ele>
        <time>2021-05-30T07:33:05.000Z</time>
      </trkpt>
      <trkpt lat="47.24148" lon="-2.29434">
        <ele>65.800003051758</ele>
        <time>2021-05-30T07:33:09.000Z</time>
      </trkpt>
      <trkpt lat="47.24189" lon="-2.29438">
        <ele>65.400001525879</ele>
        <time>2021-05-30T07:33:14.000Z</time>
      </trkpt>
      <trkpt lat="47.24196" lon="-2.29442">
        <ele>65</ele>
        <time>2021-05-30T07:33:15.000Z</time>
      </trkpt>
      <trkpt lat="47.24204" lon="-2.29445">
        <ele>64.599998474121</ele>
        <time>2021-05-30T07:33:16.000Z</time>
      </trkpt>
      <trkpt lat="47.24211" lon="-2.2945">
        <ele>64</ele>
        <time>2021-05-30T07:33:17.000Z</time>
      </trkpt>
      <trkpt lat="47.24218" lon="-2.29455">
        <ele>63.599998474121</ele>
        <time>2021-05-30T07:33:18.000Z</time>
      </trkpt>
      <trkpt lat="47.24225" lon="-2.29458">
        <ele>63.599998474121</ele>
        <time>2021-05-30T07:33:19.000Z</time>
      </trkpt>
      <trkpt lat="47.24232" lon="-2.2946">
        <ele>63.599998474121</ele>
        <time>2021-05-30T07:33:20.000Z</time>
      </trkpt>
      <trkpt lat="47.24245" lon="-2.29459">
        <ele>63.599998474121</ele>
        <time>2021-05-30T07:33:22.000Z</time>
      </trkpt>
      <trkpt lat="47.24263" lon="-2.2945">
        <ele>63.599998474121</ele>
        <time>2021-05-30T07:33:25.000Z</time>
      </trkpt>
      <trkpt lat="47.24275" lon="-2.29443">
        <ele>63.599998474121</ele>
        <time>2021-05-30T07:33:27.000Z</time>
      </trkpt>
      <trkpt lat="47.24304" lon="-2.29431">
        <ele>63.599998474121</ele>
        <time>2021-05-30T07:33:32.000Z</time>
      </trkpt>
      <trkpt lat="47.2431" lon="-2.29432">
        <ele>63.599998474121</ele>
        <time>2021-05-30T07:33:33.000Z</time>
      </trkpt>
      <trkpt lat="47.24333" lon="-2.29449">
        <ele>63.599998474121</ele>
        <time>2021-05-30T07:33:37.000Z</time>
      </trkpt>
      <trkpt lat="47.24353" lon="-2.29467">
        <ele>63.599998474121</ele>
        <time>2021-05-30T07:33:41.000Z</time>
      </trkpt>
      <trkpt lat="47.24364" lon="-2.29467">
        <ele>63.599998474121</ele>
        <time>2021-05-30T07:33:43.000Z</time>
      </trkpt>
      <trkpt lat="47.24379" lon="-2.29453">
        <ele>63.599998474121</ele>
        <time>2021-05-30T07:33:46.000Z</time>
      </trkpt>
      <trkpt lat="47.24384" lon="-2.29448">
        <ele>63.599998474121</ele>
        <time>2021-05-30T07:33:47.000Z</time>
      </trkpt>
      <trkpt lat="47.24397" lon="-2.29435">
        <ele>63.599998474121</ele>
        <time>2021-05-30T07:33:50.000Z</time>
      </trkpt>
      <trkpt lat="47.24402" lon="-2.29433">
        <ele>63.599998474121</ele>
        <time>2021-05-30T07:33:51.000Z</time>
      </trkpt>
      <trkpt lat="47.24424" lon="-2.2943">
        <ele>63.599998474121</ele>
        <time>2021-05-30T07:33:55.000Z</time>
      </trkpt>
      <trkpt lat="47.24461" lon="-2.29425">
        <ele>63.599998474121</ele>
        <time>2021-05-30T07:34:02.000Z</time>
      </trkpt>
      <trkpt lat="47.24467" lon="-2.29425">
        <ele>64.199996948242</ele>
        <time>2021-05-30T07:34:03.000Z</time>
      </trkpt>
      <trkpt lat="47.24472" lon="-2.29424">
        <ele>64.599998474121</ele>
        <time>2021-05-30T07:34:04.000Z</time>
      </trkpt>
      <trkpt lat="47.24477" lon="-2.29424">
        <ele>65</ele>
        <time>2021-05-30T07:34:05.000Z</time>
      </trkpt>
      <trkpt lat="47.24482" lon="-2.29424">
        <ele>65.400001525879</ele>
        <time>2021-05-30T07:34:06.000Z</time>
      </trkpt>
      <trkpt lat="47.24487" lon="-2.29423">
        <ele>66</ele>
        <time>2021-05-30T07:34:07.000Z</time>
      </trkpt>
      <trkpt lat="47.24502" lon="-2.29419">
        <ele>66</ele>
        <time>2021-05-30T07:34:10.000Z</time>
      </trkpt>
      <trkpt lat="47.24512" lon="-2.29416">
        <ele>66</ele>
        <time>2021-05-30T07:34:12.000Z</time>
      </trkpt>
      <trkpt lat="47.24516" lon="-2.29413">
        <ele>66.400001525879</ele>
        <time>2021-05-30T07:34:13.000Z</time>
      </trkpt>
      <trkpt lat="47.2452" lon="-2.29408">
        <ele>67.199996948242</ele>
        <time>2021-05-30T07:34:14.000Z</time>
      </trkpt>
      <trkpt lat="47.24522" lon="-2.29402">
        <ele>67.599998474121</ele>
        <time>2021-05-30T07:34:15.000Z</time>
      </trkpt>
      <trkpt lat="47.24523" lon="-2.29396">
        <ele>68</ele>
        <time>2021-05-30T07:34:16.000Z</time>
      </trkpt>
      <trkpt lat="47.24523" lon="-2.29381">
        <ele>68</ele>
        <time>2021-05-30T07:34:18.000Z</time>
      </trkpt>
      <trkpt lat="47.24516" lon="-2.29343">
        <ele>68</ele>
        <time>2021-05-30T07:34:23.000Z</time>
      </trkpt>
      <trkpt lat="47.24517" lon="-2.29309">
        <ele>68</ele>
        <time>2021-05-30T07:34:27.000Z</time>
      </trkpt>
      <trkpt lat="47.24516" lon="-2.293">
        <ele>68</ele>
        <time>2021-05-30T07:34:28.000Z</time>
      </trkpt>
      <trkpt lat="47.24514" lon="-2.29242">
        <ele>68</ele>
        <time>2021-05-30T07:34:34.000Z</time>
      </trkpt>
      <trkpt lat="47.2452" lon="-2.29191">
        <ele>68</ele>
        <time>2021-05-30T07:34:40.000Z</time>
      </trkpt>
      <trkpt lat="47.24532" lon="-2.2914">
        <ele>68</ele>
        <time>2021-05-30T07:34:47.000Z</time>
      </trkpt>
      <trkpt lat="47.24546" lon="-2.29086">
        <ele>68</ele>
        <time>2021-05-30T07:34:54.000Z</time>
      </trkpt>
      <trkpt lat="47.24554" lon="-2.2903">
        <ele>67.599998474121</ele>
        <time>2021-05-30T07:35:01.000Z</time>
      </trkpt>
      <trkpt lat="47.24554" lon="-2.29022">
        <ele>67.199996948242</ele>
        <time>2021-05-30T07:35:02.000Z</time>
      </trkpt>
      <trkpt lat="47.24555" lon="-2.29012">
        <ele>66.599998474121</ele>
        <time>2021-05-30T07:35:03.000Z</time>
      </trkpt>
      <trkpt lat="47.24554" lon="-2.29004">
        <ele>66.199996948242</ele>
        <time>2021-05-30T07:35:04.000Z</time>
      </trkpt>
      <trkpt lat="47.24553" lon="-2.28995">
        <ele>65.800003051758</ele>
        <time>2021-05-30T07:35:05.000Z</time>
      </trkpt>
      <trkpt lat="47.24551" lon="-2.28986">
        <ele>65.800003051758</ele>
        <time>2021-05-30T07:35:06.000Z</time>
      </trkpt>
      <trkpt lat="47.24535" lon="-2.28928">
        <ele>65.800003051758</ele>
        <time>2021-05-30T07:35:13.000Z</time>
      </trkpt>
      <trkpt lat="47.24522" lon="-2.28887">
        <ele>65.800003051758</ele>
        <time>2021-05-30T07:35:18.000Z</time>
      </trkpt>
      <trkpt lat="47.24522" lon="-2.28878">
        <ele>65.800003051758</ele>
        <time>2021-05-30T07:35:19.000Z</time>
      </trkpt>
      <trkpt lat="47.24529" lon="-2.28855">
        <ele>65.800003051758</ele>
        <time>2021-05-30T07:35:22.000Z</time>
      </trkpt>
      <trkpt lat="47.24544" lon="-2.2884">
        <ele>65.800003051758</ele>
        <time>2021-05-30T07:35:25.000Z</time>
      </trkpt>
      <trkpt lat="47.24558" lon="-2.28824">
        <ele>65.800003051758</ele>
        <time>2021-05-30T07:35:28.000Z</time>
      </trkpt>
      <trkpt lat="47.24565" lon="-2.28814">
        <ele>65.800003051758</ele>
        <time>2021-05-30T07:35:30.000Z</time>
      </trkpt>
      <trkpt lat="47.24585" lon="-2.28799">
        <ele>65.800003051758</ele>
        <time>2021-05-30T07:35:34.000Z</time>
      </trkpt>
      <trkpt lat="47.24616" lon="-2.28773">
        <ele>65.800003051758</ele>
        <time>2021-05-30T07:35:40.000Z</time>
      </trkpt>
      <trkpt lat="47.24641" lon="-2.28736">
        <ele>65.800003051758</ele>
        <time>2021-05-30T07:35:46.000Z</time>
      </trkpt>
      <trkpt lat="47.24671" lon="-2.28698">
        <ele>65.800003051758</ele>
        <time>2021-05-30T07:35:53.000Z</time>
      </trkpt>
      <trkpt lat="47.24697" lon="-2.28663">
        <ele>65.800003051758</ele>
        <time>2021-05-30T07:35:59.000Z</time>
      </trkpt>
      <trkpt lat="47.24723" lon="-2.28632">
        <ele>65.800003051758</ele>
        <time>2021-05-30T07:36:05.000Z</time>
      </trkpt>
      <trkpt lat="47.24733" lon="-2.2862">
        <ele>65.800003051758</ele>
        <time>2021-05-30T07:36:07.000Z</time>
      </trkpt>
      <trkpt lat="47.24742" lon="-2.28599">
        <ele>65.800003051758</ele>
        <time>2021-05-30T07:36:10.000Z</time>
      </trkpt>
      <trkpt lat="47.24753" lon="-2.28559">
        <ele>65.800003051758</ele>
        <time>2021-05-30T07:36:15.000Z</time>
      </trkpt>
      <trkpt lat="47.24772" lon="-2.28537">
        <ele>65.800003051758</ele>
        <time>2021-05-30T07:36:19.000Z</time>
      </trkpt>
      <trkpt lat="47.24777" lon="-2.28532">
        <ele>65.800003051758</ele>
        <time>2021-05-30T07:36:20.000Z</time>
      </trkpt>
      <trkpt lat="47.24808" lon="-2.28503">
        <ele>65.800003051758</ele>
        <time>2021-05-30T07:36:26.000Z</time>
      </trkpt>
      <trkpt lat="47.24847" lon="-2.28473">
        <ele>65.800003051758</ele>
        <time>2021-05-30T07:36:33.000Z</time>
      </trkpt>
      <trkpt lat="47.24857" lon="-2.28463">
        <ele>65.800003051758</ele>
        <time>2021-05-30T07:36:35.000Z</time>
      </trkpt>
      <trkpt lat="47.24872" lon="-2.28445">
        <ele>65.800003051758</ele>
        <time>2021-05-30T07:36:38.000Z</time>
      </trkpt>
      <trkpt lat="47.249" lon="-2.28423">
        <ele>65.800003051758</ele>
        <time>2021-05-30T07:36:43.000Z</time>
      </trkpt>
      <trkpt lat="47.24907" lon="-2.28419">
        <ele>65.400001525879</ele>
        <time>2021-05-30T07:36:44.000Z</time>
      </trkpt>
      <trkpt lat="47.24914" lon="-2.28417">
        <ele>65</ele>
        <time>2021-05-30T07:36:45.000Z</time>
      </trkpt>
      <trkpt lat="47.24921" lon="-2.28414">
        <ele>64.599998474121</ele>
        <time>2021-05-30T07:36:46.000Z</time>
      </trkpt>
      <trkpt lat="47.24928" lon="-2.28412">
        <ele>64.199996948242</ele>
        <time>2021-05-30T07:36:47.000Z</time>
      </trkpt>
      <trkpt lat="47.24934" lon="-2.28411">
        <ele>63.799999237061</ele>
        <time>2021-05-30T07:36:48.000Z</time>
      </trkpt>
      <trkpt lat="47.24954" lon="-2.28403">
        <ele>63.400001525879</ele>
        <time>2021-05-30T07:36:51.000Z</time>
      </trkpt>
      <trkpt lat="47.24961" lon="-2.284">
        <ele>62.799999237061</ele>
        <time>2021-05-30T07:36:52.000Z</time>
      </trkpt>
      <trkpt lat="47.24968" lon="-2.28396">
        <ele>62.400001525879</ele>
        <time>2021-05-30T07:36:53.000Z</time>
      </trkpt>
      <trkpt lat="47.24974" lon="-2.28392">
        <ele>62</ele>
        <time>2021-05-30T07:36:54.000Z</time>
      </trkpt>
      <trkpt lat="47.2498" lon="-2.28387">
        <ele>61.599998474121</ele>
        <time>2021-05-30T07:36:55.000Z</time>
      </trkpt>
      <trkpt lat="47.2499" lon="-2.28373">
        <ele>61.599998474121</ele>
        <time>2021-05-30T07:36:57.000Z</time>
      </trkpt>
      <trkpt lat="47.24997" lon="-2.28357">
        <ele>61.599998474121</ele>
        <time>2021-05-30T07:36:59.000Z</time>
      </trkpt>
      <trkpt lat="47.25004" lon="-2.28342">
        <ele>61.200000762939</ele>
        <time>2021-05-30T07:37:01.000Z</time>
      </trkpt>
      <trkpt lat="47.25008" lon="-2.28336">
        <ele>60.799999237061</ele>
        <time>2021-05-30T07:37:02.000Z</time>
      </trkpt>
      <trkpt lat="47.25013" lon="-2.28331">
        <ele>60.400001525879</ele>
        <time>2021-05-30T07:37:03.000Z</time>
      </trkpt>
      <trkpt lat="47.25019" lon="-2.28326">
        <ele>60</ele>
        <time>2021-05-30T07:37:04.000Z</time>
      </trkpt>
      <trkpt lat="47.25024" lon="-2.28321">
        <ele>59.599998474121</ele>
        <time>2021-05-30T07:37:05.000Z</time>
      </trkpt>
      <trkpt lat="47.25026" lon="-2.28315">
        <ele>59.599998474121</ele>
        <time>2021-05-30T07:37:06.000Z</time>
      </trkpt>
      <trkpt lat="47.25027" lon="-2.28302">
        <ele>60.599998474121</ele>
        <time>2021-05-30T07:37:08.000Z</time>
      </trkpt>
      <trkpt lat="47.25027" lon="-2.28294">
        <ele>61</ele>
        <time>2021-05-30T07:37:09.000Z</time>
      </trkpt>
      <trkpt lat="47.25028" lon="-2.28286">
        <ele>61.400001525879</ele>
        <time>2021-05-30T07:37:10.000Z</time>
      </trkpt>
      <trkpt lat="47.25029" lon="-2.28277">
        <ele>61.799999237061</ele>
        <time>2021-05-30T07:37:11.000Z</time>
      </trkpt>
      <trkpt lat="47.25036" lon="-2.28241">
        <ele>62.200000762939</ele>
        <time>2021-05-30T07:37:15.000Z</time>
      </trkpt>
      <trkpt lat="47.25037" lon="-2.28233">
        <ele>62.599998474121</ele>
        <time>2021-05-30T07:37:16.000Z</time>
      </trkpt>
      <trkpt lat="47.25039" lon="-2.28225">
        <ele>63.200000762939</ele>
        <time>2021-05-30T07:37:17.000Z</time>
      </trkpt>
      <trkpt lat="47.25041" lon="-2.28216">
        <ele>63.599998474121</ele>
        <time>2021-05-30T07:37:18.000Z</time>
      </trkpt>
      <trkpt lat="47.25044" lon="-2.28208">
        <ele>64</ele>
        <time>2021-05-30T07:37:19.000Z</time>
      </trkpt>
      <trkpt lat="47.25051" lon="-2.28181">
        <ele>64</ele>
        <time>2021-05-30T07:37:22.000Z</time>
      </trkpt>
      <trkpt lat="47.25062" lon="-2.28137">
        <ele>64</ele>
        <time>2021-05-30T07:37:28.000Z</time>
      </trkpt>
      <trkpt lat="47.25064" lon="-2.28131">
        <ele>64</ele>
        <time>2021-05-30T07:37:29.000Z</time>
      </trkpt>
      <trkpt lat="47.25073" lon="-2.28098">
        <ele>64</ele>
        <time>2021-05-30T07:37:34.000Z</time>
      </trkpt>
      <trkpt lat="47.25084" lon="-2.28057">
        <ele>64</ele>
        <time>2021-05-30T07:37:39.000Z</time>
      </trkpt>
      <trkpt lat="47.25104" lon="-2.28011">
        <ele>64</ele>
        <time>2021-05-30T07:37:45.000Z</time>
      </trkpt>
      <trkpt lat="47.25115" lon="-2.27989">
        <ele>64.400001525879</ele>
        <time>2021-05-30T07:37:48.000Z</time>
      </trkpt>
      <trkpt lat="47.25119" lon="-2.27982">
        <ele>64.800003051758</ele>
        <time>2021-05-30T07:37:49.000Z</time>
      </trkpt>
      <trkpt lat="47.25123" lon="-2.27975">
        <ele>65.199996948242</ele>
        <time>2021-05-30T07:37:50.000Z</time>
      </trkpt>
      <trkpt lat="47.25127" lon="-2.27969">
        <ele>65.599998474121</ele>
        <time>2021-05-30T07:37:51.000Z</time>
      </trkpt>
      <trkpt lat="47.25132" lon="-2.27963">
        <ele>66</ele>
        <time>2021-05-30T07:37:52.000Z</time>
      </trkpt>
      <trkpt lat="47.25136" lon="-2.27957">
        <ele>66</ele>
        <time>2021-05-30T07:37:53.000Z</time>
      </trkpt>
      <trkpt lat="47.25151" lon="-2.27943">
        <ele>66</ele>
        <time>2021-05-30T07:37:56.000Z</time>
      </trkpt>
      <trkpt lat="47.25166" lon="-2.27932">
        <ele>66</ele>
        <time>2021-05-30T07:37:59.000Z</time>
      </trkpt>
      <trkpt lat="47.25199" lon="-2.27908">
        <ele>66.400001525879</ele>
        <time>2021-05-30T07:38:06.000Z</time>
      </trkpt>
      <trkpt lat="47.25204" lon="-2.27905">
        <ele>66.800003051758</ele>
        <time>2021-05-30T07:38:07.000Z</time>
      </trkpt>
      <trkpt lat="47.25209" lon="-2.27903">
        <ele>67.199996948242</ele>
        <time>2021-05-30T07:38:08.000Z</time>
      </trkpt>
      <trkpt lat="47.25214" lon="-2.279">
        <ele>67.599998474121</ele>
        <time>2021-05-30T07:38:09.000Z</time>
      </trkpt>
      <trkpt lat="47.25219" lon="-2.27898">
        <ele>68</ele>
        <time>2021-05-30T07:38:10.000Z</time>
      </trkpt>
      <trkpt lat="47.25225" lon="-2.27895">
        <ele>68</ele>
        <time>2021-05-30T07:38:11.000Z</time>
      </trkpt>
      <trkpt lat="47.25235" lon="-2.27888">
        <ele>68</ele>
        <time>2021-05-30T07:38:13.000Z</time>
      </trkpt>
      <trkpt lat="47.25269" lon="-2.27873">
        <ele>68</ele>
        <time>2021-05-30T07:38:20.000Z</time>
      </trkpt>
      <trkpt lat="47.25301" lon="-2.27868">
        <ele>68.599998474121</ele>
        <time>2021-05-30T07:38:26.000Z</time>
      </trkpt>
      <trkpt lat="47.25306" lon="-2.27867">
        <ele>69</ele>
        <time>2021-05-30T07:38:27.000Z</time>
      </trkpt>
      <trkpt lat="47.25311" lon="-2.27866">
        <ele>69.400001525879</ele>
        <time>2021-05-30T07:38:28.000Z</time>
      </trkpt>
      <trkpt lat="47.25316" lon="-2.27866">
        <ele>69.800003051758</ele>
        <time>2021-05-30T07:38:29.000Z</time>
      </trkpt>
      <trkpt lat="47.25322" lon="-2.27865">
        <ele>70.199996948242</ele>
        <time>2021-05-30T07:38:30.000Z</time>
      </trkpt>
      <trkpt lat="47.25338" lon="-2.27862">
        <ele>70.199996948242</ele>
        <time>2021-05-30T07:38:33.000Z</time>
      </trkpt>
      <trkpt lat="47.25372" lon="-2.27851">
        <ele>70.199996948242</ele>
        <time>2021-05-30T07:38:39.000Z</time>
      </trkpt>
      <trkpt lat="47.25389" lon="-2.27846">
        <ele>70.599998474121</ele>
        <time>2021-05-30T07:38:42.000Z</time>
      </trkpt>
      <trkpt lat="47.25395" lon="-2.27844">
        <ele>71</ele>
        <time>2021-05-30T07:38:43.000Z</time>
      </trkpt>
      <trkpt lat="47.25401" lon="-2.27842">
        <ele>71.400001525879</ele>
        <time>2021-05-30T07:38:44.000Z</time>
      </trkpt>
      <trkpt lat="47.25406" lon="-2.27839">
        <ele>71.800003051758</ele>
        <time>2021-05-30T07:38:45.000Z</time>
      </trkpt>
      <trkpt lat="47.25411" lon="-2.27837">
        <ele>72.199996948242</ele>
        <time>2021-05-30T07:38:46.000Z</time>
      </trkpt>
      <trkpt lat="47.25415" lon="-2.27835">
        <ele>72.199996948242</ele>
        <time>2021-05-30T07:38:47.000Z</time>
      </trkpt>
      <trkpt lat="47.25419" lon="-2.27832">
        <ele>72.199996948242</ele>
        <time>2021-05-30T07:38:48.000Z</time>
      </trkpt>
      <trkpt lat="47.25442" lon="-2.27813">
        <ele>72.199996948242</ele>
        <time>2021-05-30T07:38:52.000Z</time>
      </trkpt>
      <trkpt lat="47.25469" lon="-2.27783">
        <ele>72.199996948242</ele>
        <time>2021-05-30T07:38:58.000Z</time>
      </trkpt>
      <trkpt lat="47.25493" lon="-2.27757">
        <ele>72.199996948242</ele>
        <time>2021-05-30T07:39:04.000Z</time>
      </trkpt>
      <trkpt lat="47.255" lon="-2.27748">
        <ele>72.599998474121</ele>
        <time>2021-05-30T07:39:06.000Z</time>
      </trkpt>
      <trkpt lat="47.255" lon="-2.27741">
        <ele>73</ele>
        <time>2021-05-30T07:39:07.000Z</time>
      </trkpt>
      <trkpt lat="47.255" lon="-2.27734">
        <ele>73.599998474121</ele>
        <time>2021-05-30T07:39:08.000Z</time>
      </trkpt>
      <trkpt lat="47.255" lon="-2.27726">
        <ele>74</ele>
        <time>2021-05-30T07:39:09.000Z</time>
      </trkpt>
      <trkpt lat="47.25498" lon="-2.27718">
        <ele>74.400001525879</ele>
        <time>2021-05-30T07:39:10.000Z</time>
      </trkpt>
      <trkpt lat="47.25497" lon="-2.2771">
        <ele>74.400001525879</ele>
        <time>2021-05-30T07:39:11.000Z</time>
      </trkpt>
      <trkpt lat="47.25495" lon="-2.27701">
        <ele>74.400001525879</ele>
        <time>2021-05-30T07:39:12.000Z</time>
      </trkpt>
      <trkpt lat="47.25485" lon="-2.27652">
        <ele>74.400001525879</ele>
        <time>2021-05-30T07:39:18.000Z</time>
      </trkpt>
      <trkpt lat="47.25481" lon="-2.27631">
        <ele>74.400001525879</ele>
        <time>2021-05-30T07:39:21.000Z</time>
      </trkpt>
      <trkpt lat="47.25473" lon="-2.27613">
        <ele>74.400001525879</ele>
        <time>2021-05-30T07:39:24.000Z</time>
      </trkpt>
      <trkpt lat="47.25465" lon="-2.27602">
        <ele>74.400001525879</ele>
        <time>2021-05-30T07:39:26.000Z</time>
      </trkpt>
      <trkpt lat="47.25463" lon="-2.27595">
        <ele>74.400001525879</ele>
        <time>2021-05-30T07:39:27.000Z</time>
      </trkpt>
      <trkpt lat="47.2546" lon="-2.27588">
        <ele>74.400001525879</ele>
        <time>2021-05-30T07:39:28.000Z</time>
      </trkpt>
      <trkpt lat="47.25458" lon="-2.27581">
        <ele>74.400001525879</ele>
        <time>2021-05-30T07:39:29.000Z</time>
      </trkpt>
      <trkpt lat="47.2545" lon="-2.27554">
        <ele>74.400001525879</ele>
        <time>2021-05-30T07:39:33.000Z</time>
      </trkpt>
      <trkpt lat="47.25439" lon="-2.27509">
        <ele>74.400001525879</ele>
        <time>2021-05-30T07:39:40.000Z</time>
      </trkpt>
      <trkpt lat="47.2543" lon="-2.27493">
        <ele>74.400001525879</ele>
        <time>2021-05-30T07:39:43.000Z</time>
      </trkpt>
      <trkpt lat="47.25426" lon="-2.27486">
        <ele>74.400001525879</ele>
        <time>2021-05-30T07:39:44.000Z</time>
      </trkpt>
      <trkpt lat="47.25415" lon="-2.27463">
        <ele>74.400001525879</ele>
        <time>2021-05-30T07:39:47.000Z</time>
      </trkpt>
      <trkpt lat="47.2541" lon="-2.27447">
        <ele>74.400001525879</ele>
        <time>2021-05-30T07:39:49.000Z</time>
      </trkpt>
      <trkpt lat="47.25396" lon="-2.27401">
        <ele>74.400001525879</ele>
        <time>2021-05-30T07:39:55.000Z</time>
      </trkpt>
      <trkpt lat="47.25395" lon="-2.27395">
        <ele>74.400001525879</ele>
        <time>2021-05-30T07:39:56.000Z</time>
      </trkpt>
      <trkpt lat="47.25387" lon="-2.27379">
        <ele>74.400001525879</ele>
        <time>2021-05-30T07:40:00.000Z</time>
      </trkpt>
      <trkpt lat="47.25373" lon="-2.27374">
        <ele>74.400001525879</ele>
        <time>2021-05-30T07:40:04.000Z</time>
      </trkpt>
      <trkpt lat="47.25368" lon="-2.27362">
        <ele>74.400001525879</ele>
        <time>2021-05-30T07:40:07.000Z</time>
      </trkpt>
      <trkpt lat="47.25363" lon="-2.27342">
        <ele>74.400001525879</ele>
        <time>2021-05-30T07:40:11.000Z</time>
      </trkpt>
      <trkpt lat="47.25356" lon="-2.27332">
        <ele>74.400001525879</ele>
        <time>2021-05-30T07:40:13.000Z</time>
      </trkpt>
      <trkpt lat="47.25345" lon="-2.27317">
        <ele>74.400001525879</ele>
        <time>2021-05-30T07:40:16.000Z</time>
      </trkpt>
      <trkpt lat="47.25344" lon="-2.2731">
        <ele>74.400001525879</ele>
        <time>2021-05-30T07:40:17.000Z</time>
      </trkpt>
      <trkpt lat="47.2534" lon="-2.27296">
        <ele>74.400001525879</ele>
        <time>2021-05-30T07:40:19.000Z</time>
      </trkpt>
      <trkpt lat="47.25325" lon="-2.27269">
        <ele>74.800003051758</ele>
        <time>2021-05-30T07:40:24.000Z</time>
      </trkpt>
      <trkpt lat="47.25321" lon="-2.27265">
        <ele>75.199996948242</ele>
        <time>2021-05-30T07:40:25.000Z</time>
      </trkpt>
      <trkpt lat="47.25317" lon="-2.2726">
        <ele>76</ele>
        <time>2021-05-30T07:40:26.000Z</time>
      </trkpt>
      <trkpt lat="47.25313" lon="-2.27256">
        <ele>76.599998474121</ele>
        <time>2021-05-30T07:40:27.000Z</time>
      </trkpt>
      <trkpt lat="47.25309" lon="-2.2725">
        <ele>76.599998474121</ele>
        <time>2021-05-30T07:40:28.000Z</time>
      </trkpt>
      <trkpt lat="47.25302" lon="-2.27236">
        <ele>76.599998474121</ele>
        <time>2021-05-30T07:40:30.000Z</time>
      </trkpt>
      <trkpt lat="47.25297" lon="-2.27222">
        <ele>76.599998474121</ele>
        <time>2021-05-30T07:40:32.000Z</time>
      </trkpt>
      <trkpt lat="47.25292" lon="-2.27205">
        <ele>76.599998474121</ele>
        <time>2021-05-30T07:40:35.000Z</time>
      </trkpt>
      <trkpt lat="47.25281" lon="-2.27184">
        <ele>76.599998474121</ele>
        <time>2021-05-30T07:40:40.000Z</time>
      </trkpt>
      <trkpt lat="47.25262" lon="-2.27155">
        <ele>76.599998474121</ele>
        <time>2021-05-30T07:40:46.000Z</time>
      </trkpt>
      <trkpt lat="47.25256" lon="-2.27146">
        <ele>76.599998474121</ele>
        <time>2021-05-30T07:40:48.000Z</time>
      </trkpt>
      <trkpt lat="47.25245" lon="-2.27131">
        <ele>76.599998474121</ele>
        <time>2021-05-30T07:40:51.000Z</time>
      </trkpt>
      <trkpt lat="47.25238" lon="-2.27119">
        <ele>76.599998474121</ele>
        <time>2021-05-30T07:40:53.000Z</time>
      </trkpt>
      <trkpt lat="47.2522" lon="-2.27082">
        <ele>76.599998474121</ele>
        <time>2021-05-30T07:40:59.000Z</time>
      </trkpt>
      <trkpt lat="47.25199" lon="-2.27044">
        <ele>76.599998474121</ele>
        <time>2021-05-30T07:41:05.000Z</time>
      </trkpt>
      <trkpt lat="47.25195" lon="-2.27032">
        <ele>76.599998474121</ele>
        <time>2021-05-30T07:41:07.000Z</time>
      </trkpt>
      <trkpt lat="47.25185" lon="-2.27016">
        <ele>76.599998474121</ele>
        <time>2021-05-30T07:41:10.000Z</time>
      </trkpt>
      <trkpt lat="47.25179" lon="-2.27004">
        <ele>76.599998474121</ele>
        <time>2021-05-30T07:41:12.000Z</time>
      </trkpt>
      <trkpt lat="47.25173" lon="-2.26984">
        <ele>76.599998474121</ele>
        <time>2021-05-30T07:41:15.000Z</time>
      </trkpt>
      <trkpt lat="47.25168" lon="-2.26975">
        <ele>76.599998474121</ele>
        <time>2021-05-30T07:41:18.000Z</time>
      </trkpt>
      <trkpt lat="47.25159" lon="-2.26969">
        <ele>76.599998474121</ele>
        <time>2021-05-30T07:41:22.000Z</time>
      </trkpt>
      <trkpt lat="47.25147" lon="-2.26952">
        <ele>76.599998474121</ele>
        <time>2021-05-30T07:41:26.000Z</time>
      </trkpt>
      <trkpt lat="47.25133" lon="-2.26927">
        <ele>76.599998474121</ele>
        <time>2021-05-30T07:41:30.000Z</time>
      </trkpt>
      <trkpt lat="47.25117" lon="-2.26902">
        <ele>76.599998474121</ele>
        <time>2021-05-30T07:41:34.000Z</time>
      </trkpt>
      <trkpt lat="47.25101" lon="-2.26893">
        <ele>76.599998474121</ele>
        <time>2021-05-30T07:41:37.000Z</time>
      </trkpt>
      <trkpt lat="47.25087" lon="-2.26874">
        <ele>76.599998474121</ele>
        <time>2021-05-30T07:41:40.000Z</time>
      </trkpt>
      <trkpt lat="47.25082" lon="-2.26869">
        <ele>76.599998474121</ele>
        <time>2021-05-30T07:41:41.000Z</time>
      </trkpt>
      <trkpt lat="47.25064" lon="-2.26863">
        <ele>76.599998474121</ele>
        <time>2021-05-30T07:41:44.000Z</time>
      </trkpt>
      <trkpt lat="47.25059" lon="-2.26862">
        <ele>76.599998474121</ele>
        <time>2021-05-30T07:41:45.000Z</time>
      </trkpt>
      <trkpt lat="47.25049" lon="-2.2686">
        <ele>76.599998474121</ele>
        <time>2021-05-30T07:41:47.000Z</time>
      </trkpt>
      <trkpt lat="47.2504" lon="-2.26862">
        <ele>76.599998474121</ele>
        <time>2021-05-30T07:41:49.000Z</time>
      </trkpt>
      <trkpt lat="47.25007" lon="-2.26872">
        <ele>76.599998474121</ele>
        <time>2021-05-30T07:41:55.000Z</time>
      </trkpt>
      <trkpt lat="47.24983" lon="-2.26875">
        <ele>77</ele>
        <time>2021-05-30T07:41:59.000Z</time>
      </trkpt>
      <trkpt lat="47.24977" lon="-2.26874">
        <ele>77.400001525879</ele>
        <time>2021-05-30T07:42:00.000Z</time>
      </trkpt>
      <trkpt lat="47.24971" lon="-2.26871">
        <ele>77.800003051758</ele>
        <time>2021-05-30T07:42:01.000Z</time>
      </trkpt>
      <trkpt lat="47.24965" lon="-2.26865">
        <ele>78.199996948242</ele>
        <time>2021-05-30T07:42:02.000Z</time>
      </trkpt>
      <trkpt lat="47.2496" lon="-2.2686">
        <ele>78.599998474121</ele>
        <time>2021-05-30T07:42:03.000Z</time>
      </trkpt>
      <trkpt lat="47.24949" lon="-2.26852">
        <ele>78.599998474121</ele>
        <time>2021-05-30T07:42:05.000Z</time>
      </trkpt>
      <trkpt lat="47.24937" lon="-2.26847">
        <ele>78.599998474121</ele>
        <time>2021-05-30T07:42:07.000Z</time>
      </trkpt>
      <trkpt lat="47.24932" lon="-2.26843">
        <ele>78.599998474121</ele>
        <time>2021-05-30T07:42:08.000Z</time>
      </trkpt>
      <trkpt lat="47.24923" lon="-2.26834">
        <ele>78.599998474121</ele>
        <time>2021-05-30T07:42:10.000Z</time>
      </trkpt>
      <trkpt lat="47.24918" lon="-2.26831">
        <ele>78.599998474121</ele>
        <time>2021-05-30T07:42:11.000Z</time>
      </trkpt>
      <trkpt lat="47.24913" lon="-2.26829">
        <ele>78</ele>
        <time>2021-05-30T07:42:12.000Z</time>
      </trkpt>
      <trkpt lat="47.24907" lon="-2.26827">
        <ele>77.599998474121</ele>
        <time>2021-05-30T07:42:13.000Z</time>
      </trkpt>
      <trkpt lat="47.24902" lon="-2.26827">
        <ele>77</ele>
        <time>2021-05-30T07:42:14.000Z</time>
      </trkpt>
      <trkpt lat="47.24896" lon="-2.26826">
        <ele>76.599998474121</ele>
        <time>2021-05-30T07:42:15.000Z</time>
      </trkpt>
      <trkpt lat="47.2489" lon="-2.26824">
        <ele>76.199996948242</ele>
        <time>2021-05-30T07:42:16.000Z</time>
      </trkpt>
      <trkpt lat="47.24872" lon="-2.26815">
        <ele>76.199996948242</ele>
        <time>2021-05-30T07:42:19.000Z</time>
      </trkpt>
      <trkpt lat="47.24848" lon="-2.26804">
        <ele>76.199996948242</ele>
        <time>2021-05-30T07:42:23.000Z</time>
      </trkpt>
      <trkpt lat="47.24841" lon="-2.26805">
        <ele>76.199996948242</ele>
        <time>2021-05-30T07:42:24.000Z</time>
      </trkpt>
      <trkpt lat="47.24821" lon="-2.26804">
        <ele>76.199996948242</ele>
        <time>2021-05-30T07:42:27.000Z</time>
      </trkpt>
      <trkpt lat="47.24808" lon="-2.26799">
        <ele>76.199996948242</ele>
        <time>2021-05-30T07:42:29.000Z</time>
      </trkpt>
      <trkpt lat="47.24788" lon="-2.26791">
        <ele>75.599998474121</ele>
        <time>2021-05-30T07:42:32.000Z</time>
      </trkpt>
      <trkpt lat="47.24784" lon="-2.2679">
        <ele>75.199996948242</ele>
        <time>2021-05-30T07:42:33.000Z</time>
      </trkpt>
      <trkpt lat="47.24779" lon="-2.26788">
        <ele>74.800003051758</ele>
        <time>2021-05-30T07:42:34.000Z</time>
      </trkpt>
      <trkpt lat="47.24775" lon="-2.26787">
        <ele>74.400001525879</ele>
        <time>2021-05-30T07:42:35.000Z</time>
      </trkpt>
      <trkpt lat="47.2477" lon="-2.26785">
        <ele>74</ele>
        <time>2021-05-30T07:42:36.000Z</time>
      </trkpt>
      <trkpt lat="47.24754" lon="-2.26783">
        <ele>74</ele>
        <time>2021-05-30T07:42:39.000Z</time>
      </trkpt>
      <trkpt lat="47.24741" lon="-2.26782">
        <ele>73.599998474121</ele>
        <time>2021-05-30T07:42:41.000Z</time>
      </trkpt>
      <trkpt lat="47.24735" lon="-2.26782">
        <ele>73.199996948242</ele>
        <time>2021-05-30T07:42:42.000Z</time>
      </trkpt>
      <trkpt lat="47.24729" lon="-2.26781">
        <ele>72.800003051758</ele>
        <time>2021-05-30T07:42:43.000Z</time>
      </trkpt>
      <trkpt lat="47.24722" lon="-2.26781">
        <ele>72.400001525879</ele>
        <time>2021-05-30T07:42:44.000Z</time>
      </trkpt>
      <trkpt lat="47.24716" lon="-2.26782">
        <ele>72</ele>
        <time>2021-05-30T07:42:45.000Z</time>
      </trkpt>
      <trkpt lat="47.24709" lon="-2.26783">
        <ele>72</ele>
        <time>2021-05-30T07:42:46.000Z</time>
      </trkpt>
      <trkpt lat="47.2468" lon="-2.26785">
        <ele>72</ele>
        <time>2021-05-30T07:42:51.000Z</time>
      </trkpt>
      <trkpt lat="47.24669" lon="-2.26799">
        <ele>71</ele>
        <time>2021-05-30T07:42:54.000Z</time>
      </trkpt>
      <trkpt lat="47.24664" lon="-2.26803">
        <ele>70.599998474121</ele>
        <time>2021-05-30T07:42:55.000Z</time>
      </trkpt>
      <trkpt lat="47.2466" lon="-2.26807">
        <ele>70.199996948242</ele>
        <time>2021-05-30T07:42:56.000Z</time>
      </trkpt>
      <trkpt lat="47.24654" lon="-2.26811">
        <ele>69.800003051758</ele>
        <time>2021-05-30T07:42:57.000Z</time>
      </trkpt>
      <trkpt lat="47.24648" lon="-2.26813">
        <ele>69.800003051758</ele>
        <time>2021-05-30T07:42:58.000Z</time>
      </trkpt>
      <trkpt lat="47.24629" lon="-2.26819">
        <ele>69.800003051758</ele>
        <time>2021-05-30T07:43:01.000Z</time>
      </trkpt>
      <trkpt lat="47.24623" lon="-2.26825">
        <ele>69.800003051758</ele>
        <time>2021-05-30T07:43:02.000Z</time>
      </trkpt>
      <trkpt lat="47.24606" lon="-2.26839">
        <ele>69.800003051758</ele>
        <time>2021-05-30T07:43:05.000Z</time>
      </trkpt>
      <trkpt lat="47.24601" lon="-2.26843">
        <ele>69.400001525879</ele>
        <time>2021-05-30T07:43:06.000Z</time>
      </trkpt>
      <trkpt lat="47.24596" lon="-2.26845">
        <ele>69</ele>
        <time>2021-05-30T07:43:07.000Z</time>
      </trkpt>
      <trkpt lat="47.2459" lon="-2.26845">
        <ele>68.599998474121</ele>
        <time>2021-05-30T07:43:08.000Z</time>
      </trkpt>
      <trkpt lat="47.24585" lon="-2.26846">
        <ele>68.199996948242</ele>
        <time>2021-05-30T07:43:09.000Z</time>
      </trkpt>
      <trkpt lat="47.2458" lon="-2.26848">
        <ele>67.800003051758</ele>
        <time>2021-05-30T07:43:10.000Z</time>
      </trkpt>
      <trkpt lat="47.2457" lon="-2.26855">
        <ele>67.800003051758</ele>
        <time>2021-05-30T07:43:12.000Z</time>
      </trkpt>
      <trkpt lat="47.24537" lon="-2.26884">
        <ele>67.400001525879</ele>
        <time>2021-05-30T07:43:18.000Z</time>
      </trkpt>
      <trkpt lat="47.24533" lon="-2.26889">
        <ele>67</ele>
        <time>2021-05-30T07:43:19.000Z</time>
      </trkpt>
      <trkpt lat="47.24529" lon="-2.26893">
        <ele>66.599998474121</ele>
        <time>2021-05-30T07:43:20.000Z</time>
      </trkpt>
      <trkpt lat="47.24526" lon="-2.26898">
        <ele>66.199996948242</ele>
        <time>2021-05-30T07:43:21.000Z</time>
      </trkpt>
      <trkpt lat="47.24523" lon="-2.26903">
        <ele>65.800003051758</ele>
        <time>2021-05-30T07:43:22.000Z</time>
      </trkpt>
      <trkpt lat="47.24513" lon="-2.26921">
        <ele>65.800003051758</ele>
        <time>2021-05-30T07:43:25.000Z</time>
      </trkpt>
      <trkpt lat="47.24509" lon="-2.26926">
        <ele>65.800003051758</ele>
        <time>2021-05-30T07:43:26.000Z</time>
      </trkpt>
      <trkpt lat="47.24504" lon="-2.2693">
        <ele>65.800003051758</ele>
        <time>2021-05-30T07:43:27.000Z</time>
      </trkpt>
      <trkpt lat="47.24487" lon="-2.2694">
        <ele>65.800003051758</ele>
        <time>2021-05-30T07:43:30.000Z</time>
      </trkpt>
      <trkpt lat="47.24481" lon="-2.26941">
        <ele>65.800003051758</ele>
        <time>2021-05-30T07:43:31.000Z</time>
      </trkpt>
      <trkpt lat="47.24476" lon="-2.26941">
        <ele>65.800003051758</ele>
        <time>2021-05-30T07:43:32.000Z</time>
      </trkpt>
      <trkpt lat="47.24461" lon="-2.2694">
        <ele>65.800003051758</ele>
        <time>2021-05-30T07:43:35.000Z</time>
      </trkpt>
      <trkpt lat="47.24444" lon="-2.26939">
        <ele>65.800003051758</ele>
        <time>2021-05-30T07:43:38.000Z</time>
      </trkpt>
      <trkpt lat="47.2444" lon="-2.26941">
        <ele>65.800003051758</ele>
        <time>2021-05-30T07:43:39.000Z</time>
      </trkpt>
      <trkpt lat="47.24419" lon="-2.26956">
        <ele>65.800003051758</ele>
        <time>2021-05-30T07:43:43.000Z</time>
      </trkpt>
      <trkpt lat="47.244" lon="-2.26984">
        <ele>65.800003051758</ele>
        <time>2021-05-30T07:43:47.000Z</time>
      </trkpt>
      <trkpt lat="47.24363" lon="-2.27036">
        <ele>65.800003051758</ele>
        <time>2021-05-30T07:43:54.000Z</time>
      </trkpt>
      <trkpt lat="47.24353" lon="-2.27051">
        <ele>65.400001525879</ele>
        <time>2021-05-30T07:43:56.000Z</time>
      </trkpt>
      <trkpt lat="47.24348" lon="-2.27059">
        <ele>64.800003051758</ele>
        <time>2021-05-30T07:43:57.000Z</time>
      </trkpt>
      <trkpt lat="47.24342" lon="-2.27065">
        <ele>64.400001525879</ele>
        <time>2021-05-30T07:43:58.000Z</time>
      </trkpt>
      <trkpt lat="47.24336" lon="-2.27071">
        <ele>64</ele>
        <time>2021-05-30T07:43:59.000Z</time>
      </trkpt>
      <trkpt lat="47.24329" lon="-2.27078">
        <ele>63.599998474121</ele>
        <time>2021-05-30T07:44:00.000Z</time>
      </trkpt>
      <trkpt lat="47.24315" lon="-2.27092">
        <ele>63.599998474121</ele>
        <time>2021-05-30T07:44:02.000Z</time>
      </trkpt>
      <trkpt lat="47.24298" lon="-2.2711">
        <ele>63.599998474121</ele>
        <time>2021-05-30T07:44:05.000Z</time>
      </trkpt>
      <trkpt lat="47.24275" lon="-2.27114">
        <ele>63.599998474121</ele>
        <time>2021-05-30T07:44:09.000Z</time>
      </trkpt>
      <trkpt lat="47.24252" lon="-2.27123">
        <ele>63.599998474121</ele>
        <time>2021-05-30T07:44:12.000Z</time>
      </trkpt>
      <trkpt lat="47.24245" lon="-2.27128">
        <ele>63.599998474121</ele>
        <time>2021-05-30T07:44:13.000Z</time>
      </trkpt>
      <trkpt lat="47.24215" lon="-2.27147">
        <ele>63.200000762939</ele>
        <time>2021-05-30T07:44:17.000Z</time>
      </trkpt>
      <trkpt lat="47.24208" lon="-2.27153">
        <ele>62.799999237061</ele>
        <time>2021-05-30T07:44:18.000Z</time>
      </trkpt>
      <trkpt lat="47.24201" lon="-2.27157">
        <ele>62.400001525879</ele>
        <time>2021-05-30T07:44:19.000Z</time>
      </trkpt>
      <trkpt lat="47.24194" lon="-2.27161">
        <ele>61.799999237061</ele>
        <time>2021-05-30T07:44:20.000Z</time>
      </trkpt>
      <trkpt lat="47.24186" lon="-2.27164">
        <ele>61.400001525879</ele>
        <time>2021-05-30T07:44:21.000Z</time>
      </trkpt>
      <trkpt lat="47.24171" lon="-2.2717">
        <ele>61.400001525879</ele>
        <time>2021-05-30T07:44:23.000Z</time>
      </trkpt>
      <trkpt lat="47.2413" lon="-2.27186">
        <ele>61.400001525879</ele>
        <time>2021-05-30T07:44:29.000Z</time>
      </trkpt>
      <trkpt lat="47.2411" lon="-2.27191">
        <ele>61</ele>
        <time>2021-05-30T07:44:33.000Z</time>
      </trkpt>
      <trkpt lat="47.24107" lon="-2.27189">
        <ele>60.599998474121</ele>
        <time>2021-05-30T07:44:34.000Z</time>
      </trkpt>
      <trkpt lat="47.24104" lon="-2.27184">
        <ele>60.200000762939</ele>
        <time>2021-05-30T07:44:35.000Z</time>
      </trkpt>
      <trkpt lat="47.24103" lon="-2.27179">
        <ele>59.799999237061</ele>
        <time>2021-05-30T07:44:36.000Z</time>
      </trkpt>
      <trkpt lat="47.24102" lon="-2.27174">
        <ele>59.400001525879</ele>
        <time>2021-05-30T07:44:37.000Z</time>
      </trkpt>
      <trkpt lat="47.241" lon="-2.27163">
        <ele>59.400001525879</ele>
        <time>2021-05-30T07:44:39.000Z</time>
      </trkpt>
      <trkpt lat="47.241" lon="-2.27151">
        <ele>59.400001525879</ele>
        <time>2021-05-30T07:44:41.000Z</time>
      </trkpt>
      <trkpt lat="47.24099" lon="-2.27103">
        <ele>59.400001525879</ele>
        <time>2021-05-30T07:44:47.000Z</time>
      </trkpt>
      <trkpt lat="47.241" lon="-2.27039">
        <ele>59.400001525879</ele>
        <time>2021-05-30T07:44:54.000Z</time>
      </trkpt>
      <trkpt lat="47.24101" lon="-2.27033">
        <ele>59</ele>
        <time>2021-05-30T07:44:55.000Z</time>
      </trkpt>
      <trkpt lat="47.24101" lon="-2.27028">
        <ele>58.599998474121</ele>
        <time>2021-05-30T07:44:56.000Z</time>
      </trkpt>
      <trkpt lat="47.24101" lon="-2.27024">
        <ele>58.200000762939</ele>
        <time>2021-05-30T07:44:57.000Z</time>
      </trkpt>
      <trkpt lat="47.241" lon="-2.27023">
        <ele>57.400001525879</ele>
        <time>2021-05-30T07:44:58.000Z</time>
      </trkpt>
      <trkpt lat="47.241" lon="-2.27022">
        <ele>57.400001525879</ele>
        <time>2021-05-30T07:44:59.000Z</time>
      </trkpt>
      <trkpt lat="47.24097" lon="-2.27022">
        <ele>57.400001525879</ele>
        <time>2021-05-30T07:45:01.000Z</time>
      </trkpt>
      <trkpt lat="47.24093" lon="-2.27026">
        <ele>57.400001525879</ele>
        <time>2021-05-30T07:45:05.000Z</time>
      </trkpt>
      <trkpt lat="47.24078" lon="-2.27032">
        <ele>57.400001525879</ele>
        <time>2021-05-30T07:45:09.000Z</time>
      </trkpt>
      <trkpt lat="47.24065" lon="-2.27037">
        <ele>57</ele>
        <time>2021-05-30T07:45:14.000Z</time>
      </trkpt>
      <trkpt lat="47.24064" lon="-2.27035">
        <ele>56.400001525879</ele>
        <time>2021-05-30T07:45:15.000Z</time>
      </trkpt>
      <trkpt lat="47.24062" lon="-2.27032">
        <ele>56</ele>
        <time>2021-05-30T07:45:16.000Z</time>
      </trkpt>
      <trkpt lat="47.24061" lon="-2.27029">
        <ele>55.599998474121</ele>
        <time>2021-05-30T07:45:17.000Z</time>
      </trkpt>
      <trkpt lat="47.2406" lon="-2.27026">
        <ele>55.200000762939</ele>
        <time>2021-05-30T07:45:18.000Z</time>
      </trkpt>
      <trkpt lat="47.24057" lon="-2.27004">
        <ele>55.200000762939</ele>
        <time>2021-05-30T07:45:25.000Z</time>
      </trkpt>
      <trkpt lat="47.24067" lon="-2.26999">
        <ele>55.200000762939</ele>
        <time>2021-05-30T07:45:29.000Z</time>
      </trkpt>
      <trkpt lat="47.24086" lon="-2.26997">
        <ele>55.200000762939</ele>
        <time>2021-05-30T07:45:34.000Z</time>
      </trkpt>
      <trkpt lat="47.24098" lon="-2.26989">
        <ele>55.599998474121</ele>
        <time>2021-05-30T07:45:38.000Z</time>
      </trkpt>
      <trkpt lat="47.24099" lon="-2.26984">
        <ele>56</ele>
        <time>2021-05-30T07:45:39.000Z</time>
      </trkpt>
      <trkpt lat="47.241" lon="-2.26979">
        <ele>56.400001525879</ele>
        <time>2021-05-30T07:45:40.000Z</time>
      </trkpt>
      <trkpt lat="47.24099" lon="-2.26973">
        <ele>56.799999237061</ele>
        <time>2021-05-30T07:45:41.000Z</time>
      </trkpt>
      <trkpt lat="47.24099" lon="-2.26967">
        <ele>57.200000762939</ele>
        <time>2021-05-30T07:45:42.000Z</time>
      </trkpt>
      <trkpt lat="47.241" lon="-2.26955">
        <ele>57.599998474121</ele>
        <time>2021-05-30T07:45:44.000Z</time>
      </trkpt>
      <trkpt lat="47.241" lon="-2.26948">
        <ele>58</ele>
        <time>2021-05-30T07:45:45.000Z</time>
      </trkpt>
      <trkpt lat="47.241" lon="-2.26941">
        <ele>58.599998474121</ele>
        <time>2021-05-30T07:45:46.000Z</time>
      </trkpt>
      <trkpt lat="47.241" lon="-2.26934">
        <ele>59.400001525879</ele>
        <time>2021-05-30T07:45:47.000Z</time>
      </trkpt>
      <trkpt lat="47.241" lon="-2.26921">
        <ele>59.400001525879</ele>
        <time>2021-05-30T07:45:49.000Z</time>
      </trkpt>
      <trkpt lat="47.24101" lon="-2.26914">
        <ele>59.799999237061</ele>
        <time>2021-05-30T07:45:50.000Z</time>
      </trkpt>
      <trkpt lat="47.241" lon="-2.26907">
        <ele>60.200000762939</ele>
        <time>2021-05-30T07:45:51.000Z</time>
      </trkpt>
      <trkpt lat="47.241" lon="-2.26901">
        <ele>60.599998474121</ele>
        <time>2021-05-30T07:45:52.000Z</time>
      </trkpt>
      <trkpt lat="47.241" lon="-2.26894">
        <ele>61</ele>
        <time>2021-05-30T07:45:53.000Z</time>
      </trkpt>
      <trkpt lat="47.241" lon="-2.26888">
        <ele>61.400001525879</ele>
        <time>2021-05-30T07:45:54.000Z</time>
      </trkpt>
      <trkpt lat="47.24101" lon="-2.26864">
        <ele>62</ele>
        <time>2021-05-30T07:45:58.000Z</time>
      </trkpt>
      <trkpt lat="47.24101" lon="-2.26858">
        <ele>62.400001525879</ele>
        <time>2021-05-30T07:45:59.000Z</time>
      </trkpt>
      <trkpt lat="47.24102" lon="-2.26852">
        <ele>62.799999237061</ele>
        <time>2021-05-30T07:46:00.000Z</time>
      </trkpt>
      <trkpt lat="47.24102" lon="-2.26847">
        <ele>63.200000762939</ele>
        <time>2021-05-30T07:46:01.000Z</time>
      </trkpt>
      <trkpt lat="47.241" lon="-2.26843">
        <ele>63.799999237061</ele>
        <time>2021-05-30T07:46:02.000Z</time>
      </trkpt>
      <trkpt lat="47.24093" lon="-2.26835">
        <ele>63.799999237061</ele>
        <time>2021-05-30T07:46:05.000Z</time>
      </trkpt>
      <trkpt lat="47.24078" lon="-2.2684">
        <ele>63.799999237061</ele>
        <time>2021-05-30T07:46:09.000Z</time>
      </trkpt>
      <trkpt lat="47.24065" lon="-2.26842">
        <ele>63.799999237061</ele>
        <time>2021-05-30T07:46:12.000Z</time>
      </trkpt>
      <trkpt lat="47.24061" lon="-2.26844">
        <ele>64.199996948242</ele>
        <time>2021-05-30T07:46:13.000Z</time>
      </trkpt>
      <trkpt lat="47.24058" lon="-2.26848">
        <ele>64.599998474121</ele>
        <time>2021-05-30T07:46:14.000Z</time>
      </trkpt>
      <trkpt lat="47.24056" lon="-2.26853">
        <ele>65</ele>
        <time>2021-05-30T07:46:15.000Z</time>
      </trkpt>
      <trkpt lat="47.24054" lon="-2.26857">
        <ele>65.400001525879</ele>
        <time>2021-05-30T07:46:16.000Z</time>
      </trkpt>
      <trkpt lat="47.24054" lon="-2.26863">
        <ele>65.800003051758</ele>
        <time>2021-05-30T07:46:17.000Z</time>
      </trkpt>
      <trkpt lat="47.24054" lon="-2.2687">
        <ele>65.800003051758</ele>
        <time>2021-05-30T07:46:18.000Z</time>
      </trkpt>
      <trkpt lat="47.24053" lon="-2.26888">
        <ele>65.800003051758</ele>
        <time>2021-05-30T07:46:21.000Z</time>
      </trkpt>
      <trkpt lat="47.2405" lon="-2.26906">
        <ele>65.800003051758</ele>
        <time>2021-05-30T07:46:23.000Z</time>
      </trkpt>
      <trkpt lat="47.24045" lon="-2.26931">
        <ele>65.199996948242</ele>
        <time>2021-05-30T07:46:26.000Z</time>
      </trkpt>
      <trkpt lat="47.24045" lon="-2.2694">
        <ele>64.800003051758</ele>
        <time>2021-05-30T07:46:27.000Z</time>
      </trkpt>
      <trkpt lat="47.24045" lon="-2.26947">
        <ele>64.400001525879</ele>
        <time>2021-05-30T07:46:28.000Z</time>
      </trkpt>
      <trkpt lat="47.24044" lon="-2.26956">
        <ele>63.799999237061</ele>
        <time>2021-05-30T07:46:29.000Z</time>
      </trkpt>
      <trkpt lat="47.24044" lon="-2.26964">
        <ele>63.200000762939</ele>
        <time>2021-05-30T07:46:30.000Z</time>
      </trkpt>
      <trkpt lat="47.24044" lon="-2.26972">
        <ele>62.599998474121</ele>
        <time>2021-05-30T07:46:31.000Z</time>
      </trkpt>
      <trkpt lat="47.24045" lon="-2.26978">
        <ele>61.799999237061</ele>
        <time>2021-05-30T07:46:32.000Z</time>
      </trkpt>
      <trkpt lat="47.24045" lon="-2.26983">
        <ele>61.200000762939</ele>
        <time>2021-05-30T07:46:33.000Z</time>
      </trkpt>
      <trkpt lat="47.24044" lon="-2.26988">
        <ele>60.599998474121</ele>
        <time>2021-05-30T07:46:34.000Z</time>
      </trkpt>
      <trkpt lat="47.24043" lon="-2.26992">
        <ele>59.799999237061</ele>
        <time>2021-05-30T07:46:35.000Z</time>
      </trkpt>
      <trkpt lat="47.24041" lon="-2.26996">
        <ele>59.200000762939</ele>
        <time>2021-05-30T07:46:36.000Z</time>
      </trkpt>
      <trkpt lat="47.2404" lon="-2.26998">
        <ele>58</ele>
        <time>2021-05-30T07:46:37.000Z</time>
      </trkpt>
      <trkpt lat="47.24037" lon="-2.26998">
        <ele>57.400001525879</ele>
        <time>2021-05-30T07:46:38.000Z</time>
      </trkpt>
      <trkpt lat="47.24035" lon="-2.26996">
        <ele>56.799999237061</ele>
        <time>2021-05-30T07:46:39.000Z</time>
      </trkpt>
      <trkpt lat="47.24033" lon="-2.26994">
        <ele>56.799999237061</ele>
        <time>2021-05-30T07:46:40.000Z</time>
      </trkpt>
      <trkpt lat="47.24026" lon="-2.26989">
        <ele>56.799999237061</ele>
        <time>2021-05-30T07:46:42.000Z</time>
      </trkpt>
      <trkpt lat="47.24019" lon="-2.26982">
        <ele>56.799999237061</ele>
        <time>2021-05-30T07:46:44.000Z</time>
      </trkpt>
      <trkpt lat="47.24016" lon="-2.26978">
        <ele>56.799999237061</ele>
        <time>2021-05-30T07:46:45.000Z</time>
      </trkpt>
      <trkpt lat="47.24003" lon="-2.26965">
        <ele>56.799999237061</ele>
        <time>2021-05-30T07:46:49.000Z</time>
      </trkpt>
      <trkpt lat="47.23999" lon="-2.26962">
        <ele>56.799999237061</ele>
        <time>2021-05-30T07:46:50.000Z</time>
      </trkpt>
      <trkpt lat="47.23979" lon="-2.26949">
        <ele>56.799999237061</ele>
        <time>2021-05-30T07:46:55.000Z</time>
      </trkpt>
      <trkpt lat="47.23967" lon="-2.26943">
        <ele>56.799999237061</ele>
        <time>2021-05-30T07:46:58.000Z</time>
      </trkpt>
      <trkpt lat="47.23956" lon="-2.26928">
        <ele>56.799999237061</ele>
        <time>2021-05-30T07:47:01.000Z</time>
      </trkpt>
      <trkpt lat="47.23946" lon="-2.26914">
        <ele>56.799999237061</ele>
        <time>2021-05-30T07:47:05.000Z</time>
      </trkpt>
      <trkpt lat="47.23945" lon="-2.269">
        <ele>57.200000762939</ele>
        <time>2021-05-30T07:47:08.000Z</time>
      </trkpt>
      <trkpt lat="47.23946" lon="-2.26895">
        <ele>57.599998474121</ele>
        <time>2021-05-30T07:47:09.000Z</time>
      </trkpt>
      <trkpt lat="47.23947" lon="-2.26891">
        <ele>58</ele>
        <time>2021-05-30T07:47:10.000Z</time>
      </trkpt>
      <trkpt lat="47.23947" lon="-2.26888">
        <ele>58.400001525879</ele>
        <time>2021-05-30T07:47:11.000Z</time>
      </trkpt>
      <trkpt lat="47.23947" lon="-2.26884">
        <ele>59</ele>
        <time>2021-05-30T07:47:12.000Z</time>
      </trkpt>
      <trkpt lat="47.23946" lon="-2.26879">
        <ele>59</ele>
        <time>2021-05-30T07:47:13.000Z</time>
      </trkpt>
      <trkpt lat="47.23945" lon="-2.26873">
        <ele>59.400001525879</ele>
        <time>2021-05-30T07:47:14.000Z</time>
      </trkpt>
      <trkpt lat="47.23944" lon="-2.26867">
        <ele>59.799999237061</ele>
        <time>2021-05-30T07:47:15.000Z</time>
      </trkpt>
      <trkpt lat="47.23942" lon="-2.26862">
        <ele>60.200000762939</ele>
        <time>2021-05-30T07:47:16.000Z</time>
      </trkpt>
      <trkpt lat="47.2394" lon="-2.26855">
        <ele>60.799999237061</ele>
        <time>2021-05-30T07:47:17.000Z</time>
      </trkpt>
      <trkpt lat="47.23939" lon="-2.26849">
        <ele>61.200000762939</ele>
        <time>2021-05-30T07:47:18.000Z</time>
      </trkpt>
      <trkpt lat="47.23934" lon="-2.26816">
        <ele>61.200000762939</ele>
        <time>2021-05-30T07:47:24.000Z</time>
      </trkpt>
      <trkpt lat="47.23929" lon="-2.26796">
        <ele>61.200000762939</ele>
        <time>2021-05-30T07:47:30.000Z</time>
      </trkpt>
      <trkpt lat="47.23915" lon="-2.26789">
        <ele>61.200000762939</ele>
        <time>2021-05-30T07:47:35.000Z</time>
      </trkpt>
      <trkpt lat="47.23912" lon="-2.26788">
        <ele>61.200000762939</ele>
        <time>2021-05-30T07:47:36.000Z</time>
      </trkpt>
      <trkpt lat="47.23904" lon="-2.26784">
        <ele>61.200000762939</ele>
        <time>2021-05-30T07:47:39.000Z</time>
      </trkpt>
      <trkpt lat="47.23902" lon="-2.26782">
        <ele>61.599998474121</ele>
        <time>2021-05-30T07:47:41.000Z</time>
      </trkpt>
      <trkpt lat="47.23898" lon="-2.26776">
        <ele>62</ele>
        <time>2021-05-30T07:47:42.000Z</time>
      </trkpt>
      <trkpt lat="47.23895" lon="-2.2677">
        <ele>62.400001525879</ele>
        <time>2021-05-30T07:47:43.000Z</time>
      </trkpt>
      <trkpt lat="47.23892" lon="-2.26765">
        <ele>62.799999237061</ele>
        <time>2021-05-30T07:47:44.000Z</time>
      </trkpt>
      <trkpt lat="47.23889" lon="-2.26761">
        <ele>62.400001525879</ele>
        <time>2021-05-30T07:47:45.000Z</time>
      </trkpt>
      <trkpt lat="47.23888" lon="-2.26756">
        <ele>61.799999237061</ele>
        <time>2021-05-30T07:47:46.000Z</time>
      </trkpt>
      <trkpt lat="47.23888" lon="-2.26752">
        <ele>61.400001525879</ele>
        <time>2021-05-30T07:47:47.000Z</time>
      </trkpt>
      <trkpt lat="47.23889" lon="-2.26748">
        <ele>61</ele>
        <time>2021-05-30T07:47:48.000Z</time>
      </trkpt>
      <trkpt lat="47.23892" lon="-2.26745">
        <ele>60.400001525879</ele>
        <time>2021-05-30T07:47:49.000Z</time>
      </trkpt>
      <trkpt lat="47.23895" lon="-2.26745">
        <ele>60.400001525879</ele>
        <time>2021-05-30T07:47:50.000Z</time>
      </trkpt>
      <trkpt lat="47.23909" lon="-2.26746">
        <ele>60.400001525879</ele>
        <time>2021-05-30T07:47:54.000Z</time>
      </trkpt>
      <trkpt lat="47.23913" lon="-2.26746">
        <ele>60.400001525879</ele>
        <time>2021-05-30T07:47:55.000Z</time>
      </trkpt>
      <trkpt lat="47.23934" lon="-2.26746">
        <ele>60.400001525879</ele>
        <time>2021-05-30T07:48:01.000Z</time>
      </trkpt>
      <trkpt lat="47.23954" lon="-2.26733">
        <ele>60.799999237061</ele>
        <time>2021-05-30T07:48:07.000Z</time>
      </trkpt>
      <trkpt lat="47.23958" lon="-2.26733">
        <ele>61.400001525879</ele>
        <time>2021-05-30T07:48:08.000Z</time>
      </trkpt>
      <trkpt lat="47.23961" lon="-2.26733">
        <ele>61.799999237061</ele>
        <time>2021-05-30T07:48:09.000Z</time>
      </trkpt>
      <trkpt lat="47.23965" lon="-2.26733">
        <ele>62.200000762939</ele>
        <time>2021-05-30T07:48:10.000Z</time>
      </trkpt>
      <trkpt lat="47.23968" lon="-2.26734">
        <ele>62.599998474121</ele>
        <time>2021-05-30T07:48:11.000Z</time>
      </trkpt>
      <trkpt lat="47.23984" lon="-2.26737">
        <ele>62.599998474121</ele>
        <time>2021-05-30T07:48:17.000Z</time>
      </trkpt>
      <trkpt lat="47.23999" lon="-2.26737">
        <ele>62.599998474121</ele>
        <time>2021-05-30T07:48:22.000Z</time>
      </trkpt>
      <trkpt lat="47.24009" lon="-2.26737">
        <ele>63</ele>
        <time>2021-05-30T07:48:25.000Z</time>
      </trkpt>
      <trkpt lat="47.24013" lon="-2.26737">
        <ele>63.400001525879</ele>
        <time>2021-05-30T07:48:26.000Z</time>
      </trkpt>
      <trkpt lat="47.24016" lon="-2.26736">
        <ele>63.799999237061</ele>
        <time>2021-05-30T07:48:27.000Z</time>
      </trkpt>
      <trkpt lat="47.2402" lon="-2.26735">
        <ele>64.199996948242</ele>
        <time>2021-05-30T07:48:28.000Z</time>
      </trkpt>
      <trkpt lat="47.24023" lon="-2.26735">
        <ele>64.800003051758</ele>
        <time>2021-05-30T07:48:29.000Z</time>
      </trkpt>
      <trkpt lat="47.24027" lon="-2.26734">
        <ele>65.400001525879</ele>
        <time>2021-05-30T07:48:30.000Z</time>
      </trkpt>
      <trkpt lat="47.2403" lon="-2.26732">
        <ele>66</ele>
        <time>2021-05-30T07:48:31.000Z</time>
      </trkpt>
      <trkpt lat="47.24034" lon="-2.2673">
        <ele>66.400001525879</ele>
        <time>2021-05-30T07:48:32.000Z</time>
      </trkpt>
      <trkpt lat="47.24037" lon="-2.26728">
        <ele>67</ele>
        <time>2021-05-30T07:48:33.000Z</time>
      </trkpt>
      <trkpt lat="47.24041" lon="-2.26725">
        <ele>67</ele>
        <time>2021-05-30T07:48:34.000Z</time>
      </trkpt>
      <trkpt lat="47.24048" lon="-2.26721">
        <ele>67</ele>
        <time>2021-05-30T07:48:36.000Z</time>
      </trkpt>
      <trkpt lat="47.24057" lon="-2.26713">
        <ele>67</ele>
        <time>2021-05-30T07:48:39.000Z</time>
      </trkpt>
      <trkpt lat="47.24069" lon="-2.26697">
        <ele>67</ele>
        <time>2021-05-30T07:48:45.000Z</time>
      </trkpt>
      <trkpt lat="47.24074" lon="-2.2669">
        <ele>67.400001525879</ele>
        <time>2021-05-30T07:48:47.000Z</time>
      </trkpt>
      <trkpt lat="47.24076" lon="-2.26686">
        <ele>68</ele>
        <time>2021-05-30T07:48:48.000Z</time>
      </trkpt>
      <trkpt lat="47.24078" lon="-2.26681">
        <ele>68.400001525879</ele>
        <time>2021-05-30T07:48:49.000Z</time>
      </trkpt>
      <trkpt lat="47.2408" lon="-2.26677">
        <ele>68.800003051758</ele>
        <time>2021-05-30T07:48:50.000Z</time>
      </trkpt>
      <trkpt lat="47.24082" lon="-2.26673">
        <ele>69.199996948242</ele>
        <time>2021-05-30T07:48:51.000Z</time>
      </trkpt>
      <trkpt lat="47.24084" lon="-2.26669">
        <ele>69.199996948242</ele>
        <time>2021-05-30T07:48:52.000Z</time>
      </trkpt>
      <trkpt lat="47.24095" lon="-2.26651">
        <ele>69.199996948242</ele>
        <time>2021-05-30T07:48:58.000Z</time>
      </trkpt>
      <trkpt lat="47.24097" lon="-2.26651">
        <ele>69.199996948242</ele>
        <time>2021-05-30T07:48:59.000Z</time>
      </trkpt>
      <trkpt lat="47.24107" lon="-2.26651">
        <ele>69.199996948242</ele>
        <time>2021-05-30T07:49:03.000Z</time>
      </trkpt>
      <trkpt lat="47.24113" lon="-2.26641">
        <ele>69.199996948242</ele>
        <time>2021-05-30T07:49:06.000Z</time>
      </trkpt>
      <trkpt lat="47.24114" lon="-2.2664">
        <ele>69.199996948242</ele>
        <time>2021-05-30T07:49:07.000Z</time>
      </trkpt>
      <trkpt lat="47.24115" lon="-2.26639">
        <ele>69.199996948242</ele>
        <time>2021-05-30T07:49:08.000Z</time>
      </trkpt>
      <trkpt lat="47.2412" lon="-2.2664">
        <ele>69.199996948242</ele>
        <time>2021-05-30T07:49:11.000Z</time>
      </trkpt>
      <trkpt lat="47.24124" lon="-2.26625">
        <ele>69.199996948242</ele>
        <time>2021-05-30T07:49:15.000Z</time>
      </trkpt>
      <trkpt lat="47.24128" lon="-2.26614">
        <ele>68.800003051758</ele>
        <time>2021-05-30T07:49:17.000Z</time>
      </trkpt>
      <trkpt lat="47.2413" lon="-2.26609">
        <ele>68.400001525879</ele>
        <time>2021-05-30T07:49:18.000Z</time>
      </trkpt>
      <trkpt lat="47.24133" lon="-2.26604">
        <ele>68</ele>
        <time>2021-05-30T07:49:19.000Z</time>
      </trkpt>
      <trkpt lat="47.24132" lon="-2.26606">
        <ele>67.599998474121</ele>
        <time>2021-05-30T07:49:20.000Z</time>
      </trkpt>
      <trkpt lat="47.24133" lon="-2.26605">
        <ele>67.199996948242</ele>
        <time>2021-05-30T07:49:21.000Z</time>
      </trkpt>
      <trkpt lat="47.24133" lon="-2.26602">
        <ele>67.199996948242</ele>
        <time>2021-05-30T07:49:41.000Z</time>
      </trkpt>
      <trkpt lat="47.24136" lon="-2.26597">
        <ele>67.199996948242</ele>
        <time>2021-05-30T07:49:43.000Z</time>
      </trkpt>
      <trkpt lat="47.24138" lon="-2.26589">
        <ele>67.199996948242</ele>
        <time>2021-05-30T07:49:46.000Z</time>
      </trkpt>
      <trkpt lat="47.24137" lon="-2.26583">
        <ele>67.199996948242</ele>
        <time>2021-05-30T07:49:48.000Z</time>
      </trkpt>
      <trkpt lat="47.24138" lon="-2.26581">
        <ele>66.800003051758</ele>
        <time>2021-05-30T07:49:49.000Z</time>
      </trkpt>
      <trkpt lat="47.2414" lon="-2.26579">
        <ele>66.400001525879</ele>
        <time>2021-05-30T07:49:50.000Z</time>
      </trkpt>
      <trkpt lat="47.24141" lon="-2.26577">
        <ele>65.800003051758</ele>
        <time>2021-05-30T07:49:51.000Z</time>
      </trkpt>
      <trkpt lat="47.24143" lon="-2.26578">
        <ele>65.400001525879</ele>
        <time>2021-05-30T07:49:52.000Z</time>
      </trkpt>
      <trkpt lat="47.24145" lon="-2.26577">
        <ele>65</ele>
        <time>2021-05-30T07:49:53.000Z</time>
      </trkpt>
      <trkpt lat="47.24147" lon="-2.26576">
        <ele>65</ele>
        <time>2021-05-30T07:49:54.000Z</time>
      </trkpt>
      <trkpt lat="47.24154" lon="-2.26577">
        <ele>65</ele>
        <time>2021-05-30T07:49:57.000Z</time>
      </trkpt>
      <trkpt lat="47.24159" lon="-2.26581">
        <ele>65.400001525879</ele>
        <time>2021-05-30T07:50:00.000Z</time>
      </trkpt>
      <trkpt lat="47.2416" lon="-2.26583">
        <ele>65.800003051758</ele>
        <time>2021-05-30T07:50:01.000Z</time>
      </trkpt>
      <trkpt lat="47.24161" lon="-2.26585">
        <ele>66.400001525879</ele>
        <time>2021-05-30T07:50:02.000Z</time>
      </trkpt>
      <trkpt lat="47.24162" lon="-2.26588">
        <ele>66.800003051758</ele>
        <time>2021-05-30T07:50:03.000Z</time>
      </trkpt>
      <trkpt lat="47.2416" lon="-2.26593">
        <ele>67.199996948242</ele>
        <time>2021-05-30T07:50:04.000Z</time>
      </trkpt>
      <trkpt lat="47.24158" lon="-2.26601">
        <ele>67.599998474121</ele>
        <time>2021-05-30T07:50:06.000Z</time>
      </trkpt>
      <trkpt lat="47.24157" lon="-2.26605">
        <ele>68</ele>
        <time>2021-05-30T07:50:07.000Z</time>
      </trkpt>
      <trkpt lat="47.24157" lon="-2.26608">
        <ele>68.400001525879</ele>
        <time>2021-05-30T07:50:08.000Z</time>
      </trkpt>
      <trkpt lat="47.24158" lon="-2.26611">
        <ele>68.800003051758</ele>
        <time>2021-05-30T07:50:09.000Z</time>
      </trkpt>
      <trkpt lat="47.24159" lon="-2.26612">
        <ele>69.199996948242</ele>
        <time>2021-05-30T07:50:10.000Z</time>
      </trkpt>
      <trkpt lat="47.24161" lon="-2.26612">
        <ele>69.199996948242</ele>
        <time>2021-05-30T07:50:11.000Z</time>
      </trkpt>
      <trkpt lat="47.24174" lon="-2.26613">
        <ele>69.199996948242</ele>
        <time>2021-05-30T07:50:15.000Z</time>
      </trkpt>
      <trkpt lat="47.24179" lon="-2.26614">
        <ele>69.199996948242</ele>
        <time>2021-05-30T07:50:16.000Z</time>
      </trkpt>
      <trkpt lat="47.24188" lon="-2.26618">
        <ele>69.599998474121</ele>
        <time>2021-05-30T07:50:18.000Z</time>
      </trkpt>
      <trkpt lat="47.24192" lon="-2.2662">
        <ele>70.400001525879</ele>
        <time>2021-05-30T07:50:19.000Z</time>
      </trkpt>
      <trkpt lat="47.24197" lon="-2.26621">
        <ele>70.800003051758</ele>
        <time>2021-05-30T07:50:20.000Z</time>
      </trkpt>
      <trkpt lat="47.24201" lon="-2.26622">
        <ele>71.400001525879</ele>
        <time>2021-05-30T07:50:21.000Z</time>
      </trkpt>
      <trkpt lat="47.24205" lon="-2.26623">
        <ele>71.400001525879</ele>
        <time>2021-05-30T07:50:22.000Z</time>
      </trkpt>
      <trkpt lat="47.24218" lon="-2.26627">
        <ele>71.400001525879</ele>
        <time>2021-05-30T07:50:25.000Z</time>
      </trkpt>
      <trkpt lat="47.24227" lon="-2.26622">
        <ele>71.400001525879</ele>
        <time>2021-05-30T07:50:27.000Z</time>
      </trkpt>
      <trkpt lat="47.24235" lon="-2.26614">
        <ele>71.400001525879</ele>
        <time>2021-05-30T07:50:29.000Z</time>
      </trkpt>
      <trkpt lat="47.24249" lon="-2.26601">
        <ele>71.400001525879</ele>
        <time>2021-05-30T07:50:32.000Z</time>
      </trkpt>
      <trkpt lat="47.24284" lon="-2.26565">
        <ele>71.400001525879</ele>
        <time>2021-05-30T07:50:39.000Z</time>
      </trkpt>
      <trkpt lat="47.24328" lon="-2.26523">
        <ele>71.400001525879</ele>
        <time>2021-05-30T07:50:47.000Z</time>
      </trkpt>
      <trkpt lat="47.24376" lon="-2.26488">
        <ele>71.400001525879</ele>
        <time>2021-05-30T07:50:54.000Z</time>
      </trkpt>
      <trkpt lat="47.24416" lon="-2.26462">
        <ele>71.400001525879</ele>
        <time>2021-05-30T07:51:00.000Z</time>
      </trkpt>
      <trkpt lat="47.24422" lon="-2.26458">
        <ele>71.800003051758</ele>
        <time>2021-05-30T07:51:01.000Z</time>
      </trkpt>
      <trkpt lat="47.24428" lon="-2.26454">
        <ele>72.199996948242</ele>
        <time>2021-05-30T07:51:02.000Z</time>
      </trkpt>
      <trkpt lat="47.24434" lon="-2.26449">
        <ele>72.599998474121</ele>
        <time>2021-05-30T07:51:03.000Z</time>
      </trkpt>
      <trkpt lat="47.2444" lon="-2.26444">
        <ele>73</ele>
        <time>2021-05-30T07:51:04.000Z</time>
      </trkpt>
      <trkpt lat="47.24446" lon="-2.2644">
        <ele>73.400001525879</ele>
        <time>2021-05-30T07:51:05.000Z</time>
      </trkpt>
      <trkpt lat="47.24452" lon="-2.26436">
        <ele>73.400001525879</ele>
        <time>2021-05-30T07:51:06.000Z</time>
      </trkpt>
      <trkpt lat="47.2449" lon="-2.26417">
        <ele>73.400001525879</ele>
        <time>2021-05-30T07:51:12.000Z</time>
      </trkpt>
      <trkpt lat="47.24533" lon="-2.26397">
        <ele>73.400001525879</ele>
        <time>2021-05-30T07:51:19.000Z</time>
      </trkpt>
      <trkpt lat="47.2458" lon="-2.26379">
        <ele>73.400001525879</ele>
        <time>2021-05-30T07:51:27.000Z</time>
      </trkpt>
      <trkpt lat="47.24592" lon="-2.26377">
        <ele>73.400001525879</ele>
        <time>2021-05-30T07:51:29.000Z</time>
      </trkpt>
      <trkpt lat="47.24606" lon="-2.26376">
        <ele>73.400001525879</ele>
        <time>2021-05-30T07:51:31.000Z</time>
      </trkpt>
      <trkpt lat="47.24612" lon="-2.26376">
        <ele>73.400001525879</ele>
        <time>2021-05-30T07:51:32.000Z</time>
      </trkpt>
      <trkpt lat="47.2465" lon="-2.26385">
        <ele>73.400001525879</ele>
        <time>2021-05-30T07:51:38.000Z</time>
      </trkpt>
      <trkpt lat="47.24687" lon="-2.26403">
        <ele>73.400001525879</ele>
        <time>2021-05-30T07:51:44.000Z</time>
      </trkpt>
      <trkpt lat="47.24722" lon="-2.26418">
        <ele>73.400001525879</ele>
        <time>2021-05-30T07:51:50.000Z</time>
      </trkpt>
      <trkpt lat="47.24769" lon="-2.26442">
        <ele>73.400001525879</ele>
        <time>2021-05-30T07:51:58.000Z</time>
      </trkpt>
      <trkpt lat="47.24812" lon="-2.26456">
        <ele>73.400001525879</ele>
        <time>2021-05-30T07:52:05.000Z</time>
      </trkpt>
      <trkpt lat="47.24848" lon="-2.26453">
        <ele>73.400001525879</ele>
        <time>2021-05-30T07:52:11.000Z</time>
      </trkpt>
      <trkpt lat="47.24854" lon="-2.26452">
        <ele>73.800003051758</ele>
        <time>2021-05-30T07:52:12.000Z</time>
      </trkpt>
      <trkpt lat="47.2486" lon="-2.2645">
        <ele>74.199996948242</ele>
        <time>2021-05-30T07:52:13.000Z</time>
      </trkpt>
      <trkpt lat="47.24865" lon="-2.26449">
        <ele>74.599998474121</ele>
        <time>2021-05-30T07:52:14.000Z</time>
      </trkpt>
      <trkpt lat="47.24871" lon="-2.26447">
        <ele>75</ele>
        <time>2021-05-30T07:52:15.000Z</time>
      </trkpt>
      <trkpt lat="47.24876" lon="-2.26445">
        <ele>75.400001525879</ele>
        <time>2021-05-30T07:52:16.000Z</time>
      </trkpt>
      <trkpt lat="47.24887" lon="-2.26441">
        <ele>75.400001525879</ele>
        <time>2021-05-30T07:52:18.000Z</time>
      </trkpt>
      <trkpt lat="47.24906" lon="-2.26435">
        <ele>75.400001525879</ele>
        <time>2021-05-30T07:52:22.000Z</time>
      </trkpt>
      <trkpt lat="47.24915" lon="-2.2643">
        <ele>75.400001525879</ele>
        <time>2021-05-30T07:52:24.000Z</time>
      </trkpt>
      <trkpt lat="47.24919" lon="-2.26426">
        <ele>75.400001525879</ele>
        <time>2021-05-30T07:52:25.000Z</time>
      </trkpt>
      <trkpt lat="47.2493" lon="-2.26418">
        <ele>75.400001525879</ele>
        <time>2021-05-30T07:52:28.000Z</time>
      </trkpt>
      <trkpt lat="47.24943" lon="-2.26424">
        <ele>75.400001525879</ele>
        <time>2021-05-30T07:52:31.000Z</time>
      </trkpt>
      <trkpt lat="47.24953" lon="-2.26426">
        <ele>75.400001525879</ele>
        <time>2021-05-30T07:52:33.000Z</time>
      </trkpt>
      <trkpt lat="47.24962" lon="-2.2642">
        <ele>75.400001525879</ele>
        <time>2021-05-30T07:52:35.000Z</time>
      </trkpt>
      <trkpt lat="47.2497" lon="-2.26397">
        <ele>75.400001525879</ele>
        <time>2021-05-30T07:52:38.000Z</time>
      </trkpt>
      <trkpt lat="47.24984" lon="-2.26382">
        <ele>75.400001525879</ele>
        <time>2021-05-30T07:52:41.000Z</time>
      </trkpt>
      <trkpt lat="47.25001" lon="-2.2637">
        <ele>75.400001525879</ele>
        <time>2021-05-30T07:52:44.000Z</time>
      </trkpt>
      <trkpt lat="47.25014" lon="-2.26363">
        <ele>75.400001525879</ele>
        <time>2021-05-30T07:52:46.000Z</time>
      </trkpt>
      <trkpt lat="47.25047" lon="-2.26344">
        <ele>75</ele>
        <time>2021-05-30T07:52:51.000Z</time>
      </trkpt>
      <trkpt lat="47.25052" lon="-2.26337">
        <ele>74.599998474121</ele>
        <time>2021-05-30T07:52:52.000Z</time>
      </trkpt>
      <trkpt lat="47.25054" lon="-2.26327">
        <ele>74.199996948242</ele>
        <time>2021-05-30T07:52:53.000Z</time>
      </trkpt>
      <trkpt lat="47.25055" lon="-2.26317">
        <ele>73.599998474121</ele>
        <time>2021-05-30T07:52:54.000Z</time>
      </trkpt>
      <trkpt lat="47.25055" lon="-2.26306">
        <ele>73.199996948242</ele>
        <time>2021-05-30T07:52:55.000Z</time>
      </trkpt>
      <trkpt lat="47.25055" lon="-2.26296">
        <ele>73.199996948242</ele>
        <time>2021-05-30T07:52:56.000Z</time>
      </trkpt>
      <trkpt lat="47.25056" lon="-2.26286">
        <ele>73.199996948242</ele>
        <time>2021-05-30T07:52:57.000Z</time>
      </trkpt>
      <trkpt lat="47.25059" lon="-2.26267">
        <ele>73.199996948242</ele>
        <time>2021-05-30T07:52:59.000Z</time>
      </trkpt>
      <trkpt lat="47.25065" lon="-2.2625">
        <ele>73.199996948242</ele>
        <time>2021-05-30T07:53:01.000Z</time>
      </trkpt>
      <trkpt lat="47.25072" lon="-2.26235">
        <ele>73.199996948242</ele>
        <time>2021-05-30T07:53:03.000Z</time>
      </trkpt>
      <trkpt lat="47.25077" lon="-2.26221">
        <ele>73.199996948242</ele>
        <time>2021-05-30T07:53:05.000Z</time>
      </trkpt>
      <trkpt lat="47.2508" lon="-2.26188">
        <ele>73.199996948242</ele>
        <time>2021-05-30T07:53:09.000Z</time>
      </trkpt>
      <trkpt lat="47.2508" lon="-2.26137">
        <ele>73.199996948242</ele>
        <time>2021-05-30T07:53:15.000Z</time>
      </trkpt>
      <trkpt lat="47.25086" lon="-2.26075">
        <ele>73.199996948242</ele>
        <time>2021-05-30T07:53:22.000Z</time>
      </trkpt>
      <trkpt lat="47.25096" lon="-2.26022">
        <ele>73.199996948242</ele>
        <time>2021-05-30T07:53:27.000Z</time>
      </trkpt>
      <trkpt lat="47.25112" lon="-2.25966">
        <ele>72.800003051758</ele>
        <time>2021-05-30T07:53:32.000Z</time>
      </trkpt>
      <trkpt lat="47.25116" lon="-2.25955">
        <ele>72.400001525879</ele>
        <time>2021-05-30T07:53:33.000Z</time>
      </trkpt>
      <trkpt lat="47.2512" lon="-2.25947">
        <ele>72</ele>
        <time>2021-05-30T07:53:34.000Z</time>
      </trkpt>
      <trkpt lat="47.25124" lon="-2.25939">
        <ele>71.599998474121</ele>
        <time>2021-05-30T07:53:35.000Z</time>
      </trkpt>
      <trkpt lat="47.25128" lon="-2.25933">
        <ele>71.199996948242</ele>
        <time>2021-05-30T07:53:36.000Z</time>
      </trkpt>
      <trkpt lat="47.25132" lon="-2.25928">
        <ele>71.199996948242</ele>
        <time>2021-05-30T07:53:37.000Z</time>
      </trkpt>
      <trkpt lat="47.25135" lon="-2.25924">
        <ele>70.800003051758</ele>
        <time>2021-05-30T07:53:38.000Z</time>
      </trkpt>
      <trkpt lat="47.25138" lon="-2.2592">
        <ele>70.400001525879</ele>
        <time>2021-05-30T07:53:39.000Z</time>
      </trkpt>
      <trkpt lat="47.25141" lon="-2.25917">
        <ele>70</ele>
        <time>2021-05-30T07:53:40.000Z</time>
      </trkpt>
      <trkpt lat="47.25143" lon="-2.25913">
        <ele>69.599998474121</ele>
        <time>2021-05-30T07:53:41.000Z</time>
      </trkpt>
      <trkpt lat="47.25146" lon="-2.25913">
        <ele>69.199996948242</ele>
        <time>2021-05-30T07:53:42.000Z</time>
      </trkpt>
      <trkpt lat="47.25153" lon="-2.25917">
        <ele>69.199996948242</ele>
        <time>2021-05-30T07:53:44.000Z</time>
      </trkpt>
      <trkpt lat="47.25166" lon="-2.25914">
        <ele>69.199996948242</ele>
        <time>2021-05-30T07:53:48.000Z</time>
      </trkpt>
      <trkpt lat="47.25172" lon="-2.25912">
        <ele>69.199996948242</ele>
        <time>2021-05-30T07:53:51.000Z</time>
      </trkpt>
      <trkpt lat="47.25175" lon="-2.2591">
        <ele>69.199996948242</ele>
        <time>2021-05-30T07:53:52.000Z</time>
      </trkpt>
      <trkpt lat="47.25178" lon="-2.25909">
        <ele>69.599998474121</ele>
        <time>2021-05-30T07:53:53.000Z</time>
      </trkpt>
      <trkpt lat="47.25182" lon="-2.25908">
        <ele>70</ele>
        <time>2021-05-30T07:53:54.000Z</time>
      </trkpt>
      <trkpt lat="47.25185" lon="-2.25908">
        <ele>70.599998474121</ele>
        <time>2021-05-30T07:53:55.000Z</time>
      </trkpt>
      <trkpt lat="47.25189" lon="-2.25908">
        <ele>71</ele>
        <time>2021-05-30T07:53:56.000Z</time>
      </trkpt>
      <trkpt lat="47.25192" lon="-2.25909">
        <ele>71.400001525879</ele>
        <time>2021-05-30T07:53:57.000Z</time>
      </trkpt>
      <trkpt lat="47.25203" lon="-2.25918">
        <ele>71.400001525879</ele>
        <time>2021-05-30T07:54:00.000Z</time>
      </trkpt>
      <trkpt lat="47.25207" lon="-2.25922">
        <ele>71.400001525879</ele>
        <time>2021-05-30T07:54:01.000Z</time>
      </trkpt>
      <trkpt lat="47.25227" lon="-2.25957">
        <ele>71.400001525879</ele>
        <time>2021-05-30T07:54:07.000Z</time>
      </trkpt>
      <trkpt lat="47.25248" lon="-2.26002">
        <ele>71.400001525879</ele>
        <time>2021-05-30T07:54:14.000Z</time>
      </trkpt>
      <trkpt lat="47.25263" lon="-2.2603">
        <ele>71.400001525879</ele>
        <time>2021-05-30T07:54:20.000Z</time>
      </trkpt>
      <trkpt lat="47.25267" lon="-2.26031">
        <ele>71.400001525879</ele>
        <time>2021-05-30T07:54:21.000Z</time>
      </trkpt>
      <trkpt lat="47.25278" lon="-2.26031">
        <ele>71.400001525879</ele>
        <time>2021-05-30T07:54:24.000Z</time>
      </trkpt>
      <trkpt lat="47.25282" lon="-2.2603">
        <ele>71.400001525879</ele>
        <time>2021-05-30T07:54:25.000Z</time>
      </trkpt>
      <trkpt lat="47.25291" lon="-2.26028">
        <ele>71.400001525879</ele>
        <time>2021-05-30T07:54:27.000Z</time>
      </trkpt>
      <trkpt lat="47.25304" lon="-2.26024">
        <ele>71.400001525879</ele>
        <time>2021-05-30T07:54:30.000Z</time>
      </trkpt>
      <trkpt lat="47.25309" lon="-2.26024">
        <ele>71.400001525879</ele>
        <time>2021-05-30T07:54:31.000Z</time>
      </trkpt>
      <trkpt lat="47.25318" lon="-2.26031">
        <ele>71.400001525879</ele>
        <time>2021-05-30T07:54:34.000Z</time>
      </trkpt>
      <trkpt lat="47.25322" lon="-2.26034">
        <ele>71.400001525879</ele>
        <time>2021-05-30T07:54:36.000Z</time>
      </trkpt>
      <trkpt lat="47.25334" lon="-2.26035">
        <ele>71.400001525879</ele>
        <time>2021-05-30T07:54:40.000Z</time>
      </trkpt>
      <trkpt lat="47.2534" lon="-2.26033">
        <ele>71.400001525879</ele>
        <time>2021-05-30T07:54:41.000Z</time>
      </trkpt>
      <trkpt lat="47.25348" lon="-2.26028">
        <ele>71.400001525879</ele>
        <time>2021-05-30T07:54:43.000Z</time>
      </trkpt>
      <trkpt lat="47.25358" lon="-2.26015">
        <ele>71</ele>
        <time>2021-05-30T07:54:47.000Z</time>
      </trkpt>
      <trkpt lat="47.25359" lon="-2.2601">
        <ele>70.599998474121</ele>
        <time>2021-05-30T07:54:48.000Z</time>
      </trkpt>
      <trkpt lat="47.25359" lon="-2.26005">
        <ele>70.199996948242</ele>
        <time>2021-05-30T07:54:49.000Z</time>
      </trkpt>
      <trkpt lat="47.25357" lon="-2.25998">
        <ele>69.800003051758</ele>
        <time>2021-05-30T07:54:50.000Z</time>
      </trkpt>
      <trkpt lat="47.25356" lon="-2.25991">
        <ele>69</ele>
        <time>2021-05-30T07:54:51.000Z</time>
      </trkpt>
      <trkpt lat="47.25355" lon="-2.25984">
        <ele>68.599998474121</ele>
        <time>2021-05-30T07:54:52.000Z</time>
      </trkpt>
      <trkpt lat="47.25354" lon="-2.25978">
        <ele>68.199996948242</ele>
        <time>2021-05-30T07:54:53.000Z</time>
      </trkpt>
      <trkpt lat="47.25353" lon="-2.2597">
        <ele>67.800003051758</ele>
        <time>2021-05-30T07:54:54.000Z</time>
      </trkpt>
      <trkpt lat="47.25352" lon="-2.25963">
        <ele>67.400001525879</ele>
        <time>2021-05-30T07:54:55.000Z</time>
      </trkpt>
      <trkpt lat="47.25352" lon="-2.25955">
        <ele>67.400001525879</ele>
        <time>2021-05-30T07:54:56.000Z</time>
      </trkpt>
      <trkpt lat="47.25354" lon="-2.2595">
        <ele>67.400001525879</ele>
        <time>2021-05-30T07:54:57.000Z</time>
      </trkpt>
      <trkpt lat="47.25358" lon="-2.25925">
        <ele>67.400001525879</ele>
        <time>2021-05-30T07:55:02.000Z</time>
      </trkpt>
      <trkpt lat="47.25358" lon="-2.25912">
        <ele>67.400001525879</ele>
        <time>2021-05-30T07:55:07.000Z</time>
      </trkpt>
      <trkpt lat="47.25361" lon="-2.25907">
        <ele>67.400001525879</ele>
        <time>2021-05-30T07:55:10.000Z</time>
      </trkpt>
      <trkpt lat="47.25364" lon="-2.25903">
        <ele>67.400001525879</ele>
        <time>2021-05-30T07:55:12.000Z</time>
      </trkpt>
      <trkpt lat="47.25367" lon="-2.259">
        <ele>66.800003051758</ele>
        <time>2021-05-30T07:55:14.000Z</time>
      </trkpt>
      <trkpt lat="47.25372" lon="-2.25898">
        <ele>66.400001525879</ele>
        <time>2021-05-30T07:55:15.000Z</time>
      </trkpt>
      <trkpt lat="47.25376" lon="-2.25896">
        <ele>64.199996948242</ele>
        <time>2021-05-30T07:55:16.000Z</time>
      </trkpt>
      <trkpt lat="47.25381" lon="-2.25893">
        <ele>63</ele>
        <time>2021-05-30T07:55:17.000Z</time>
      </trkpt>
      <trkpt lat="47.25383" lon="-2.25891">
        <ele>61.599998474121</ele>
        <time>2021-05-30T07:55:18.000Z</time>
      </trkpt>
      <trkpt lat="47.25385" lon="-2.25887">
        <ele>60.400001525879</ele>
        <time>2021-05-30T07:55:19.000Z</time>
      </trkpt>
      <trkpt lat="47.25386" lon="-2.25883">
        <ele>59</ele>
        <time>2021-05-30T07:55:20.000Z</time>
      </trkpt>
      <trkpt lat="47.25386" lon="-2.25878">
        <ele>57.799999237061</ele>
        <time>2021-05-30T07:55:21.000Z</time>
      </trkpt>
      <trkpt lat="47.25384" lon="-2.25866">
        <ele>57.799999237061</ele>
        <time>2021-05-30T07:55:24.000Z</time>
      </trkpt>
      <trkpt lat="47.25372" lon="-2.25844">
        <ele>57.799999237061</ele>
        <time>2021-05-30T07:55:29.000Z</time>
      </trkpt>
      <trkpt lat="47.25357" lon="-2.25832">
        <ele>57.799999237061</ele>
        <time>2021-05-30T07:55:34.000Z</time>
      </trkpt>
      <trkpt lat="47.2535" lon="-2.25825">
        <ele>57.799999237061</ele>
        <time>2021-05-30T07:55:39.000Z</time>
      </trkpt>
      <trkpt lat="47.25347" lon="-2.25828">
        <ele>57.799999237061</ele>
        <time>2021-05-30T07:55:41.000Z</time>
      </trkpt>
      <trkpt lat="47.25347" lon="-2.2583">
        <ele>58.200000762939</ele>
        <time>2021-05-30T07:55:42.000Z</time>
      </trkpt>
      <trkpt lat="47.25346" lon="-2.25831">
        <ele>58.599998474121</ele>
        <time>2021-05-30T07:55:43.000Z</time>
      </trkpt>
      <trkpt lat="47.25346" lon="-2.25833">
        <ele>59.200000762939</ele>
        <time>2021-05-30T07:55:44.000Z</time>
      </trkpt>
      <trkpt lat="47.25345" lon="-2.25834">
        <ele>59.599998474121</ele>
        <time>2021-05-30T07:55:45.000Z</time>
      </trkpt>
      <trkpt lat="47.25345" lon="-2.25835">
        <ele>60</ele>
        <time>2021-05-30T07:55:46.000Z</time>
      </trkpt>
      <trkpt lat="47.25344" lon="-2.2584">
        <ele>60</ele>
        <time>2021-05-30T07:55:52.000Z</time>
      </trkpt>
      <trkpt lat="47.25339" lon="-2.25839">
        <ele>64.400001525879</ele>
        <time>2021-05-30T07:56:30.000Z</time>
      </trkpt>
      <trkpt lat="47.25341" lon="-2.25816">
        <ele>64.400001525879</ele>
        <time>2021-05-30T07:56:35.000Z</time>
      </trkpt>
      <trkpt lat="47.25344" lon="-2.25794">
        <ele>64.400001525879</ele>
        <time>2021-05-30T07:56:39.000Z</time>
      </trkpt>
      <trkpt lat="47.25344" lon="-2.25789">
        <ele>64.400001525879</ele>
        <time>2021-05-30T07:56:40.000Z</time>
      </trkpt>
      <trkpt lat="47.25349" lon="-2.25764">
        <ele>64.400001525879</ele>
        <time>2021-05-30T07:56:45.000Z</time>
      </trkpt>
      <trkpt lat="47.25349" lon="-2.25734">
        <ele>64.400001525879</ele>
        <time>2021-05-30T07:56:51.000Z</time>
      </trkpt>
      <trkpt lat="47.25351" lon="-2.25695">
        <ele>64.400001525879</ele>
        <time>2021-05-30T07:56:58.000Z</time>
      </trkpt>
      <trkpt lat="47.25348" lon="-2.25665">
        <ele>64.400001525879</ele>
        <time>2021-05-30T07:57:03.000Z</time>
      </trkpt>
      <trkpt lat="47.2534" lon="-2.25625">
        <ele>64.400001525879</ele>
        <time>2021-05-30T07:57:09.000Z</time>
      </trkpt>
      <trkpt lat="47.25333" lon="-2.25592">
        <ele>64.400001525879</ele>
        <time>2021-05-30T07:57:15.000Z</time>
      </trkpt>
      <trkpt lat="47.25331" lon="-2.25549">
        <ele>64</ele>
        <time>2021-05-30T07:57:22.000Z</time>
      </trkpt>
      <trkpt lat="47.25331" lon="-2.25541">
        <ele>63.599998474121</ele>
        <time>2021-05-30T07:57:23.000Z</time>
      </trkpt>
      <trkpt lat="47.2533" lon="-2.25533">
        <ele>63.200000762939</ele>
        <time>2021-05-30T07:57:24.000Z</time>
      </trkpt>
      <trkpt lat="47.2533" lon="-2.25525">
        <ele>62.799999237061</ele>
        <time>2021-05-30T07:57:25.000Z</time>
      </trkpt>
      <trkpt lat="47.25329" lon="-2.25517">
        <ele>62.400001525879</ele>
        <time>2021-05-30T07:57:26.000Z</time>
      </trkpt>
      <trkpt lat="47.25328" lon="-2.25509">
        <ele>62.400001525879</ele>
        <time>2021-05-30T07:57:27.000Z</time>
      </trkpt>
      <trkpt lat="47.25325" lon="-2.25493">
        <ele>61.799999237061</ele>
        <time>2021-05-30T07:57:29.000Z</time>
      </trkpt>
      <trkpt lat="47.25325" lon="-2.25485">
        <ele>61.400001525879</ele>
        <time>2021-05-30T07:57:30.000Z</time>
      </trkpt>
      <trkpt lat="47.25324" lon="-2.25476">
        <ele>61</ele>
        <time>2021-05-30T07:57:31.000Z</time>
      </trkpt>
      <trkpt lat="47.25323" lon="-2.25467">
        <ele>60.599998474121</ele>
        <time>2021-05-30T07:57:32.000Z</time>
      </trkpt>
      <trkpt lat="47.25323" lon="-2.25459">
        <ele>60</ele>
        <time>2021-05-30T07:57:33.000Z</time>
      </trkpt>
      <trkpt lat="47.25322" lon="-2.25452">
        <ele>59.599998474121</ele>
        <time>2021-05-30T07:57:34.000Z</time>
      </trkpt>
      <trkpt lat="47.25322" lon="-2.25446">
        <ele>59</ele>
        <time>2021-05-30T07:57:35.000Z</time>
      </trkpt>
      <trkpt lat="47.25322" lon="-2.2544">
        <ele>58.400001525879</ele>
        <time>2021-05-30T07:57:36.000Z</time>
      </trkpt>
      <trkpt lat="47.25323" lon="-2.25435">
        <ele>57.599998474121</ele>
        <time>2021-05-30T07:57:37.000Z</time>
      </trkpt>
      <trkpt lat="47.25324" lon="-2.25432">
        <ele>56.799999237061</ele>
        <time>2021-05-30T07:57:38.000Z</time>
      </trkpt>
      <trkpt lat="47.25325" lon="-2.2543">
        <ele>56</ele>
        <time>2021-05-30T07:57:39.000Z</time>
      </trkpt>
      <trkpt lat="47.25327" lon="-2.25428">
        <ele>55.200000762939</ele>
        <time>2021-05-30T07:57:40.000Z</time>
      </trkpt>
      <trkpt lat="47.25329" lon="-2.25429">
        <ele>54.400001525879</ele>
        <time>2021-05-30T07:57:41.000Z</time>
      </trkpt>
      <trkpt lat="47.2533" lon="-2.25429">
        <ele>53.400001525879</ele>
        <time>2021-05-30T07:57:42.000Z</time>
      </trkpt>
      <trkpt lat="47.25331" lon="-2.2543">
        <ele>50.200000762939</ele>
        <time>2021-05-30T07:57:43.000Z</time>
      </trkpt>
      <trkpt lat="47.25332" lon="-2.25431">
        <ele>49.200000762939</ele>
        <time>2021-05-30T07:57:44.000Z</time>
      </trkpt>
      <trkpt lat="47.25333" lon="-2.25431">
        <ele>48.799999237061</ele>
        <time>2021-05-30T07:57:45.000Z</time>
      </trkpt>
      <trkpt lat="47.25334" lon="-2.25431">
        <ele>50.200000762939</ele>
        <time>2021-05-30T07:57:46.000Z</time>
      </trkpt>
      <trkpt lat="47.25335" lon="-2.25432">
        <ele>50.799999237061</ele>
        <time>2021-05-30T07:57:47.000Z</time>
      </trkpt>
      <trkpt lat="47.25336" lon="-2.25433">
        <ele>50.799999237061</ele>
        <time>2021-05-30T07:57:48.000Z</time>
      </trkpt>
      <trkpt lat="47.25336" lon="-2.25434">
        <ele>50.599998474121</ele>
        <time>2021-05-30T07:57:49.000Z</time>
      </trkpt>
      <trkpt lat="47.25336" lon="-2.25436">
        <ele>50.599998474121</ele>
        <time>2021-05-30T07:57:50.000Z</time>
      </trkpt>
      <trkpt lat="47.25336" lon="-2.25439">
        <ele>50.599998474121</ele>
        <time>2021-05-30T07:57:51.000Z</time>
      </trkpt>
      <trkpt lat="47.25336" lon="-2.25443">
        <ele>50.599998474121</ele>
        <time>2021-05-30T07:57:52.000Z</time>
      </trkpt>
      <trkpt lat="47.25337" lon="-2.25447">
        <ele>50.599998474121</ele>
        <time>2021-05-30T07:57:53.000Z</time>
      </trkpt>
      <trkpt lat="47.25346" lon="-2.25466">
        <ele>50.599998474121</ele>
        <time>2021-05-30T07:57:57.000Z</time>
      </trkpt>
      <trkpt lat="47.25351" lon="-2.25472">
        <ele>50.599998474121</ele>
        <time>2021-05-30T07:57:58.000Z</time>
      </trkpt>
      <trkpt lat="47.25371" lon="-2.2549">
        <ele>50.599998474121</ele>
        <time>2021-05-30T07:58:02.000Z</time>
      </trkpt>
      <trkpt lat="47.25375" lon="-2.25495">
        <ele>50.599998474121</ele>
        <time>2021-05-30T07:58:03.000Z</time>
      </trkpt>
      <trkpt lat="47.25382" lon="-2.25513">
        <ele>50.599998474121</ele>
        <time>2021-05-30T07:58:06.000Z</time>
      </trkpt>
      <trkpt lat="47.25382" lon="-2.25521">
        <ele>50.599998474121</ele>
        <time>2021-05-30T07:58:07.000Z</time>
      </trkpt>
      <trkpt lat="47.25387" lon="-2.25541">
        <ele>50.599998474121</ele>
        <time>2021-05-30T07:58:10.000Z</time>
      </trkpt>
      <trkpt lat="47.25389" lon="-2.25546">
        <ele>50.599998474121</ele>
        <time>2021-05-30T07:58:11.000Z</time>
      </trkpt>
      <trkpt lat="47.25399" lon="-2.25557">
        <ele>50.599998474121</ele>
        <time>2021-05-30T07:58:15.000Z</time>
      </trkpt>
      <trkpt lat="47.254" lon="-2.25564">
        <ele>50.599998474121</ele>
        <time>2021-05-30T07:58:19.000Z</time>
      </trkpt>
      <trkpt lat="47.25403" lon="-2.25569">
        <ele>50.599998474121</ele>
        <time>2021-05-30T07:58:22.000Z</time>
      </trkpt>
      <trkpt lat="47.25405" lon="-2.25568">
        <ele>50.599998474121</ele>
        <time>2021-05-30T07:58:23.000Z</time>
      </trkpt>
      <trkpt lat="47.25411" lon="-2.25565">
        <ele>50.599998474121</ele>
        <time>2021-05-30T07:58:28.000Z</time>
      </trkpt>
      <trkpt lat="47.25416" lon="-2.25564">
        <ele>50.599998474121</ele>
        <time>2021-05-30T07:58:33.000Z</time>
      </trkpt>
      <trkpt lat="47.2542" lon="-2.25568">
        <ele>51</ele>
        <time>2021-05-30T07:58:35.000Z</time>
      </trkpt>
      <trkpt lat="47.25421" lon="-2.25569">
        <ele>51.400001525879</ele>
        <time>2021-05-30T07:58:36.000Z</time>
      </trkpt>
      <trkpt lat="47.25423" lon="-2.25571">
        <ele>51.799999237061</ele>
        <time>2021-05-30T07:58:37.000Z</time>
      </trkpt>
      <trkpt lat="47.25424" lon="-2.25573">
        <ele>52.200000762939</ele>
        <time>2021-05-30T07:58:38.000Z</time>
      </trkpt>
      <trkpt lat="47.25426" lon="-2.25574">
        <ele>52.599998474121</ele>
        <time>2021-05-30T07:58:39.000Z</time>
      </trkpt>
      <trkpt lat="47.25427" lon="-2.25575">
        <ele>53.200000762939</ele>
        <time>2021-05-30T07:58:40.000Z</time>
      </trkpt>
      <trkpt lat="47.25429" lon="-2.25578">
        <ele>53.599998474121</ele>
        <time>2021-05-30T07:58:41.000Z</time>
      </trkpt>
      <trkpt lat="47.25432" lon="-2.25583">
        <ele>54</ele>
        <time>2021-05-30T07:58:42.000Z</time>
      </trkpt>
      <trkpt lat="47.25435" lon="-2.25586">
        <ele>54.599998474121</ele>
        <time>2021-05-30T07:58:43.000Z</time>
      </trkpt>
      <trkpt lat="47.25438" lon="-2.25589">
        <ele>55</ele>
        <time>2021-05-30T07:58:44.000Z</time>
      </trkpt>
      <trkpt lat="47.25439" lon="-2.25598">
        <ele>55</ele>
        <time>2021-05-30T07:58:45.000Z</time>
      </trkpt>
      <trkpt lat="47.25436" lon="-2.25617">
        <ele>55</ele>
        <time>2021-05-30T07:58:47.000Z</time>
      </trkpt>
      <trkpt lat="47.25428" lon="-2.25631">
        <ele>55</ele>
        <time>2021-05-30T07:58:50.000Z</time>
      </trkpt>
      <trkpt lat="47.25426" lon="-2.25634">
        <ele>55</ele>
        <time>2021-05-30T07:58:51.000Z</time>
      </trkpt>
      <trkpt lat="47.25427" lon="-2.25638">
        <ele>55</ele>
        <time>2021-05-30T07:58:52.000Z</time>
      </trkpt>
      <trkpt lat="47.25431" lon="-2.25643">
        <ele>55</ele>
        <time>2021-05-30T07:58:54.000Z</time>
      </trkpt>
      <trkpt lat="47.25438" lon="-2.25643">
        <ele>55</ele>
        <time>2021-05-30T07:58:56.000Z</time>
      </trkpt>
      <trkpt lat="47.25445" lon="-2.25645">
        <ele>55.400001525879</ele>
        <time>2021-05-30T07:58:58.000Z</time>
      </trkpt>
      <trkpt lat="47.25448" lon="-2.25646">
        <ele>55.799999237061</ele>
        <time>2021-05-30T07:58:59.000Z</time>
      </trkpt>
      <trkpt lat="47.25451" lon="-2.25647">
        <ele>56.200000762939</ele>
        <time>2021-05-30T07:59:00.000Z</time>
      </trkpt>
      <trkpt lat="47.25454" lon="-2.25648">
        <ele>56.599998474121</ele>
        <time>2021-05-30T07:59:01.000Z</time>
      </trkpt>
      <trkpt lat="47.25457" lon="-2.25649">
        <ele>57.200000762939</ele>
        <time>2021-05-30T07:59:02.000Z</time>
      </trkpt>
      <trkpt lat="47.25464" lon="-2.25652">
        <ele>57.599998474121</ele>
        <time>2021-05-30T07:59:05.000Z</time>
      </trkpt>
      <trkpt lat="47.25466" lon="-2.25653">
        <ele>58</ele>
        <time>2021-05-30T07:59:06.000Z</time>
      </trkpt>
      <trkpt lat="47.25466" lon="-2.25654">
        <ele>58.400001525879</ele>
        <time>2021-05-30T07:59:07.000Z</time>
      </trkpt>
      <trkpt lat="47.25467" lon="-2.25656">
        <ele>58.799999237061</ele>
        <time>2021-05-30T07:59:08.000Z</time>
      </trkpt>
      <trkpt lat="47.25467" lon="-2.25658">
        <ele>59.200000762939</ele>
        <time>2021-05-30T07:59:09.000Z</time>
      </trkpt>
      <trkpt lat="47.25465" lon="-2.25661">
        <ele>59.200000762939</ele>
        <time>2021-05-30T07:59:11.000Z</time>
      </trkpt>
      <trkpt lat="47.2546" lon="-2.25675">
        <ele>59.200000762939</ele>
        <time>2021-05-30T07:59:17.000Z</time>
      </trkpt>
      <trkpt lat="47.25456" lon="-2.25685">
        <ele>59.200000762939</ele>
        <time>2021-05-30T07:59:21.000Z</time>
      </trkpt>
      <trkpt lat="47.25455" lon="-2.25692">
        <ele>59.200000762939</ele>
        <time>2021-05-30T07:59:24.000Z</time>
      </trkpt>
      <trkpt lat="47.25457" lon="-2.25696">
        <ele>59.200000762939</ele>
        <time>2021-05-30T07:59:26.000Z</time>
      </trkpt>
      <trkpt lat="47.25461" lon="-2.2571">
        <ele>59.200000762939</ele>
        <time>2021-05-30T07:59:32.000Z</time>
      </trkpt>
      <trkpt lat="47.25461" lon="-2.25714">
        <ele>59.200000762939</ele>
        <time>2021-05-30T07:59:33.000Z</time>
      </trkpt>
      <trkpt lat="47.25463" lon="-2.25729">
        <ele>59.599998474121</ele>
        <time>2021-05-30T07:59:36.000Z</time>
      </trkpt>
      <trkpt lat="47.25464" lon="-2.25732">
        <ele>60</ele>
        <time>2021-05-30T07:59:37.000Z</time>
      </trkpt>
      <trkpt lat="47.25464" lon="-2.25736">
        <ele>60.400001525879</ele>
        <time>2021-05-30T07:59:38.000Z</time>
      </trkpt>
      <trkpt lat="47.25463" lon="-2.25741">
        <ele>61</ele>
        <time>2021-05-30T07:59:39.000Z</time>
      </trkpt>
      <trkpt lat="47.25463" lon="-2.25746">
        <ele>61.400001525879</ele>
        <time>2021-05-30T07:59:40.000Z</time>
      </trkpt>
      <trkpt lat="47.25461" lon="-2.25757">
        <ele>61.799999237061</ele>
        <time>2021-05-30T07:59:43.000Z</time>
      </trkpt>
      <trkpt lat="47.25461" lon="-2.25761">
        <ele>62.200000762939</ele>
        <time>2021-05-30T07:59:44.000Z</time>
      </trkpt>
      <trkpt lat="47.25461" lon="-2.25765">
        <ele>62.599998474121</ele>
        <time>2021-05-30T07:59:45.000Z</time>
      </trkpt>
      <trkpt lat="47.25461" lon="-2.25767">
        <ele>63</ele>
        <time>2021-05-30T07:59:46.000Z</time>
      </trkpt>
      <trkpt lat="47.25461" lon="-2.25771">
        <ele>63.400001525879</ele>
        <time>2021-05-30T07:59:47.000Z</time>
      </trkpt>
      <trkpt lat="47.2546" lon="-2.25788">
        <ele>63.400001525879</ele>
        <time>2021-05-30T07:59:52.000Z</time>
      </trkpt>
      <trkpt lat="47.25451" lon="-2.25798">
        <ele>63.400001525879</ele>
        <time>2021-05-30T07:59:57.000Z</time>
      </trkpt>
      <trkpt lat="47.25449" lon="-2.25803">
        <ele>63.400001525879</ele>
        <time>2021-05-30T07:59:58.000Z</time>
      </trkpt>
      <trkpt lat="47.25446" lon="-2.25817">
        <ele>63.400001525879</ele>
        <time>2021-05-30T08:00:01.000Z</time>
      </trkpt>
      <trkpt lat="47.25439" lon="-2.25846">
        <ele>63.400001525879</ele>
        <time>2021-05-30T08:00:07.000Z</time>
      </trkpt>
      <trkpt lat="47.25432" lon="-2.25866">
        <ele>63</ele>
        <time>2021-05-30T08:00:11.000Z</time>
      </trkpt>
      <trkpt lat="47.2543" lon="-2.2587">
        <ele>62.200000762939</ele>
        <time>2021-05-30T08:00:12.000Z</time>
      </trkpt>
      <trkpt lat="47.25428" lon="-2.25875">
        <ele>61.799999237061</ele>
        <time>2021-05-30T08:00:13.000Z</time>
      </trkpt>
      <trkpt lat="47.25427" lon="-2.2588">
        <ele>61.400001525879</ele>
        <time>2021-05-30T08:00:14.000Z</time>
      </trkpt>
      <trkpt lat="47.25427" lon="-2.25898">
        <ele>61.400001525879</ele>
        <time>2021-05-30T08:00:18.000Z</time>
      </trkpt>
      <trkpt lat="47.25427" lon="-2.25903">
        <ele>61.400001525879</ele>
        <time>2021-05-30T08:00:19.000Z</time>
      </trkpt>
      <trkpt lat="47.25426" lon="-2.25934">
        <ele>61.400001525879</ele>
        <time>2021-05-30T08:00:26.000Z</time>
      </trkpt>
      <trkpt lat="47.25416" lon="-2.25944">
        <ele>61.400001525879</ele>
        <time>2021-05-30T08:00:30.000Z</time>
      </trkpt>
      <trkpt lat="47.25405" lon="-2.25971">
        <ele>61.400001525879</ele>
        <time>2021-05-30T08:00:35.000Z</time>
      </trkpt>
      <trkpt lat="47.25394" lon="-2.25991">
        <ele>61.400001525879</ele>
        <time>2021-05-30T08:00:40.000Z</time>
      </trkpt>
      <trkpt lat="47.25394" lon="-2.25994">
        <ele>61.400001525879</ele>
        <time>2021-05-30T08:00:41.000Z</time>
      </trkpt>
      <trkpt lat="47.25394" lon="-2.26006">
        <ele>61.400001525879</ele>
        <time>2021-05-30T08:00:44.000Z</time>
      </trkpt>
      <trkpt lat="47.25394" lon="-2.26014">
        <ele>62</ele>
        <time>2021-05-30T08:00:46.000Z</time>
      </trkpt>
      <trkpt lat="47.25394" lon="-2.26018">
        <ele>62.400001525879</ele>
        <time>2021-05-30T08:00:47.000Z</time>
      </trkpt>
      <trkpt lat="47.25393" lon="-2.26022">
        <ele>63</ele>
        <time>2021-05-30T08:00:48.000Z</time>
      </trkpt>
      <trkpt lat="47.25392" lon="-2.26026">
        <ele>63.400001525879</ele>
        <time>2021-05-30T08:00:49.000Z</time>
      </trkpt>
      <trkpt lat="47.25392" lon="-2.26029">
        <ele>64</ele>
        <time>2021-05-30T08:00:50.000Z</time>
      </trkpt>
      <trkpt lat="47.25391" lon="-2.26032">
        <ele>64.400001525879</ele>
        <time>2021-05-30T08:00:51.000Z</time>
      </trkpt>
      <trkpt lat="47.2539" lon="-2.26033">
        <ele>65</ele>
        <time>2021-05-30T08:00:52.000Z</time>
      </trkpt>
      <trkpt lat="47.25388" lon="-2.26035">
        <ele>65.599998474121</ele>
        <time>2021-05-30T08:00:53.000Z</time>
      </trkpt>
      <trkpt lat="47.25387" lon="-2.26036">
        <ele>66.199996948242</ele>
        <time>2021-05-30T08:00:54.000Z</time>
      </trkpt>
      <trkpt lat="47.25387" lon="-2.26041">
        <ele>66.199996948242</ele>
        <time>2021-05-30T08:00:56.000Z</time>
      </trkpt>
      <trkpt lat="47.25388" lon="-2.26067">
        <ele>66.199996948242</ele>
        <time>2021-05-30T08:01:01.000Z</time>
      </trkpt>
      <trkpt lat="47.25392" lon="-2.26104">
        <ele>66.199996948242</ele>
        <time>2021-05-30T08:01:07.000Z</time>
      </trkpt>
      <trkpt lat="47.25389" lon="-2.26116">
        <ele>66.199996948242</ele>
        <time>2021-05-30T08:01:10.000Z</time>
      </trkpt>
      <trkpt lat="47.25387" lon="-2.26118">
        <ele>66.199996948242</ele>
        <time>2021-05-30T08:01:11.000Z</time>
      </trkpt>
      <trkpt lat="47.25385" lon="-2.2612">
        <ele>66.599998474121</ele>
        <time>2021-05-30T08:01:13.000Z</time>
      </trkpt>
      <trkpt lat="47.25384" lon="-2.26123">
        <ele>67</ele>
        <time>2021-05-30T08:01:14.000Z</time>
      </trkpt>
      <trkpt lat="47.25383" lon="-2.26125">
        <ele>67.400001525879</ele>
        <time>2021-05-30T08:01:15.000Z</time>
      </trkpt>
      <trkpt lat="47.25383" lon="-2.26128">
        <ele>67.800003051758</ele>
        <time>2021-05-30T08:01:16.000Z</time>
      </trkpt>
      <trkpt lat="47.25382" lon="-2.26131">
        <ele>68.199996948242</ele>
        <time>2021-05-30T08:01:17.000Z</time>
      </trkpt>
      <trkpt lat="47.25375" lon="-2.26144">
        <ele>68.199996948242</ele>
        <time>2021-05-30T08:01:22.000Z</time>
      </trkpt>
      <trkpt lat="47.25373" lon="-2.26146">
        <ele>68.800003051758</ele>
        <time>2021-05-30T08:01:23.000Z</time>
      </trkpt>
      <trkpt lat="47.25372" lon="-2.26147">
        <ele>69.199996948242</ele>
        <time>2021-05-30T08:01:24.000Z</time>
      </trkpt>
      <trkpt lat="47.2537" lon="-2.26147">
        <ele>69.599998474121</ele>
        <time>2021-05-30T08:01:25.000Z</time>
      </trkpt>
      <trkpt lat="47.25368" lon="-2.26147">
        <ele>70.400001525879</ele>
        <time>2021-05-30T08:01:26.000Z</time>
      </trkpt>
      <trkpt lat="47.25363" lon="-2.26149">
        <ele>70.400001525879</ele>
        <time>2021-05-30T08:01:28.000Z</time>
      </trkpt>
      <trkpt lat="47.25356" lon="-2.26151">
        <ele>70.800003051758</ele>
        <time>2021-05-30T08:01:31.000Z</time>
      </trkpt>
      <trkpt lat="47.25353" lon="-2.26151">
        <ele>71.199996948242</ele>
        <time>2021-05-30T08:01:32.000Z</time>
      </trkpt>
      <trkpt lat="47.25351" lon="-2.26152">
        <ele>71.599998474121</ele>
        <time>2021-05-30T08:01:33.000Z</time>
      </trkpt>
      <trkpt lat="47.25349" lon="-2.26153">
        <ele>72</ele>
        <time>2021-05-30T08:01:34.000Z</time>
      </trkpt>
      <trkpt lat="47.25348" lon="-2.26156">
        <ele>72.400001525879</ele>
        <time>2021-05-30T08:01:35.000Z</time>
      </trkpt>
      <trkpt lat="47.25344" lon="-2.26165">
        <ele>72.400001525879</ele>
        <time>2021-05-30T08:01:39.000Z</time>
      </trkpt>
      <trkpt lat="47.25343" lon="-2.26166">
        <ele>72.800003051758</ele>
        <time>2021-05-30T08:01:40.000Z</time>
      </trkpt>
      <trkpt lat="47.25341" lon="-2.26167">
        <ele>73.199996948242</ele>
        <time>2021-05-30T08:01:41.000Z</time>
      </trkpt>
      <trkpt lat="47.2534" lon="-2.26166">
        <ele>73.599998474121</ele>
        <time>2021-05-30T08:01:42.000Z</time>
      </trkpt>
      <trkpt lat="47.25338" lon="-2.26166">
        <ele>74</ele>
        <time>2021-05-30T08:01:43.000Z</time>
      </trkpt>
      <trkpt lat="47.25337" lon="-2.26166">
        <ele>74.400001525879</ele>
        <time>2021-05-30T08:01:44.000Z</time>
      </trkpt>
      <trkpt lat="47.25337" lon="-2.26166">
        <ele>74.400001525879</ele>
        <time>2021-05-30T08:01:45.000Z</time>
      </trkpt>
      <trkpt lat="47.25337" lon="-2.26163">
        <ele>74.400001525879</ele>
        <time>2021-05-30T08:01:47.000Z</time>
      </trkpt>
      <trkpt lat="47.25338" lon="-2.26157">
        <ele>74.400001525879</ele>
        <time>2021-05-30T08:01:49.000Z</time>
      </trkpt>
      <trkpt lat="47.25341" lon="-2.26154">
        <ele>74.400001525879</ele>
        <time>2021-05-30T08:01:51.000Z</time>
      </trkpt>
      <trkpt lat="47.25346" lon="-2.26152">
        <ele>74.400001525879</ele>
        <time>2021-05-30T08:01:54.000Z</time>
      </trkpt>
      <trkpt lat="47.25349" lon="-2.26153">
        <ele>74</ele>
        <time>2021-05-30T08:01:55.000Z</time>
      </trkpt>
      <trkpt lat="47.25352" lon="-2.26153">
        <ele>73.599998474121</ele>
        <time>2021-05-30T08:01:56.000Z</time>
      </trkpt>
      <trkpt lat="47.25355" lon="-2.26155">
        <ele>73.199996948242</ele>
        <time>2021-05-30T08:01:57.000Z</time>
      </trkpt>
      <trkpt lat="47.25357" lon="-2.26156">
        <ele>72.599998474121</ele>
        <time>2021-05-30T08:01:58.000Z</time>
      </trkpt>
      <trkpt lat="47.2536" lon="-2.26159">
        <ele>72.199996948242</ele>
        <time>2021-05-30T08:01:59.000Z</time>
      </trkpt>
      <trkpt lat="47.25361" lon="-2.26163">
        <ele>72.199996948242</ele>
        <time>2021-05-30T08:02:00.000Z</time>
      </trkpt>
      <trkpt lat="47.25364" lon="-2.26177">
        <ele>72.199996948242</ele>
        <time>2021-05-30T08:02:03.000Z</time>
      </trkpt>
      <trkpt lat="47.25365" lon="-2.26187">
        <ele>72.199996948242</ele>
        <time>2021-05-30T08:02:06.000Z</time>
      </trkpt>
      <trkpt lat="47.25367" lon="-2.26191">
        <ele>72.199996948242</ele>
        <time>2021-05-30T08:02:07.000Z</time>
      </trkpt>
      <trkpt lat="47.25372" lon="-2.26199">
        <ele>72.199996948242</ele>
        <time>2021-05-30T08:02:09.000Z</time>
      </trkpt>
      <trkpt lat="47.25386" lon="-2.26228">
        <ele>72.199996948242</ele>
        <time>2021-05-30T08:02:14.000Z</time>
      </trkpt>
      <trkpt lat="47.25387" lon="-2.26234">
        <ele>72.199996948242</ele>
        <time>2021-05-30T08:02:15.000Z</time>
      </trkpt>
      <trkpt lat="47.25389" lon="-2.2625">
        <ele>72.199996948242</ele>
        <time>2021-05-30T08:02:18.000Z</time>
      </trkpt>
      <trkpt lat="47.25388" lon="-2.26259">
        <ele>72.599998474121</ele>
        <time>2021-05-30T08:02:20.000Z</time>
      </trkpt>
      <trkpt lat="47.25388" lon="-2.26263">
        <ele>73.199996948242</ele>
        <time>2021-05-30T08:02:21.000Z</time>
      </trkpt>
      <trkpt lat="47.25387" lon="-2.26266">
        <ele>73.599998474121</ele>
        <time>2021-05-30T08:02:22.000Z</time>
      </trkpt>
      <trkpt lat="47.25386" lon="-2.26269">
        <ele>74</ele>
        <time>2021-05-30T08:02:23.000Z</time>
      </trkpt>
      <trkpt lat="47.25386" lon="-2.26272">
        <ele>74.400001525879</ele>
        <time>2021-05-30T08:02:24.000Z</time>
      </trkpt>
      <trkpt lat="47.25386" lon="-2.26275">
        <ele>74.800003051758</ele>
        <time>2021-05-30T08:02:25.000Z</time>
      </trkpt>
      <trkpt lat="47.25387" lon="-2.26278">
        <ele>75.199996948242</ele>
        <time>2021-05-30T08:02:26.000Z</time>
      </trkpt>
      <trkpt lat="47.25388" lon="-2.26283">
        <ele>75.599998474121</ele>
        <time>2021-05-30T08:02:27.000Z</time>
      </trkpt>
      <trkpt lat="47.2539" lon="-2.26289">
        <ele>76</ele>
        <time>2021-05-30T08:02:28.000Z</time>
      </trkpt>
      <trkpt lat="47.25392" lon="-2.26295">
        <ele>76.400001525879</ele>
        <time>2021-05-30T08:02:29.000Z</time>
      </trkpt>
      <trkpt lat="47.25399" lon="-2.26314">
        <ele>76.400001525879</ele>
        <time>2021-05-30T08:02:34.000Z</time>
      </trkpt>
      <trkpt lat="47.25406" lon="-2.26336">
        <ele>76.400001525879</ele>
        <time>2021-05-30T08:02:39.000Z</time>
      </trkpt>
      <trkpt lat="47.2541" lon="-2.26355">
        <ele>76.400001525879</ele>
        <time>2021-05-30T08:02:44.000Z</time>
      </trkpt>
      <trkpt lat="47.25416" lon="-2.26363">
        <ele>76</ele>
        <time>2021-05-30T08:02:47.000Z</time>
      </trkpt>
      <trkpt lat="47.25418" lon="-2.26368">
        <ele>75.599998474121</ele>
        <time>2021-05-30T08:02:48.000Z</time>
      </trkpt>
      <trkpt lat="47.25422" lon="-2.26376">
        <ele>75.199996948242</ele>
        <time>2021-05-30T08:02:49.000Z</time>
      </trkpt>
      <trkpt lat="47.25425" lon="-2.26382">
        <ele>74.800003051758</ele>
        <time>2021-05-30T08:02:50.000Z</time>
      </trkpt>
      <trkpt lat="47.25427" lon="-2.2639">
        <ele>74.199996948242</ele>
        <time>2021-05-30T08:02:51.000Z</time>
      </trkpt>
      <trkpt lat="47.25427" lon="-2.26404">
        <ele>74.199996948242</ele>
        <time>2021-05-30T08:02:53.000Z</time>
      </trkpt>
      <trkpt lat="47.25426" lon="-2.26452">
        <ele>74.199996948242</ele>
        <time>2021-05-30T08:02:59.000Z</time>
      </trkpt>
      <trkpt lat="47.25423" lon="-2.26484">
        <ele>74.199996948242</ele>
        <time>2021-05-30T08:03:04.000Z</time>
      </trkpt>
      <trkpt lat="47.25422" lon="-2.26494">
        <ele>74.800003051758</ele>
        <time>2021-05-30T08:03:06.000Z</time>
      </trkpt>
      <trkpt lat="47.25422" lon="-2.26497">
        <ele>75.199996948242</ele>
        <time>2021-05-30T08:03:07.000Z</time>
      </trkpt>
      <trkpt lat="47.25421" lon="-2.26501">
        <ele>75.599998474121</ele>
        <time>2021-05-30T08:03:08.000Z</time>
      </trkpt>
      <trkpt lat="47.25421" lon="-2.26505">
        <ele>76.199996948242</ele>
        <time>2021-05-30T08:03:09.000Z</time>
      </trkpt>
      <trkpt lat="47.25421" lon="-2.2651">
        <ele>76.599998474121</ele>
        <time>2021-05-30T08:03:10.000Z</time>
      </trkpt>
      <trkpt lat="47.25422" lon="-2.26518">
        <ele>77</ele>
        <time>2021-05-30T08:03:12.000Z</time>
      </trkpt>
      <trkpt lat="47.25423" lon="-2.26522">
        <ele>77.400001525879</ele>
        <time>2021-05-30T08:03:13.000Z</time>
      </trkpt>
      <trkpt lat="47.25423" lon="-2.26524">
        <ele>77.800003051758</ele>
        <time>2021-05-30T08:03:14.000Z</time>
      </trkpt>
      <trkpt lat="47.25423" lon="-2.26528">
        <ele>78.199996948242</ele>
        <time>2021-05-30T08:03:15.000Z</time>
      </trkpt>
      <trkpt lat="47.25423" lon="-2.2653">
        <ele>78.599998474121</ele>
        <time>2021-05-30T08:03:16.000Z</time>
      </trkpt>
      <trkpt lat="47.25423" lon="-2.26541">
        <ele>78.599998474121</ele>
        <time>2021-05-30T08:03:19.000Z</time>
      </trkpt>
      <trkpt lat="47.25429" lon="-2.26562">
        <ele>78.599998474121</ele>
        <time>2021-05-30T08:03:24.000Z</time>
      </trkpt>
      <trkpt lat="47.25438" lon="-2.26585">
        <ele>78.599998474121</ele>
        <time>2021-05-30T08:03:29.000Z</time>
      </trkpt>
      <trkpt lat="47.25441" lon="-2.26604">
        <ele>78.599998474121</ele>
        <time>2021-05-30T08:03:35.000Z</time>
      </trkpt>
      <trkpt lat="47.2544" lon="-2.26623">
        <ele>78.599998474121</ele>
        <time>2021-05-30T08:03:41.000Z</time>
      </trkpt>
      <trkpt lat="47.25442" lon="-2.26633">
        <ele>78.599998474121</ele>
        <time>2021-05-30T08:03:46.000Z</time>
      </trkpt>
      <trkpt lat="47.25443" lon="-2.26635">
        <ele>79.199996948242</ele>
        <time>2021-05-30T08:03:48.000Z</time>
      </trkpt>
      <trkpt lat="47.25444" lon="-2.26636">
        <ele>79.599998474121</ele>
        <time>2021-05-30T08:03:49.000Z</time>
      </trkpt>
      <trkpt lat="47.25445" lon="-2.26638">
        <ele>80.199996948242</ele>
        <time>2021-05-30T08:03:50.000Z</time>
      </trkpt>
      <trkpt lat="47.25446" lon="-2.26641">
        <ele>80.800003051758</ele>
        <time>2021-05-30T08:03:51.000Z</time>
      </trkpt>
      <trkpt lat="47.25448" lon="-2.26646">
        <ele>81.199996948242</ele>
        <time>2021-05-30T08:03:52.000Z</time>
      </trkpt>
      <trkpt lat="47.25459" lon="-2.26672">
        <ele>81.199996948242</ele>
        <time>2021-05-30T08:03:59.000Z</time>
      </trkpt>
      <trkpt lat="47.25471" lon="-2.2669">
        <ele>81.199996948242</ele>
        <time>2021-05-30T08:04:04.000Z</time>
      </trkpt>
      <trkpt lat="47.25478" lon="-2.26707">
        <ele>81.199996948242</ele>
        <time>2021-05-30T08:04:08.000Z</time>
      </trkpt>
      <trkpt lat="47.25478" lon="-2.26713">
        <ele>81.199996948242</ele>
        <time>2021-05-30T08:04:09.000Z</time>
      </trkpt>
      <trkpt lat="47.25479" lon="-2.26732">
        <ele>81.199996948242</ele>
        <time>2021-05-30T08:04:12.000Z</time>
      </trkpt>
      <trkpt lat="47.25479" lon="-2.26739">
        <ele>81.199996948242</ele>
        <time>2021-05-30T08:04:13.000Z</time>
      </trkpt>
      <trkpt lat="47.25491" lon="-2.26762">
        <ele>81.199996948242</ele>
        <time>2021-05-30T08:04:18.000Z</time>
      </trkpt>
      <trkpt lat="47.25497" lon="-2.26771">
        <ele>81.599998474121</ele>
        <time>2021-05-30T08:04:20.000Z</time>
      </trkpt>
      <trkpt lat="47.255" lon="-2.26776">
        <ele>82</ele>
        <time>2021-05-30T08:04:21.000Z</time>
      </trkpt>
      <trkpt lat="47.25502" lon="-2.26781">
        <ele>82.400001525879</ele>
        <time>2021-05-30T08:04:22.000Z</time>
      </trkpt>
      <trkpt lat="47.25505" lon="-2.26785">
        <ele>82.800003051758</ele>
        <time>2021-05-30T08:04:23.000Z</time>
      </trkpt>
      <trkpt lat="47.25508" lon="-2.26789">
        <ele>83.199996948242</ele>
        <time>2021-05-30T08:04:24.000Z</time>
      </trkpt>
      <trkpt lat="47.25524" lon="-2.26813">
        <ele>83.199996948242</ele>
        <time>2021-05-30T08:04:30.000Z</time>
      </trkpt>
      <trkpt lat="47.25527" lon="-2.26816">
        <ele>83.800003051758</ele>
        <time>2021-05-30T08:04:31.000Z</time>
      </trkpt>
      <trkpt lat="47.25531" lon="-2.26819">
        <ele>84.199996948242</ele>
        <time>2021-05-30T08:04:32.000Z</time>
      </trkpt>
      <trkpt lat="47.25535" lon="-2.26822">
        <ele>84.599998474121</ele>
        <time>2021-05-30T08:04:33.000Z</time>
      </trkpt>
      <trkpt lat="47.25538" lon="-2.26825">
        <ele>85</ele>
        <time>2021-05-30T08:04:34.000Z</time>
      </trkpt>
      <trkpt lat="47.25542" lon="-2.26828">
        <ele>85.400001525879</ele>
        <time>2021-05-30T08:04:35.000Z</time>
      </trkpt>
      <trkpt lat="47.25545" lon="-2.26832">
        <ele>85.400001525879</ele>
        <time>2021-05-30T08:04:36.000Z</time>
      </trkpt>
      <trkpt lat="47.25561" lon="-2.26848">
        <ele>85.400001525879</ele>
        <time>2021-05-30T08:04:41.000Z</time>
      </trkpt>
      <trkpt lat="47.25576" lon="-2.26863">
        <ele>85.800003051758</ele>
        <time>2021-05-30T08:04:46.000Z</time>
      </trkpt>
      <trkpt lat="47.2558" lon="-2.26865">
        <ele>86.199996948242</ele>
        <time>2021-05-30T08:04:47.000Z</time>
      </trkpt>
      <trkpt lat="47.25584" lon="-2.26867">
        <ele>86.599998474121</ele>
        <time>2021-05-30T08:04:48.000Z</time>
      </trkpt>
      <trkpt lat="47.25587" lon="-2.26868">
        <ele>87</ele>
        <time>2021-05-30T08:04:49.000Z</time>
      </trkpt>
      <trkpt lat="47.2559" lon="-2.2687">
        <ele>87.599998474121</ele>
        <time>2021-05-30T08:04:50.000Z</time>
      </trkpt>
      <trkpt lat="47.25605" lon="-2.26875">
        <ele>87.599998474121</ele>
        <time>2021-05-30T08:04:54.000Z</time>
      </trkpt>
      <trkpt lat="47.25613" lon="-2.26877">
        <ele>88</ele>
        <time>2021-05-30T08:04:56.000Z</time>
      </trkpt>
      <trkpt lat="47.25617" lon="-2.26878">
        <ele>88.400001525879</ele>
        <time>2021-05-30T08:04:57.000Z</time>
      </trkpt>
      <trkpt lat="47.2562" lon="-2.26879">
        <ele>88.800003051758</ele>
        <time>2021-05-30T08:04:58.000Z</time>
      </trkpt>
      <trkpt lat="47.25624" lon="-2.26879">
        <ele>89.199996948242</ele>
        <time>2021-05-30T08:04:59.000Z</time>
      </trkpt>
      <trkpt lat="47.25627" lon="-2.26876">
        <ele>89.800003051758</ele>
        <time>2021-05-30T08:05:00.000Z</time>
      </trkpt>
      <trkpt lat="47.25631" lon="-2.26868">
        <ele>89.800003051758</ele>
        <time>2021-05-30T08:05:02.000Z</time>
      </trkpt>
      <trkpt lat="47.25637" lon="-2.26857">
        <ele>89.800003051758</ele>
        <time>2021-05-30T08:05:04.000Z</time>
      </trkpt>
      <trkpt lat="47.25646" lon="-2.26843">
        <ele>89.800003051758</ele>
        <time>2021-05-30T08:05:07.000Z</time>
      </trkpt>
      <trkpt lat="47.25653" lon="-2.26834">
        <ele>89.800003051758</ele>
        <time>2021-05-30T08:05:09.000Z</time>
      </trkpt>
      <trkpt lat="47.25663" lon="-2.26823">
        <ele>89.800003051758</ele>
        <time>2021-05-30T08:05:12.000Z</time>
      </trkpt>
      <trkpt lat="47.25685" lon="-2.26816">
        <ele>89.800003051758</ele>
        <time>2021-05-30T08:05:17.000Z</time>
      </trkpt>
      <trkpt lat="47.25689" lon="-2.26816">
        <ele>89.800003051758</ele>
        <time>2021-05-30T08:05:18.000Z</time>
      </trkpt>
      <trkpt lat="47.25707" lon="-2.26822">
        <ele>89.800003051758</ele>
        <time>2021-05-30T08:05:23.000Z</time>
      </trkpt>
      <trkpt lat="47.2573" lon="-2.2684">
        <ele>89.800003051758</ele>
        <time>2021-05-30T08:05:30.000Z</time>
      </trkpt>
      <trkpt lat="47.25741" lon="-2.26863">
        <ele>89.800003051758</ele>
        <time>2021-05-30T08:05:35.000Z</time>
      </trkpt>
      <trkpt lat="47.25749" lon="-2.26896">
        <ele>89.800003051758</ele>
        <time>2021-05-30T08:05:42.000Z</time>
      </trkpt>
      <trkpt lat="47.25759" lon="-2.26901">
        <ele>89.800003051758</ele>
        <time>2021-05-30T08:05:45.000Z</time>
      </trkpt>
      <trkpt lat="47.25763" lon="-2.269">
        <ele>89.800003051758</ele>
        <time>2021-05-30T08:05:46.000Z</time>
      </trkpt>
      <trkpt lat="47.2577" lon="-2.26897">
        <ele>89.800003051758</ele>
        <time>2021-05-30T08:05:48.000Z</time>
      </trkpt>
      <trkpt lat="47.25774" lon="-2.26895">
        <ele>89.800003051758</ele>
        <time>2021-05-30T08:05:49.000Z</time>
      </trkpt>
      <trkpt lat="47.25783" lon="-2.26892">
        <ele>89.800003051758</ele>
        <time>2021-05-30T08:05:51.000Z</time>
      </trkpt>
      <trkpt lat="47.25792" lon="-2.26887">
        <ele>89.800003051758</ele>
        <time>2021-05-30T08:05:53.000Z</time>
      </trkpt>
      <trkpt lat="47.25819" lon="-2.26872">
        <ele>89.800003051758</ele>
        <time>2021-05-30T08:05:59.000Z</time>
      </trkpt>
      <trkpt lat="47.2585" lon="-2.26857">
        <ele>89.800003051758</ele>
        <time>2021-05-30T08:06:05.000Z</time>
      </trkpt>
      <trkpt lat="47.25902" lon="-2.26837">
        <ele>89.800003051758</ele>
        <time>2021-05-30T08:06:14.000Z</time>
      </trkpt>
      <trkpt lat="47.25924" lon="-2.26823">
        <ele>89.199996948242</ele>
        <time>2021-05-30T08:06:18.000Z</time>
      </trkpt>
      <trkpt lat="47.25929" lon="-2.2682">
        <ele>88.800003051758</ele>
        <time>2021-05-30T08:06:19.000Z</time>
      </trkpt>
      <trkpt lat="47.25934" lon="-2.26818">
        <ele>88.400001525879</ele>
        <time>2021-05-30T08:06:20.000Z</time>
      </trkpt>
      <trkpt lat="47.2594" lon="-2.26817">
        <ele>88</ele>
        <time>2021-05-30T08:06:21.000Z</time>
      </trkpt>
      <trkpt lat="47.25946" lon="-2.26817">
        <ele>87.599998474121</ele>
        <time>2021-05-30T08:06:22.000Z</time>
      </trkpt>
      <trkpt lat="47.25952" lon="-2.26816">
        <ele>87.599998474121</ele>
        <time>2021-05-30T08:06:23.000Z</time>
      </trkpt>
      <trkpt lat="47.25957" lon="-2.26815">
        <ele>87.599998474121</ele>
        <time>2021-05-30T08:06:24.000Z</time>
      </trkpt>
      <trkpt lat="47.25979" lon="-2.26812">
        <ele>87.599998474121</ele>
        <time>2021-05-30T08:06:28.000Z</time>
      </trkpt>
      <trkpt lat="47.25983" lon="-2.26815">
        <ele>87.599998474121</ele>
        <time>2021-05-30T08:06:29.000Z</time>
      </trkpt>
      <trkpt lat="47.25986" lon="-2.2682">
        <ele>87.199996948242</ele>
        <time>2021-05-30T08:06:30.000Z</time>
      </trkpt>
      <trkpt lat="47.25989" lon="-2.26825">
        <ele>86.800003051758</ele>
        <time>2021-05-30T08:06:31.000Z</time>
      </trkpt>
      <trkpt lat="47.2599" lon="-2.26831">
        <ele>86.400001525879</ele>
        <time>2021-05-30T08:06:32.000Z</time>
      </trkpt>
      <trkpt lat="47.2599" lon="-2.26837">
        <ele>86</ele>
        <time>2021-05-30T08:06:33.000Z</time>
      </trkpt>
      <trkpt lat="47.25991" lon="-2.26843">
        <ele>85.400001525879</ele>
        <time>2021-05-30T08:06:34.000Z</time>
      </trkpt>
      <trkpt lat="47.25992" lon="-2.26865">
        <ele>85.400001525879</ele>
        <time>2021-05-30T08:06:37.000Z</time>
      </trkpt>
      <trkpt lat="47.25994" lon="-2.26882">
        <ele>85.400001525879</ele>
        <time>2021-05-30T08:06:39.000Z</time>
      </trkpt>
      <trkpt lat="47.25999" lon="-2.26899">
        <ele>85.400001525879</ele>
        <time>2021-05-30T08:06:41.000Z</time>
      </trkpt>
      <trkpt lat="47.26007" lon="-2.26914">
        <ele>85.400001525879</ele>
        <time>2021-05-30T08:06:43.000Z</time>
      </trkpt>
      <trkpt lat="47.26024" lon="-2.26941">
        <ele>85.400001525879</ele>
        <time>2021-05-30T08:06:47.000Z</time>
      </trkpt>
      <trkpt lat="47.26052" lon="-2.26977">
        <ele>85.400001525879</ele>
        <time>2021-05-30T08:06:53.000Z</time>
      </trkpt>
      <trkpt lat="47.26064" lon="-2.26996">
        <ele>85.400001525879</ele>
        <time>2021-05-30T08:06:56.000Z</time>
      </trkpt>
      <trkpt lat="47.2607" lon="-2.27009">
        <ele>85.400001525879</ele>
        <time>2021-05-30T08:06:58.000Z</time>
      </trkpt>
      <trkpt lat="47.26073" lon="-2.27016">
        <ele>85.400001525879</ele>
        <time>2021-05-30T08:06:59.000Z</time>
      </trkpt>
      <trkpt lat="47.26083" lon="-2.27039">
        <ele>85.400001525879</ele>
        <time>2021-05-30T08:07:02.000Z</time>
      </trkpt>
      <trkpt lat="47.26086" lon="-2.27046">
        <ele>85.400001525879</ele>
        <time>2021-05-30T08:07:03.000Z</time>
      </trkpt>
      <trkpt lat="47.26093" lon="-2.27081">
        <ele>85.400001525879</ele>
        <time>2021-05-30T08:07:07.000Z</time>
      </trkpt>
      <trkpt lat="47.26099" lon="-2.27132">
        <ele>85.400001525879</ele>
        <time>2021-05-30T08:07:12.000Z</time>
      </trkpt>
      <trkpt lat="47.26102" lon="-2.2715">
        <ele>85.400001525879</ele>
        <time>2021-05-30T08:07:14.000Z</time>
      </trkpt>
      <trkpt lat="47.26108" lon="-2.27166">
        <ele>85.400001525879</ele>
        <time>2021-05-30T08:07:16.000Z</time>
      </trkpt>
      <trkpt lat="47.26128" lon="-2.27213">
        <ele>85.400001525879</ele>
        <time>2021-05-30T08:07:22.000Z</time>
      </trkpt>
      <trkpt lat="47.26143" lon="-2.27262">
        <ele>85.400001525879</ele>
        <time>2021-05-30T08:07:28.000Z</time>
      </trkpt>
      <trkpt lat="47.26145" lon="-2.27289">
        <ele>85.400001525879</ele>
        <time>2021-05-30T08:07:31.000Z</time>
      </trkpt>
      <trkpt lat="47.26147" lon="-2.27303">
        <ele>85.400001525879</ele>
        <time>2021-05-30T08:07:33.000Z</time>
      </trkpt>
      <trkpt lat="47.26159" lon="-2.27319">
        <ele>85.400001525879</ele>
        <time>2021-05-30T08:07:37.000Z</time>
      </trkpt>
      <trkpt lat="47.2617" lon="-2.27319">
        <ele>85.400001525879</ele>
        <time>2021-05-30T08:07:39.000Z</time>
      </trkpt>
      <trkpt lat="47.26182" lon="-2.27317">
        <ele>85.400001525879</ele>
        <time>2021-05-30T08:07:41.000Z</time>
      </trkpt>
      <trkpt lat="47.26199" lon="-2.27314">
        <ele>85.400001525879</ele>
        <time>2021-05-30T08:07:44.000Z</time>
      </trkpt>
      <trkpt lat="47.26218" lon="-2.27315">
        <ele>85.400001525879</ele>
        <time>2021-05-30T08:07:47.000Z</time>
      </trkpt>
      <trkpt lat="47.26257" lon="-2.27321">
        <ele>85.400001525879</ele>
        <time>2021-05-30T08:07:53.000Z</time>
      </trkpt>
      <trkpt lat="47.26309" lon="-2.27326">
        <ele>85.400001525879</ele>
        <time>2021-05-30T08:08:01.000Z</time>
      </trkpt>
      <trkpt lat="47.26344" lon="-2.2733">
        <ele>85.400001525879</ele>
        <time>2021-05-30T08:08:06.000Z</time>
      </trkpt>
      <trkpt lat="47.26385" lon="-2.27332">
        <ele>85.400001525879</ele>
        <time>2021-05-30T08:08:12.000Z</time>
      </trkpt>
      <trkpt lat="47.26413" lon="-2.27334">
        <ele>85.400001525879</ele>
        <time>2021-05-30T08:08:16.000Z</time>
      </trkpt>
      <trkpt lat="47.26425" lon="-2.27338">
        <ele>85.400001525879</ele>
        <time>2021-05-30T08:08:18.000Z</time>
      </trkpt>
      <trkpt lat="47.26437" lon="-2.27353">
        <ele>85</ele>
        <time>2021-05-30T08:08:21.000Z</time>
      </trkpt>
      <trkpt lat="47.26441" lon="-2.2736">
        <ele>84.599998474121</ele>
        <time>2021-05-30T08:08:22.000Z</time>
      </trkpt>
      <trkpt lat="47.26445" lon="-2.27368">
        <ele>84.199996948242</ele>
        <time>2021-05-30T08:08:23.000Z</time>
      </trkpt>
      <trkpt lat="47.26448" lon="-2.27377">
        <ele>83.800003051758</ele>
        <time>2021-05-30T08:08:24.000Z</time>
      </trkpt>
      <trkpt lat="47.26451" lon="-2.27386">
        <ele>83.199996948242</ele>
        <time>2021-05-30T08:08:25.000Z</time>
      </trkpt>
      <trkpt lat="47.26466" lon="-2.27439">
        <ele>83.199996948242</ele>
        <time>2021-05-30T08:08:30.000Z</time>
      </trkpt>
      <trkpt lat="47.2648" lon="-2.2749">
        <ele>82.800003051758</ele>
        <time>2021-05-30T08:08:35.000Z</time>
      </trkpt>
      <trkpt lat="47.26482" lon="-2.275">
        <ele>82.400001525879</ele>
        <time>2021-05-30T08:08:36.000Z</time>
      </trkpt>
      <trkpt lat="47.26485" lon="-2.27511">
        <ele>82</ele>
        <time>2021-05-30T08:08:37.000Z</time>
      </trkpt>
      <trkpt lat="47.26486" lon="-2.27521">
        <ele>81.599998474121</ele>
        <time>2021-05-30T08:08:38.000Z</time>
      </trkpt>
      <trkpt lat="47.26488" lon="-2.27532">
        <ele>81.199996948242</ele>
        <time>2021-05-30T08:08:39.000Z</time>
      </trkpt>
      <trkpt lat="47.2649" lon="-2.27561">
        <ele>81.199996948242</ele>
        <time>2021-05-30T08:08:42.000Z</time>
      </trkpt>
      <trkpt lat="47.26491" lon="-2.27568">
        <ele>80.800003051758</ele>
        <time>2021-05-30T08:08:43.000Z</time>
      </trkpt>
      <trkpt lat="47.26494" lon="-2.27573">
        <ele>80.400001525879</ele>
        <time>2021-05-30T08:08:44.000Z</time>
      </trkpt>
      <trkpt lat="47.26497" lon="-2.27576">
        <ele>79.800003051758</ele>
        <time>2021-05-30T08:08:45.000Z</time>
      </trkpt>
      <trkpt lat="47.26502" lon="-2.27577">
        <ele>79.400001525879</ele>
        <time>2021-05-30T08:08:46.000Z</time>
      </trkpt>
      <trkpt lat="47.26508" lon="-2.27577">
        <ele>79</ele>
        <time>2021-05-30T08:08:47.000Z</time>
      </trkpt>
      <trkpt lat="47.26513" lon="-2.27577">
        <ele>79</ele>
        <time>2021-05-30T08:08:48.000Z</time>
      </trkpt>
      <trkpt lat="47.26537" lon="-2.27578">
        <ele>79</ele>
        <time>2021-05-30T08:08:52.000Z</time>
      </trkpt>
      <trkpt lat="47.26543" lon="-2.27579">
        <ele>79</ele>
        <time>2021-05-30T08:08:53.000Z</time>
      </trkpt>
      <trkpt lat="47.26579" lon="-2.27583">
        <ele>79</ele>
        <time>2021-05-30T08:08:58.000Z</time>
      </trkpt>
      <trkpt lat="47.26586" lon="-2.27585">
        <ele>79</ele>
        <time>2021-05-30T08:08:59.000Z</time>
      </trkpt>
      <trkpt lat="47.26622" lon="-2.276">
        <ele>79</ele>
        <time>2021-05-30T08:09:05.000Z</time>
      </trkpt>
      <trkpt lat="47.26666" lon="-2.2762">
        <ele>79</ele>
        <time>2021-05-30T08:09:13.000Z</time>
      </trkpt>
      <trkpt lat="47.26677" lon="-2.27625">
        <ele>79</ele>
        <time>2021-05-30T08:09:15.000Z</time>
      </trkpt>
      <trkpt lat="47.26691" lon="-2.2763">
        <ele>79</ele>
        <time>2021-05-30T08:09:18.000Z</time>
      </trkpt>
      <trkpt lat="47.26701" lon="-2.27635">
        <ele>78.400001525879</ele>
        <time>2021-05-30T08:09:20.000Z</time>
      </trkpt>
      <trkpt lat="47.26706" lon="-2.27638">
        <ele>78</ele>
        <time>2021-05-30T08:09:21.000Z</time>
      </trkpt>
      <trkpt lat="47.26711" lon="-2.2764">
        <ele>77.599998474121</ele>
        <time>2021-05-30T08:09:22.000Z</time>
      </trkpt>
      <trkpt lat="47.26715" lon="-2.27643">
        <ele>77.199996948242</ele>
        <time>2021-05-30T08:09:23.000Z</time>
      </trkpt>
      <trkpt lat="47.2672" lon="-2.27645">
        <ele>76.800003051758</ele>
        <time>2021-05-30T08:09:24.000Z</time>
      </trkpt>
      <trkpt lat="47.26751" lon="-2.27654">
        <ele>76.800003051758</ele>
        <time>2021-05-30T08:09:31.000Z</time>
      </trkpt>
      <trkpt lat="47.26763" lon="-2.27646">
        <ele>76.800003051758</ele>
        <time>2021-05-30T08:09:35.000Z</time>
      </trkpt>
      <trkpt lat="47.26764" lon="-2.27629">
        <ele>76.800003051758</ele>
        <time>2021-05-30T08:09:38.000Z</time>
      </trkpt>
      <trkpt lat="47.26763" lon="-2.27615">
        <ele>76.800003051758</ele>
        <time>2021-05-30T08:09:40.000Z</time>
      </trkpt>
      <trkpt lat="47.26759" lon="-2.276">
        <ele>76.800003051758</ele>
        <time>2021-05-30T08:09:42.000Z</time>
      </trkpt>
      <trkpt lat="47.26752" lon="-2.27552">
        <ele>76.800003051758</ele>
        <time>2021-05-30T08:09:48.000Z</time>
      </trkpt>
      <trkpt lat="47.26752" lon="-2.27537">
        <ele>77.199996948242</ele>
        <time>2021-05-30T08:09:50.000Z</time>
      </trkpt>
      <trkpt lat="47.26753" lon="-2.2753">
        <ele>77.599998474121</ele>
        <time>2021-05-30T08:09:51.000Z</time>
      </trkpt>
      <trkpt lat="47.26752" lon="-2.27523">
        <ele>78</ele>
        <time>2021-05-30T08:09:52.000Z</time>
      </trkpt>
      <trkpt lat="47.26752" lon="-2.27516">
        <ele>78.599998474121</ele>
        <time>2021-05-30T08:09:53.000Z</time>
      </trkpt>
      <trkpt lat="47.26752" lon="-2.27509">
        <ele>79</ele>
        <time>2021-05-30T08:09:54.000Z</time>
      </trkpt>
      <trkpt lat="47.26752" lon="-2.27502">
        <ele>79</ele>
        <time>2021-05-30T08:09:55.000Z</time>
      </trkpt>
      <trkpt lat="47.26753" lon="-2.27453">
        <ele>79</ele>
        <time>2021-05-30T08:10:02.000Z</time>
      </trkpt>
      <trkpt lat="47.2675" lon="-2.27432">
        <ele>79</ele>
        <time>2021-05-30T08:10:07.000Z</time>
      </trkpt>
      <trkpt lat="47.26749" lon="-2.27419">
        <ele>79</ele>
        <time>2021-05-30T08:10:14.000Z</time>
      </trkpt>
      <trkpt lat="47.26754" lon="-2.2741">
        <ele>79</ele>
        <time>2021-05-30T08:10:18.000Z</time>
      </trkpt>
      <trkpt lat="47.26755" lon="-2.27408">
        <ele>79</ele>
        <time>2021-05-30T08:10:19.000Z</time>
      </trkpt>
      <trkpt lat="47.2676" lon="-2.27405">
        <ele>79</ele>
        <time>2021-05-30T08:10:21.000Z</time>
      </trkpt>
      <trkpt lat="47.26768" lon="-2.27404">
        <ele>79</ele>
        <time>2021-05-30T08:10:23.000Z</time>
      </trkpt>
      <trkpt lat="47.26789" lon="-2.27406">
        <ele>79</ele>
        <time>2021-05-30T08:10:27.000Z</time>
      </trkpt>
      <trkpt lat="47.26793" lon="-2.27406">
        <ele>79</ele>
        <time>2021-05-30T08:10:28.000Z</time>
      </trkpt>
      <trkpt lat="47.26822" lon="-2.27405">
        <ele>79</ele>
        <time>2021-05-30T08:10:34.000Z</time>
      </trkpt>
      <trkpt lat="47.26855" lon="-2.27399">
        <ele>78.599998474121</ele>
        <time>2021-05-30T08:10:40.000Z</time>
      </trkpt>
      <trkpt lat="47.26861" lon="-2.27397">
        <ele>78</ele>
        <time>2021-05-30T08:10:41.000Z</time>
      </trkpt>
      <trkpt lat="47.26867" lon="-2.27395">
        <ele>77.599998474121</ele>
        <time>2021-05-30T08:10:42.000Z</time>
      </trkpt>
      <trkpt lat="47.26873" lon="-2.27393">
        <ele>77.199996948242</ele>
        <time>2021-05-30T08:10:43.000Z</time>
      </trkpt>
      <trkpt lat="47.26879" lon="-2.27391">
        <ele>76.800003051758</ele>
        <time>2021-05-30T08:10:44.000Z</time>
      </trkpt>
      <trkpt lat="47.26885" lon="-2.27389">
        <ele>76.800003051758</ele>
        <time>2021-05-30T08:10:45.000Z</time>
      </trkpt>
      <trkpt lat="47.26895" lon="-2.27386">
        <ele>76.400001525879</ele>
        <time>2021-05-30T08:10:47.000Z</time>
      </trkpt>
      <trkpt lat="47.26899" lon="-2.27384">
        <ele>76</ele>
        <time>2021-05-30T08:10:48.000Z</time>
      </trkpt>
      <trkpt lat="47.26904" lon="-2.27383">
        <ele>75.400001525879</ele>
        <time>2021-05-30T08:10:49.000Z</time>
      </trkpt>
      <trkpt lat="47.26907" lon="-2.27383">
        <ele>75</ele>
        <time>2021-05-30T08:10:50.000Z</time>
      </trkpt>
      <trkpt lat="47.26911" lon="-2.27382">
        <ele>74.599998474121</ele>
        <time>2021-05-30T08:10:51.000Z</time>
      </trkpt>
      <trkpt lat="47.26915" lon="-2.27378">
        <ele>74.599998474121</ele>
        <time>2021-05-30T08:10:53.000Z</time>
      </trkpt>
      <trkpt lat="47.26915" lon="-2.27371">
        <ele>74.599998474121</ele>
        <time>2021-05-30T08:10:55.000Z</time>
      </trkpt>
      <trkpt lat="47.26915" lon="-2.27358">
        <ele>74.599998474121</ele>
        <time>2021-05-30T08:10:58.000Z</time>
      </trkpt>
      <trkpt lat="47.26915" lon="-2.27344">
        <ele>74.599998474121</ele>
        <time>2021-05-30T08:11:02.000Z</time>
      </trkpt>
      <trkpt lat="47.26918" lon="-2.27328">
        <ele>74.599998474121</ele>
        <time>2021-05-30T08:11:07.000Z</time>
      </trkpt>
      <trkpt lat="47.26918" lon="-2.27308">
        <ele>74.599998474121</ele>
        <time>2021-05-30T08:11:13.000Z</time>
      </trkpt>
      <trkpt lat="47.26917" lon="-2.27303">
        <ele>74.599998474121</ele>
        <time>2021-05-30T08:11:15.000Z</time>
      </trkpt>
      <trkpt lat="47.26919" lon="-2.2729">
        <ele>74.599998474121</ele>
        <time>2021-05-30T08:11:18.000Z</time>
      </trkpt>
      <trkpt lat="47.2692" lon="-2.27279">
        <ele>74.599998474121</ele>
        <time>2021-05-30T08:11:21.000Z</time>
      </trkpt>
      <trkpt lat="47.26922" lon="-2.27275">
        <ele>74.599998474121</ele>
        <time>2021-05-30T08:11:23.000Z</time>
      </trkpt>
      <trkpt lat="47.26923" lon="-2.27272">
        <ele>74.599998474121</ele>
        <time>2021-05-30T08:11:24.000Z</time>
      </trkpt>
      <trkpt lat="47.2693" lon="-2.27265">
        <ele>74.599998474121</ele>
        <time>2021-05-30T08:11:27.000Z</time>
      </trkpt>
      <trkpt lat="47.26933" lon="-2.27263">
        <ele>74.599998474121</ele>
        <time>2021-05-30T08:11:28.000Z</time>
      </trkpt>
      <trkpt lat="47.2694" lon="-2.27251">
        <ele>74.599998474121</ele>
        <time>2021-05-30T08:11:32.000Z</time>
      </trkpt>
      <trkpt lat="47.26945" lon="-2.27242">
        <ele>74.599998474121</ele>
        <time>2021-05-30T08:11:35.000Z</time>
      </trkpt>
      <trkpt lat="47.26949" lon="-2.27227">
        <ele>74.599998474121</ele>
        <time>2021-05-30T08:11:39.000Z</time>
      </trkpt>
      <trkpt lat="47.26948" lon="-2.27224">
        <ele>74.599998474121</ele>
        <time>2021-05-30T08:11:40.000Z</time>
      </trkpt>
      <trkpt lat="47.26952" lon="-2.27211">
        <ele>74.599998474121</ele>
        <time>2021-05-30T08:11:44.000Z</time>
      </trkpt>
      <trkpt lat="47.26954" lon="-2.27209">
        <ele>74.599998474121</ele>
        <time>2021-05-30T08:11:45.000Z</time>
      </trkpt>
      <trkpt lat="47.26968" lon="-2.27197">
        <ele>74.599998474121</ele>
        <time>2021-05-30T08:11:50.000Z</time>
      </trkpt>
      <trkpt lat="47.26972" lon="-2.27198">
        <ele>74.599998474121</ele>
        <time>2021-05-30T08:11:51.000Z</time>
      </trkpt>
      <trkpt lat="47.26981" lon="-2.27194">
        <ele>74.599998474121</ele>
        <time>2021-05-30T08:11:54.000Z</time>
      </trkpt>
      <trkpt lat="47.26992" lon="-2.27184">
        <ele>74.599998474121</ele>
        <time>2021-05-30T08:11:58.000Z</time>
      </trkpt>
      <trkpt lat="47.26997" lon="-2.27181">
        <ele>74.199996948242</ele>
        <time>2021-05-30T08:12:00.000Z</time>
      </trkpt>
      <trkpt lat="47.26999" lon="-2.2718">
        <ele>73.800003051758</ele>
        <time>2021-05-30T08:12:01.000Z</time>
      </trkpt>
      <trkpt lat="47.27002" lon="-2.27179">
        <ele>73.199996948242</ele>
        <time>2021-05-30T08:12:02.000Z</time>
      </trkpt>
      <trkpt lat="47.27004" lon="-2.27177">
        <ele>72.800003051758</ele>
        <time>2021-05-30T08:12:03.000Z</time>
      </trkpt>
      <trkpt lat="47.27006" lon="-2.27176">
        <ele>72.400001525879</ele>
        <time>2021-05-30T08:12:04.000Z</time>
      </trkpt>
      <trkpt lat="47.27007" lon="-2.27174">
        <ele>72.400001525879</ele>
        <time>2021-05-30T08:12:05.000Z</time>
      </trkpt>
      <trkpt lat="47.27015" lon="-2.2716">
        <ele>72.400001525879</ele>
        <time>2021-05-30T08:12:11.000Z</time>
      </trkpt>
      <trkpt lat="47.27023" lon="-2.27156">
        <ele>72</ele>
        <time>2021-05-30T08:12:14.000Z</time>
      </trkpt>
      <trkpt lat="47.27025" lon="-2.27153">
        <ele>71.599998474121</ele>
        <time>2021-05-30T08:12:15.000Z</time>
      </trkpt>
      <trkpt lat="47.27027" lon="-2.2715">
        <ele>71.199996948242</ele>
        <time>2021-05-30T08:12:16.000Z</time>
      </trkpt>
      <trkpt lat="47.27029" lon="-2.27147">
        <ele>70.800003051758</ele>
        <time>2021-05-30T08:12:17.000Z</time>
      </trkpt>
      <trkpt lat="47.2703" lon="-2.27145">
        <ele>70.400001525879</ele>
        <time>2021-05-30T08:12:18.000Z</time>
      </trkpt>
      <trkpt lat="47.27029" lon="-2.27142">
        <ele>70.400001525879</ele>
        <time>2021-05-30T08:12:19.000Z</time>
      </trkpt>
      <trkpt lat="47.27028" lon="-2.27139">
        <ele>70.400001525879</ele>
        <time>2021-05-30T08:12:20.000Z</time>
      </trkpt>
      <trkpt lat="47.27022" lon="-2.27124">
        <ele>70.400001525879</ele>
        <time>2021-05-30T08:12:23.000Z</time>
      </trkpt>
      <trkpt lat="47.27016" lon="-2.27109">
        <ele>70.800003051758</ele>
        <time>2021-05-30T08:12:26.000Z</time>
      </trkpt>
      <trkpt lat="47.27014" lon="-2.27104">
        <ele>71.199996948242</ele>
        <time>2021-05-30T08:12:27.000Z</time>
      </trkpt>
      <trkpt lat="47.27012" lon="-2.27098">
        <ele>71.800003051758</ele>
        <time>2021-05-30T08:12:28.000Z</time>
      </trkpt>
      <trkpt lat="47.27012" lon="-2.27091">
        <ele>72.199996948242</ele>
        <time>2021-05-30T08:12:29.000Z</time>
      </trkpt>
      <trkpt lat="47.27011" lon="-2.27083">
        <ele>72.599998474121</ele>
        <time>2021-05-30T08:12:30.000Z</time>
      </trkpt>
      <trkpt lat="47.27007" lon="-2.27062">
        <ele>72.599998474121</ele>
        <time>2021-05-30T08:12:33.000Z</time>
      </trkpt>
      <trkpt lat="47.26996" lon="-2.2704">
        <ele>72.599998474121</ele>
        <time>2021-05-30T08:12:37.000Z</time>
      </trkpt>
      <trkpt lat="47.26989" lon="-2.27031">
        <ele>72.599998474121</ele>
        <time>2021-05-30T08:12:39.000Z</time>
      </trkpt>
      <trkpt lat="47.26977" lon="-2.27015">
        <ele>72.599998474121</ele>
        <time>2021-05-30T08:12:42.000Z</time>
      </trkpt>
      <trkpt lat="47.26958" lon="-2.26985">
        <ele>72.599998474121</ele>
        <time>2021-05-30T08:12:48.000Z</time>
      </trkpt>
      <trkpt lat="47.26957" lon="-2.26964">
        <ele>72.199996948242</ele>
        <time>2021-05-30T08:12:51.000Z</time>
      </trkpt>
      <trkpt lat="47.26958" lon="-2.26956">
        <ele>71.800003051758</ele>
        <time>2021-05-30T08:12:52.000Z</time>
      </trkpt>
      <trkpt lat="47.26959" lon="-2.26948">
        <ele>71.400001525879</ele>
        <time>2021-05-30T08:12:53.000Z</time>
      </trkpt>
      <trkpt lat="47.2696" lon="-2.26941">
        <ele>71</ele>
        <time>2021-05-30T08:12:54.000Z</time>
      </trkpt>
      <trkpt lat="47.26961" lon="-2.26933">
        <ele>70.599998474121</ele>
        <time>2021-05-30T08:12:55.000Z</time>
      </trkpt>
      <trkpt lat="47.26962" lon="-2.26925">
        <ele>70.599998474121</ele>
        <time>2021-05-30T08:12:56.000Z</time>
      </trkpt>
      <trkpt lat="47.26963" lon="-2.2691">
        <ele>70.599998474121</ele>
        <time>2021-05-30T08:12:58.000Z</time>
      </trkpt>
      <trkpt lat="47.26957" lon="-2.26862">
        <ele>70.599998474121</ele>
        <time>2021-05-30T08:13:03.000Z</time>
      </trkpt>
      <trkpt lat="47.26955" lon="-2.26826">
        <ele>70.599998474121</ele>
        <time>2021-05-30T08:13:08.000Z</time>
      </trkpt>
      <trkpt lat="47.26963" lon="-2.26807">
        <ele>70.199996948242</ele>
        <time>2021-05-30T08:13:13.000Z</time>
      </trkpt>
      <trkpt lat="47.26965" lon="-2.26805">
        <ele>69.800003051758</ele>
        <time>2021-05-30T08:13:14.000Z</time>
      </trkpt>
      <trkpt lat="47.26968" lon="-2.26803">
        <ele>69.400001525879</ele>
        <time>2021-05-30T08:13:15.000Z</time>
      </trkpt>
      <trkpt lat="47.2697" lon="-2.26801">
        <ele>68.800003051758</ele>
        <time>2021-05-30T08:13:16.000Z</time>
      </trkpt>
      <trkpt lat="47.26972" lon="-2.26798">
        <ele>68.400001525879</ele>
        <time>2021-05-30T08:13:17.000Z</time>
      </trkpt>
      <trkpt lat="47.26979" lon="-2.26793">
        <ele>68.400001525879</ele>
        <time>2021-05-30T08:13:21.000Z</time>
      </trkpt>
      <trkpt lat="47.26989" lon="-2.26786">
        <ele>68.400001525879</ele>
        <time>2021-05-30T08:13:27.000Z</time>
      </trkpt>
      <trkpt lat="47.26992" lon="-2.26782">
        <ele>68.400001525879</ele>
        <time>2021-05-30T08:13:29.000Z</time>
      </trkpt>
      <trkpt lat="47.26998" lon="-2.26774">
        <ele>68.400001525879</ele>
        <time>2021-05-30T08:13:33.000Z</time>
      </trkpt>
      <trkpt lat="47.27001" lon="-2.26768">
        <ele>68.400001525879</ele>
        <time>2021-05-30T08:13:35.000Z</time>
      </trkpt>
      <trkpt lat="47.27007" lon="-2.26764">
        <ele>68.400001525879</ele>
        <time>2021-05-30T08:13:37.000Z</time>
      </trkpt>
      <trkpt lat="47.27015" lon="-2.26757">
        <ele>68.400001525879</ele>
        <time>2021-05-30T08:13:40.000Z</time>
      </trkpt>
      <trkpt lat="47.27023" lon="-2.2675">
        <ele>68.400001525879</ele>
        <time>2021-05-30T08:13:46.000Z</time>
      </trkpt>
      <trkpt lat="47.27025" lon="-2.26747">
        <ele>68.400001525879</ele>
        <time>2021-05-30T08:13:48.000Z</time>
      </trkpt>
      <trkpt lat="47.27027" lon="-2.26733">
        <ele>68.400001525879</ele>
        <time>2021-05-30T08:13:51.000Z</time>
      </trkpt>
      <trkpt lat="47.27028" lon="-2.26712">
        <ele>68.400001525879</ele>
        <time>2021-05-30T08:13:54.000Z</time>
      </trkpt>
      <trkpt lat="47.27028" lon="-2.267">
        <ele>68.400001525879</ele>
        <time>2021-05-30T08:13:56.000Z</time>
      </trkpt>
      <trkpt lat="47.27023" lon="-2.2667">
        <ele>68.400001525879</ele>
        <time>2021-05-30T08:14:01.000Z</time>
      </trkpt>
      <trkpt lat="47.27023" lon="-2.26662">
        <ele>68.400001525879</ele>
        <time>2021-05-30T08:14:02.000Z</time>
      </trkpt>
      <trkpt lat="47.27018" lon="-2.26638">
        <ele>68.400001525879</ele>
        <time>2021-05-30T08:14:06.000Z</time>
      </trkpt>
      <trkpt lat="47.27009" lon="-2.26612">
        <ele>68.400001525879</ele>
        <time>2021-05-30T08:14:10.000Z</time>
      </trkpt>
      <trkpt lat="47.26994" lon="-2.26589">
        <ele>68.400001525879</ele>
        <time>2021-05-30T08:14:14.000Z</time>
      </trkpt>
      <trkpt lat="47.26986" lon="-2.26582">
        <ele>68.800003051758</ele>
        <time>2021-05-30T08:14:16.000Z</time>
      </trkpt>
      <trkpt lat="47.26982" lon="-2.26576">
        <ele>69.199996948242</ele>
        <time>2021-05-30T08:14:17.000Z</time>
      </trkpt>
      <trkpt lat="47.26978" lon="-2.26571">
        <ele>69.599998474121</ele>
        <time>2021-05-30T08:14:18.000Z</time>
      </trkpt>
      <trkpt lat="47.26976" lon="-2.26563">
        <ele>70.199996948242</ele>
        <time>2021-05-30T08:14:19.000Z</time>
      </trkpt>
      <trkpt lat="47.26973" lon="-2.26554">
        <ele>70.599998474121</ele>
        <time>2021-05-30T08:14:20.000Z</time>
      </trkpt>
      <trkpt lat="47.2697" lon="-2.26539">
        <ele>70.599998474121</ele>
        <time>2021-05-30T08:14:22.000Z</time>
      </trkpt>
      <trkpt lat="47.26968" lon="-2.26532">
        <ele>70.599998474121</ele>
        <time>2021-05-30T08:14:23.000Z</time>
      </trkpt>
      <trkpt lat="47.26965" lon="-2.2652">
        <ele>70.599998474121</ele>
        <time>2021-05-30T08:14:25.000Z</time>
      </trkpt>
      <trkpt lat="47.26965" lon="-2.26509">
        <ele>71</ele>
        <time>2021-05-30T08:14:27.000Z</time>
      </trkpt>
      <trkpt lat="47.26966" lon="-2.26503">
        <ele>71.400001525879</ele>
        <time>2021-05-30T08:14:28.000Z</time>
      </trkpt>
      <trkpt lat="47.26968" lon="-2.26497">
        <ele>71.800003051758</ele>
        <time>2021-05-30T08:14:29.000Z</time>
      </trkpt>
      <trkpt lat="47.26971" lon="-2.26493">
        <ele>72.199996948242</ele>
        <time>2021-05-30T08:14:30.000Z</time>
      </trkpt>
      <trkpt lat="47.26973" lon="-2.26489">
        <ele>72.599998474121</ele>
        <time>2021-05-30T08:14:31.000Z</time>
      </trkpt>
      <trkpt lat="47.26978" lon="-2.26481">
        <ele>72.599998474121</ele>
        <time>2021-05-30T08:14:33.000Z</time>
      </trkpt>
      <trkpt lat="47.2698" lon="-2.26478">
        <ele>72.599998474121</ele>
        <time>2021-05-30T08:14:34.000Z</time>
      </trkpt>
      <trkpt lat="47.26983" lon="-2.26475">
        <ele>72.599998474121</ele>
        <time>2021-05-30T08:14:38.000Z</time>
      </trkpt>
      <trkpt lat="47.26987" lon="-2.26471">
        <ele>72.599998474121</ele>
        <time>2021-05-30T08:15:15.000Z</time>
      </trkpt>
      <trkpt lat="47.26994" lon="-2.26463">
        <ele>72.599998474121</ele>
        <time>2021-05-30T08:15:18.000Z</time>
      </trkpt>
      <trkpt lat="47.27012" lon="-2.26431">
        <ele>72.599998474121</ele>
        <time>2021-05-30T08:15:24.000Z</time>
      </trkpt>
      <trkpt lat="47.27032" lon="-2.26396">
        <ele>72.599998474121</ele>
        <time>2021-05-30T08:15:30.000Z</time>
      </trkpt>
      <trkpt lat="47.2706" lon="-2.26361">
        <ele>72.599998474121</ele>
        <time>2021-05-30T08:15:36.000Z</time>
      </trkpt>
      <trkpt lat="47.27101" lon="-2.26305">
        <ele>72.599998474121</ele>
        <time>2021-05-30T08:15:45.000Z</time>
      </trkpt>
      <trkpt lat="47.27135" lon="-2.26259">
        <ele>72.599998474121</ele>
        <time>2021-05-30T08:15:52.000Z</time>
      </trkpt>
      <trkpt lat="47.27171" lon="-2.26216">
        <ele>72.599998474121</ele>
        <time>2021-05-30T08:15:58.000Z</time>
      </trkpt>
      <trkpt lat="47.2721" lon="-2.26177">
        <ele>72.599998474121</ele>
        <time>2021-05-30T08:16:04.000Z</time>
      </trkpt>
      <trkpt lat="47.27229" lon="-2.26162">
        <ele>72.199996948242</ele>
        <time>2021-05-30T08:16:07.000Z</time>
      </trkpt>
      <trkpt lat="47.27236" lon="-2.26158">
        <ele>71.800003051758</ele>
        <time>2021-05-30T08:16:08.000Z</time>
      </trkpt>
      <trkpt lat="47.27242" lon="-2.26154">
        <ele>71.400001525879</ele>
        <time>2021-05-30T08:16:09.000Z</time>
      </trkpt>
      <trkpt lat="47.27249" lon="-2.2615">
        <ele>71</ele>
        <time>2021-05-30T08:16:10.000Z</time>
      </trkpt>
      <trkpt lat="47.27255" lon="-2.26147">
        <ele>70.400001525879</ele>
        <time>2021-05-30T08:16:11.000Z</time>
      </trkpt>
      <trkpt lat="47.2729" lon="-2.26135">
        <ele>70.400001525879</ele>
        <time>2021-05-30T08:16:16.000Z</time>
      </trkpt>
      <trkpt lat="47.27331" lon="-2.26125">
        <ele>70.400001525879</ele>
        <time>2021-05-30T08:16:23.000Z</time>
      </trkpt>
      <trkpt lat="47.27337" lon="-2.26122">
        <ele>70</ele>
        <time>2021-05-30T08:16:24.000Z</time>
      </trkpt>
      <trkpt lat="47.27341" lon="-2.26118">
        <ele>69.599998474121</ele>
        <time>2021-05-30T08:16:25.000Z</time>
      </trkpt>
      <trkpt lat="47.27342" lon="-2.26111">
        <ele>69.199996948242</ele>
        <time>2021-05-30T08:16:26.000Z</time>
      </trkpt>
      <trkpt lat="47.27341" lon="-2.26103">
        <ele>68.800003051758</ele>
        <time>2021-05-30T08:16:27.000Z</time>
      </trkpt>
      <trkpt lat="47.2734" lon="-2.26096">
        <ele>68.400001525879</ele>
        <time>2021-05-30T08:16:28.000Z</time>
      </trkpt>
      <trkpt lat="47.27337" lon="-2.26089">
        <ele>68.400001525879</ele>
        <time>2021-05-30T08:16:29.000Z</time>
      </trkpt>
      <trkpt lat="47.27325" lon="-2.26067">
        <ele>68.400001525879</ele>
        <time>2021-05-30T08:16:32.000Z</time>
      </trkpt>
      <trkpt lat="47.27321" lon="-2.26059">
        <ele>68.400001525879</ele>
        <time>2021-05-30T08:16:33.000Z</time>
      </trkpt>
      <trkpt lat="47.27299" lon="-2.26015">
        <ele>68.400001525879</ele>
        <time>2021-05-30T08:16:39.000Z</time>
      </trkpt>
      <trkpt lat="47.2729" lon="-2.25998">
        <ele>68.400001525879</ele>
        <time>2021-05-30T08:16:42.000Z</time>
      </trkpt>
      <trkpt lat="47.2729" lon="-2.25993">
        <ele>68.400001525879</ele>
        <time>2021-05-30T08:16:43.000Z</time>
      </trkpt>
      <trkpt lat="47.27295" lon="-2.25981">
        <ele>68.400001525879</ele>
        <time>2021-05-30T08:16:46.000Z</time>
      </trkpt>
      <trkpt lat="47.27297" lon="-2.25977">
        <ele>68.400001525879</ele>
        <time>2021-05-30T08:16:47.000Z</time>
      </trkpt>
      <trkpt lat="47.27314" lon="-2.25964">
        <ele>68.400001525879</ele>
        <time>2021-05-30T08:16:52.000Z</time>
      </trkpt>
      <trkpt lat="47.27336" lon="-2.25948">
        <ele>68.400001525879</ele>
        <time>2021-05-30T08:16:57.000Z</time>
      </trkpt>
      <trkpt lat="47.2734" lon="-2.25945">
        <ele>68.400001525879</ele>
        <time>2021-05-30T08:16:58.000Z</time>
      </trkpt>
      <trkpt lat="47.27356" lon="-2.25934">
        <ele>68.400001525879</ele>
        <time>2021-05-30T08:17:01.000Z</time>
      </trkpt>
      <trkpt lat="47.2736" lon="-2.25928">
        <ele>68.400001525879</ele>
        <time>2021-05-30T08:17:02.000Z</time>
      </trkpt>
      <trkpt lat="47.27385" lon="-2.25899">
        <ele>68.400001525879</ele>
        <time>2021-05-30T08:17:07.000Z</time>
      </trkpt>
      <trkpt lat="47.27406" lon="-2.25862">
        <ele>68.400001525879</ele>
        <time>2021-05-30T08:17:12.000Z</time>
      </trkpt>
      <trkpt lat="47.27414" lon="-2.25847">
        <ele>68.400001525879</ele>
        <time>2021-05-30T08:17:14.000Z</time>
      </trkpt>
      <trkpt lat="47.27424" lon="-2.25832">
        <ele>68.400001525879</ele>
        <time>2021-05-30T08:17:16.000Z</time>
      </trkpt>
      <trkpt lat="47.2743" lon="-2.25824">
        <ele>68.400001525879</ele>
        <time>2021-05-30T08:17:17.000Z</time>
      </trkpt>
      <trkpt lat="47.2745" lon="-2.25799">
        <ele>68.400001525879</ele>
        <time>2021-05-30T08:17:21.000Z</time>
      </trkpt>
      <trkpt lat="47.27455" lon="-2.25797">
        <ele>68.400001525879</ele>
        <time>2021-05-30T08:17:22.000Z</time>
      </trkpt>
      <trkpt lat="47.27468" lon="-2.25787">
        <ele>68.400001525879</ele>
        <time>2021-05-30T08:17:25.000Z</time>
      </trkpt>
      <trkpt lat="47.27476" lon="-2.25779">
        <ele>68.400001525879</ele>
        <time>2021-05-30T08:17:27.000Z</time>
      </trkpt>
      <trkpt lat="47.2748" lon="-2.25774">
        <ele>68.400001525879</ele>
        <time>2021-05-30T08:17:28.000Z</time>
      </trkpt>
      <trkpt lat="47.27494" lon="-2.25755">
        <ele>68.400001525879</ele>
        <time>2021-05-30T08:17:32.000Z</time>
      </trkpt>
      <trkpt lat="47.2752" lon="-2.25722">
        <ele>68.400001525879</ele>
        <time>2021-05-30T08:17:38.000Z</time>
      </trkpt>
      <trkpt lat="47.27524" lon="-2.25715">
        <ele>68</ele>
        <time>2021-05-30T08:17:39.000Z</time>
      </trkpt>
      <trkpt lat="47.27528" lon="-2.25707">
        <ele>67.400001525879</ele>
        <time>2021-05-30T08:17:40.000Z</time>
      </trkpt>
      <trkpt lat="47.27532" lon="-2.257">
        <ele>67</ele>
        <time>2021-05-30T08:17:41.000Z</time>
      </trkpt>
      <trkpt lat="47.27536" lon="-2.25692">
        <ele>66.599998474121</ele>
        <time>2021-05-30T08:17:42.000Z</time>
      </trkpt>
      <trkpt lat="47.2754" lon="-2.25685">
        <ele>66.199996948242</ele>
        <time>2021-05-30T08:17:43.000Z</time>
      </trkpt>
      <trkpt lat="47.27548" lon="-2.25673">
        <ele>66.199996948242</ele>
        <time>2021-05-30T08:17:45.000Z</time>
      </trkpt>
      <trkpt lat="47.27559" lon="-2.2566">
        <ele>65.800003051758</ele>
        <time>2021-05-30T08:17:48.000Z</time>
      </trkpt>
      <trkpt lat="47.27562" lon="-2.25657">
        <ele>65.400001525879</ele>
        <time>2021-05-30T08:17:49.000Z</time>
      </trkpt>
      <trkpt lat="47.27564" lon="-2.25656">
        <ele>65</ele>
        <time>2021-05-30T08:17:50.000Z</time>
      </trkpt>
      <trkpt lat="47.27567" lon="-2.25656">
        <ele>64.400001525879</ele>
        <time>2021-05-30T08:17:51.000Z</time>
      </trkpt>
      <trkpt lat="47.2757" lon="-2.25657">
        <ele>64</ele>
        <time>2021-05-30T08:17:52.000Z</time>
      </trkpt>
      <trkpt lat="47.27577" lon="-2.25658">
        <ele>64</ele>
        <time>2021-05-30T08:17:54.000Z</time>
      </trkpt>
      <trkpt lat="47.27595" lon="-2.25657">
        <ele>64</ele>
        <time>2021-05-30T08:18:01.000Z</time>
      </trkpt>
      <trkpt lat="47.27596" lon="-2.25659">
        <ele>64</ele>
        <time>2021-05-30T08:18:02.000Z</time>
      </trkpt>
      <trkpt lat="47.27595" lon="-2.25664">
        <ele>64</ele>
        <time>2021-05-30T08:18:04.000Z</time>
      </trkpt>
      <trkpt lat="47.2759" lon="-2.2567">
        <ele>64</ele>
        <time>2021-05-30T08:18:07.000Z</time>
      </trkpt>
      <trkpt lat="47.27589" lon="-2.25672">
        <ele>64</ele>
        <time>2021-05-30T08:18:08.000Z</time>
      </trkpt>
      <trkpt lat="47.27589" lon="-2.25676">
        <ele>64</ele>
        <time>2021-05-30T08:18:09.000Z</time>
      </trkpt>
      <trkpt lat="47.27594" lon="-2.25686">
        <ele>64</ele>
        <time>2021-05-30T08:18:12.000Z</time>
      </trkpt>
      <trkpt lat="47.27598" lon="-2.2569">
        <ele>64</ele>
        <time>2021-05-30T08:18:14.000Z</time>
      </trkpt>
      <trkpt lat="47.276" lon="-2.25699">
        <ele>64</ele>
        <time>2021-05-30T08:18:17.000Z</time>
      </trkpt>
      <trkpt lat="47.27607" lon="-2.25718">
        <ele>64</ele>
        <time>2021-05-30T08:18:22.000Z</time>
      </trkpt>
      <trkpt lat="47.27611" lon="-2.2574">
        <ele>64</ele>
        <time>2021-05-30T08:18:27.000Z</time>
      </trkpt>
      <trkpt lat="47.27612" lon="-2.25763">
        <ele>64</ele>
        <time>2021-05-30T08:18:31.000Z</time>
      </trkpt>
      <trkpt lat="47.27609" lon="-2.25781">
        <ele>64</ele>
        <time>2021-05-30T08:18:35.000Z</time>
      </trkpt>
      <trkpt lat="47.27608" lon="-2.25806">
        <ele>64</ele>
        <time>2021-05-30T08:18:40.000Z</time>
      </trkpt>
      <trkpt lat="47.27617" lon="-2.25828">
        <ele>64</ele>
        <time>2021-05-30T08:18:44.000Z</time>
      </trkpt>
      <trkpt lat="47.2762" lon="-2.25833">
        <ele>64</ele>
        <time>2021-05-30T08:18:45.000Z</time>
      </trkpt>
      <trkpt lat="47.27632" lon="-2.25852">
        <ele>64</ele>
        <time>2021-05-30T08:18:49.000Z</time>
      </trkpt>
      <trkpt lat="47.27641" lon="-2.25871">
        <ele>64</ele>
        <time>2021-05-30T08:18:54.000Z</time>
      </trkpt>
      <trkpt lat="47.27641" lon="-2.25875">
        <ele>64</ele>
        <time>2021-05-30T08:18:55.000Z</time>
      </trkpt>
      <trkpt lat="47.27641" lon="-2.25882">
        <ele>64</ele>
        <time>2021-05-30T08:18:58.000Z</time>
      </trkpt>
      <trkpt lat="47.27642" lon="-2.25883">
        <ele>64</ele>
        <time>2021-05-30T08:18:59.000Z</time>
      </trkpt>
      <trkpt lat="47.27643" lon="-2.25885">
        <ele>64</ele>
        <time>2021-05-30T08:19:02.000Z</time>
      </trkpt>
      <trkpt lat="47.27643" lon="-2.25887">
        <ele>64</ele>
        <time>2021-05-30T08:19:03.000Z</time>
      </trkpt>
      <trkpt lat="47.2764" lon="-2.25896">
        <ele>64</ele>
        <time>2021-05-30T08:19:06.000Z</time>
      </trkpt>
      <trkpt lat="47.27641" lon="-2.25904">
        <ele>64</ele>
        <time>2021-05-30T08:19:09.000Z</time>
      </trkpt>
      <trkpt lat="47.27645" lon="-2.25912">
        <ele>64</ele>
        <time>2021-05-30T08:19:11.000Z</time>
      </trkpt>
      <trkpt lat="47.27657" lon="-2.25928">
        <ele>64</ele>
        <time>2021-05-30T08:19:15.000Z</time>
      </trkpt>
      <trkpt lat="47.27661" lon="-2.25932">
        <ele>64</ele>
        <time>2021-05-30T08:19:16.000Z</time>
      </trkpt>
      <trkpt lat="47.27673" lon="-2.25949">
        <ele>64</ele>
        <time>2021-05-30T08:19:19.000Z</time>
      </trkpt>
      <trkpt lat="47.27683" lon="-2.25976">
        <ele>64</ele>
        <time>2021-05-30T08:19:21.000Z</time>
      </trkpt>
      <trkpt lat="47.27695" lon="-2.26019">
        <ele>64</ele>
        <time>2021-05-30T08:19:25.000Z</time>
      </trkpt>
      <trkpt lat="47.27707" lon="-2.26065">
        <ele>64</ele>
        <time>2021-05-30T08:19:31.000Z</time>
      </trkpt>
      <trkpt lat="47.27712" lon="-2.26083">
        <ele>64</ele>
        <time>2021-05-30T08:19:35.000Z</time>
      </trkpt>
      <trkpt lat="47.27711" lon="-2.26092">
        <ele>64</ele>
        <time>2021-05-30T08:19:37.000Z</time>
      </trkpt>
      <trkpt lat="47.27706" lon="-2.26101">
        <ele>64</ele>
        <time>2021-05-30T08:19:39.000Z</time>
      </trkpt>
      <trkpt lat="47.27685" lon="-2.26127">
        <ele>64</ele>
        <time>2021-05-30T08:19:46.000Z</time>
      </trkpt>
      <trkpt lat="47.27681" lon="-2.26131">
        <ele>64</ele>
        <time>2021-05-30T08:19:47.000Z</time>
      </trkpt>
      <trkpt lat="47.27649" lon="-2.26162">
        <ele>64</ele>
        <time>2021-05-30T08:19:54.000Z</time>
      </trkpt>
      <trkpt lat="47.2763" lon="-2.26171">
        <ele>64</ele>
        <time>2021-05-30T08:19:58.000Z</time>
      </trkpt>
      <trkpt lat="47.27625" lon="-2.26178">
        <ele>64</ele>
        <time>2021-05-30T08:20:01.000Z</time>
      </trkpt>
      <trkpt lat="47.27627" lon="-2.26193">
        <ele>64</ele>
        <time>2021-05-30T08:20:04.000Z</time>
      </trkpt>
      <trkpt lat="47.27632" lon="-2.26213">
        <ele>64</ele>
        <time>2021-05-30T08:20:07.000Z</time>
      </trkpt>
      <trkpt lat="47.27634" lon="-2.26218">
        <ele>64</ele>
        <time>2021-05-30T08:20:08.000Z</time>
      </trkpt>
      <trkpt lat="47.27649" lon="-2.26248">
        <ele>64</ele>
        <time>2021-05-30T08:20:14.000Z</time>
      </trkpt>
      <trkpt lat="47.27658" lon="-2.26279">
        <ele>64</ele>
        <time>2021-05-30T08:20:19.000Z</time>
      </trkpt>
      <trkpt lat="47.2766" lon="-2.26283">
        <ele>64</ele>
        <time>2021-05-30T08:20:20.000Z</time>
      </trkpt>
      <trkpt lat="47.27667" lon="-2.26281">
        <ele>64</ele>
        <time>2021-05-30T08:20:23.000Z</time>
      </trkpt>
      <trkpt lat="47.27671" lon="-2.26264">
        <ele>64</ele>
        <time>2021-05-30T08:20:26.000Z</time>
      </trkpt>
      <trkpt lat="47.27672" lon="-2.26258">
        <ele>64</ele>
        <time>2021-05-30T08:20:27.000Z</time>
      </trkpt>
      <trkpt lat="47.27678" lon="-2.26218">
        <ele>64</ele>
        <time>2021-05-30T08:20:32.000Z</time>
      </trkpt>
      <trkpt lat="47.27688" lon="-2.26158">
        <ele>64</ele>
        <time>2021-05-30T08:20:39.000Z</time>
      </trkpt>
      <trkpt lat="47.27698" lon="-2.26099">
        <ele>64</ele>
        <time>2021-05-30T08:20:46.000Z</time>
      </trkpt>
      <trkpt lat="47.27706" lon="-2.26087">
        <ele>64</ele>
        <time>2021-05-30T08:20:49.000Z</time>
      </trkpt>
      <trkpt lat="47.27722" lon="-2.26079">
        <ele>64</ele>
        <time>2021-05-30T08:20:53.000Z</time>
      </trkpt>
      <trkpt lat="47.27728" lon="-2.26079">
        <ele>64</ele>
        <time>2021-05-30T08:20:54.000Z</time>
      </trkpt>
      <trkpt lat="47.2776" lon="-2.26081">
        <ele>64</ele>
        <time>2021-05-30T08:21:00.000Z</time>
      </trkpt>
      <trkpt lat="47.27775" lon="-2.26062">
        <ele>64</ele>
        <time>2021-05-30T08:21:03.000Z</time>
      </trkpt>
      <trkpt lat="47.27793" lon="-2.26004">
        <ele>64</ele>
        <time>2021-05-30T08:21:10.000Z</time>
      </trkpt>
      <trkpt lat="47.27794" lon="-2.25995">
        <ele>64</ele>
        <time>2021-05-30T08:21:11.000Z</time>
      </trkpt>
      <trkpt lat="47.27793" lon="-2.2597">
        <ele>64</ele>
        <time>2021-05-30T08:21:14.000Z</time>
      </trkpt>
      <trkpt lat="47.27792" lon="-2.25962">
        <ele>64</ele>
        <time>2021-05-30T08:21:15.000Z</time>
      </trkpt>
      <trkpt lat="47.27784" lon="-2.25926">
        <ele>64</ele>
        <time>2021-05-30T08:21:20.000Z</time>
      </trkpt>
      <trkpt lat="47.27782" lon="-2.25921">
        <ele>64</ele>
        <time>2021-05-30T08:21:21.000Z</time>
      </trkpt>
      <trkpt lat="47.27772" lon="-2.25911">
        <ele>64</ele>
        <time>2021-05-30T08:21:24.000Z</time>
      </trkpt>
      <trkpt lat="47.27769" lon="-2.25907">
        <ele>64</ele>
        <time>2021-05-30T08:21:25.000Z</time>
      </trkpt>
      <trkpt lat="47.27758" lon="-2.25883">
        <ele>64</ele>
        <time>2021-05-30T08:21:29.000Z</time>
      </trkpt>
      <trkpt lat="47.27746" lon="-2.25859">
        <ele>64</ele>
        <time>2021-05-30T08:21:33.000Z</time>
      </trkpt>
      <trkpt lat="47.27736" lon="-2.25855">
        <ele>64</ele>
        <time>2021-05-30T08:21:35.000Z</time>
      </trkpt>
      <trkpt lat="47.27715" lon="-2.25853">
        <ele>64</ele>
        <time>2021-05-30T08:21:39.000Z</time>
      </trkpt>
      <trkpt lat="47.27705" lon="-2.25849">
        <ele>64</ele>
        <time>2021-05-30T08:21:41.000Z</time>
      </trkpt>
      <trkpt lat="47.27701" lon="-2.25847">
        <ele>64</ele>
        <time>2021-05-30T08:21:42.000Z</time>
      </trkpt>
      <trkpt lat="47.27693" lon="-2.25843">
        <ele>64</ele>
        <time>2021-05-30T08:21:44.000Z</time>
      </trkpt>
      <trkpt lat="47.27678" lon="-2.25836">
        <ele>64</ele>
        <time>2021-05-30T08:21:49.000Z</time>
      </trkpt>
      <trkpt lat="47.27673" lon="-2.25823">
        <ele>64</ele>
        <time>2021-05-30T08:21:55.000Z</time>
      </trkpt>
      <trkpt lat="47.27669" lon="-2.25813">
        <ele>64</ele>
        <time>2021-05-30T08:22:00.000Z</time>
      </trkpt>
      <trkpt lat="47.27666" lon="-2.25799">
        <ele>64</ele>
        <time>2021-05-30T08:22:05.000Z</time>
      </trkpt>
      <trkpt lat="47.27666" lon="-2.25792">
        <ele>64</ele>
        <time>2021-05-30T08:22:08.000Z</time>
      </trkpt>
      <trkpt lat="47.27664" lon="-2.25785">
        <ele>64</ele>
        <time>2021-05-30T08:22:10.000Z</time>
      </trkpt>
      <trkpt lat="47.27659" lon="-2.2576">
        <ele>64</ele>
        <time>2021-05-30T08:22:16.000Z</time>
      </trkpt>
      <trkpt lat="47.27657" lon="-2.25757">
        <ele>64</ele>
        <time>2021-05-30T08:22:17.000Z</time>
      </trkpt>
      <trkpt lat="47.27652" lon="-2.25747">
        <ele>64</ele>
        <time>2021-05-30T08:22:20.000Z</time>
      </trkpt>
      <trkpt lat="47.27652" lon="-2.25743">
        <ele>64</ele>
        <time>2021-05-30T08:22:21.000Z</time>
      </trkpt>
      <trkpt lat="47.27649" lon="-2.25724">
        <ele>64</ele>
        <time>2021-05-30T08:22:25.000Z</time>
      </trkpt>
      <trkpt lat="47.27646" lon="-2.25699">
        <ele>64</ele>
        <time>2021-05-30T08:22:30.000Z</time>
      </trkpt>
      <trkpt lat="47.27644" lon="-2.25687">
        <ele>64</ele>
        <time>2021-05-30T08:22:34.000Z</time>
      </trkpt>
      <trkpt lat="47.27644" lon="-2.25685">
        <ele>64</ele>
        <time>2021-05-30T08:22:35.000Z</time>
      </trkpt>
      <trkpt lat="47.27642" lon="-2.25669">
        <ele>64</ele>
        <time>2021-05-30T08:22:39.000Z</time>
      </trkpt>
      <trkpt lat="47.27632" lon="-2.25657">
        <ele>64</ele>
        <time>2021-05-30T08:22:43.000Z</time>
      </trkpt>
      <trkpt lat="47.27628" lon="-2.25654">
        <ele>64</ele>
        <time>2021-05-30T08:22:44.000Z</time>
      </trkpt>
      <trkpt lat="47.27624" lon="-2.2565">
        <ele>64</ele>
        <time>2021-05-30T08:22:45.000Z</time>
      </trkpt>
      <trkpt lat="47.27614" lon="-2.25641">
        <ele>64</ele>
        <time>2021-05-30T08:22:47.000Z</time>
      </trkpt>
      <trkpt lat="47.27593" lon="-2.25623">
        <ele>64</ele>
        <time>2021-05-30T08:22:52.000Z</time>
      </trkpt>
      <trkpt lat="47.27589" lon="-2.25621">
        <ele>64</ele>
        <time>2021-05-30T08:22:53.000Z</time>
      </trkpt>
      <trkpt lat="47.27572" lon="-2.25617">
        <ele>64</ele>
        <time>2021-05-30T08:22:57.000Z</time>
      </trkpt>
      <trkpt lat="47.27564" lon="-2.256">
        <ele>64</ele>
        <time>2021-05-30T08:23:01.000Z</time>
      </trkpt>
      <trkpt lat="47.27562" lon="-2.25592">
        <ele>64</ele>
        <time>2021-05-30T08:23:02.000Z</time>
      </trkpt>
      <trkpt lat="47.27557" lon="-2.25566">
        <ele>64</ele>
        <time>2021-05-30T08:23:05.000Z</time>
      </trkpt>
      <trkpt lat="47.27541" lon="-2.25514">
        <ele>64</ele>
        <time>2021-05-30T08:23:11.000Z</time>
      </trkpt>
      <trkpt lat="47.27529" lon="-2.2549">
        <ele>64</ele>
        <time>2021-05-30T08:23:14.000Z</time>
      </trkpt>
      <trkpt lat="47.27518" lon="-2.25478">
        <ele>64</ele>
        <time>2021-05-30T08:23:16.000Z</time>
      </trkpt>
      <trkpt lat="47.27496" lon="-2.25458">
        <ele>64</ele>
        <time>2021-05-30T08:23:20.000Z</time>
      </trkpt>
      <trkpt lat="47.27484" lon="-2.25455">
        <ele>64</ele>
        <time>2021-05-30T08:23:22.000Z</time>
      </trkpt>
      <trkpt lat="47.27467" lon="-2.25459">
        <ele>64</ele>
        <time>2021-05-30T08:23:25.000Z</time>
      </trkpt>
      <trkpt lat="47.27461" lon="-2.2546">
        <ele>64</ele>
        <time>2021-05-30T08:23:26.000Z</time>
      </trkpt>
      <trkpt lat="47.27456" lon="-2.25459">
        <ele>64</ele>
        <time>2021-05-30T08:23:27.000Z</time>
      </trkpt>
      <trkpt lat="47.27446" lon="-2.25453">
        <ele>64</ele>
        <time>2021-05-30T08:23:29.000Z</time>
      </trkpt>
      <trkpt lat="47.27437" lon="-2.25445">
        <ele>64</ele>
        <time>2021-05-30T08:23:31.000Z</time>
      </trkpt>
      <trkpt lat="47.27425" lon="-2.25433">
        <ele>64</ele>
        <time>2021-05-30T08:23:34.000Z</time>
      </trkpt>
      <trkpt lat="47.27414" lon="-2.25414">
        <ele>64</ele>
        <time>2021-05-30T08:23:38.000Z</time>
      </trkpt>
      <trkpt lat="47.27402" lon="-2.25387">
        <ele>64.599998474121</ele>
        <time>2021-05-30T08:23:44.000Z</time>
      </trkpt>
      <trkpt lat="47.27401" lon="-2.25382">
        <ele>65</ele>
        <time>2021-05-30T08:23:45.000Z</time>
      </trkpt>
      <trkpt lat="47.274" lon="-2.25377">
        <ele>65.400001525879</ele>
        <time>2021-05-30T08:23:46.000Z</time>
      </trkpt>
      <trkpt lat="47.27399" lon="-2.25372">
        <ele>65.800003051758</ele>
        <time>2021-05-30T08:23:47.000Z</time>
      </trkpt>
      <trkpt lat="47.27398" lon="-2.25367">
        <ele>66.199996948242</ele>
        <time>2021-05-30T08:23:48.000Z</time>
      </trkpt>
      <trkpt lat="47.27394" lon="-2.25334">
        <ele>66.199996948242</ele>
        <time>2021-05-30T08:23:53.000Z</time>
      </trkpt>
      <trkpt lat="47.27391" lon="-2.25329">
        <ele>66.199996948242</ele>
        <time>2021-05-30T08:23:54.000Z</time>
      </trkpt>
      <trkpt lat="47.27388" lon="-2.25317">
        <ele>66.199996948242</ele>
        <time>2021-05-30T08:23:56.000Z</time>
      </trkpt>
      <trkpt lat="47.27386" lon="-2.25283">
        <ele>66.199996948242</ele>
        <time>2021-05-30T08:24:01.000Z</time>
      </trkpt>
      <trkpt lat="47.27384" lon="-2.25256">
        <ele>66.199996948242</ele>
        <time>2021-05-30T08:24:05.000Z</time>
      </trkpt>
      <trkpt lat="47.27384" lon="-2.25249">
        <ele>66.199996948242</ele>
        <time>2021-05-30T08:24:06.000Z</time>
      </trkpt>
      <trkpt lat="47.27383" lon="-2.2523">
        <ele>66.199996948242</ele>
        <time>2021-05-30T08:24:09.000Z</time>
      </trkpt>
      <trkpt lat="47.27383" lon="-2.25221">
        <ele>65.800003051758</ele>
        <time>2021-05-30T08:24:10.000Z</time>
      </trkpt>
      <trkpt lat="47.27384" lon="-2.25213">
        <ele>65.400001525879</ele>
        <time>2021-05-30T08:24:11.000Z</time>
      </trkpt>
      <trkpt lat="47.27384" lon="-2.25206">
        <ele>65</ele>
        <time>2021-05-30T08:24:12.000Z</time>
      </trkpt>
      <trkpt lat="47.27384" lon="-2.252">
        <ele>64.599998474121</ele>
        <time>2021-05-30T08:24:13.000Z</time>
      </trkpt>
      <trkpt lat="47.27384" lon="-2.25193">
        <ele>64.199996948242</ele>
        <time>2021-05-30T08:24:14.000Z</time>
      </trkpt>
      <trkpt lat="47.27383" lon="-2.25187">
        <ele>64.199996948242</ele>
        <time>2021-05-30T08:24:15.000Z</time>
      </trkpt>
      <trkpt lat="47.27369" lon="-2.25152">
        <ele>64.199996948242</ele>
        <time>2021-05-30T08:24:21.000Z</time>
      </trkpt>
      <trkpt lat="47.2736" lon="-2.2513">
        <ele>64.199996948242</ele>
        <time>2021-05-30T08:24:26.000Z</time>
      </trkpt>
      <trkpt lat="47.27351" lon="-2.25105">
        <ele>64.199996948242</ele>
        <time>2021-05-30T08:24:32.000Z</time>
      </trkpt>
      <trkpt lat="47.27339" lon="-2.2507">
        <ele>64.199996948242</ele>
        <time>2021-05-30T08:24:40.000Z</time>
      </trkpt>
      <trkpt lat="47.27335" lon="-2.25065">
        <ele>64.199996948242</ele>
        <time>2021-05-30T08:24:44.000Z</time>
      </trkpt>
      <trkpt lat="47.27334" lon="-2.25065">
        <ele>64.199996948242</ele>
        <time>2021-05-30T08:24:47.000Z</time>
      </trkpt>
      <trkpt lat="47.2734" lon="-2.25052">
        <ele>64.199996948242</ele>
        <time>2021-05-30T08:42:23.000Z</time>
      </trkpt>
      <trkpt lat="47.27347" lon="-2.25036">
        <ele>64.199996948242</ele>
        <time>2021-05-30T08:42:29.000Z</time>
      </trkpt>
      <trkpt lat="47.27356" lon="-2.25015">
        <ele>64.199996948242</ele>
        <time>2021-05-30T08:42:34.000Z</time>
      </trkpt>
      <trkpt lat="47.2737" lon="-2.24989">
        <ele>64.199996948242</ele>
        <time>2021-05-30T08:42:40.000Z</time>
      </trkpt>
      <trkpt lat="47.2739" lon="-2.24968">
        <ele>64.199996948242</ele>
        <time>2021-05-30T08:42:47.000Z</time>
      </trkpt>
      <trkpt lat="47.27401" lon="-2.24963">
        <ele>64.199996948242</ele>
        <time>2021-05-30T08:42:50.000Z</time>
      </trkpt>
      <trkpt lat="47.2741" lon="-2.2496">
        <ele>64.199996948242</ele>
        <time>2021-05-30T08:42:52.000Z</time>
      </trkpt>
      <trkpt lat="47.27428" lon="-2.24951">
        <ele>64.199996948242</ele>
        <time>2021-05-30T08:42:56.000Z</time>
      </trkpt>
      <trkpt lat="47.27438" lon="-2.2495">
        <ele>64.599998474121</ele>
        <time>2021-05-30T08:42:58.000Z</time>
      </trkpt>
      <trkpt lat="47.27443" lon="-2.24952">
        <ele>65</ele>
        <time>2021-05-30T08:42:59.000Z</time>
      </trkpt>
      <trkpt lat="47.27447" lon="-2.24954">
        <ele>65.400001525879</ele>
        <time>2021-05-30T08:43:00.000Z</time>
      </trkpt>
      <trkpt lat="47.27451" lon="-2.24956">
        <ele>65.800003051758</ele>
        <time>2021-05-30T08:43:01.000Z</time>
      </trkpt>
      <trkpt lat="47.27455" lon="-2.24959">
        <ele>66.199996948242</ele>
        <time>2021-05-30T08:43:02.000Z</time>
      </trkpt>
      <trkpt lat="47.27459" lon="-2.24962">
        <ele>66.199996948242</ele>
        <time>2021-05-30T08:43:03.000Z</time>
      </trkpt>
      <trkpt lat="47.27476" lon="-2.24976">
        <ele>66.199996948242</ele>
        <time>2021-05-30T08:43:07.000Z</time>
      </trkpt>
      <trkpt lat="47.27498" lon="-2.24993">
        <ele>66.199996948242</ele>
        <time>2021-05-30T08:43:12.000Z</time>
      </trkpt>
      <trkpt lat="47.27531" lon="-2.25026">
        <ele>66.199996948242</ele>
        <time>2021-05-30T08:43:20.000Z</time>
      </trkpt>
      <trkpt lat="47.27542" lon="-2.25041">
        <ele>66.199996948242</ele>
        <time>2021-05-30T08:43:23.000Z</time>
      </trkpt>
      <trkpt lat="47.27548" lon="-2.2505">
        <ele>66.199996948242</ele>
        <time>2021-05-30T08:43:25.000Z</time>
      </trkpt>
      <trkpt lat="47.27552" lon="-2.25054">
        <ele>66.199996948242</ele>
        <time>2021-05-30T08:43:26.000Z</time>
      </trkpt>
      <trkpt lat="47.27564" lon="-2.25063">
        <ele>66.199996948242</ele>
        <time>2021-05-30T08:43:29.000Z</time>
      </trkpt>
      <trkpt lat="47.27579" lon="-2.25071">
        <ele>66.199996948242</ele>
        <time>2021-05-30T08:43:32.000Z</time>
      </trkpt>
      <trkpt lat="47.27594" lon="-2.25078">
        <ele>66.199996948242</ele>
        <time>2021-05-30T08:43:35.000Z</time>
      </trkpt>
      <trkpt lat="47.27627" lon="-2.25093">
        <ele>66.199996948242</ele>
        <time>2021-05-30T08:43:42.000Z</time>
      </trkpt>
      <trkpt lat="47.27632" lon="-2.25094">
        <ele>66.199996948242</ele>
        <time>2021-05-30T08:43:43.000Z</time>
      </trkpt>
      <trkpt lat="47.27664" lon="-2.25091">
        <ele>66.199996948242</ele>
        <time>2021-05-30T08:43:49.000Z</time>
      </trkpt>
      <trkpt lat="47.27687" lon="-2.25083">
        <ele>66.199996948242</ele>
        <time>2021-05-30T08:43:53.000Z</time>
      </trkpt>
      <trkpt lat="47.27693" lon="-2.25082">
        <ele>66.199996948242</ele>
        <time>2021-05-30T08:43:54.000Z</time>
      </trkpt>
      <trkpt lat="47.2771" lon="-2.25069">
        <ele>66.199996948242</ele>
        <time>2021-05-30T08:43:58.000Z</time>
      </trkpt>
      <trkpt lat="47.27719" lon="-2.25062">
        <ele>66.199996948242</ele>
        <time>2021-05-30T08:44:00.000Z</time>
      </trkpt>
      <trkpt lat="47.27736" lon="-2.25049">
        <ele>66.199996948242</ele>
        <time>2021-05-30T08:44:04.000Z</time>
      </trkpt>
      <trkpt lat="47.27739" lon="-2.25045">
        <ele>66.199996948242</ele>
        <time>2021-05-30T08:44:05.000Z</time>
      </trkpt>
      <trkpt lat="47.27767" lon="-2.25026">
        <ele>66.199996948242</ele>
        <time>2021-05-30T08:44:11.000Z</time>
      </trkpt>
      <trkpt lat="47.27773" lon="-2.25023">
        <ele>66.199996948242</ele>
        <time>2021-05-30T08:44:12.000Z</time>
      </trkpt>
      <trkpt lat="47.27794" lon="-2.25021">
        <ele>66.199996948242</ele>
        <time>2021-05-30T08:44:16.000Z</time>
      </trkpt>
      <trkpt lat="47.27814" lon="-2.2503">
        <ele>66.199996948242</ele>
        <time>2021-05-30T08:44:20.000Z</time>
      </trkpt>
      <trkpt lat="47.27824" lon="-2.25036">
        <ele>66.199996948242</ele>
        <time>2021-05-30T08:44:22.000Z</time>
      </trkpt>
      <trkpt lat="47.27829" lon="-2.2504">
        <ele>66.199996948242</ele>
        <time>2021-05-30T08:44:23.000Z</time>
      </trkpt>
      <trkpt lat="47.27844" lon="-2.25049">
        <ele>66.199996948242</ele>
        <time>2021-05-30T08:44:26.000Z</time>
      </trkpt>
      <trkpt lat="47.2786" lon="-2.25056">
        <ele>66.199996948242</ele>
        <time>2021-05-30T08:44:29.000Z</time>
      </trkpt>
      <trkpt lat="47.27877" lon="-2.25063">
        <ele>66.199996948242</ele>
        <time>2021-05-30T08:44:32.000Z</time>
      </trkpt>
      <trkpt lat="47.27897" lon="-2.25078">
        <ele>66.199996948242</ele>
        <time>2021-05-30T08:44:36.000Z</time>
      </trkpt>
      <trkpt lat="47.27903" lon="-2.2508">
        <ele>66.199996948242</ele>
        <time>2021-05-30T08:44:37.000Z</time>
      </trkpt>
      <trkpt lat="47.2792" lon="-2.25076">
        <ele>66.199996948242</ele>
        <time>2021-05-30T08:44:40.000Z</time>
      </trkpt>
      <trkpt lat="47.27925" lon="-2.25075">
        <ele>66.199996948242</ele>
        <time>2021-05-30T08:44:41.000Z</time>
      </trkpt>
      <trkpt lat="47.27957" lon="-2.25071">
        <ele>66.199996948242</ele>
        <time>2021-05-30T08:44:47.000Z</time>
      </trkpt>
      <trkpt lat="47.27962" lon="-2.25072">
        <ele>66.199996948242</ele>
        <time>2021-05-30T08:44:48.000Z</time>
      </trkpt>
      <trkpt lat="47.27973" lon="-2.25073">
        <ele>66.199996948242</ele>
        <time>2021-05-30T08:44:50.000Z</time>
      </trkpt>
      <trkpt lat="47.27978" lon="-2.25072">
        <ele>66.199996948242</ele>
        <time>2021-05-30T08:44:51.000Z</time>
      </trkpt>
      <trkpt lat="47.27991" lon="-2.25075">
        <ele>66.199996948242</ele>
        <time>2021-05-30T08:44:54.000Z</time>
      </trkpt>
      <trkpt lat="47.27995" lon="-2.25078">
        <ele>66.199996948242</ele>
        <time>2021-05-30T08:44:55.000Z</time>
      </trkpt>
      <trkpt lat="47.28017" lon="-2.25096">
        <ele>66.199996948242</ele>
        <time>2021-05-30T08:45:00.000Z</time>
      </trkpt>
      <trkpt lat="47.28064" lon="-2.25132">
        <ele>66.199996948242</ele>
        <time>2021-05-30T08:45:10.000Z</time>
      </trkpt>
      <trkpt lat="47.28087" lon="-2.25153">
        <ele>66.199996948242</ele>
        <time>2021-05-30T08:45:15.000Z</time>
      </trkpt>
      <trkpt lat="47.28094" lon="-2.25164">
        <ele>66.199996948242</ele>
        <time>2021-05-30T08:45:17.000Z</time>
      </trkpt>
      <trkpt lat="47.28101" lon="-2.25183">
        <ele>66.199996948242</ele>
        <time>2021-05-30T08:45:20.000Z</time>
      </trkpt>
      <trkpt lat="47.28101" lon="-2.2519">
        <ele>66.199996948242</ele>
        <time>2021-05-30T08:45:21.000Z</time>
      </trkpt>
      <trkpt lat="47.28099" lon="-2.25224">
        <ele>66.199996948242</ele>
        <time>2021-05-30T08:45:26.000Z</time>
      </trkpt>
      <trkpt lat="47.28098" lon="-2.2523">
        <ele>66.199996948242</ele>
        <time>2021-05-30T08:45:27.000Z</time>
      </trkpt>
      <trkpt lat="47.28092" lon="-2.25246">
        <ele>66.199996948242</ele>
        <time>2021-05-30T08:45:30.000Z</time>
      </trkpt>
      <trkpt lat="47.28085" lon="-2.25275">
        <ele>66.199996948242</ele>
        <time>2021-05-30T08:45:34.000Z</time>
      </trkpt>
      <trkpt lat="47.28085" lon="-2.25284">
        <ele>66.199996948242</ele>
        <time>2021-05-30T08:45:35.000Z</time>
      </trkpt>
      <trkpt lat="47.28084" lon="-2.25316">
        <ele>66.199996948242</ele>
        <time>2021-05-30T08:45:39.000Z</time>
      </trkpt>
      <trkpt lat="47.28084" lon="-2.2538">
        <ele>66.199996948242</ele>
        <time>2021-05-30T08:45:47.000Z</time>
      </trkpt>
      <trkpt lat="47.28086" lon="-2.25416">
        <ele>66.199996948242</ele>
        <time>2021-05-30T08:45:52.000Z</time>
      </trkpt>
      <trkpt lat="47.28086" lon="-2.25422">
        <ele>66.199996948242</ele>
        <time>2021-05-30T08:45:53.000Z</time>
      </trkpt>
      <trkpt lat="47.28088" lon="-2.25451">
        <ele>66.199996948242</ele>
        <time>2021-05-30T08:45:58.000Z</time>
      </trkpt>
      <trkpt lat="47.28091" lon="-2.25463">
        <ele>66.199996948242</ele>
        <time>2021-05-30T08:46:00.000Z</time>
      </trkpt>
      <trkpt lat="47.28096" lon="-2.25471">
        <ele>66.199996948242</ele>
        <time>2021-05-30T08:46:02.000Z</time>
      </trkpt>
      <trkpt lat="47.28109" lon="-2.25473">
        <ele>66.199996948242</ele>
        <time>2021-05-30T08:46:06.000Z</time>
      </trkpt>
      <trkpt lat="47.28121" lon="-2.25462">
        <ele>66.199996948242</ele>
        <time>2021-05-30T08:46:10.000Z</time>
      </trkpt>
      <trkpt lat="47.28125" lon="-2.2546">
        <ele>66.199996948242</ele>
        <time>2021-05-30T08:46:11.000Z</time>
      </trkpt>
      <trkpt lat="47.28146" lon="-2.25448">
        <ele>66.599998474121</ele>
        <time>2021-05-30T08:46:16.000Z</time>
      </trkpt>
      <trkpt lat="47.2815" lon="-2.25444">
        <ele>67.199996948242</ele>
        <time>2021-05-30T08:46:17.000Z</time>
      </trkpt>
      <trkpt lat="47.28155" lon="-2.25442">
        <ele>67.599998474121</ele>
        <time>2021-05-30T08:46:18.000Z</time>
      </trkpt>
      <trkpt lat="47.28159" lon="-2.2544">
        <ele>68</ele>
        <time>2021-05-30T08:46:19.000Z</time>
      </trkpt>
      <trkpt lat="47.28164" lon="-2.25439">
        <ele>68.400001525879</ele>
        <time>2021-05-30T08:46:20.000Z</time>
      </trkpt>
      <trkpt lat="47.2818" lon="-2.25428">
        <ele>68.400001525879</ele>
        <time>2021-05-30T08:46:24.000Z</time>
      </trkpt>
      <trkpt lat="47.28185" lon="-2.25426">
        <ele>68.400001525879</ele>
        <time>2021-05-30T08:46:25.000Z</time>
      </trkpt>
      <trkpt lat="47.28189" lon="-2.25422">
        <ele>68.400001525879</ele>
        <time>2021-05-30T08:46:26.000Z</time>
      </trkpt>
      <trkpt lat="47.28196" lon="-2.25415">
        <ele>68.800003051758</ele>
        <time>2021-05-30T08:46:28.000Z</time>
      </trkpt>
      <trkpt lat="47.28201" lon="-2.25412">
        <ele>69.199996948242</ele>
        <time>2021-05-30T08:46:29.000Z</time>
      </trkpt>
      <trkpt lat="47.28205" lon="-2.25409">
        <ele>69.599998474121</ele>
        <time>2021-05-30T08:46:30.000Z</time>
      </trkpt>
      <trkpt lat="47.28209" lon="-2.25406">
        <ele>70</ele>
        <time>2021-05-30T08:46:31.000Z</time>
      </trkpt>
      <trkpt lat="47.28213" lon="-2.25404">
        <ele>70.400001525879</ele>
        <time>2021-05-30T08:46:32.000Z</time>
      </trkpt>
      <trkpt lat="47.2822" lon="-2.25397">
        <ele>70.400001525879</ele>
        <time>2021-05-30T08:46:34.000Z</time>
      </trkpt>
      <trkpt lat="47.28224" lon="-2.25394">
        <ele>70.800003051758</ele>
        <time>2021-05-30T08:46:35.000Z</time>
      </trkpt>
      <trkpt lat="47.28228" lon="-2.25392">
        <ele>71.199996948242</ele>
        <time>2021-05-30T08:46:36.000Z</time>
      </trkpt>
      <trkpt lat="47.28231" lon="-2.25389">
        <ele>71.599998474121</ele>
        <time>2021-05-30T08:46:37.000Z</time>
      </trkpt>
      <trkpt lat="47.28234" lon="-2.25386">
        <ele>72</ele>
        <time>2021-05-30T08:46:38.000Z</time>
      </trkpt>
      <trkpt lat="47.28237" lon="-2.25383">
        <ele>72.400001525879</ele>
        <time>2021-05-30T08:46:39.000Z</time>
      </trkpt>
      <trkpt lat="47.28247" lon="-2.25376">
        <ele>72.400001525879</ele>
        <time>2021-05-30T08:46:42.000Z</time>
      </trkpt>
      <trkpt lat="47.28253" lon="-2.25371">
        <ele>72.800003051758</ele>
        <time>2021-05-30T08:46:44.000Z</time>
      </trkpt>
      <trkpt lat="47.28257" lon="-2.25369">
        <ele>73.199996948242</ele>
        <time>2021-05-30T08:46:45.000Z</time>
      </trkpt>
      <trkpt lat="47.2826" lon="-2.25367">
        <ele>73.599998474121</ele>
        <time>2021-05-30T08:46:46.000Z</time>
      </trkpt>
      <trkpt lat="47.28264" lon="-2.25366">
        <ele>74</ele>
        <time>2021-05-30T08:46:47.000Z</time>
      </trkpt>
      <trkpt lat="47.28268" lon="-2.25365">
        <ele>74.400001525879</ele>
        <time>2021-05-30T08:46:48.000Z</time>
      </trkpt>
      <trkpt lat="47.28273" lon="-2.25365">
        <ele>74.400001525879</ele>
        <time>2021-05-30T08:46:49.000Z</time>
      </trkpt>
      <trkpt lat="47.2829" lon="-2.25364">
        <ele>74.400001525879</ele>
        <time>2021-05-30T08:46:53.000Z</time>
      </trkpt>
      <trkpt lat="47.28295" lon="-2.25362">
        <ele>74.800003051758</ele>
        <time>2021-05-30T08:46:54.000Z</time>
      </trkpt>
      <trkpt lat="47.283" lon="-2.2536">
        <ele>75.400001525879</ele>
        <time>2021-05-30T08:46:55.000Z</time>
      </trkpt>
      <trkpt lat="47.28305" lon="-2.25359">
        <ele>75.800003051758</ele>
        <time>2021-05-30T08:46:56.000Z</time>
      </trkpt>
      <trkpt lat="47.28309" lon="-2.25357">
        <ele>76.199996948242</ele>
        <time>2021-05-30T08:46:57.000Z</time>
      </trkpt>
      <trkpt lat="47.28313" lon="-2.25356">
        <ele>76.599998474121</ele>
        <time>2021-05-30T08:46:58.000Z</time>
      </trkpt>
      <trkpt lat="47.28326" lon="-2.25349">
        <ele>76.599998474121</ele>
        <time>2021-05-30T08:47:01.000Z</time>
      </trkpt>
      <trkpt lat="47.28337" lon="-2.25339">
        <ele>76.599998474121</ele>
        <time>2021-05-30T08:47:04.000Z</time>
      </trkpt>
      <trkpt lat="47.2834" lon="-2.25337">
        <ele>77</ele>
        <time>2021-05-30T08:47:05.000Z</time>
      </trkpt>
      <trkpt lat="47.28343" lon="-2.25334">
        <ele>77.400001525879</ele>
        <time>2021-05-30T08:47:06.000Z</time>
      </trkpt>
      <trkpt lat="47.28346" lon="-2.25331">
        <ele>77.800003051758</ele>
        <time>2021-05-30T08:47:07.000Z</time>
      </trkpt>
      <trkpt lat="47.28349" lon="-2.25327">
        <ele>78.199996948242</ele>
        <time>2021-05-30T08:47:08.000Z</time>
      </trkpt>
      <trkpt lat="47.28354" lon="-2.25324">
        <ele>78.599998474121</ele>
        <time>2021-05-30T08:47:09.000Z</time>
      </trkpt>
      <trkpt lat="47.28363" lon="-2.25319">
        <ele>78.599998474121</ele>
        <time>2021-05-30T08:47:11.000Z</time>
      </trkpt>
      <trkpt lat="47.28381" lon="-2.25321">
        <ele>78.599998474121</ele>
        <time>2021-05-30T08:47:15.000Z</time>
      </trkpt>
      <trkpt lat="47.28384" lon="-2.25334">
        <ele>78.599998474121</ele>
        <time>2021-05-30T08:47:18.000Z</time>
      </trkpt>
      <trkpt lat="47.28382" lon="-2.25342">
        <ele>78.599998474121</ele>
        <time>2021-05-30T08:47:20.000Z</time>
      </trkpt>
      <trkpt lat="47.28379" lon="-2.25357">
        <ele>78.599998474121</ele>
        <time>2021-05-30T08:47:23.000Z</time>
      </trkpt>
      <trkpt lat="47.28376" lon="-2.25387">
        <ele>78.599998474121</ele>
        <time>2021-05-30T08:47:29.000Z</time>
      </trkpt>
      <trkpt lat="47.28374" lon="-2.25418">
        <ele>78.599998474121</ele>
        <time>2021-05-30T08:47:35.000Z</time>
      </trkpt>
      <trkpt lat="47.28373" lon="-2.25468">
        <ele>78.599998474121</ele>
        <time>2021-05-30T08:47:43.000Z</time>
      </trkpt>
      <trkpt lat="47.28372" lon="-2.25508">
        <ele>78.599998474121</ele>
        <time>2021-05-30T08:47:49.000Z</time>
      </trkpt>
      <trkpt lat="47.28366" lon="-2.25545">
        <ele>78.599998474121</ele>
        <time>2021-05-30T08:47:55.000Z</time>
      </trkpt>
      <trkpt lat="47.28365" lon="-2.25558">
        <ele>78.599998474121</ele>
        <time>2021-05-30T08:47:57.000Z</time>
      </trkpt>
      <trkpt lat="47.28363" lon="-2.25584">
        <ele>78.599998474121</ele>
        <time>2021-05-30T08:48:01.000Z</time>
      </trkpt>
      <trkpt lat="47.28363" lon="-2.25638">
        <ele>78.599998474121</ele>
        <time>2021-05-30T08:48:09.000Z</time>
      </trkpt>
      <trkpt lat="47.28374" lon="-2.25667">
        <ele>78.599998474121</ele>
        <time>2021-05-30T08:48:15.000Z</time>
      </trkpt>
      <trkpt lat="47.28381" lon="-2.25698">
        <ele>78.599998474121</ele>
        <time>2021-05-30T08:48:20.000Z</time>
      </trkpt>
      <trkpt lat="47.28381" lon="-2.25718">
        <ele>78.599998474121</ele>
        <time>2021-05-30T08:48:24.000Z</time>
      </trkpt>
      <trkpt lat="47.2838" lon="-2.25732">
        <ele>78.599998474121</ele>
        <time>2021-05-30T08:48:29.000Z</time>
      </trkpt>
      <trkpt lat="47.28378" lon="-2.25753">
        <ele>78.599998474121</ele>
        <time>2021-05-30T08:48:34.000Z</time>
      </trkpt>
      <trkpt lat="47.28376" lon="-2.25797">
        <ele>78.599998474121</ele>
        <time>2021-05-30T08:48:42.000Z</time>
      </trkpt>
      <trkpt lat="47.28376" lon="-2.25804">
        <ele>78.599998474121</ele>
        <time>2021-05-30T08:48:44.000Z</time>
      </trkpt>
      <trkpt lat="47.28376" lon="-2.25809">
        <ele>78.599998474121</ele>
        <time>2021-05-30T08:48:46.000Z</time>
      </trkpt>
      <trkpt lat="47.28384" lon="-2.25814">
        <ele>78.599998474121</ele>
        <time>2021-05-30T08:48:49.000Z</time>
      </trkpt>
      <trkpt lat="47.28398" lon="-2.25814">
        <ele>78.599998474121</ele>
        <time>2021-05-30T08:48:52.000Z</time>
      </trkpt>
      <trkpt lat="47.28407" lon="-2.25814">
        <ele>78.599998474121</ele>
        <time>2021-05-30T08:48:54.000Z</time>
      </trkpt>
      <trkpt lat="47.28442" lon="-2.25819">
        <ele>78.599998474121</ele>
        <time>2021-05-30T08:49:00.000Z</time>
      </trkpt>
      <trkpt lat="47.28497" lon="-2.25828">
        <ele>78.599998474121</ele>
        <time>2021-05-30T08:49:09.000Z</time>
      </trkpt>
      <trkpt lat="47.28543" lon="-2.25837">
        <ele>78.599998474121</ele>
        <time>2021-05-30T08:49:16.000Z</time>
      </trkpt>
      <trkpt lat="47.28549" lon="-2.25838">
        <ele>78.599998474121</ele>
        <time>2021-05-30T08:49:17.000Z</time>
      </trkpt>
      <trkpt lat="47.28555" lon="-2.2584">
        <ele>78</ele>
        <time>2021-05-30T08:49:18.000Z</time>
      </trkpt>
      <trkpt lat="47.2856" lon="-2.25844">
        <ele>77.599998474121</ele>
        <time>2021-05-30T08:49:19.000Z</time>
      </trkpt>
      <trkpt lat="47.28564" lon="-2.25848">
        <ele>77.199996948242</ele>
        <time>2021-05-30T08:49:20.000Z</time>
      </trkpt>
      <trkpt lat="47.28569" lon="-2.25853">
        <ele>76.800003051758</ele>
        <time>2021-05-30T08:49:21.000Z</time>
      </trkpt>
      <trkpt lat="47.28571" lon="-2.25859">
        <ele>76.199996948242</ele>
        <time>2021-05-30T08:49:22.000Z</time>
      </trkpt>
      <trkpt lat="47.2857" lon="-2.25868">
        <ele>76.199996948242</ele>
        <time>2021-05-30T08:49:23.000Z</time>
      </trkpt>
      <trkpt lat="47.28568" lon="-2.2589">
        <ele>76.199996948242</ele>
        <time>2021-05-30T08:49:25.000Z</time>
      </trkpt>
      <trkpt lat="47.28565" lon="-2.25928">
        <ele>76.199996948242</ele>
        <time>2021-05-30T08:49:29.000Z</time>
      </trkpt>
      <trkpt lat="47.28567" lon="-2.25957">
        <ele>76.199996948242</ele>
        <time>2021-05-30T08:49:33.000Z</time>
      </trkpt>
      <trkpt lat="47.28569" lon="-2.25962">
        <ele>76.199996948242</ele>
        <time>2021-05-30T08:49:34.000Z</time>
      </trkpt>
      <trkpt lat="47.2858" lon="-2.25967">
        <ele>76.199996948242</ele>
        <time>2021-05-30T08:49:37.000Z</time>
      </trkpt>
      <trkpt lat="47.28585" lon="-2.25968">
        <ele>76.199996948242</ele>
        <time>2021-05-30T08:49:38.000Z</time>
      </trkpt>
      <trkpt lat="47.28598" lon="-2.25972">
        <ele>76.199996948242</ele>
        <time>2021-05-30T08:49:41.000Z</time>
      </trkpt>
      <trkpt lat="47.28603" lon="-2.25975">
        <ele>76.199996948242</ele>
        <time>2021-05-30T08:49:42.000Z</time>
      </trkpt>
      <trkpt lat="47.28609" lon="-2.25995">
        <ele>76.199996948242</ele>
        <time>2021-05-30T08:49:45.000Z</time>
      </trkpt>
      <trkpt lat="47.28609" lon="-2.26017">
        <ele>76.199996948242</ele>
        <time>2021-05-30T08:49:48.000Z</time>
      </trkpt>
      <trkpt lat="47.28608" lon="-2.26032">
        <ele>76.199996948242</ele>
        <time>2021-05-30T08:49:50.000Z</time>
      </trkpt>
      <trkpt lat="47.28606" lon="-2.26052">
        <ele>76.199996948242</ele>
        <time>2021-05-30T08:49:53.000Z</time>
      </trkpt>
      <trkpt lat="47.28605" lon="-2.26073">
        <ele>76.199996948242</ele>
        <time>2021-05-30T08:49:56.000Z</time>
      </trkpt>
      <trkpt lat="47.28604" lon="-2.26096">
        <ele>76.199996948242</ele>
        <time>2021-05-30T08:49:59.000Z</time>
      </trkpt>
      <trkpt lat="47.28603" lon="-2.26127">
        <ele>76.199996948242</ele>
        <time>2021-05-30T08:50:03.000Z</time>
      </trkpt>
      <trkpt lat="47.28602" lon="-2.26198">
        <ele>76.199996948242</ele>
        <time>2021-05-30T08:50:11.000Z</time>
      </trkpt>
      <trkpt lat="47.28604" lon="-2.26207">
        <ele>75.800003051758</ele>
        <time>2021-05-30T08:50:12.000Z</time>
      </trkpt>
      <trkpt lat="47.28606" lon="-2.26216">
        <ele>75.400001525879</ele>
        <time>2021-05-30T08:50:13.000Z</time>
      </trkpt>
      <trkpt lat="47.2861" lon="-2.26223">
        <ele>75</ele>
        <time>2021-05-30T08:50:14.000Z</time>
      </trkpt>
      <trkpt lat="47.28613" lon="-2.26229">
        <ele>74.599998474121</ele>
        <time>2021-05-30T08:50:15.000Z</time>
      </trkpt>
      <trkpt lat="47.28616" lon="-2.26235">
        <ele>74.199996948242</ele>
        <time>2021-05-30T08:50:16.000Z</time>
      </trkpt>
      <trkpt lat="47.2863" lon="-2.26265">
        <ele>74.199996948242</ele>
        <time>2021-05-30T08:50:20.000Z</time>
      </trkpt>
      <trkpt lat="47.28652" lon="-2.2632">
        <ele>74.199996948242</ele>
        <time>2021-05-30T08:50:27.000Z</time>
      </trkpt>
      <trkpt lat="47.28666" lon="-2.26357">
        <ele>74.199996948242</ele>
        <time>2021-05-30T08:50:32.000Z</time>
      </trkpt>
      <trkpt lat="47.2867" lon="-2.26363">
        <ele>74.199996948242</ele>
        <time>2021-05-30T08:50:33.000Z</time>
      </trkpt>
      <trkpt lat="47.28677" lon="-2.26374">
        <ele>74.199996948242</ele>
        <time>2021-05-30T08:50:35.000Z</time>
      </trkpt>
      <trkpt lat="47.28692" lon="-2.26386">
        <ele>74.199996948242</ele>
        <time>2021-05-30T08:50:38.000Z</time>
      </trkpt>
      <trkpt lat="47.28707" lon="-2.264">
        <ele>74.199996948242</ele>
        <time>2021-05-30T08:50:42.000Z</time>
      </trkpt>
      <trkpt lat="47.28712" lon="-2.26402">
        <ele>74.199996948242</ele>
        <time>2021-05-30T08:50:44.000Z</time>
      </trkpt>
      <trkpt lat="47.28715" lon="-2.264">
        <ele>74.199996948242</ele>
        <time>2021-05-30T08:50:45.000Z</time>
      </trkpt>
      <trkpt lat="47.28719" lon="-2.26384">
        <ele>74.199996948242</ele>
        <time>2021-05-30T08:50:48.000Z</time>
      </trkpt>
      <trkpt lat="47.28724" lon="-2.26366">
        <ele>74.199996948242</ele>
        <time>2021-05-30T08:50:51.000Z</time>
      </trkpt>
      <trkpt lat="47.28726" lon="-2.26361">
        <ele>74.199996948242</ele>
        <time>2021-05-30T08:50:52.000Z</time>
      </trkpt>
      <trkpt lat="47.28734" lon="-2.26356">
        <ele>74.199996948242</ele>
        <time>2021-05-30T08:50:56.000Z</time>
      </trkpt>
      <trkpt lat="47.2875" lon="-2.26357">
        <ele>74.199996948242</ele>
        <time>2021-05-30T08:51:00.000Z</time>
      </trkpt>
      <trkpt lat="47.28759" lon="-2.26359">
        <ele>74.599998474121</ele>
        <time>2021-05-30T08:51:02.000Z</time>
      </trkpt>
      <trkpt lat="47.28763" lon="-2.26359">
        <ele>75</ele>
        <time>2021-05-30T08:51:03.000Z</time>
      </trkpt>
      <trkpt lat="47.28767" lon="-2.2636">
        <ele>75.400001525879</ele>
        <time>2021-05-30T08:51:04.000Z</time>
      </trkpt>
      <trkpt lat="47.28772" lon="-2.2636">
        <ele>75.800003051758</ele>
        <time>2021-05-30T08:51:05.000Z</time>
      </trkpt>
      <trkpt lat="47.28776" lon="-2.26361">
        <ele>76.199996948242</ele>
        <time>2021-05-30T08:51:06.000Z</time>
      </trkpt>
      <trkpt lat="47.28786" lon="-2.26364">
        <ele>76.199996948242</ele>
        <time>2021-05-30T08:51:08.000Z</time>
      </trkpt>
      <trkpt lat="47.28802" lon="-2.26366">
        <ele>76.599998474121</ele>
        <time>2021-05-30T08:51:11.000Z</time>
      </trkpt>
      <trkpt lat="47.28807" lon="-2.26365">
        <ele>77</ele>
        <time>2021-05-30T08:51:12.000Z</time>
      </trkpt>
      <trkpt lat="47.28812" lon="-2.26365">
        <ele>77.400001525879</ele>
        <time>2021-05-30T08:51:13.000Z</time>
      </trkpt>
      <trkpt lat="47.28817" lon="-2.26365">
        <ele>77.800003051758</ele>
        <time>2021-05-30T08:51:14.000Z</time>
      </trkpt>
      <trkpt lat="47.28821" lon="-2.26365">
        <ele>78.199996948242</ele>
        <time>2021-05-30T08:51:15.000Z</time>
      </trkpt>
      <trkpt lat="47.28826" lon="-2.26366">
        <ele>78.199996948242</ele>
        <time>2021-05-30T08:51:16.000Z</time>
      </trkpt>
      <trkpt lat="47.28836" lon="-2.26371">
        <ele>78.199996948242</ele>
        <time>2021-05-30T08:51:18.000Z</time>
      </trkpt>
      <trkpt lat="47.28852" lon="-2.26367">
        <ele>78.199996948242</ele>
        <time>2021-05-30T08:51:21.000Z</time>
      </trkpt>
      <trkpt lat="47.28867" lon="-2.26362">
        <ele>78.800003051758</ele>
        <time>2021-05-30T08:51:24.000Z</time>
      </trkpt>
      <trkpt lat="47.28872" lon="-2.26361">
        <ele>79.199996948242</ele>
        <time>2021-05-30T08:51:25.000Z</time>
      </trkpt>
      <trkpt lat="47.28876" lon="-2.26361">
        <ele>79.599998474121</ele>
        <time>2021-05-30T08:51:26.000Z</time>
      </trkpt>
      <trkpt lat="47.28881" lon="-2.26361">
        <ele>80</ele>
        <time>2021-05-30T08:51:27.000Z</time>
      </trkpt>
      <trkpt lat="47.28885" lon="-2.26361">
        <ele>80.599998474121</ele>
        <time>2021-05-30T08:51:28.000Z</time>
      </trkpt>
      <trkpt lat="47.28918" lon="-2.26366">
        <ele>80.599998474121</ele>
        <time>2021-05-30T08:51:35.000Z</time>
      </trkpt>
      <trkpt lat="47.28927" lon="-2.26368">
        <ele>80.599998474121</ele>
        <time>2021-05-30T08:51:37.000Z</time>
      </trkpt>
      <trkpt lat="47.28942" lon="-2.2637">
        <ele>80.599998474121</ele>
        <time>2021-05-30T08:51:40.000Z</time>
      </trkpt>
      <trkpt lat="47.28947" lon="-2.2637">
        <ele>80.599998474121</ele>
        <time>2021-05-30T08:51:41.000Z</time>
      </trkpt>
      <trkpt lat="47.28974" lon="-2.26364">
        <ele>80.599998474121</ele>
        <time>2021-05-30T08:51:46.000Z</time>
      </trkpt>
      <trkpt lat="47.28983" lon="-2.26362">
        <ele>80.199996948242</ele>
        <time>2021-05-30T08:51:49.000Z</time>
      </trkpt>
      <trkpt lat="47.28986" lon="-2.26363">
        <ele>79.800003051758</ele>
        <time>2021-05-30T08:51:50.000Z</time>
      </trkpt>
      <trkpt lat="47.28989" lon="-2.26366">
        <ele>79.199996948242</ele>
        <time>2021-05-30T08:51:51.000Z</time>
      </trkpt>
      <trkpt lat="47.28992" lon="-2.26369">
        <ele>78.800003051758</ele>
        <time>2021-05-30T08:51:52.000Z</time>
      </trkpt>
      <trkpt lat="47.28994" lon="-2.26372">
        <ele>78.400001525879</ele>
        <time>2021-05-30T08:51:53.000Z</time>
      </trkpt>
      <trkpt lat="47.28997" lon="-2.26377">
        <ele>78.400001525879</ele>
        <time>2021-05-30T08:51:54.000Z</time>
      </trkpt>
      <trkpt lat="47.28999" lon="-2.26382">
        <ele>78.400001525879</ele>
        <time>2021-05-30T08:51:55.000Z</time>
      </trkpt>
      <trkpt lat="47.29012" lon="-2.26399">
        <ele>78.400001525879</ele>
        <time>2021-05-30T08:51:59.000Z</time>
      </trkpt>
      <trkpt lat="47.29016" lon="-2.26431">
        <ele>78.400001525879</ele>
        <time>2021-05-30T08:52:03.000Z</time>
      </trkpt>
      <trkpt lat="47.29021" lon="-2.26483">
        <ele>78</ele>
        <time>2021-05-30T08:52:08.000Z</time>
      </trkpt>
      <trkpt lat="47.29022" lon="-2.26495">
        <ele>77.599998474121</ele>
        <time>2021-05-30T08:52:09.000Z</time>
      </trkpt>
      <trkpt lat="47.29024" lon="-2.26506">
        <ele>77.199996948242</ele>
        <time>2021-05-30T08:52:10.000Z</time>
      </trkpt>
      <trkpt lat="47.29027" lon="-2.26518">
        <ele>76.199996948242</ele>
        <time>2021-05-30T08:52:11.000Z</time>
      </trkpt>
      <trkpt lat="47.29033" lon="-2.26538">
        <ele>76.199996948242</ele>
        <time>2021-05-30T08:52:13.000Z</time>
      </trkpt>
      <trkpt lat="47.29035" lon="-2.26547">
        <ele>75.800003051758</ele>
        <time>2021-05-30T08:52:14.000Z</time>
      </trkpt>
      <trkpt lat="47.29038" lon="-2.26556">
        <ele>75.199996948242</ele>
        <time>2021-05-30T08:52:15.000Z</time>
      </trkpt>
      <trkpt lat="47.29039" lon="-2.26565">
        <ele>74.800003051758</ele>
        <time>2021-05-30T08:52:16.000Z</time>
      </trkpt>
      <trkpt lat="47.29041" lon="-2.26573">
        <ele>74.199996948242</ele>
        <time>2021-05-30T08:52:17.000Z</time>
      </trkpt>
      <trkpt lat="47.29042" lon="-2.26579">
        <ele>73.800003051758</ele>
        <time>2021-05-30T08:52:18.000Z</time>
      </trkpt>
      <trkpt lat="47.29045" lon="-2.26591">
        <ele>73.800003051758</ele>
        <time>2021-05-30T08:52:20.000Z</time>
      </trkpt>
      <trkpt lat="47.29046" lon="-2.26606">
        <ele>73.800003051758</ele>
        <time>2021-05-30T08:52:22.000Z</time>
      </trkpt>
      <trkpt lat="47.29051" lon="-2.2666">
        <ele>73.800003051758</ele>
        <time>2021-05-30T08:52:28.000Z</time>
      </trkpt>
      <trkpt lat="47.29056" lon="-2.26719">
        <ele>73.400001525879</ele>
        <time>2021-05-30T08:52:33.000Z</time>
      </trkpt>
      <trkpt lat="47.29058" lon="-2.26731">
        <ele>73</ele>
        <time>2021-05-30T08:52:34.000Z</time>
      </trkpt>
      <trkpt lat="47.29059" lon="-2.26744">
        <ele>72.599998474121</ele>
        <time>2021-05-30T08:52:35.000Z</time>
      </trkpt>
      <trkpt lat="47.29061" lon="-2.26757">
        <ele>71.599998474121</ele>
        <time>2021-05-30T08:52:36.000Z</time>
      </trkpt>
      <trkpt lat="47.29062" lon="-2.2677">
        <ele>71</ele>
        <time>2021-05-30T08:52:37.000Z</time>
      </trkpt>
      <trkpt lat="47.29064" lon="-2.26782">
        <ele>70.599998474121</ele>
        <time>2021-05-30T08:52:38.000Z</time>
      </trkpt>
      <trkpt lat="47.29065" lon="-2.26795">
        <ele>70</ele>
        <time>2021-05-30T08:52:39.000Z</time>
      </trkpt>
      <trkpt lat="47.29066" lon="-2.2681">
        <ele>69.599998474121</ele>
        <time>2021-05-30T08:52:40.000Z</time>
      </trkpt>
      <trkpt lat="47.29066" lon="-2.26823">
        <ele>69.599998474121</ele>
        <time>2021-05-30T08:52:41.000Z</time>
      </trkpt>
      <trkpt lat="47.29065" lon="-2.26837">
        <ele>69</ele>
        <time>2021-05-30T08:52:42.000Z</time>
      </trkpt>
      <trkpt lat="47.29065" lon="-2.2685">
        <ele>68.599998474121</ele>
        <time>2021-05-30T08:52:43.000Z</time>
      </trkpt>
      <trkpt lat="47.29064" lon="-2.26863">
        <ele>68.199996948242</ele>
        <time>2021-05-30T08:52:44.000Z</time>
      </trkpt>
      <trkpt lat="47.29064" lon="-2.26876">
        <ele>67.599998474121</ele>
        <time>2021-05-30T08:52:45.000Z</time>
      </trkpt>
      <trkpt lat="47.29063" lon="-2.26888">
        <ele>67.199996948242</ele>
        <time>2021-05-30T08:52:46.000Z</time>
      </trkpt>
      <trkpt lat="47.29062" lon="-2.26901">
        <ele>67.199996948242</ele>
        <time>2021-05-30T08:52:47.000Z</time>
      </trkpt>
      <trkpt lat="47.29062" lon="-2.26955">
        <ele>67.199996948242</ele>
        <time>2021-05-30T08:52:52.000Z</time>
      </trkpt>
      <trkpt lat="47.2906" lon="-2.27011">
        <ele>67.199996948242</ele>
        <time>2021-05-30T08:52:58.000Z</time>
      </trkpt>
      <trkpt lat="47.29061" lon="-2.27026">
        <ele>67.199996948242</ele>
        <time>2021-05-30T08:53:00.000Z</time>
      </trkpt>
      <trkpt lat="47.29064" lon="-2.27039">
        <ele>67.199996948242</ele>
        <time>2021-05-30T08:53:02.000Z</time>
      </trkpt>
      <trkpt lat="47.29065" lon="-2.27062">
        <ele>67.199996948242</ele>
        <time>2021-05-30T08:53:06.000Z</time>
      </trkpt>
      <trkpt lat="47.29059" lon="-2.27083">
        <ele>67.199996948242</ele>
        <time>2021-05-30T08:53:10.000Z</time>
      </trkpt>
      <trkpt lat="47.29056" lon="-2.27089">
        <ele>67.199996948242</ele>
        <time>2021-05-30T08:53:11.000Z</time>
      </trkpt>
      <trkpt lat="47.29045" lon="-2.27111">
        <ele>67.199996948242</ele>
        <time>2021-05-30T08:53:16.000Z</time>
      </trkpt>
      <trkpt lat="47.2904" lon="-2.27127">
        <ele>67.199996948242</ele>
        <time>2021-05-30T08:53:20.000Z</time>
      </trkpt>
      <trkpt lat="47.29043" lon="-2.27137">
        <ele>67.199996948242</ele>
        <time>2021-05-30T08:53:23.000Z</time>
      </trkpt>
      <trkpt lat="47.29047" lon="-2.27142">
        <ele>67.199996948242</ele>
        <time>2021-05-30T08:53:24.000Z</time>
      </trkpt>
      <trkpt lat="47.2906" lon="-2.27158">
        <ele>67.599998474121</ele>
        <time>2021-05-30T08:53:27.000Z</time>
      </trkpt>
      <trkpt lat="47.29063" lon="-2.27163">
        <ele>68</ele>
        <time>2021-05-30T08:53:28.000Z</time>
      </trkpt>
      <trkpt lat="47.29066" lon="-2.27169">
        <ele>68.400001525879</ele>
        <time>2021-05-30T08:53:29.000Z</time>
      </trkpt>
      <trkpt lat="47.29069" lon="-2.27174">
        <ele>68.800003051758</ele>
        <time>2021-05-30T08:53:30.000Z</time>
      </trkpt>
      <trkpt lat="47.29072" lon="-2.2718">
        <ele>69.199996948242</ele>
        <time>2021-05-30T08:53:31.000Z</time>
      </trkpt>
      <trkpt lat="47.29074" lon="-2.27184">
        <ele>69.199996948242</ele>
        <time>2021-05-30T08:53:32.000Z</time>
      </trkpt>
      <trkpt lat="47.29079" lon="-2.27189">
        <ele>69.199996948242</ele>
        <time>2021-05-30T08:53:33.000Z</time>
      </trkpt>
      <trkpt lat="47.29088" lon="-2.27197">
        <ele>69.199996948242</ele>
        <time>2021-05-30T08:53:35.000Z</time>
      </trkpt>
      <trkpt lat="47.29093" lon="-2.27198">
        <ele>68.800003051758</ele>
        <time>2021-05-30T08:53:36.000Z</time>
      </trkpt>
      <trkpt lat="47.29098" lon="-2.27197">
        <ele>68.400001525879</ele>
        <time>2021-05-30T08:53:37.000Z</time>
      </trkpt>
      <trkpt lat="47.29103" lon="-2.27197">
        <ele>68</ele>
        <time>2021-05-30T08:53:38.000Z</time>
      </trkpt>
      <trkpt lat="47.29106" lon="-2.27197">
        <ele>67.599998474121</ele>
        <time>2021-05-30T08:53:39.000Z</time>
      </trkpt>
      <trkpt lat="47.29109" lon="-2.27197">
        <ele>67.199996948242</ele>
        <time>2021-05-30T08:53:40.000Z</time>
      </trkpt>
      <trkpt lat="47.29112" lon="-2.27197">
        <ele>67.199996948242</ele>
        <time>2021-05-30T08:53:41.000Z</time>
      </trkpt>
      <trkpt lat="47.29114" lon="-2.27201">
        <ele>67.199996948242</ele>
        <time>2021-05-30T08:53:46.000Z</time>
      </trkpt>
      <trkpt lat="47.29115" lon="-2.27204">
        <ele>67.199996948242</ele>
        <time>2021-05-30T08:53:49.000Z</time>
      </trkpt>
      <trkpt lat="47.29116" lon="-2.27212">
        <ele>67.199996948242</ele>
        <time>2021-05-30T08:53:57.000Z</time>
      </trkpt>
      <trkpt lat="47.29116" lon="-2.27214">
        <ele>67.199996948242</ele>
        <time>2021-05-30T08:53:58.000Z</time>
      </trkpt>
      <trkpt lat="47.29111" lon="-2.27227">
        <ele>67.199996948242</ele>
        <time>2021-05-30T08:54:01.000Z</time>
      </trkpt>
      <trkpt lat="47.29109" lon="-2.27239">
        <ele>67.199996948242</ele>
        <time>2021-05-30T08:54:03.000Z</time>
      </trkpt>
      <trkpt lat="47.29106" lon="-2.27251">
        <ele>67.199996948242</ele>
        <time>2021-05-30T08:54:05.000Z</time>
      </trkpt>
      <trkpt lat="47.29103" lon="-2.27263">
        <ele>67.199996948242</ele>
        <time>2021-05-30T08:54:07.000Z</time>
      </trkpt>
      <trkpt lat="47.29101" lon="-2.27276">
        <ele>67.199996948242</ele>
        <time>2021-05-30T08:54:09.000Z</time>
      </trkpt>
      <trkpt lat="47.29099" lon="-2.27289">
        <ele>67.199996948242</ele>
        <time>2021-05-30T08:54:11.000Z</time>
      </trkpt>
      <trkpt lat="47.29093" lon="-2.2732">
        <ele>67.199996948242</ele>
        <time>2021-05-30T08:54:16.000Z</time>
      </trkpt>
      <trkpt lat="47.29092" lon="-2.27336">
        <ele>67.199996948242</ele>
        <time>2021-05-30T08:54:19.000Z</time>
      </trkpt>
      <trkpt lat="47.29094" lon="-2.2734">
        <ele>67.199996948242</ele>
        <time>2021-05-30T08:54:20.000Z</time>
      </trkpt>
      <trkpt lat="47.29098" lon="-2.27353">
        <ele>67.199996948242</ele>
        <time>2021-05-30T08:54:23.000Z</time>
      </trkpt>
      <trkpt lat="47.29099" lon="-2.27359">
        <ele>67.199996948242</ele>
        <time>2021-05-30T08:54:24.000Z</time>
      </trkpt>
      <trkpt lat="47.29102" lon="-2.27384">
        <ele>67.199996948242</ele>
        <time>2021-05-30T08:54:27.000Z</time>
      </trkpt>
      <trkpt lat="47.29103" lon="-2.27404">
        <ele>67.199996948242</ele>
        <time>2021-05-30T08:54:29.000Z</time>
      </trkpt>
      <trkpt lat="47.29103" lon="-2.27423">
        <ele>67.199996948242</ele>
        <time>2021-05-30T08:54:31.000Z</time>
      </trkpt>
      <trkpt lat="47.29101" lon="-2.27453">
        <ele>67.199996948242</ele>
        <time>2021-05-30T08:54:34.000Z</time>
      </trkpt>
      <trkpt lat="47.291" lon="-2.27501">
        <ele>67.199996948242</ele>
        <time>2021-05-30T08:54:40.000Z</time>
      </trkpt>
      <trkpt lat="47.291" lon="-2.27513">
        <ele>67.199996948242</ele>
        <time>2021-05-30T08:54:44.000Z</time>
      </trkpt>
      <trkpt lat="47.29105" lon="-2.2752">
        <ele>67.199996948242</ele>
        <time>2021-05-30T08:55:17.000Z</time>
      </trkpt>
      <trkpt lat="47.29111" lon="-2.27522">
        <ele>67.199996948242</ele>
        <time>2021-05-30T08:55:20.000Z</time>
      </trkpt>
      <trkpt lat="47.29129" lon="-2.27523">
        <ele>67.199996948242</ele>
        <time>2021-05-30T08:55:24.000Z</time>
      </trkpt>
      <trkpt lat="47.29162" lon="-2.27528">
        <ele>67.199996948242</ele>
        <time>2021-05-30T08:55:30.000Z</time>
      </trkpt>
      <trkpt lat="47.29201" lon="-2.27529">
        <ele>67.199996948242</ele>
        <time>2021-05-30T08:55:37.000Z</time>
      </trkpt>
      <trkpt lat="47.29217" lon="-2.27529">
        <ele>67.599998474121</ele>
        <time>2021-05-30T08:55:40.000Z</time>
      </trkpt>
      <trkpt lat="47.29222" lon="-2.27529">
        <ele>68</ele>
        <time>2021-05-30T08:55:41.000Z</time>
      </trkpt>
      <trkpt lat="47.29227" lon="-2.27529">
        <ele>68.400001525879</ele>
        <time>2021-05-30T08:55:42.000Z</time>
      </trkpt>
      <trkpt lat="47.29232" lon="-2.27529">
        <ele>68.800003051758</ele>
        <time>2021-05-30T08:55:43.000Z</time>
      </trkpt>
      <trkpt lat="47.29238" lon="-2.27529">
        <ele>69.199996948242</ele>
        <time>2021-05-30T08:55:44.000Z</time>
      </trkpt>
      <trkpt lat="47.29243" lon="-2.27529">
        <ele>69.199996948242</ele>
        <time>2021-05-30T08:55:45.000Z</time>
      </trkpt>
      <trkpt lat="47.29253" lon="-2.27526">
        <ele>69.199996948242</ele>
        <time>2021-05-30T08:55:47.000Z</time>
      </trkpt>
      <trkpt lat="47.29258" lon="-2.27524">
        <ele>69.199996948242</ele>
        <time>2021-05-30T08:55:48.000Z</time>
      </trkpt>
      <trkpt lat="47.29273" lon="-2.27519">
        <ele>69.199996948242</ele>
        <time>2021-05-30T08:55:51.000Z</time>
      </trkpt>
      <trkpt lat="47.29281" lon="-2.27523">
        <ele>69.199996948242</ele>
        <time>2021-05-30T08:55:53.000Z</time>
      </trkpt>
      <trkpt lat="47.2931" lon="-2.27533">
        <ele>69.199996948242</ele>
        <time>2021-05-30T08:55:58.000Z</time>
      </trkpt>
      <trkpt lat="47.29349" lon="-2.2753">
        <ele>69.199996948242</ele>
        <time>2021-05-30T08:56:04.000Z</time>
      </trkpt>
      <trkpt lat="47.29386" lon="-2.27519">
        <ele>69.599998474121</ele>
        <time>2021-05-30T08:56:10.000Z</time>
      </trkpt>
      <trkpt lat="47.29393" lon="-2.27518">
        <ele>70</ele>
        <time>2021-05-30T08:56:11.000Z</time>
      </trkpt>
      <trkpt lat="47.29399" lon="-2.27516">
        <ele>70.400001525879</ele>
        <time>2021-05-30T08:56:12.000Z</time>
      </trkpt>
      <trkpt lat="47.29405" lon="-2.27515">
        <ele>71</ele>
        <time>2021-05-30T08:56:13.000Z</time>
      </trkpt>
      <trkpt lat="47.29411" lon="-2.27514">
        <ele>71.400001525879</ele>
        <time>2021-05-30T08:56:14.000Z</time>
      </trkpt>
      <trkpt lat="47.2943" lon="-2.27513">
        <ele>71.400001525879</ele>
        <time>2021-05-30T08:56:17.000Z</time>
      </trkpt>
      <trkpt lat="47.29474" lon="-2.2752">
        <ele>71.400001525879</ele>
        <time>2021-05-30T08:56:24.000Z</time>
      </trkpt>
      <trkpt lat="47.29517" lon="-2.27532">
        <ele>71</ele>
        <time>2021-05-30T08:56:31.000Z</time>
      </trkpt>
      <trkpt lat="47.29523" lon="-2.27534">
        <ele>70.599998474121</ele>
        <time>2021-05-30T08:56:32.000Z</time>
      </trkpt>
      <trkpt lat="47.29529" lon="-2.27536">
        <ele>70.199996948242</ele>
        <time>2021-05-30T08:56:33.000Z</time>
      </trkpt>
      <trkpt lat="47.29535" lon="-2.27538">
        <ele>69.800003051758</ele>
        <time>2021-05-30T08:56:34.000Z</time>
      </trkpt>
      <trkpt lat="47.29541" lon="-2.2754">
        <ele>69.400001525879</ele>
        <time>2021-05-30T08:56:35.000Z</time>
      </trkpt>
      <trkpt lat="47.29566" lon="-2.27549">
        <ele>69.400001525879</ele>
        <time>2021-05-30T08:56:39.000Z</time>
      </trkpt>
      <trkpt lat="47.29598" lon="-2.27566">
        <ele>69</ele>
        <time>2021-05-30T08:56:44.000Z</time>
      </trkpt>
      <trkpt lat="47.29604" lon="-2.27569">
        <ele>68.599998474121</ele>
        <time>2021-05-30T08:56:45.000Z</time>
      </trkpt>
      <trkpt lat="47.2961" lon="-2.27573">
        <ele>68</ele>
        <time>2021-05-30T08:56:46.000Z</time>
      </trkpt>
      <trkpt lat="47.29615" lon="-2.27577">
        <ele>67.599998474121</ele>
        <time>2021-05-30T08:56:47.000Z</time>
      </trkpt>
      <trkpt lat="47.29622" lon="-2.27581">
        <ele>67.199996948242</ele>
        <time>2021-05-30T08:56:48.000Z</time>
      </trkpt>
      <trkpt lat="47.29634" lon="-2.27591">
        <ele>67.199996948242</ele>
        <time>2021-05-30T08:56:50.000Z</time>
      </trkpt>
      <trkpt lat="47.29675" lon="-2.27614">
        <ele>66.800003051758</ele>
        <time>2021-05-30T08:56:56.000Z</time>
      </trkpt>
      <trkpt lat="47.29682" lon="-2.27615">
        <ele>66.400001525879</ele>
        <time>2021-05-30T08:56:57.000Z</time>
      </trkpt>
      <trkpt lat="47.2969" lon="-2.27617">
        <ele>66</ele>
        <time>2021-05-30T08:56:58.000Z</time>
      </trkpt>
      <trkpt lat="47.29697" lon="-2.27617">
        <ele>65.599998474121</ele>
        <time>2021-05-30T08:56:59.000Z</time>
      </trkpt>
      <trkpt lat="47.29704" lon="-2.27617">
        <ele>65.199996948242</ele>
        <time>2021-05-30T08:57:00.000Z</time>
      </trkpt>
      <trkpt lat="47.29711" lon="-2.27616">
        <ele>65.199996948242</ele>
        <time>2021-05-30T08:57:01.000Z</time>
      </trkpt>
      <trkpt lat="47.29732" lon="-2.2761">
        <ele>65.199996948242</ele>
        <time>2021-05-30T08:57:04.000Z</time>
      </trkpt>
      <trkpt lat="47.29745" lon="-2.27605">
        <ele>65.199996948242</ele>
        <time>2021-05-30T08:57:06.000Z</time>
      </trkpt>
      <trkpt lat="47.29783" lon="-2.27591">
        <ele>65.199996948242</ele>
        <time>2021-05-30T08:57:12.000Z</time>
      </trkpt>
      <trkpt lat="47.29797" lon="-2.27592">
        <ele>65.199996948242</ele>
        <time>2021-05-30T08:57:14.000Z</time>
      </trkpt>
      <trkpt lat="47.29817" lon="-2.27601">
        <ele>65.199996948242</ele>
        <time>2021-05-30T08:57:17.000Z</time>
      </trkpt>
      <trkpt lat="47.29823" lon="-2.27605">
        <ele>65.199996948242</ele>
        <time>2021-05-30T08:57:18.000Z</time>
      </trkpt>
      <trkpt lat="47.29845" lon="-2.27618">
        <ele>65.199996948242</ele>
        <time>2021-05-30T08:57:22.000Z</time>
      </trkpt>
      <trkpt lat="47.29857" lon="-2.27622">
        <ele>65.199996948242</ele>
        <time>2021-05-30T08:57:24.000Z</time>
      </trkpt>
      <trkpt lat="47.29883" lon="-2.27615">
        <ele>65.199996948242</ele>
        <time>2021-05-30T08:57:28.000Z</time>
      </trkpt>
      <trkpt lat="47.29889" lon="-2.27612">
        <ele>65.199996948242</ele>
        <time>2021-05-30T08:57:29.000Z</time>
      </trkpt>
      <trkpt lat="47.29919" lon="-2.27598">
        <ele>65.199996948242</ele>
        <time>2021-05-30T08:57:34.000Z</time>
      </trkpt>
      <trkpt lat="47.29931" lon="-2.27596">
        <ele>65.199996948242</ele>
        <time>2021-05-30T08:57:36.000Z</time>
      </trkpt>
      <trkpt lat="47.29942" lon="-2.27596">
        <ele>64.800003051758</ele>
        <time>2021-05-30T08:57:38.000Z</time>
      </trkpt>
      <trkpt lat="47.29947" lon="-2.27596">
        <ele>64.199996948242</ele>
        <time>2021-05-30T08:57:39.000Z</time>
      </trkpt>
      <trkpt lat="47.29953" lon="-2.27599">
        <ele>63.799999237061</ele>
        <time>2021-05-30T08:57:40.000Z</time>
      </trkpt>
      <trkpt lat="47.29956" lon="-2.27605">
        <ele>63.400001525879</ele>
        <time>2021-05-30T08:57:41.000Z</time>
      </trkpt>
      <trkpt lat="47.29959" lon="-2.27612">
        <ele>63</ele>
        <time>2021-05-30T08:57:42.000Z</time>
      </trkpt>
      <trkpt lat="47.29962" lon="-2.27647">
        <ele>63</ele>
        <time>2021-05-30T08:57:46.000Z</time>
      </trkpt>
      <trkpt lat="47.29961" lon="-2.27667">
        <ele>63</ele>
        <time>2021-05-30T08:57:48.000Z</time>
      </trkpt>
      <trkpt lat="47.29957" lon="-2.27697">
        <ele>63</ele>
        <time>2021-05-30T08:57:51.000Z</time>
      </trkpt>
      <trkpt lat="47.2995" lon="-2.27776">
        <ele>63</ele>
        <time>2021-05-30T08:57:59.000Z</time>
      </trkpt>
      <trkpt lat="47.29944" lon="-2.27841">
        <ele>63</ele>
        <time>2021-05-30T08:58:06.000Z</time>
      </trkpt>
      <trkpt lat="47.29939" lon="-2.27897">
        <ele>63.400001525879</ele>
        <time>2021-05-30T08:58:12.000Z</time>
      </trkpt>
      <trkpt lat="47.29938" lon="-2.27906">
        <ele>63.799999237061</ele>
        <time>2021-05-30T08:58:13.000Z</time>
      </trkpt>
      <trkpt lat="47.29937" lon="-2.27916">
        <ele>64.199996948242</ele>
        <time>2021-05-30T08:58:14.000Z</time>
      </trkpt>
      <trkpt lat="47.29936" lon="-2.27926">
        <ele>64.599998474121</ele>
        <time>2021-05-30T08:58:15.000Z</time>
      </trkpt>
      <trkpt lat="47.29935" lon="-2.27935">
        <ele>65</ele>
        <time>2021-05-30T08:58:16.000Z</time>
      </trkpt>
      <trkpt lat="47.29933" lon="-2.2799">
        <ele>65</ele>
        <time>2021-05-30T08:58:22.000Z</time>
      </trkpt>
      <trkpt lat="47.2994" lon="-2.28035">
        <ele>65</ele>
        <time>2021-05-30T08:58:27.000Z</time>
      </trkpt>
      <trkpt lat="47.29946" lon="-2.28048">
        <ele>65</ele>
        <time>2021-05-30T08:58:29.000Z</time>
      </trkpt>
      <trkpt lat="47.29952" lon="-2.28054">
        <ele>65</ele>
        <time>2021-05-30T08:58:31.000Z</time>
      </trkpt>
      <trkpt lat="47.29965" lon="-2.28049">
        <ele>65</ele>
        <time>2021-05-30T08:58:34.000Z</time>
      </trkpt>
      <trkpt lat="47.29987" lon="-2.28037">
        <ele>65</ele>
        <time>2021-05-30T08:58:39.000Z</time>
      </trkpt>
      <trkpt lat="47.29991" lon="-2.28047">
        <ele>65</ele>
        <time>2021-05-30T08:58:43.000Z</time>
      </trkpt>
      <trkpt lat="47.29989" lon="-2.28052">
        <ele>65</ele>
        <time>2021-05-30T08:58:44.000Z</time>
      </trkpt>
      <trkpt lat="47.29983" lon="-2.28072">
        <ele>65</ele>
        <time>2021-05-30T08:58:47.000Z</time>
      </trkpt>
      <trkpt lat="47.29971" lon="-2.28118">
        <ele>65</ele>
        <time>2021-05-30T08:58:53.000Z</time>
      </trkpt>
      <trkpt lat="47.29955" lon="-2.28178">
        <ele>65</ele>
        <time>2021-05-30T08:59:00.000Z</time>
      </trkpt>
      <trkpt lat="47.29947" lon="-2.28213">
        <ele>65</ele>
        <time>2021-05-30T08:59:04.000Z</time>
      </trkpt>
      <trkpt lat="47.29947" lon="-2.28221">
        <ele>65</ele>
        <time>2021-05-30T08:59:05.000Z</time>
      </trkpt>
      <trkpt lat="47.29949" lon="-2.28263">
        <ele>65</ele>
        <time>2021-05-30T08:59:10.000Z</time>
      </trkpt>
      <trkpt lat="47.29956" lon="-2.28309">
        <ele>65</ele>
        <time>2021-05-30T08:59:15.000Z</time>
      </trkpt>
      <trkpt lat="47.29956" lon="-2.28334">
        <ele>65</ele>
        <time>2021-05-30T08:59:18.000Z</time>
      </trkpt>
      <trkpt lat="47.29956" lon="-2.28341">
        <ele>65</ele>
        <time>2021-05-30T08:59:19.000Z</time>
      </trkpt>
      <trkpt lat="47.29952" lon="-2.28357">
        <ele>65</ele>
        <time>2021-05-30T08:59:21.000Z</time>
      </trkpt>
      <trkpt lat="47.29948" lon="-2.28387">
        <ele>65</ele>
        <time>2021-05-30T08:59:24.000Z</time>
      </trkpt>
      <trkpt lat="47.29945" lon="-2.28426">
        <ele>65</ele>
        <time>2021-05-30T08:59:29.000Z</time>
      </trkpt>
      <trkpt lat="47.29943" lon="-2.28433">
        <ele>65</ele>
        <time>2021-05-30T08:59:30.000Z</time>
      </trkpt>
      <trkpt lat="47.29941" lon="-2.28452">
        <ele>65</ele>
        <time>2021-05-30T08:59:32.000Z</time>
      </trkpt>
      <trkpt lat="47.29941" lon="-2.2847">
        <ele>65</ele>
        <time>2021-05-30T08:59:34.000Z</time>
      </trkpt>
      <trkpt lat="47.29941" lon="-2.28492">
        <ele>65</ele>
        <time>2021-05-30T08:59:37.000Z</time>
      </trkpt>
      <trkpt lat="47.29942" lon="-2.28499">
        <ele>65</ele>
        <time>2021-05-30T08:59:38.000Z</time>
      </trkpt>
      <trkpt lat="47.29942" lon="-2.28506">
        <ele>65</ele>
        <time>2021-05-30T08:59:39.000Z</time>
      </trkpt>
      <trkpt lat="47.29938" lon="-2.28522">
        <ele>65</ele>
        <time>2021-05-30T08:59:41.000Z</time>
      </trkpt>
      <trkpt lat="47.29933" lon="-2.28548">
        <ele>65</ele>
        <time>2021-05-30T08:59:44.000Z</time>
      </trkpt>
      <trkpt lat="47.2994" lon="-2.2856">
        <ele>65</ele>
        <time>2021-05-30T08:59:46.000Z</time>
      </trkpt>
      <trkpt lat="47.29944" lon="-2.28565">
        <ele>65</ele>
        <time>2021-05-30T08:59:47.000Z</time>
      </trkpt>
      <trkpt lat="47.29947" lon="-2.28571">
        <ele>65</ele>
        <time>2021-05-30T08:59:48.000Z</time>
      </trkpt>
      <trkpt lat="47.29954" lon="-2.28593">
        <ele>65</ele>
        <time>2021-05-30T08:59:51.000Z</time>
      </trkpt>
      <trkpt lat="47.29953" lon="-2.2861">
        <ele>65</ele>
        <time>2021-05-30T08:59:53.000Z</time>
      </trkpt>
      <trkpt lat="47.29954" lon="-2.28628">
        <ele>65</ele>
        <time>2021-05-30T08:59:55.000Z</time>
      </trkpt>
      <trkpt lat="47.29952" lon="-2.28637">
        <ele>64.599998474121</ele>
        <time>2021-05-30T08:59:56.000Z</time>
      </trkpt>
      <trkpt lat="47.29949" lon="-2.28647">
        <ele>64.199996948242</ele>
        <time>2021-05-30T08:59:57.000Z</time>
      </trkpt>
      <trkpt lat="47.29946" lon="-2.28657">
        <ele>63.799999237061</ele>
        <time>2021-05-30T08:59:58.000Z</time>
      </trkpt>
      <trkpt lat="47.29943" lon="-2.28666">
        <ele>63.400001525879</ele>
        <time>2021-05-30T08:59:59.000Z</time>
      </trkpt>
      <trkpt lat="47.29941" lon="-2.28674">
        <ele>63</ele>
        <time>2021-05-30T09:00:00.000Z</time>
      </trkpt>
      <trkpt lat="47.29929" lon="-2.2872">
        <ele>63</ele>
        <time>2021-05-30T09:00:05.000Z</time>
      </trkpt>
      <trkpt lat="47.29912" lon="-2.28796">
        <ele>63</ele>
        <time>2021-05-30T09:00:13.000Z</time>
      </trkpt>
      <trkpt lat="47.29895" lon="-2.28867">
        <ele>63</ele>
        <time>2021-05-30T09:00:20.000Z</time>
      </trkpt>
      <trkpt lat="47.29887" lon="-2.28892">
        <ele>63</ele>
        <time>2021-05-30T09:00:23.000Z</time>
      </trkpt>
      <trkpt lat="47.2988" lon="-2.28906">
        <ele>63</ele>
        <time>2021-05-30T09:00:25.000Z</time>
      </trkpt>
      <trkpt lat="47.29877" lon="-2.28932">
        <ele>63</ele>
        <time>2021-05-30T09:00:28.000Z</time>
      </trkpt>
      <trkpt lat="47.29878" lon="-2.28939">
        <ele>62.599998474121</ele>
        <time>2021-05-30T09:00:29.000Z</time>
      </trkpt>
      <trkpt lat="47.29879" lon="-2.28944">
        <ele>62.200000762939</ele>
        <time>2021-05-30T09:00:30.000Z</time>
      </trkpt>
      <trkpt lat="47.29882" lon="-2.28946">
        <ele>61.799999237061</ele>
        <time>2021-05-30T09:00:31.000Z</time>
      </trkpt>
      <trkpt lat="47.29887" lon="-2.28947">
        <ele>61.200000762939</ele>
        <time>2021-05-30T09:00:32.000Z</time>
      </trkpt>
      <trkpt lat="47.29893" lon="-2.28948">
        <ele>60.799999237061</ele>
        <time>2021-05-30T09:00:33.000Z</time>
      </trkpt>
      <trkpt lat="47.29898" lon="-2.28949">
        <ele>60.799999237061</ele>
        <time>2021-05-30T09:00:34.000Z</time>
      </trkpt>
      <trkpt lat="47.29921" lon="-2.28954">
        <ele>60.799999237061</ele>
        <time>2021-05-30T09:00:38.000Z</time>
      </trkpt>
      <trkpt lat="47.29927" lon="-2.28957">
        <ele>60.799999237061</ele>
        <time>2021-05-30T09:00:39.000Z</time>
      </trkpt>
      <trkpt lat="47.29939" lon="-2.28975">
        <ele>60.799999237061</ele>
        <time>2021-05-30T09:00:42.000Z</time>
      </trkpt>
      <trkpt lat="47.29957" lon="-2.29011">
        <ele>60.799999237061</ele>
        <time>2021-05-30T09:00:47.000Z</time>
      </trkpt>
      <trkpt lat="47.29983" lon="-2.29064">
        <ele>60.799999237061</ele>
        <time>2021-05-30T09:00:53.000Z</time>
      </trkpt>
      <trkpt lat="47.30005" lon="-2.29101">
        <ele>60.799999237061</ele>
        <time>2021-05-30T09:00:58.000Z</time>
      </trkpt>
      <trkpt lat="47.3001" lon="-2.29107">
        <ele>60.799999237061</ele>
        <time>2021-05-30T09:00:59.000Z</time>
      </trkpt>
      <trkpt lat="47.30047" lon="-2.29137">
        <ele>60.799999237061</ele>
        <time>2021-05-30T09:01:05.000Z</time>
      </trkpt>
      <trkpt lat="47.30067" lon="-2.29151">
        <ele>60.799999237061</ele>
        <time>2021-05-30T09:01:08.000Z</time>
      </trkpt>
      <trkpt lat="47.30079" lon="-2.29167">
        <ele>60.799999237061</ele>
        <time>2021-05-30T09:01:10.000Z</time>
      </trkpt>
      <trkpt lat="47.30116" lon="-2.29224">
        <ele>60.400001525879</ele>
        <time>2021-05-30T09:01:17.000Z</time>
      </trkpt>
      <trkpt lat="47.30121" lon="-2.29232">
        <ele>60</ele>
        <time>2021-05-30T09:01:18.000Z</time>
      </trkpt>
      <trkpt lat="47.30127" lon="-2.29241">
        <ele>59.599998474121</ele>
        <time>2021-05-30T09:01:19.000Z</time>
      </trkpt>
      <trkpt lat="47.30133" lon="-2.2925">
        <ele>59.200000762939</ele>
        <time>2021-05-30T09:01:20.000Z</time>
      </trkpt>
      <trkpt lat="47.30138" lon="-2.29258">
        <ele>58.799999237061</ele>
        <time>2021-05-30T09:01:21.000Z</time>
      </trkpt>
      <trkpt lat="47.30166" lon="-2.29302">
        <ele>58.799999237061</ele>
        <time>2021-05-30T09:01:26.000Z</time>
      </trkpt>
      <trkpt lat="47.30198" lon="-2.29353">
        <ele>58.799999237061</ele>
        <time>2021-05-30T09:01:32.000Z</time>
      </trkpt>
      <trkpt lat="47.30203" lon="-2.2936">
        <ele>58.799999237061</ele>
        <time>2021-05-30T09:01:33.000Z</time>
      </trkpt>
      <trkpt lat="47.30214" lon="-2.29385">
        <ele>58.799999237061</ele>
        <time>2021-05-30T09:01:36.000Z</time>
      </trkpt>
      <trkpt lat="47.30216" lon="-2.29394">
        <ele>58.400001525879</ele>
        <time>2021-05-30T09:01:37.000Z</time>
      </trkpt>
      <trkpt lat="47.30219" lon="-2.29403">
        <ele>58</ele>
        <time>2021-05-30T09:01:38.000Z</time>
      </trkpt>
      <trkpt lat="47.30221" lon="-2.29411">
        <ele>57</ele>
        <time>2021-05-30T09:01:39.000Z</time>
      </trkpt>
      <trkpt lat="47.30223" lon="-2.29419">
        <ele>56.599998474121</ele>
        <time>2021-05-30T09:01:40.000Z</time>
      </trkpt>
      <trkpt lat="47.30221" lon="-2.29434">
        <ele>56.599998474121</ele>
        <time>2021-05-30T09:01:42.000Z</time>
      </trkpt>
      <trkpt lat="47.30213" lon="-2.29452">
        <ele>56.599998474121</ele>
        <time>2021-05-30T09:01:45.000Z</time>
      </trkpt>
      <trkpt lat="47.30196" lon="-2.29487">
        <ele>56.599998474121</ele>
        <time>2021-05-30T09:01:50.000Z</time>
      </trkpt>
      <trkpt lat="47.30186" lon="-2.29508">
        <ele>56.599998474121</ele>
        <time>2021-05-30T09:01:53.000Z</time>
      </trkpt>
      <trkpt lat="47.30178" lon="-2.29528">
        <ele>56.599998474121</ele>
        <time>2021-05-30T09:01:56.000Z</time>
      </trkpt>
      <trkpt lat="47.30175" lon="-2.29534">
        <ele>56.599998474121</ele>
        <time>2021-05-30T09:01:57.000Z</time>
      </trkpt>
      <trkpt lat="47.30159" lon="-2.29564">
        <ele>56.599998474121</ele>
        <time>2021-05-30T09:02:01.000Z</time>
      </trkpt>
      <trkpt lat="47.30156" lon="-2.29573">
        <ele>56.599998474121</ele>
        <time>2021-05-30T09:02:02.000Z</time>
      </trkpt>
      <trkpt lat="47.30152" lon="-2.29592">
        <ele>56.599998474121</ele>
        <time>2021-05-30T09:02:04.000Z</time>
      </trkpt>
      <trkpt lat="47.30148" lon="-2.2961">
        <ele>56.599998474121</ele>
        <time>2021-05-30T09:02:06.000Z</time>
      </trkpt>
      <trkpt lat="47.30146" lon="-2.29631">
        <ele>56.599998474121</ele>
        <time>2021-05-30T09:02:09.000Z</time>
      </trkpt>
      <trkpt lat="47.30147" lon="-2.2965">
        <ele>56.599998474121</ele>
        <time>2021-05-30T09:02:13.000Z</time>
      </trkpt>
      <trkpt lat="47.30151" lon="-2.29663">
        <ele>56.599998474121</ele>
        <time>2021-05-30T09:02:17.000Z</time>
      </trkpt>
      <trkpt lat="47.30151" lon="-2.29665">
        <ele>56.599998474121</ele>
        <time>2021-05-30T09:02:21.000Z</time>
      </trkpt>
      <trkpt lat="47.30154" lon="-2.29666">
        <ele>56.599998474121</ele>
        <time>2021-05-30T09:02:37.000Z</time>
      </trkpt>
      <trkpt lat="47.3016" lon="-2.29668">
        <ele>56.599998474121</ele>
        <time>2021-05-30T09:02:39.000Z</time>
      </trkpt>
      <trkpt lat="47.30178" lon="-2.29676">
        <ele>56.599998474121</ele>
        <time>2021-05-30T09:02:43.000Z</time>
      </trkpt>
      <trkpt lat="47.30182" lon="-2.29679">
        <ele>56.599998474121</ele>
        <time>2021-05-30T09:02:44.000Z</time>
      </trkpt>
      <trkpt lat="47.3021" lon="-2.29694">
        <ele>56.599998474121</ele>
        <time>2021-05-30T09:02:49.000Z</time>
      </trkpt>
      <trkpt lat="47.30239" lon="-2.29707">
        <ele>56.599998474121</ele>
        <time>2021-05-30T09:02:54.000Z</time>
      </trkpt>
      <trkpt lat="47.30246" lon="-2.2971">
        <ele>56.599998474121</ele>
        <time>2021-05-30T09:02:57.000Z</time>
      </trkpt>
      <trkpt lat="47.30247" lon="-2.2972">
        <ele>56.599998474121</ele>
        <time>2021-05-30T09:03:01.000Z</time>
      </trkpt>
      <trkpt lat="47.30246" lon="-2.29723">
        <ele>56.599998474121</ele>
        <time>2021-05-30T09:03:03.000Z</time>
      </trkpt>
      <trkpt lat="47.30244" lon="-2.29729">
        <ele>56.599998474121</ele>
        <time>2021-05-30T09:03:06.000Z</time>
      </trkpt>
      <trkpt lat="47.30236" lon="-2.29745">
        <ele>56.599998474121</ele>
        <time>2021-05-30T09:03:12.000Z</time>
      </trkpt>
      <trkpt lat="47.30226" lon="-2.29775">
        <ele>56.599998474121</ele>
        <time>2021-05-30T09:03:19.000Z</time>
      </trkpt>
      <trkpt lat="47.30218" lon="-2.29796">
        <ele>56.599998474121</ele>
        <time>2021-05-30T09:03:24.000Z</time>
      </trkpt>
      <trkpt lat="47.30203" lon="-2.29816">
        <ele>56.599998474121</ele>
        <time>2021-05-30T09:03:30.000Z</time>
      </trkpt>
      <trkpt lat="47.30193" lon="-2.29834">
        <ele>56.599998474121</ele>
        <time>2021-05-30T09:03:35.000Z</time>
      </trkpt>
      <trkpt lat="47.30184" lon="-2.29851">
        <ele>56.599998474121</ele>
        <time>2021-05-30T09:03:39.000Z</time>
      </trkpt>
      <trkpt lat="47.30171" lon="-2.29863">
        <ele>56.599998474121</ele>
        <time>2021-05-30T09:03:43.000Z</time>
      </trkpt>
      <trkpt lat="47.3015" lon="-2.29883">
        <ele>56.599998474121</ele>
        <time>2021-05-30T09:03:48.000Z</time>
      </trkpt>
      <trkpt lat="47.30138" lon="-2.29895">
        <ele>56.599998474121</ele>
        <time>2021-05-30T09:03:51.000Z</time>
      </trkpt>
      <trkpt lat="47.30134" lon="-2.29896">
        <ele>56.599998474121</ele>
        <time>2021-05-30T09:03:52.000Z</time>
      </trkpt>
      <trkpt lat="47.30125" lon="-2.299">
        <ele>56.599998474121</ele>
        <time>2021-05-30T09:03:54.000Z</time>
      </trkpt>
      <trkpt lat="47.30122" lon="-2.29908">
        <ele>56.599998474121</ele>
        <time>2021-05-30T09:03:56.000Z</time>
      </trkpt>
      <trkpt lat="47.30124" lon="-2.29926">
        <ele>56.599998474121</ele>
        <time>2021-05-30T09:04:00.000Z</time>
      </trkpt>
      <trkpt lat="47.30123" lon="-2.29936">
        <ele>56.599998474121</ele>
        <time>2021-05-30T09:04:02.000Z</time>
      </trkpt>
      <trkpt lat="47.30121" lon="-2.29948">
        <ele>56.599998474121</ele>
        <time>2021-05-30T09:04:05.000Z</time>
      </trkpt>
      <trkpt lat="47.30117" lon="-2.29963">
        <ele>56.599998474121</ele>
        <time>2021-05-30T09:04:08.000Z</time>
      </trkpt>
      <trkpt lat="47.30117" lon="-2.29968">
        <ele>56.599998474121</ele>
        <time>2021-05-30T09:04:09.000Z</time>
      </trkpt>
      <trkpt lat="47.30124" lon="-2.29981">
        <ele>56.599998474121</ele>
        <time>2021-05-30T09:04:12.000Z</time>
      </trkpt>
      <trkpt lat="47.30127" lon="-2.29983">
        <ele>56.599998474121</ele>
        <time>2021-05-30T09:04:13.000Z</time>
      </trkpt>
      <trkpt lat="47.30139" lon="-2.29996">
        <ele>56.599998474121</ele>
        <time>2021-05-30T09:04:17.000Z</time>
      </trkpt>
      <trkpt lat="47.30153" lon="-2.30022">
        <ele>56.599998474121</ele>
        <time>2021-05-30T09:04:21.000Z</time>
      </trkpt>
      <trkpt lat="47.30154" lon="-2.3003">
        <ele>56.599998474121</ele>
        <time>2021-05-30T09:04:22.000Z</time>
      </trkpt>
      <trkpt lat="47.30161" lon="-2.30061">
        <ele>57</ele>
        <time>2021-05-30T09:04:26.000Z</time>
      </trkpt>
      <trkpt lat="47.30164" lon="-2.30068">
        <ele>57.400001525879</ele>
        <time>2021-05-30T09:04:27.000Z</time>
      </trkpt>
      <trkpt lat="47.30166" lon="-2.30075">
        <ele>57.799999237061</ele>
        <time>2021-05-30T09:04:28.000Z</time>
      </trkpt>
      <trkpt lat="47.30169" lon="-2.30082">
        <ele>58.200000762939</ele>
        <time>2021-05-30T09:04:29.000Z</time>
      </trkpt>
      <trkpt lat="47.30171" lon="-2.3009">
        <ele>58.799999237061</ele>
        <time>2021-05-30T09:04:30.000Z</time>
      </trkpt>
      <trkpt lat="47.30179" lon="-2.30119">
        <ele>58.799999237061</ele>
        <time>2021-05-30T09:04:34.000Z</time>
      </trkpt>
      <trkpt lat="47.30195" lon="-2.30171">
        <ele>58.799999237061</ele>
        <time>2021-05-30T09:04:41.000Z</time>
      </trkpt>
      <trkpt lat="47.30206" lon="-2.30207">
        <ele>58.799999237061</ele>
        <time>2021-05-30T09:04:47.000Z</time>
      </trkpt>
      <trkpt lat="47.30207" lon="-2.30218">
        <ele>58.799999237061</ele>
        <time>2021-05-30T09:04:49.000Z</time>
      </trkpt>
      <trkpt lat="47.30204" lon="-2.30225">
        <ele>58.799999237061</ele>
        <time>2021-05-30T09:04:51.000Z</time>
      </trkpt>
      <trkpt lat="47.30195" lon="-2.3023">
        <ele>58.799999237061</ele>
        <time>2021-05-30T09:04:55.000Z</time>
      </trkpt>
      <trkpt lat="47.30185" lon="-2.30239">
        <ele>58.799999237061</ele>
        <time>2021-05-30T09:05:00.000Z</time>
      </trkpt>
      <trkpt lat="47.30164" lon="-2.30249">
        <ele>58.799999237061</ele>
        <time>2021-05-30T09:05:06.000Z</time>
      </trkpt>
      <trkpt lat="47.30121" lon="-2.30262">
        <ele>58.799999237061</ele>
        <time>2021-05-30T09:05:15.000Z</time>
      </trkpt>
      <trkpt lat="47.30107" lon="-2.30281">
        <ele>58.799999237061</ele>
        <time>2021-05-30T09:05:20.000Z</time>
      </trkpt>
      <trkpt lat="47.30109" lon="-2.30303">
        <ele>58.799999237061</ele>
        <time>2021-05-30T09:05:24.000Z</time>
      </trkpt>
      <trkpt lat="47.30118" lon="-2.30344">
        <ele>58.799999237061</ele>
        <time>2021-05-30T09:05:31.000Z</time>
      </trkpt>
      <trkpt lat="47.30131" lon="-2.30393">
        <ele>58.799999237061</ele>
        <time>2021-05-30T09:05:39.000Z</time>
      </trkpt>
      <trkpt lat="47.30147" lon="-2.3044">
        <ele>58.799999237061</ele>
        <time>2021-05-30T09:05:46.000Z</time>
      </trkpt>
      <trkpt lat="47.30161" lon="-2.3047">
        <ele>58.799999237061</ele>
        <time>2021-05-30T09:05:51.000Z</time>
      </trkpt>
      <trkpt lat="47.30167" lon="-2.30481">
        <ele>58.799999237061</ele>
        <time>2021-05-30T09:05:53.000Z</time>
      </trkpt>
      <trkpt lat="47.30187" lon="-2.30504">
        <ele>58.799999237061</ele>
        <time>2021-05-30T09:05:59.000Z</time>
      </trkpt>
      <trkpt lat="47.30215" lon="-2.30531">
        <ele>58.799999237061</ele>
        <time>2021-05-30T09:06:07.000Z</time>
      </trkpt>
      <trkpt lat="47.30226" lon="-2.30545">
        <ele>58.799999237061</ele>
        <time>2021-05-30T09:06:10.000Z</time>
      </trkpt>
      <trkpt lat="47.3023" lon="-2.30556">
        <ele>58.799999237061</ele>
        <time>2021-05-30T09:06:12.000Z</time>
      </trkpt>
      <trkpt lat="47.30231" lon="-2.30575">
        <ele>58.799999237061</ele>
        <time>2021-05-30T09:06:16.000Z</time>
      </trkpt>
      <trkpt lat="47.30224" lon="-2.30589">
        <ele>58.799999237061</ele>
        <time>2021-05-30T09:06:19.000Z</time>
      </trkpt>
      <trkpt lat="47.30219" lon="-2.30592">
        <ele>58.799999237061</ele>
        <time>2021-05-30T09:06:20.000Z</time>
      </trkpt>
      <trkpt lat="47.30204" lon="-2.30604">
        <ele>58.799999237061</ele>
        <time>2021-05-30T09:06:24.000Z</time>
      </trkpt>
      <trkpt lat="47.302" lon="-2.30608">
        <ele>58.799999237061</ele>
        <time>2021-05-30T09:06:28.000Z</time>
      </trkpt>
      <trkpt lat="47.302" lon="-2.30608">
        <ele>58.799999237061</ele>
        <time>2021-05-30T09:06:30.000Z</time>
      </trkpt>
      <trkpt lat="47.302" lon="-2.30611">
        <ele>58.799999237061</ele>
        <time>2021-05-30T09:06:31.000Z</time>
      </trkpt>
      <trkpt lat="47.30199" lon="-2.30618">
        <ele>58.799999237061</ele>
        <time>2021-05-30T09:06:33.000Z</time>
      </trkpt>
      <trkpt lat="47.30188" lon="-2.30631">
        <ele>58.799999237061</ele>
        <time>2021-05-30T09:06:37.000Z</time>
      </trkpt>
      <trkpt lat="47.30172" lon="-2.3064">
        <ele>58.799999237061</ele>
        <time>2021-05-30T09:06:40.000Z</time>
      </trkpt>
      <trkpt lat="47.3017" lon="-2.30648">
        <ele>58.799999237061</ele>
        <time>2021-05-30T09:06:41.000Z</time>
      </trkpt>
      <trkpt lat="47.30169" lon="-2.30675">
        <ele>58.799999237061</ele>
        <time>2021-05-30T09:06:44.000Z</time>
      </trkpt>
      <trkpt lat="47.30169" lon="-2.30684">
        <ele>58.799999237061</ele>
        <time>2021-05-30T09:06:45.000Z</time>
      </trkpt>
      <trkpt lat="47.30173" lon="-2.30733">
        <ele>58.799999237061</ele>
        <time>2021-05-30T09:06:50.000Z</time>
      </trkpt>
      <trkpt lat="47.3017" lon="-2.3077">
        <ele>58.799999237061</ele>
        <time>2021-05-30T09:06:54.000Z</time>
      </trkpt>
      <trkpt lat="47.30168" lon="-2.30789">
        <ele>58.799999237061</ele>
        <time>2021-05-30T09:06:56.000Z</time>
      </trkpt>
      <trkpt lat="47.30168" lon="-2.30804">
        <ele>58.799999237061</ele>
        <time>2021-05-30T09:06:58.000Z</time>
      </trkpt>
      <trkpt lat="47.30173" lon="-2.30814">
        <ele>58.799999237061</ele>
        <time>2021-05-30T09:07:00.000Z</time>
      </trkpt>
      <trkpt lat="47.30179" lon="-2.30822">
        <ele>58.799999237061</ele>
        <time>2021-05-30T09:07:02.000Z</time>
      </trkpt>
      <trkpt lat="47.30195" lon="-2.30836">
        <ele>58.799999237061</ele>
        <time>2021-05-30T09:07:06.000Z</time>
      </trkpt>
      <trkpt lat="47.30224" lon="-2.30863">
        <ele>59.200000762939</ele>
        <time>2021-05-30T09:07:12.000Z</time>
      </trkpt>
      <trkpt lat="47.30229" lon="-2.30868">
        <ele>59.599998474121</ele>
        <time>2021-05-30T09:07:13.000Z</time>
      </trkpt>
      <trkpt lat="47.30233" lon="-2.30872">
        <ele>60</ele>
        <time>2021-05-30T09:07:14.000Z</time>
      </trkpt>
      <trkpt lat="47.30238" lon="-2.30877">
        <ele>60.400001525879</ele>
        <time>2021-05-30T09:07:15.000Z</time>
      </trkpt>
      <trkpt lat="47.30242" lon="-2.30882">
        <ele>61</ele>
        <time>2021-05-30T09:07:16.000Z</time>
      </trkpt>
      <trkpt lat="47.30255" lon="-2.30897">
        <ele>61</ele>
        <time>2021-05-30T09:07:19.000Z</time>
      </trkpt>
      <trkpt lat="47.30262" lon="-2.30908">
        <ele>61</ele>
        <time>2021-05-30T09:07:21.000Z</time>
      </trkpt>
      <trkpt lat="47.30275" lon="-2.30923">
        <ele>61</ele>
        <time>2021-05-30T09:07:24.000Z</time>
      </trkpt>
      <trkpt lat="47.30279" lon="-2.30928">
        <ele>61.400001525879</ele>
        <time>2021-05-30T09:07:25.000Z</time>
      </trkpt>
      <trkpt lat="47.30283" lon="-2.30933">
        <ele>61.799999237061</ele>
        <time>2021-05-30T09:07:26.000Z</time>
      </trkpt>
      <trkpt lat="47.30287" lon="-2.30937">
        <ele>62.200000762939</ele>
        <time>2021-05-30T09:07:27.000Z</time>
      </trkpt>
      <trkpt lat="47.3029" lon="-2.30943">
        <ele>62.599998474121</ele>
        <time>2021-05-30T09:07:28.000Z</time>
      </trkpt>
      <trkpt lat="47.30294" lon="-2.30949">
        <ele>63</ele>
        <time>2021-05-30T09:07:29.000Z</time>
      </trkpt>
      <trkpt lat="47.30297" lon="-2.30955">
        <ele>63</ele>
        <time>2021-05-30T09:07:30.000Z</time>
      </trkpt>
      <trkpt lat="47.30316" lon="-2.30983">
        <ele>63.400001525879</ele>
        <time>2021-05-30T09:07:35.000Z</time>
      </trkpt>
      <trkpt lat="47.3032" lon="-2.30988">
        <ele>63.799999237061</ele>
        <time>2021-05-30T09:07:36.000Z</time>
      </trkpt>
      <trkpt lat="47.30323" lon="-2.30993">
        <ele>64.199996948242</ele>
        <time>2021-05-30T09:07:37.000Z</time>
      </trkpt>
      <trkpt lat="47.30327" lon="-2.30997">
        <ele>64.599998474121</ele>
        <time>2021-05-30T09:07:38.000Z</time>
      </trkpt>
      <trkpt lat="47.3033" lon="-2.31002">
        <ele>65</ele>
        <time>2021-05-30T09:07:39.000Z</time>
      </trkpt>
      <trkpt lat="47.30339" lon="-2.31014">
        <ele>65.400001525879</ele>
        <time>2021-05-30T09:07:42.000Z</time>
      </trkpt>
      <trkpt lat="47.30342" lon="-2.31018">
        <ele>65.800003051758</ele>
        <time>2021-05-30T09:07:43.000Z</time>
      </trkpt>
      <trkpt lat="47.30345" lon="-2.31022">
        <ele>66.199996948242</ele>
        <time>2021-05-30T09:07:44.000Z</time>
      </trkpt>
      <trkpt lat="47.30348" lon="-2.31027">
        <ele>66.599998474121</ele>
        <time>2021-05-30T09:07:45.000Z</time>
      </trkpt>
      <trkpt lat="47.30352" lon="-2.31033">
        <ele>67</ele>
        <time>2021-05-30T09:07:46.000Z</time>
      </trkpt>
      <trkpt lat="47.30357" lon="-2.31039">
        <ele>67</ele>
        <time>2021-05-30T09:07:47.000Z</time>
      </trkpt>
      <trkpt lat="47.30381" lon="-2.31072">
        <ele>67</ele>
        <time>2021-05-30T09:07:53.000Z</time>
      </trkpt>
      <trkpt lat="47.30385" lon="-2.31078">
        <ele>67.599998474121</ele>
        <time>2021-05-30T09:07:54.000Z</time>
      </trkpt>
      <trkpt lat="47.30389" lon="-2.31083">
        <ele>68</ele>
        <time>2021-05-30T09:07:55.000Z</time>
      </trkpt>
      <trkpt lat="47.30393" lon="-2.31088">
        <ele>68.400001525879</ele>
        <time>2021-05-30T09:07:56.000Z</time>
      </trkpt>
      <trkpt lat="47.30397" lon="-2.31092">
        <ele>68.800003051758</ele>
        <time>2021-05-30T09:07:57.000Z</time>
      </trkpt>
      <trkpt lat="47.30401" lon="-2.31097">
        <ele>69.199996948242</ele>
        <time>2021-05-30T09:07:58.000Z</time>
      </trkpt>
      <trkpt lat="47.3041" lon="-2.31105">
        <ele>69.199996948242</ele>
        <time>2021-05-30T09:08:00.000Z</time>
      </trkpt>
      <trkpt lat="47.30419" lon="-2.31112">
        <ele>69.199996948242</ele>
        <time>2021-05-30T09:08:02.000Z</time>
      </trkpt>
      <trkpt lat="47.30434" lon="-2.31123">
        <ele>69.199996948242</ele>
        <time>2021-05-30T09:08:05.000Z</time>
      </trkpt>
      <trkpt lat="47.30439" lon="-2.31128">
        <ele>69.199996948242</ele>
        <time>2021-05-30T09:08:06.000Z</time>
      </trkpt>
      <trkpt lat="47.30449" lon="-2.31149">
        <ele>69.199996948242</ele>
        <time>2021-05-30T09:08:09.000Z</time>
      </trkpt>
      <trkpt lat="47.30455" lon="-2.31165">
        <ele>69.199996948242</ele>
        <time>2021-05-30T09:08:11.000Z</time>
      </trkpt>
      <trkpt lat="47.30472" lon="-2.3122">
        <ele>69.199996948242</ele>
        <time>2021-05-30T09:08:18.000Z</time>
      </trkpt>
      <trkpt lat="47.30494" lon="-2.31264">
        <ele>69.199996948242</ele>
        <time>2021-05-30T09:08:24.000Z</time>
      </trkpt>
      <trkpt lat="47.30524" lon="-2.31305">
        <ele>69.199996948242</ele>
        <time>2021-05-30T09:08:30.000Z</time>
      </trkpt>
      <trkpt lat="47.30555" lon="-2.31352">
        <ele>69.199996948242</ele>
        <time>2021-05-30T09:08:37.000Z</time>
      </trkpt>
      <trkpt lat="47.30583" lon="-2.31403">
        <ele>69.199996948242</ele>
        <time>2021-05-30T09:08:45.000Z</time>
      </trkpt>
      <trkpt lat="47.30607" lon="-2.31458">
        <ele>69.199996948242</ele>
        <time>2021-05-30T09:08:52.000Z</time>
      </trkpt>
      <trkpt lat="47.30629" lon="-2.31514">
        <ele>69.199996948242</ele>
        <time>2021-05-30T09:08:59.000Z</time>
      </trkpt>
      <trkpt lat="47.30653" lon="-2.31571">
        <ele>69.199996948242</ele>
        <time>2021-05-30T09:09:06.000Z</time>
      </trkpt>
      <trkpt lat="47.30676" lon="-2.31621">
        <ele>68.800003051758</ele>
        <time>2021-05-30T09:09:12.000Z</time>
      </trkpt>
      <trkpt lat="47.3068" lon="-2.3163">
        <ele>68.199996948242</ele>
        <time>2021-05-30T09:09:13.000Z</time>
      </trkpt>
      <trkpt lat="47.30683" lon="-2.31639">
        <ele>67.800003051758</ele>
        <time>2021-05-30T09:09:14.000Z</time>
      </trkpt>
      <trkpt lat="47.30686" lon="-2.31648">
        <ele>67</ele>
        <time>2021-05-30T09:09:15.000Z</time>
      </trkpt>
      <trkpt lat="47.30696" lon="-2.31675">
        <ele>67</ele>
        <time>2021-05-30T09:09:18.000Z</time>
      </trkpt>
      <trkpt lat="47.3071" lon="-2.31704">
        <ele>67</ele>
        <time>2021-05-30T09:09:22.000Z</time>
      </trkpt>
      <trkpt lat="47.3073" lon="-2.31756">
        <ele>67</ele>
        <time>2021-05-30T09:09:30.000Z</time>
      </trkpt>
      <trkpt lat="47.30734" lon="-2.3176">
        <ele>67</ele>
        <time>2021-05-30T09:09:32.000Z</time>
      </trkpt>
      <trkpt lat="47.30736" lon="-2.31761">
        <ele>67</ele>
        <time>2021-05-30T09:09:33.000Z</time>
      </trkpt>
      <trkpt lat="47.30748" lon="-2.31754">
        <ele>67</ele>
        <time>2021-05-30T09:09:37.000Z</time>
      </trkpt>
      <trkpt lat="47.30751" lon="-2.3175">
        <ele>67</ele>
        <time>2021-05-30T09:09:38.000Z</time>
      </trkpt>
      <trkpt lat="47.30766" lon="-2.31734">
        <ele>67</ele>
        <time>2021-05-30T09:09:42.000Z</time>
      </trkpt>
      <trkpt lat="47.30791" lon="-2.31705">
        <ele>67</ele>
        <time>2021-05-30T09:09:48.000Z</time>
      </trkpt>
      <trkpt lat="47.30799" lon="-2.31694">
        <ele>67.400001525879</ele>
        <time>2021-05-30T09:09:50.000Z</time>
      </trkpt>
      <trkpt lat="47.30803" lon="-2.31689">
        <ele>67.800003051758</ele>
        <time>2021-05-30T09:09:51.000Z</time>
      </trkpt>
      <trkpt lat="47.30807" lon="-2.31684">
        <ele>68.199996948242</ele>
        <time>2021-05-30T09:09:52.000Z</time>
      </trkpt>
      <trkpt lat="47.30811" lon="-2.31679">
        <ele>68.599998474121</ele>
        <time>2021-05-30T09:09:53.000Z</time>
      </trkpt>
      <trkpt lat="47.30815" lon="-2.31675">
        <ele>69</ele>
        <time>2021-05-30T09:09:54.000Z</time>
      </trkpt>
      <trkpt lat="47.30819" lon="-2.3167">
        <ele>69</ele>
        <time>2021-05-30T09:09:55.000Z</time>
      </trkpt>
      <trkpt lat="47.30844" lon="-2.31645">
        <ele>69</ele>
        <time>2021-05-30T09:10:01.000Z</time>
      </trkpt>
      <trkpt lat="47.30849" lon="-2.31646">
        <ele>69.400001525879</ele>
        <time>2021-05-30T09:10:02.000Z</time>
      </trkpt>
      <trkpt lat="47.30854" lon="-2.31649">
        <ele>69.800003051758</ele>
        <time>2021-05-30T09:10:03.000Z</time>
      </trkpt>
      <trkpt lat="47.30858" lon="-2.31654">
        <ele>70.199996948242</ele>
        <time>2021-05-30T09:10:04.000Z</time>
      </trkpt>
      <trkpt lat="47.30862" lon="-2.3166">
        <ele>71.199996948242</ele>
        <time>2021-05-30T09:10:05.000Z</time>
      </trkpt>
      <trkpt lat="47.30867" lon="-2.31666">
        <ele>71.199996948242</ele>
        <time>2021-05-30T09:10:06.000Z</time>
      </trkpt>
      <trkpt lat="47.30884" lon="-2.31688">
        <ele>71.199996948242</ele>
        <time>2021-05-30T09:10:10.000Z</time>
      </trkpt>
      <trkpt lat="47.30921" lon="-2.31734">
        <ele>71.199996948242</ele>
        <time>2021-05-30T09:10:18.000Z</time>
      </trkpt>
      <trkpt lat="47.30956" lon="-2.31774">
        <ele>71.199996948242</ele>
        <time>2021-05-30T09:10:25.000Z</time>
      </trkpt>
      <trkpt lat="47.30998" lon="-2.31816">
        <ele>71.199996948242</ele>
        <time>2021-05-30T09:10:33.000Z</time>
      </trkpt>
      <trkpt lat="47.31005" lon="-2.31828">
        <ele>71.199996948242</ele>
        <time>2021-05-30T09:10:35.000Z</time>
      </trkpt>
      <trkpt lat="47.31009" lon="-2.31839">
        <ele>71.199996948242</ele>
        <time>2021-05-30T09:10:37.000Z</time>
      </trkpt>
      <trkpt lat="47.31013" lon="-2.31859">
        <ele>71.199996948242</ele>
        <time>2021-05-30T09:10:41.000Z</time>
      </trkpt>
      <trkpt lat="47.31007" lon="-2.31881">
        <ele>71.199996948242</ele>
        <time>2021-05-30T09:10:44.000Z</time>
      </trkpt>
      <trkpt lat="47.31006" lon="-2.3189">
        <ele>71.199996948242</ele>
        <time>2021-05-30T09:10:45.000Z</time>
      </trkpt>
      <trkpt lat="47.31" lon="-2.31913">
        <ele>71.199996948242</ele>
        <time>2021-05-30T09:10:48.000Z</time>
      </trkpt>
      <trkpt lat="47.30998" lon="-2.31921">
        <ele>71.199996948242</ele>
        <time>2021-05-30T09:10:49.000Z</time>
      </trkpt>
      <trkpt lat="47.30994" lon="-2.31928">
        <ele>71.199996948242</ele>
        <time>2021-05-30T09:10:50.000Z</time>
      </trkpt>
      <trkpt lat="47.30985" lon="-2.31945">
        <ele>71.199996948242</ele>
        <time>2021-05-30T09:10:52.000Z</time>
      </trkpt>
      <trkpt lat="47.30981" lon="-2.3196">
        <ele>71.199996948242</ele>
        <time>2021-05-30T09:10:54.000Z</time>
      </trkpt>
      <trkpt lat="47.3098" lon="-2.31975">
        <ele>71.199996948242</ele>
        <time>2021-05-30T09:10:56.000Z</time>
      </trkpt>
      <trkpt lat="47.30982" lon="-2.31991">
        <ele>71.199996948242</ele>
        <time>2021-05-30T09:10:58.000Z</time>
      </trkpt>
      <trkpt lat="47.30982" lon="-2.31999">
        <ele>71.199996948242</ele>
        <time>2021-05-30T09:10:59.000Z</time>
      </trkpt>
      <trkpt lat="47.30985" lon="-2.32013">
        <ele>71.199996948242</ele>
        <time>2021-05-30T09:11:01.000Z</time>
      </trkpt>
      <trkpt lat="47.30999" lon="-2.32046">
        <ele>71.199996948242</ele>
        <time>2021-05-30T09:11:06.000Z</time>
      </trkpt>
      <trkpt lat="47.31002" lon="-2.32052">
        <ele>71.199996948242</ele>
        <time>2021-05-30T09:11:07.000Z</time>
      </trkpt>
      <trkpt lat="47.31023" lon="-2.32087">
        <ele>71.199996948242</ele>
        <time>2021-05-30T09:11:13.000Z</time>
      </trkpt>
      <trkpt lat="47.31048" lon="-2.32125">
        <ele>71.199996948242</ele>
        <time>2021-05-30T09:11:20.000Z</time>
      </trkpt>
      <trkpt lat="47.31056" lon="-2.32135">
        <ele>71.199996948242</ele>
        <time>2021-05-30T09:11:22.000Z</time>
      </trkpt>
      <trkpt lat="47.31059" lon="-2.32139">
        <ele>71.599998474121</ele>
        <time>2021-05-30T09:11:23.000Z</time>
      </trkpt>
      <trkpt lat="47.31063" lon="-2.32145">
        <ele>72</ele>
        <time>2021-05-30T09:11:24.000Z</time>
      </trkpt>
      <trkpt lat="47.31065" lon="-2.32151">
        <ele>72.400001525879</ele>
        <time>2021-05-30T09:11:25.000Z</time>
      </trkpt>
      <trkpt lat="47.31068" lon="-2.32156">
        <ele>72.800003051758</ele>
        <time>2021-05-30T09:11:26.000Z</time>
      </trkpt>
      <trkpt lat="47.31071" lon="-2.32161">
        <ele>73.400001525879</ele>
        <time>2021-05-30T09:11:27.000Z</time>
      </trkpt>
      <trkpt lat="47.31085" lon="-2.32187">
        <ele>73.400001525879</ele>
        <time>2021-05-30T09:11:32.000Z</time>
      </trkpt>
      <trkpt lat="47.31102" lon="-2.3223">
        <ele>73.800003051758</ele>
        <time>2021-05-30T09:11:40.000Z</time>
      </trkpt>
      <trkpt lat="47.31103" lon="-2.32235">
        <ele>74.199996948242</ele>
        <time>2021-05-30T09:11:41.000Z</time>
      </trkpt>
      <trkpt lat="47.31105" lon="-2.3224">
        <ele>74.599998474121</ele>
        <time>2021-05-30T09:11:42.000Z</time>
      </trkpt>
      <trkpt lat="47.31107" lon="-2.32246">
        <ele>75</ele>
        <time>2021-05-30T09:11:43.000Z</time>
      </trkpt>
      <trkpt lat="47.31109" lon="-2.32251">
        <ele>75.400001525879</ele>
        <time>2021-05-30T09:11:44.000Z</time>
      </trkpt>
      <trkpt lat="47.31116" lon="-2.32265">
        <ele>75.400001525879</ele>
        <time>2021-05-30T09:11:47.000Z</time>
      </trkpt>
      <trkpt lat="47.31123" lon="-2.3228">
        <ele>75.800003051758</ele>
        <time>2021-05-30T09:11:50.000Z</time>
      </trkpt>
      <trkpt lat="47.31126" lon="-2.32285">
        <ele>76.199996948242</ele>
        <time>2021-05-30T09:11:51.000Z</time>
      </trkpt>
      <trkpt lat="47.31129" lon="-2.3229">
        <ele>76.599998474121</ele>
        <time>2021-05-30T09:11:52.000Z</time>
      </trkpt>
      <trkpt lat="47.31131" lon="-2.32295">
        <ele>77</ele>
        <time>2021-05-30T09:11:53.000Z</time>
      </trkpt>
      <trkpt lat="47.31133" lon="-2.32301">
        <ele>77.400001525879</ele>
        <time>2021-05-30T09:11:54.000Z</time>
      </trkpt>
      <trkpt lat="47.31142" lon="-2.32334">
        <ele>77.400001525879</ele>
        <time>2021-05-30T09:11:59.000Z</time>
      </trkpt>
      <trkpt lat="47.31144" lon="-2.32347">
        <ele>77.400001525879</ele>
        <time>2021-05-30T09:12:01.000Z</time>
      </trkpt>
      <trkpt lat="47.31146" lon="-2.32365">
        <ele>77.800003051758</ele>
        <time>2021-05-30T09:12:04.000Z</time>
      </trkpt>
      <trkpt lat="47.31146" lon="-2.32371">
        <ele>78.199996948242</ele>
        <time>2021-05-30T09:12:05.000Z</time>
      </trkpt>
      <trkpt lat="47.31147" lon="-2.32377">
        <ele>78.800003051758</ele>
        <time>2021-05-30T09:12:06.000Z</time>
      </trkpt>
      <trkpt lat="47.31147" lon="-2.32383">
        <ele>79.199996948242</ele>
        <time>2021-05-30T09:12:07.000Z</time>
      </trkpt>
      <trkpt lat="47.31147" lon="-2.32389">
        <ele>79.599998474121</ele>
        <time>2021-05-30T09:12:08.000Z</time>
      </trkpt>
      <trkpt lat="47.3115" lon="-2.32413">
        <ele>79.599998474121</ele>
        <time>2021-05-30T09:12:12.000Z</time>
      </trkpt>
      <trkpt lat="47.3116" lon="-2.32422">
        <ele>79.599998474121</ele>
        <time>2021-05-30T09:12:15.000Z</time>
      </trkpt>
      <trkpt lat="47.31166" lon="-2.32425">
        <ele>79.599998474121</ele>
        <time>2021-05-30T09:12:17.000Z</time>
      </trkpt>
      <trkpt lat="47.31177" lon="-2.32432">
        <ele>79.599998474121</ele>
        <time>2021-05-30T09:12:21.000Z</time>
      </trkpt>
      <trkpt lat="47.31185" lon="-2.32433">
        <ele>79.599998474121</ele>
        <time>2021-05-30T09:12:27.000Z</time>
      </trkpt>
      <trkpt lat="47.31185" lon="-2.32433">
        <ele>79.599998474121</ele>
        <time>2021-05-30T09:12:28.000Z</time>
      </trkpt>
      <trkpt lat="47.31188" lon="-2.32431">
        <ele>79.599998474121</ele>
        <time>2021-05-30T09:13:39.000Z</time>
      </trkpt>
      <trkpt lat="47.31192" lon="-2.32428">
        <ele>79.599998474121</ele>
        <time>2021-05-30T09:13:41.000Z</time>
      </trkpt>
      <trkpt lat="47.31214" lon="-2.32414">
        <ele>79.599998474121</ele>
        <time>2021-05-30T09:13:46.000Z</time>
      </trkpt>
      <trkpt lat="47.31218" lon="-2.32411">
        <ele>80</ele>
        <time>2021-05-30T09:13:47.000Z</time>
      </trkpt>
      <trkpt lat="47.31224" lon="-2.32408">
        <ele>80.800003051758</ele>
        <time>2021-05-30T09:13:48.000Z</time>
      </trkpt>
      <trkpt lat="47.31228" lon="-2.32404">
        <ele>81.199996948242</ele>
        <time>2021-05-30T09:13:49.000Z</time>
      </trkpt>
      <trkpt lat="47.31234" lon="-2.32401">
        <ele>81.599998474121</ele>
        <time>2021-05-30T09:13:50.000Z</time>
      </trkpt>
      <trkpt lat="47.31245" lon="-2.32393">
        <ele>81.599998474121</ele>
        <time>2021-05-30T09:13:52.000Z</time>
      </trkpt>
      <trkpt lat="47.31287" lon="-2.32356">
        <ele>81.599998474121</ele>
        <time>2021-05-30T09:14:00.000Z</time>
      </trkpt>
      <trkpt lat="47.31322" lon="-2.32318">
        <ele>81.199996948242</ele>
        <time>2021-05-30T09:14:07.000Z</time>
      </trkpt>
      <trkpt lat="47.31328" lon="-2.32313">
        <ele>80.800003051758</ele>
        <time>2021-05-30T09:14:08.000Z</time>
      </trkpt>
      <trkpt lat="47.31333" lon="-2.32309">
        <ele>80.199996948242</ele>
        <time>2021-05-30T09:14:09.000Z</time>
      </trkpt>
      <trkpt lat="47.31338" lon="-2.32304">
        <ele>79.800003051758</ele>
        <time>2021-05-30T09:14:10.000Z</time>
      </trkpt>
      <trkpt lat="47.31343" lon="-2.32301">
        <ele>79.400001525879</ele>
        <time>2021-05-30T09:14:11.000Z</time>
      </trkpt>
      <trkpt lat="47.31354" lon="-2.32294">
        <ele>79.400001525879</ele>
        <time>2021-05-30T09:14:13.000Z</time>
      </trkpt>
      <trkpt lat="47.31359" lon="-2.32292">
        <ele>79.400001525879</ele>
        <time>2021-05-30T09:14:14.000Z</time>
      </trkpt>
      <trkpt lat="47.31387" lon="-2.3228">
        <ele>79.400001525879</ele>
        <time>2021-05-30T09:14:19.000Z</time>
      </trkpt>
      <trkpt lat="47.31429" lon="-2.32271">
        <ele>79.400001525879</ele>
        <time>2021-05-30T09:14:26.000Z</time>
      </trkpt>
      <trkpt lat="47.31435" lon="-2.32269">
        <ele>79.400001525879</ele>
        <time>2021-05-30T09:14:27.000Z</time>
      </trkpt>
      <trkpt lat="47.31446" lon="-2.32263">
        <ele>79.400001525879</ele>
        <time>2021-05-30T09:14:29.000Z</time>
      </trkpt>
      <trkpt lat="47.31451" lon="-2.32258">
        <ele>79.400001525879</ele>
        <time>2021-05-30T09:14:30.000Z</time>
      </trkpt>
      <trkpt lat="47.3146" lon="-2.32235">
        <ele>79.800003051758</ele>
        <time>2021-05-30T09:14:33.000Z</time>
      </trkpt>
      <trkpt lat="47.31463" lon="-2.32228">
        <ele>80.199996948242</ele>
        <time>2021-05-30T09:14:34.000Z</time>
      </trkpt>
      <trkpt lat="47.31466" lon="-2.32221">
        <ele>80.800003051758</ele>
        <time>2021-05-30T09:14:35.000Z</time>
      </trkpt>
      <trkpt lat="47.31469" lon="-2.32213">
        <ele>81.199996948242</ele>
        <time>2021-05-30T09:14:36.000Z</time>
      </trkpt>
      <trkpt lat="47.31471" lon="-2.32206">
        <ele>81.599998474121</ele>
        <time>2021-05-30T09:14:37.000Z</time>
      </trkpt>
      <trkpt lat="47.3148" lon="-2.32183">
        <ele>81.599998474121</ele>
        <time>2021-05-30T09:14:40.000Z</time>
      </trkpt>
      <trkpt lat="47.31486" lon="-2.32172">
        <ele>81.599998474121</ele>
        <time>2021-05-30T09:14:42.000Z</time>
      </trkpt>
      <trkpt lat="47.31495" lon="-2.32173">
        <ele>81.599998474121</ele>
        <time>2021-05-30T09:14:44.000Z</time>
      </trkpt>
      <trkpt lat="47.31504" lon="-2.32181">
        <ele>81.599998474121</ele>
        <time>2021-05-30T09:14:46.000Z</time>
      </trkpt>
      <trkpt lat="47.31508" lon="-2.32183">
        <ele>81.599998474121</ele>
        <time>2021-05-30T09:14:47.000Z</time>
      </trkpt>
      <trkpt lat="47.31512" lon="-2.32182">
        <ele>81.599998474121</ele>
        <time>2021-05-30T09:14:48.000Z</time>
      </trkpt>
      <trkpt lat="47.31518" lon="-2.3217">
        <ele>81.599998474121</ele>
        <time>2021-05-30T09:14:51.000Z</time>
      </trkpt>
      <trkpt lat="47.31515" lon="-2.32158">
        <ele>81.599998474121</ele>
        <time>2021-05-30T09:14:53.000Z</time>
      </trkpt>
      <trkpt lat="47.31512" lon="-2.32152">
        <ele>81.599998474121</ele>
        <time>2021-05-30T09:14:54.000Z</time>
      </trkpt>
      <trkpt lat="47.31495" lon="-2.32113">
        <ele>81.599998474121</ele>
        <time>2021-05-30T09:15:00.000Z</time>
      </trkpt>
      <trkpt lat="47.31497" lon="-2.32107">
        <ele>81.599998474121</ele>
        <time>2021-05-30T09:15:02.000Z</time>
      </trkpt>
      <trkpt lat="47.31499" lon="-2.32106">
        <ele>81.599998474121</ele>
        <time>2021-05-30T09:15:03.000Z</time>
      </trkpt>
      <trkpt lat="47.31502" lon="-2.32104">
        <ele>81.599998474121</ele>
        <time>2021-05-30T09:15:05.000Z</time>
      </trkpt>
      <trkpt lat="47.31506" lon="-2.32103">
        <ele>81.599998474121</ele>
        <time>2021-05-30T09:15:07.000Z</time>
      </trkpt>
      <trkpt lat="47.31516" lon="-2.32111">
        <ele>81.599998474121</ele>
        <time>2021-05-30T09:15:10.000Z</time>
      </trkpt>
      <trkpt lat="47.31525" lon="-2.32113">
        <ele>81.599998474121</ele>
        <time>2021-05-30T09:15:12.000Z</time>
      </trkpt>
      <trkpt lat="47.31534" lon="-2.32114">
        <ele>81.599998474121</ele>
        <time>2021-05-30T09:15:14.000Z</time>
      </trkpt>
      <trkpt lat="47.3154" lon="-2.32115">
        <ele>81.599998474121</ele>
        <time>2021-05-30T09:15:15.000Z</time>
      </trkpt>
      <trkpt lat="47.31556" lon="-2.32119">
        <ele>81.599998474121</ele>
        <time>2021-05-30T09:15:18.000Z</time>
      </trkpt>
      <trkpt lat="47.31562" lon="-2.3212">
        <ele>82</ele>
        <time>2021-05-30T09:15:19.000Z</time>
      </trkpt>
      <trkpt lat="47.31568" lon="-2.32122">
        <ele>82.599998474121</ele>
        <time>2021-05-30T09:15:20.000Z</time>
      </trkpt>
      <trkpt lat="47.31573" lon="-2.32123">
        <ele>83</ele>
        <time>2021-05-30T09:15:21.000Z</time>
      </trkpt>
      <trkpt lat="47.31579" lon="-2.32125">
        <ele>83.400001525879</ele>
        <time>2021-05-30T09:15:22.000Z</time>
      </trkpt>
      <trkpt lat="47.31585" lon="-2.32127">
        <ele>83.800003051758</ele>
        <time>2021-05-30T09:15:23.000Z</time>
      </trkpt>
      <trkpt lat="47.31614" lon="-2.32136">
        <ele>83.800003051758</ele>
        <time>2021-05-30T09:15:28.000Z</time>
      </trkpt>
      <trkpt lat="47.31653" lon="-2.32147">
        <ele>83.800003051758</ele>
        <time>2021-05-30T09:15:35.000Z</time>
      </trkpt>
      <trkpt lat="47.31658" lon="-2.32149">
        <ele>83.800003051758</ele>
        <time>2021-05-30T09:15:36.000Z</time>
      </trkpt>
      <trkpt lat="47.31663" lon="-2.3215">
        <ele>83.800003051758</ele>
        <time>2021-05-30T09:15:37.000Z</time>
      </trkpt>
      <trkpt lat="47.31692" lon="-2.32156">
        <ele>83.800003051758</ele>
        <time>2021-05-30T09:15:42.000Z</time>
      </trkpt>
      <trkpt lat="47.31698" lon="-2.32156">
        <ele>83.800003051758</ele>
        <time>2021-05-30T09:15:43.000Z</time>
      </trkpt>
      <trkpt lat="47.31709" lon="-2.32159">
        <ele>84.400001525879</ele>
        <time>2021-05-30T09:15:45.000Z</time>
      </trkpt>
      <trkpt lat="47.31715" lon="-2.32161">
        <ele>84.800003051758</ele>
        <time>2021-05-30T09:15:46.000Z</time>
      </trkpt>
      <trkpt lat="47.3172" lon="-2.32162">
        <ele>85.199996948242</ele>
        <time>2021-05-30T09:15:47.000Z</time>
      </trkpt>
      <trkpt lat="47.31726" lon="-2.32163">
        <ele>85.599998474121</ele>
        <time>2021-05-30T09:15:48.000Z</time>
      </trkpt>
      <trkpt lat="47.31732" lon="-2.32165">
        <ele>86</ele>
        <time>2021-05-30T09:15:49.000Z</time>
      </trkpt>
      <trkpt lat="47.31764" lon="-2.32172">
        <ele>86</ele>
        <time>2021-05-30T09:15:54.000Z</time>
      </trkpt>
      <trkpt lat="47.31813" lon="-2.32184">
        <ele>86</ele>
        <time>2021-05-30T09:16:01.000Z</time>
      </trkpt>
      <trkpt lat="47.31821" lon="-2.32185">
        <ele>85.599998474121</ele>
        <time>2021-05-30T09:16:02.000Z</time>
      </trkpt>
      <trkpt lat="47.31828" lon="-2.32187">
        <ele>85</ele>
        <time>2021-05-30T09:16:03.000Z</time>
      </trkpt>
      <trkpt lat="47.31835" lon="-2.32188">
        <ele>84.599998474121</ele>
        <time>2021-05-30T09:16:04.000Z</time>
      </trkpt>
      <trkpt lat="47.31843" lon="-2.32189">
        <ele>84.199996948242</ele>
        <time>2021-05-30T09:16:05.000Z</time>
      </trkpt>
      <trkpt lat="47.31851" lon="-2.32191">
        <ele>83.800003051758</ele>
        <time>2021-05-30T09:16:06.000Z</time>
      </trkpt>
      <trkpt lat="47.31874" lon="-2.32196">
        <ele>83.400001525879</ele>
        <time>2021-05-30T09:16:09.000Z</time>
      </trkpt>
      <trkpt lat="47.3188" lon="-2.32196">
        <ele>82.800003051758</ele>
        <time>2021-05-30T09:16:10.000Z</time>
      </trkpt>
      <trkpt lat="47.31887" lon="-2.32196">
        <ele>82.400001525879</ele>
        <time>2021-05-30T09:16:11.000Z</time>
      </trkpt>
      <trkpt lat="47.31892" lon="-2.32197">
        <ele>82</ele>
        <time>2021-05-30T09:16:12.000Z</time>
      </trkpt>
      <trkpt lat="47.31895" lon="-2.32199">
        <ele>81.199996948242</ele>
        <time>2021-05-30T09:16:13.000Z</time>
      </trkpt>
      <trkpt lat="47.31898" lon="-2.32201">
        <ele>80.599998474121</ele>
        <time>2021-05-30T09:16:14.000Z</time>
      </trkpt>
      <trkpt lat="47.319" lon="-2.32203">
        <ele>80</ele>
        <time>2021-05-30T09:16:15.000Z</time>
      </trkpt>
      <trkpt lat="47.319" lon="-2.32205">
        <ele>78.800003051758</ele>
        <time>2021-05-30T09:16:16.000Z</time>
      </trkpt>
      <trkpt lat="47.31893" lon="-2.32207">
        <ele>78.800003051758</ele>
        <time>2021-05-30T09:16:18.000Z</time>
      </trkpt>
      <trkpt lat="47.31869" lon="-2.32214">
        <ele>78.800003051758</ele>
        <time>2021-05-30T09:16:23.000Z</time>
      </trkpt>
      <trkpt lat="47.31837" lon="-2.32225">
        <ele>78.800003051758</ele>
        <time>2021-05-30T09:16:30.000Z</time>
      </trkpt>
      <trkpt lat="47.31827" lon="-2.32227">
        <ele>79.199996948242</ele>
        <time>2021-05-30T09:16:32.000Z</time>
      </trkpt>
      <trkpt lat="47.31822" lon="-2.32228">
        <ele>79.599998474121</ele>
        <time>2021-05-30T09:16:33.000Z</time>
      </trkpt>
      <trkpt lat="47.31818" lon="-2.32228">
        <ele>80</ele>
        <time>2021-05-30T09:16:34.000Z</time>
      </trkpt>
      <trkpt lat="47.31814" lon="-2.32228">
        <ele>80.599998474121</ele>
        <time>2021-05-30T09:16:35.000Z</time>
      </trkpt>
      <trkpt lat="47.31809" lon="-2.32229">
        <ele>81</ele>
        <time>2021-05-30T09:16:36.000Z</time>
      </trkpt>
      <trkpt lat="47.31804" lon="-2.32229">
        <ele>81</ele>
        <time>2021-05-30T09:16:37.000Z</time>
      </trkpt>
      <trkpt lat="47.31799" lon="-2.32229">
        <ele>81.400001525879</ele>
        <time>2021-05-30T09:16:38.000Z</time>
      </trkpt>
      <trkpt lat="47.31794" lon="-2.32229">
        <ele>81.800003051758</ele>
        <time>2021-05-30T09:16:39.000Z</time>
      </trkpt>
      <trkpt lat="47.31789" lon="-2.3223">
        <ele>82.400001525879</ele>
        <time>2021-05-30T09:16:40.000Z</time>
      </trkpt>
      <trkpt lat="47.31785" lon="-2.3223">
        <ele>83.199996948242</ele>
        <time>2021-05-30T09:16:41.000Z</time>
      </trkpt>
      <trkpt lat="47.3177" lon="-2.32231">
        <ele>83.199996948242</ele>
        <time>2021-05-30T09:16:44.000Z</time>
      </trkpt>
      <trkpt lat="47.31758" lon="-2.32238">
        <ele>83.199996948242</ele>
        <time>2021-05-30T09:16:47.000Z</time>
      </trkpt>
      <trkpt lat="47.31756" lon="-2.32244">
        <ele>83.199996948242</ele>
        <time>2021-05-30T09:16:48.000Z</time>
      </trkpt>
      <trkpt lat="47.31757" lon="-2.32266">
        <ele>83.199996948242</ele>
        <time>2021-05-30T09:16:51.000Z</time>
      </trkpt>
      <trkpt lat="47.31759" lon="-2.32275">
        <ele>83.199996948242</ele>
        <time>2021-05-30T09:16:52.000Z</time>
      </trkpt>
      <trkpt lat="47.31766" lon="-2.3232">
        <ele>83.199996948242</ele>
        <time>2021-05-30T09:16:57.000Z</time>
      </trkpt>
      <trkpt lat="47.31778" lon="-2.32389">
        <ele>83.199996948242</ele>
        <time>2021-05-30T09:17:04.000Z</time>
      </trkpt>
      <trkpt lat="47.3179" lon="-2.32462">
        <ele>82.800003051758</ele>
        <time>2021-05-30T09:17:11.000Z</time>
      </trkpt>
      <trkpt lat="47.31792" lon="-2.3247">
        <ele>82.400001525879</ele>
        <time>2021-05-30T09:17:12.000Z</time>
      </trkpt>
      <trkpt lat="47.31795" lon="-2.32478">
        <ele>82</ele>
        <time>2021-05-30T09:17:13.000Z</time>
      </trkpt>
      <trkpt lat="47.31797" lon="-2.32487">
        <ele>81.400001525879</ele>
        <time>2021-05-30T09:17:14.000Z</time>
      </trkpt>
      <trkpt lat="47.318" lon="-2.32496">
        <ele>81</ele>
        <time>2021-05-30T09:17:15.000Z</time>
      </trkpt>
      <trkpt lat="47.31803" lon="-2.32506">
        <ele>80.599998474121</ele>
        <time>2021-05-30T09:17:16.000Z</time>
      </trkpt>
      <trkpt lat="47.31805" lon="-2.32516">
        <ele>80.199996948242</ele>
        <time>2021-05-30T09:17:17.000Z</time>
      </trkpt>
      <trkpt lat="47.31806" lon="-2.32527">
        <ele>79.800003051758</ele>
        <time>2021-05-30T09:17:18.000Z</time>
      </trkpt>
      <trkpt lat="47.31809" lon="-2.32538">
        <ele>79.400001525879</ele>
        <time>2021-05-30T09:17:19.000Z</time>
      </trkpt>
      <trkpt lat="47.31812" lon="-2.32548">
        <ele>79</ele>
        <time>2021-05-30T09:17:20.000Z</time>
      </trkpt>
      <trkpt lat="47.31827" lon="-2.32603">
        <ele>79</ele>
        <time>2021-05-30T09:17:25.000Z</time>
      </trkpt>
      <trkpt lat="47.31835" lon="-2.32635">
        <ele>78.599998474121</ele>
        <time>2021-05-30T09:17:28.000Z</time>
      </trkpt>
      <trkpt lat="47.31838" lon="-2.32645">
        <ele>78.199996948242</ele>
        <time>2021-05-30T09:17:29.000Z</time>
      </trkpt>
      <trkpt lat="47.31841" lon="-2.32655">
        <ele>77.199996948242</ele>
        <time>2021-05-30T09:17:30.000Z</time>
      </trkpt>
      <trkpt lat="47.31844" lon="-2.32665">
        <ele>76.800003051758</ele>
        <time>2021-05-30T09:17:31.000Z</time>
      </trkpt>
      <trkpt lat="47.31852" lon="-2.32684">
        <ele>76.400001525879</ele>
        <time>2021-05-30T09:17:33.000Z</time>
      </trkpt>
      <trkpt lat="47.31856" lon="-2.32694">
        <ele>76</ele>
        <time>2021-05-30T09:17:34.000Z</time>
      </trkpt>
      <trkpt lat="47.31861" lon="-2.32704">
        <ele>75.599998474121</ele>
        <time>2021-05-30T09:17:35.000Z</time>
      </trkpt>
      <trkpt lat="47.31865" lon="-2.32714">
        <ele>75.199996948242</ele>
        <time>2021-05-30T09:17:36.000Z</time>
      </trkpt>
      <trkpt lat="47.31869" lon="-2.32725">
        <ele>74.800003051758</ele>
        <time>2021-05-30T09:17:37.000Z</time>
      </trkpt>
      <trkpt lat="47.31878" lon="-2.32753">
        <ele>74.800003051758</ele>
        <time>2021-05-30T09:17:40.000Z</time>
      </trkpt>
      <trkpt lat="47.31881" lon="-2.32763">
        <ele>74.800003051758</ele>
        <time>2021-05-30T09:17:41.000Z</time>
      </trkpt>
      <trkpt lat="47.31884" lon="-2.32787">
        <ele>74.400001525879</ele>
        <time>2021-05-30T09:17:43.000Z</time>
      </trkpt>
      <trkpt lat="47.31886" lon="-2.32798">
        <ele>73.800003051758</ele>
        <time>2021-05-30T09:17:44.000Z</time>
      </trkpt>
      <trkpt lat="47.31888" lon="-2.3281">
        <ele>73.400001525879</ele>
        <time>2021-05-30T09:17:45.000Z</time>
      </trkpt>
      <trkpt lat="47.3189" lon="-2.32821">
        <ele>72.800003051758</ele>
        <time>2021-05-30T09:17:46.000Z</time>
      </trkpt>
      <trkpt lat="47.31892" lon="-2.32833">
        <ele>72.400001525879</ele>
        <time>2021-05-30T09:17:47.000Z</time>
      </trkpt>
      <trkpt lat="47.31896" lon="-2.3289">
        <ele>72.400001525879</ele>
        <time>2021-05-30T09:17:52.000Z</time>
      </trkpt>
      <trkpt lat="47.31899" lon="-2.3294">
        <ele>72.400001525879</ele>
        <time>2021-05-30T09:17:57.000Z</time>
      </trkpt>
      <trkpt lat="47.31897" lon="-2.33">
        <ele>72.400001525879</ele>
        <time>2021-05-30T09:18:02.000Z</time>
      </trkpt>
      <trkpt lat="47.31894" lon="-2.33022">
        <ele>72.400001525879</ele>
        <time>2021-05-30T09:18:04.000Z</time>
      </trkpt>
      <trkpt lat="47.31892" lon="-2.33041">
        <ele>72</ele>
        <time>2021-05-30T09:18:06.000Z</time>
      </trkpt>
      <trkpt lat="47.31892" lon="-2.33049">
        <ele>71.599998474121</ele>
        <time>2021-05-30T09:18:07.000Z</time>
      </trkpt>
      <trkpt lat="47.31891" lon="-2.33057">
        <ele>71</ele>
        <time>2021-05-30T09:18:08.000Z</time>
      </trkpt>
      <trkpt lat="47.3189" lon="-2.33065">
        <ele>70.599998474121</ele>
        <time>2021-05-30T09:18:09.000Z</time>
      </trkpt>
      <trkpt lat="47.3189" lon="-2.33071">
        <ele>70.199996948242</ele>
        <time>2021-05-30T09:18:10.000Z</time>
      </trkpt>
      <trkpt lat="47.3189" lon="-2.33077">
        <ele>70.199996948242</ele>
        <time>2021-05-30T09:18:11.000Z</time>
      </trkpt>
      <trkpt lat="47.31887" lon="-2.3312">
        <ele>70.199996948242</ele>
        <time>2021-05-30T09:18:18.000Z</time>
      </trkpt>
      <trkpt lat="47.31884" lon="-2.33139">
        <ele>70.599998474121</ele>
        <time>2021-05-30T09:18:21.000Z</time>
      </trkpt>
      <trkpt lat="47.31883" lon="-2.33145">
        <ele>71</ele>
        <time>2021-05-30T09:18:22.000Z</time>
      </trkpt>
      <trkpt lat="47.31882" lon="-2.33152">
        <ele>71.400001525879</ele>
        <time>2021-05-30T09:18:23.000Z</time>
      </trkpt>
      <trkpt lat="47.31881" lon="-2.33158">
        <ele>71.800003051758</ele>
        <time>2021-05-30T09:18:24.000Z</time>
      </trkpt>
      <trkpt lat="47.3188" lon="-2.33165">
        <ele>72.199996948242</ele>
        <time>2021-05-30T09:18:25.000Z</time>
      </trkpt>
      <trkpt lat="47.31876" lon="-2.3319">
        <ele>72.599998474121</ele>
        <time>2021-05-30T09:18:29.000Z</time>
      </trkpt>
      <trkpt lat="47.31875" lon="-2.33197">
        <ele>73</ele>
        <time>2021-05-30T09:18:30.000Z</time>
      </trkpt>
      <trkpt lat="47.31875" lon="-2.33205">
        <ele>73.400001525879</ele>
        <time>2021-05-30T09:18:31.000Z</time>
      </trkpt>
      <trkpt lat="47.31874" lon="-2.33212">
        <ele>73.800003051758</ele>
        <time>2021-05-30T09:18:32.000Z</time>
      </trkpt>
      <trkpt lat="47.31873" lon="-2.3322">
        <ele>74.199996948242</ele>
        <time>2021-05-30T09:18:33.000Z</time>
      </trkpt>
      <trkpt lat="47.3187" lon="-2.33235">
        <ele>74.199996948242</ele>
        <time>2021-05-30T09:18:35.000Z</time>
      </trkpt>
      <trkpt lat="47.31864" lon="-2.33251">
        <ele>74.199996948242</ele>
        <time>2021-05-30T09:18:37.000Z</time>
      </trkpt>
      <trkpt lat="47.31846" lon="-2.33287">
        <ele>74.599998474121</ele>
        <time>2021-05-30T09:18:44.000Z</time>
      </trkpt>
      <trkpt lat="47.31841" lon="-2.33292">
        <ele>75</ele>
        <time>2021-05-30T09:18:45.000Z</time>
      </trkpt>
      <trkpt lat="47.31837" lon="-2.33294">
        <ele>75.400001525879</ele>
        <time>2021-05-30T09:18:46.000Z</time>
      </trkpt>
      <trkpt lat="47.31834" lon="-2.33295">
        <ele>75.800003051758</ele>
        <time>2021-05-30T09:18:47.000Z</time>
      </trkpt>
      <trkpt lat="47.31832" lon="-2.33298">
        <ele>76.199996948242</ele>
        <time>2021-05-30T09:18:48.000Z</time>
      </trkpt>
      <trkpt lat="47.3183" lon="-2.333">
        <ele>76.199996948242</ele>
        <time>2021-05-30T09:18:49.000Z</time>
      </trkpt>
      <trkpt lat="47.31822" lon="-2.3331">
        <ele>76.800003051758</ele>
        <time>2021-05-30T09:18:53.000Z</time>
      </trkpt>
      <trkpt lat="47.3182" lon="-2.33313">
        <ele>77.199996948242</ele>
        <time>2021-05-30T09:18:54.000Z</time>
      </trkpt>
      <trkpt lat="47.31817" lon="-2.33315">
        <ele>77.599998474121</ele>
        <time>2021-05-30T09:18:55.000Z</time>
      </trkpt>
      <trkpt lat="47.31815" lon="-2.33316">
        <ele>78</ele>
        <time>2021-05-30T09:18:56.000Z</time>
      </trkpt>
      <trkpt lat="47.31813" lon="-2.33318">
        <ele>78.400001525879</ele>
        <time>2021-05-30T09:18:57.000Z</time>
      </trkpt>
      <trkpt lat="47.31788" lon="-2.33326">
        <ele>78.400001525879</ele>
        <time>2021-05-30T09:19:02.000Z</time>
      </trkpt>
      <trkpt lat="47.31781" lon="-2.33324">
        <ele>78.800003051758</ele>
        <time>2021-05-30T09:19:05.000Z</time>
      </trkpt>
      <trkpt lat="47.31779" lon="-2.33323">
        <ele>79.199996948242</ele>
        <time>2021-05-30T09:19:06.000Z</time>
      </trkpt>
      <trkpt lat="47.31777" lon="-2.33323">
        <ele>79.599998474121</ele>
        <time>2021-05-30T09:19:07.000Z</time>
      </trkpt>
      <trkpt lat="47.31776" lon="-2.33322">
        <ele>80</ele>
        <time>2021-05-30T09:19:08.000Z</time>
      </trkpt>
      <trkpt lat="47.31775" lon="-2.33322">
        <ele>80.400001525879</ele>
        <time>2021-05-30T09:19:09.000Z</time>
      </trkpt>
      <trkpt lat="47.31767" lon="-2.33322">
        <ele>80.400001525879</ele>
        <time>2021-05-30T09:19:14.000Z</time>
      </trkpt>
      <trkpt lat="47.31767" lon="-2.33327">
        <ele>80.400001525879</ele>
        <time>2021-05-30T09:19:29.000Z</time>
      </trkpt>
      <trkpt lat="47.31773" lon="-2.33332">
        <ele>80.400001525879</ele>
        <time>2021-05-30T09:19:34.000Z</time>
      </trkpt>
      <trkpt lat="47.31774" lon="-2.33332">
        <ele>80.400001525879</ele>
        <time>2021-05-30T09:19:35.000Z</time>
      </trkpt>
      <trkpt lat="47.31777" lon="-2.3333">
        <ele>80.400001525879</ele>
        <time>2021-05-30T09:21:30.000Z</time>
      </trkpt>
      <trkpt lat="47.3178" lon="-2.33326">
        <ele>80.400001525879</ele>
        <time>2021-05-30T09:21:33.000Z</time>
      </trkpt>
      <trkpt lat="47.31782" lon="-2.33323">
        <ele>80.400001525879</ele>
        <time>2021-05-30T09:21:35.000Z</time>
      </trkpt>
      <trkpt lat="47.31786" lon="-2.33317">
        <ele>80</ele>
        <time>2021-05-30T09:21:37.000Z</time>
      </trkpt>
      <trkpt lat="47.31788" lon="-2.33314">
        <ele>79.199996948242</ele>
        <time>2021-05-30T09:21:38.000Z</time>
      </trkpt>
      <trkpt lat="47.3179" lon="-2.33311">
        <ele>78.800003051758</ele>
        <time>2021-05-30T09:21:39.000Z</time>
      </trkpt>
      <trkpt lat="47.31792" lon="-2.33308">
        <ele>78.199996948242</ele>
        <time>2021-05-30T09:21:40.000Z</time>
      </trkpt>
      <trkpt lat="47.31794" lon="-2.33307">
        <ele>78.199996948242</ele>
        <time>2021-05-30T09:21:41.000Z</time>
      </trkpt>
      <trkpt lat="47.31799" lon="-2.33307">
        <ele>77.800003051758</ele>
        <time>2021-05-30T09:21:44.000Z</time>
      </trkpt>
      <trkpt lat="47.31801" lon="-2.33307">
        <ele>77.400001525879</ele>
        <time>2021-05-30T09:21:45.000Z</time>
      </trkpt>
      <trkpt lat="47.31802" lon="-2.33308">
        <ele>77</ele>
        <time>2021-05-30T09:21:46.000Z</time>
      </trkpt>
      <trkpt lat="47.31804" lon="-2.33308">
        <ele>76.599998474121</ele>
        <time>2021-05-30T09:21:47.000Z</time>
      </trkpt>
      <trkpt lat="47.31805" lon="-2.33308">
        <ele>76.199996948242</ele>
        <time>2021-05-30T09:21:48.000Z</time>
      </trkpt>
      <trkpt lat="47.31808" lon="-2.33308">
        <ele>76.199996948242</ele>
        <time>2021-05-30T09:21:51.000Z</time>
      </trkpt>
      <trkpt lat="47.31784" lon="-2.3333">
        <ele>78.400001525879</ele>
        <time>2021-05-30T09:27:58.000Z</time>
      </trkpt>
      <trkpt lat="47.31783" lon="-2.33331">
        <ele>78.800003051758</ele>
        <time>2021-05-30T09:27:59.000Z</time>
      </trkpt>
      <trkpt lat="47.31781" lon="-2.33331">
        <ele>79.199996948242</ele>
        <time>2021-05-30T09:28:00.000Z</time>
      </trkpt>
      <trkpt lat="47.3178" lon="-2.33331">
        <ele>79.599998474121</ele>
        <time>2021-05-30T09:28:01.000Z</time>
      </trkpt>
      <trkpt lat="47.31779" lon="-2.33331">
        <ele>80</ele>
        <time>2021-05-30T09:28:02.000Z</time>
      </trkpt>
      <trkpt lat="47.31777" lon="-2.33331">
        <ele>80.400001525879</ele>
        <time>2021-05-30T09:28:03.000Z</time>
      </trkpt>
      <trkpt lat="47.31773" lon="-2.3333">
        <ele>80.400001525879</ele>
        <time>2021-05-30T09:28:06.000Z</time>
      </trkpt>
      <trkpt lat="47.31771" lon="-2.33328">
        <ele>80.400001525879</ele>
        <time>2021-05-30T09:28:10.000Z</time>
      </trkpt>
      <trkpt lat="47.31765" lon="-2.33322">
        <ele>80.400001525879</ele>
        <time>2021-05-30T09:28:47.000Z</time>
      </trkpt>
      <trkpt lat="47.31764" lon="-2.3332">
        <ele>80.400001525879</ele>
        <time>2021-05-30T09:28:48.000Z</time>
      </trkpt>
      <trkpt lat="47.31761" lon="-2.33313">
        <ele>80.400001525879</ele>
        <time>2021-05-30T09:28:51.000Z</time>
      </trkpt>
      <trkpt lat="47.31757" lon="-2.33308">
        <ele>80.800003051758</ele>
        <time>2021-05-30T09:28:54.000Z</time>
      </trkpt>
      <trkpt lat="47.31756" lon="-2.33306">
        <ele>81.199996948242</ele>
        <time>2021-05-30T09:28:55.000Z</time>
      </trkpt>
      <trkpt lat="47.31755" lon="-2.33304">
        <ele>81.599998474121</ele>
        <time>2021-05-30T09:28:56.000Z</time>
      </trkpt>
      <trkpt lat="47.31754" lon="-2.33303">
        <ele>82</ele>
        <time>2021-05-30T09:28:57.000Z</time>
      </trkpt>
      <trkpt lat="47.31754" lon="-2.33302">
        <ele>82.400001525879</ele>
        <time>2021-05-30T09:28:58.000Z</time>
      </trkpt>
      <trkpt lat="47.31752" lon="-2.333">
        <ele>82.400001525879</ele>
        <time>2021-05-30T09:29:00.000Z</time>
      </trkpt>
      <trkpt lat="47.31746" lon="-2.33271">
        <ele>82.400001525879</ele>
        <time>2021-05-30T09:29:14.000Z</time>
      </trkpt>
      <trkpt lat="47.31742" lon="-2.33255">
        <ele>82.400001525879</ele>
        <time>2021-05-30T09:29:21.000Z</time>
      </trkpt>
      <trkpt lat="47.31739" lon="-2.33254">
        <ele>82.400001525879</ele>
        <time>2021-05-30T09:29:22.000Z</time>
      </trkpt>
      <trkpt lat="47.31729" lon="-2.33254">
        <ele>82.400001525879</ele>
        <time>2021-05-30T09:29:26.000Z</time>
      </trkpt>
      <trkpt lat="47.31712" lon="-2.33259">
        <ele>82.400001525879</ele>
        <time>2021-05-30T09:29:33.000Z</time>
      </trkpt>
      <trkpt lat="47.31709" lon="-2.33259">
        <ele>82.800003051758</ele>
        <time>2021-05-30T09:29:34.000Z</time>
      </trkpt>
      <trkpt lat="47.31707" lon="-2.3326">
        <ele>83.199996948242</ele>
        <time>2021-05-30T09:29:35.000Z</time>
      </trkpt>
      <trkpt lat="47.31706" lon="-2.33261">
        <ele>83.599998474121</ele>
        <time>2021-05-30T09:29:36.000Z</time>
      </trkpt>
      <trkpt lat="47.31705" lon="-2.33262">
        <ele>84</ele>
        <time>2021-05-30T09:29:37.000Z</time>
      </trkpt>
      <trkpt lat="47.31703" lon="-2.33263">
        <ele>84.400001525879</ele>
        <time>2021-05-30T09:29:38.000Z</time>
      </trkpt>
      <trkpt lat="47.31701" lon="-2.33265">
        <ele>84.400001525879</ele>
        <time>2021-05-30T09:29:39.000Z</time>
      </trkpt>
      <trkpt lat="47.31681" lon="-2.33273">
        <ele>84.400001525879</ele>
        <time>2021-05-30T09:29:46.000Z</time>
      </trkpt>
      <trkpt lat="47.31675" lon="-2.33275">
        <ele>84.800003051758</ele>
        <time>2021-05-30T09:29:48.000Z</time>
      </trkpt>
      <trkpt lat="47.31671" lon="-2.33277">
        <ele>85.199996948242</ele>
        <time>2021-05-30T09:29:49.000Z</time>
      </trkpt>
      <trkpt lat="47.31668" lon="-2.33278">
        <ele>85.800003051758</ele>
        <time>2021-05-30T09:29:50.000Z</time>
      </trkpt>
      <trkpt lat="47.31664" lon="-2.3328">
        <ele>86.599998474121</ele>
        <time>2021-05-30T09:29:51.000Z</time>
      </trkpt>
      <trkpt lat="47.31661" lon="-2.33282">
        <ele>86.599998474121</ele>
        <time>2021-05-30T09:29:52.000Z</time>
      </trkpt>
      <trkpt lat="47.31638" lon="-2.33294">
        <ele>86.599998474121</ele>
        <time>2021-05-30T09:29:59.000Z</time>
      </trkpt>
      <trkpt lat="47.31619" lon="-2.33302">
        <ele>86.599998474121</ele>
        <time>2021-05-30T09:30:05.000Z</time>
      </trkpt>
      <trkpt lat="47.31594" lon="-2.3332">
        <ele>86.599998474121</ele>
        <time>2021-05-30T09:30:13.000Z</time>
      </trkpt>
      <trkpt lat="47.31569" lon="-2.33332">
        <ele>86.599998474121</ele>
        <time>2021-05-30T09:30:20.000Z</time>
      </trkpt>
      <trkpt lat="47.31537" lon="-2.33347">
        <ele>86.599998474121</ele>
        <time>2021-05-30T09:30:28.000Z</time>
      </trkpt>
      <trkpt lat="47.31505" lon="-2.33365">
        <ele>86.599998474121</ele>
        <time>2021-05-30T09:30:36.000Z</time>
      </trkpt>
      <trkpt lat="47.31481" lon="-2.33371">
        <ele>86.599998474121</ele>
        <time>2021-05-30T09:30:42.000Z</time>
      </trkpt>
      <trkpt lat="47.31472" lon="-2.33357">
        <ele>86.599998474121</ele>
        <time>2021-05-30T09:30:45.000Z</time>
      </trkpt>
      <trkpt lat="47.31451" lon="-2.33317">
        <ele>86.599998474121</ele>
        <time>2021-05-30T09:30:52.000Z</time>
      </trkpt>
      <trkpt lat="47.31432" lon="-2.33285">
        <ele>86.599998474121</ele>
        <time>2021-05-30T09:30:58.000Z</time>
      </trkpt>
      <trkpt lat="47.31401" lon="-2.33259">
        <ele>86.599998474121</ele>
        <time>2021-05-30T09:31:05.000Z</time>
      </trkpt>
      <trkpt lat="47.31365" lon="-2.33234">
        <ele>86.599998474121</ele>
        <time>2021-05-30T09:31:13.000Z</time>
      </trkpt>
      <trkpt lat="47.31333" lon="-2.33207">
        <ele>86.599998474121</ele>
        <time>2021-05-30T09:31:20.000Z</time>
      </trkpt>
      <trkpt lat="47.31303" lon="-2.33178">
        <ele>86.599998474121</ele>
        <time>2021-05-30T09:31:27.000Z</time>
      </trkpt>
      <trkpt lat="47.3128" lon="-2.33162">
        <ele>86.599998474121</ele>
        <time>2021-05-30T09:31:33.000Z</time>
      </trkpt>
      <trkpt lat="47.31278" lon="-2.33161">
        <ele>86.599998474121</ele>
        <time>2021-05-30T09:31:36.000Z</time>
      </trkpt>
      <trkpt lat="47.3124" lon="-2.33152">
        <ele>84.599998474121</ele>
        <time>2021-05-30T09:35:12.000Z</time>
      </trkpt>
      <trkpt lat="47.31226" lon="-2.33154">
        <ele>84.599998474121</ele>
        <time>2021-05-30T09:35:17.000Z</time>
      </trkpt>
      <trkpt lat="47.31218" lon="-2.33155">
        <ele>84.599998474121</ele>
        <time>2021-05-30T09:35:22.000Z</time>
      </trkpt>
      <trkpt lat="47.312" lon="-2.3316">
        <ele>84.599998474121</ele>
        <time>2021-05-30T09:35:30.000Z</time>
      </trkpt>
      <trkpt lat="47.31183" lon="-2.3317">
        <ele>84.599998474121</ele>
        <time>2021-05-30T09:35:38.000Z</time>
      </trkpt>
      <trkpt lat="47.31168" lon="-2.33179">
        <ele>84.599998474121</ele>
        <time>2021-05-30T09:35:44.000Z</time>
      </trkpt>
      <trkpt lat="47.3116" lon="-2.33181">
        <ele>84.599998474121</ele>
        <time>2021-05-30T09:35:51.000Z</time>
      </trkpt>
      <trkpt lat="47.31157" lon="-2.33184">
        <ele>84.599998474121</ele>
        <time>2021-05-30T09:35:58.000Z</time>
      </trkpt>
      <trkpt lat="47.31155" lon="-2.33185">
        <ele>84.599998474121</ele>
        <time>2021-05-30T09:35:59.000Z</time>
      </trkpt>
      <trkpt lat="47.31144" lon="-2.33191">
        <ele>84.599998474121</ele>
        <time>2021-05-30T09:36:04.000Z</time>
      </trkpt>
      <trkpt lat="47.31129" lon="-2.33199">
        <ele>84.599998474121</ele>
        <time>2021-05-30T09:36:09.000Z</time>
      </trkpt>
      <trkpt lat="47.31111" lon="-2.33212">
        <ele>84.599998474121</ele>
        <time>2021-05-30T09:36:13.000Z</time>
      </trkpt>
      <trkpt lat="47.31108" lon="-2.33217">
        <ele>84.599998474121</ele>
        <time>2021-05-30T09:36:14.000Z</time>
      </trkpt>
      <trkpt lat="47.31099" lon="-2.33243">
        <ele>85</ele>
        <time>2021-05-30T09:36:18.000Z</time>
      </trkpt>
      <trkpt lat="47.31098" lon="-2.3325">
        <ele>85.400001525879</ele>
        <time>2021-05-30T09:36:19.000Z</time>
      </trkpt>
      <trkpt lat="47.31098" lon="-2.33257">
        <ele>85.800003051758</ele>
        <time>2021-05-30T09:36:20.000Z</time>
      </trkpt>
      <trkpt lat="47.31098" lon="-2.33264">
        <ele>86.199996948242</ele>
        <time>2021-05-30T09:36:21.000Z</time>
      </trkpt>
      <trkpt lat="47.31097" lon="-2.33271">
        <ele>86.599998474121</ele>
        <time>2021-05-30T09:36:22.000Z</time>
      </trkpt>
      <trkpt lat="47.31098" lon="-2.33322">
        <ele>86.599998474121</ele>
        <time>2021-05-30T09:36:29.000Z</time>
      </trkpt>
      <trkpt lat="47.31099" lon="-2.33375">
        <ele>86.599998474121</ele>
        <time>2021-05-30T09:36:36.000Z</time>
      </trkpt>
      <trkpt lat="47.31098" lon="-2.33414">
        <ele>86.599998474121</ele>
        <time>2021-05-30T09:36:41.000Z</time>
      </trkpt>
      <trkpt lat="47.31099" lon="-2.3343">
        <ele>87</ele>
        <time>2021-05-30T09:36:43.000Z</time>
      </trkpt>
      <trkpt lat="47.31099" lon="-2.33437">
        <ele>87.400001525879</ele>
        <time>2021-05-30T09:36:44.000Z</time>
      </trkpt>
      <trkpt lat="47.31099" lon="-2.33445">
        <ele>87.800003051758</ele>
        <time>2021-05-30T09:36:45.000Z</time>
      </trkpt>
      <trkpt lat="47.31099" lon="-2.33452">
        <ele>88.199996948242</ele>
        <time>2021-05-30T09:36:46.000Z</time>
      </trkpt>
      <trkpt lat="47.311" lon="-2.3346">
        <ele>88.599998474121</ele>
        <time>2021-05-30T09:36:47.000Z</time>
      </trkpt>
      <trkpt lat="47.31104" lon="-2.33498">
        <ele>88.599998474121</ele>
        <time>2021-05-30T09:36:52.000Z</time>
      </trkpt>
      <trkpt lat="47.31113" lon="-2.3354">
        <ele>88.599998474121</ele>
        <time>2021-05-30T09:36:58.000Z</time>
      </trkpt>
      <trkpt lat="47.31114" lon="-2.33547">
        <ele>88.599998474121</ele>
        <time>2021-05-30T09:36:59.000Z</time>
      </trkpt>
      <trkpt lat="47.31115" lon="-2.33561">
        <ele>88.599998474121</ele>
        <time>2021-05-30T09:37:01.000Z</time>
      </trkpt>
      <trkpt lat="47.31115" lon="-2.33576">
        <ele>88.599998474121</ele>
        <time>2021-05-30T09:37:03.000Z</time>
      </trkpt>
      <trkpt lat="47.31114" lon="-2.33635">
        <ele>88.599998474121</ele>
        <time>2021-05-30T09:37:10.000Z</time>
      </trkpt>
      <trkpt lat="47.31112" lon="-2.33652">
        <ele>89</ele>
        <time>2021-05-30T09:37:12.000Z</time>
      </trkpt>
      <trkpt lat="47.31111" lon="-2.33661">
        <ele>89.400001525879</ele>
        <time>2021-05-30T09:37:13.000Z</time>
      </trkpt>
      <trkpt lat="47.3111" lon="-2.33669">
        <ele>89.800003051758</ele>
        <time>2021-05-30T09:37:14.000Z</time>
      </trkpt>
      <trkpt lat="47.31109" lon="-2.33678">
        <ele>90.199996948242</ele>
        <time>2021-05-30T09:37:15.000Z</time>
      </trkpt>
      <trkpt lat="47.31108" lon="-2.33688">
        <ele>90.599998474121</ele>
        <time>2021-05-30T09:37:16.000Z</time>
      </trkpt>
      <trkpt lat="47.31105" lon="-2.33707">
        <ele>90.599998474121</ele>
        <time>2021-05-30T09:37:18.000Z</time>
      </trkpt>
      <trkpt lat="47.31094" lon="-2.33756">
        <ele>90.599998474121</ele>
        <time>2021-05-30T09:37:24.000Z</time>
      </trkpt>
      <trkpt lat="47.3108" lon="-2.3379">
        <ele>90.599998474121</ele>
        <time>2021-05-30T09:37:29.000Z</time>
      </trkpt>
      <trkpt lat="47.31073" lon="-2.33813">
        <ele>90.599998474121</ele>
        <time>2021-05-30T09:37:32.000Z</time>
      </trkpt>
      <trkpt lat="47.3107" lon="-2.3383">
        <ele>90.599998474121</ele>
        <time>2021-05-30T09:37:34.000Z</time>
      </trkpt>
      <trkpt lat="47.31065" lon="-2.33878">
        <ele>90.599998474121</ele>
        <time>2021-05-30T09:37:40.000Z</time>
      </trkpt>
      <trkpt lat="47.31061" lon="-2.33934">
        <ele>90.599998474121</ele>
        <time>2021-05-30T09:37:47.000Z</time>
      </trkpt>
      <trkpt lat="47.31059" lon="-2.33941">
        <ele>90.599998474121</ele>
        <time>2021-05-30T09:37:48.000Z</time>
      </trkpt>
      <trkpt lat="47.31052" lon="-2.3395">
        <ele>90.599998474121</ele>
        <time>2021-05-30T09:37:50.000Z</time>
      </trkpt>
      <trkpt lat="47.31037" lon="-2.33954">
        <ele>90.599998474121</ele>
        <time>2021-05-30T09:37:53.000Z</time>
      </trkpt>
      <trkpt lat="47.31031" lon="-2.33955">
        <ele>90.599998474121</ele>
        <time>2021-05-30T09:37:54.000Z</time>
      </trkpt>
      <trkpt lat="47.30996" lon="-2.33957">
        <ele>90.599998474121</ele>
        <time>2021-05-30T09:38:01.000Z</time>
      </trkpt>
      <trkpt lat="47.30963" lon="-2.33956">
        <ele>91</ele>
        <time>2021-05-30T09:38:08.000Z</time>
      </trkpt>
      <trkpt lat="47.30958" lon="-2.33956">
        <ele>91.400001525879</ele>
        <time>2021-05-30T09:38:09.000Z</time>
      </trkpt>
      <trkpt lat="47.30953" lon="-2.33955">
        <ele>91.800003051758</ele>
        <time>2021-05-30T09:38:10.000Z</time>
      </trkpt>
      <trkpt lat="47.30948" lon="-2.33954">
        <ele>92.199996948242</ele>
        <time>2021-05-30T09:38:11.000Z</time>
      </trkpt>
      <trkpt lat="47.30943" lon="-2.33953">
        <ele>92.800003051758</ele>
        <time>2021-05-30T09:38:12.000Z</time>
      </trkpt>
      <trkpt lat="47.30913" lon="-2.33948">
        <ele>92.800003051758</ele>
        <time>2021-05-30T09:38:18.000Z</time>
      </trkpt>
      <trkpt lat="47.30898" lon="-2.33948">
        <ele>92.800003051758</ele>
        <time>2021-05-30T09:38:21.000Z</time>
      </trkpt>
      <trkpt lat="47.30885" lon="-2.33949">
        <ele>92.800003051758</ele>
        <time>2021-05-30T09:38:24.000Z</time>
      </trkpt>
      <trkpt lat="47.30848" lon="-2.33956">
        <ele>92.800003051758</ele>
        <time>2021-05-30T09:38:32.000Z</time>
      </trkpt>
      <trkpt lat="47.30818" lon="-2.33963">
        <ele>92.800003051758</ele>
        <time>2021-05-30T09:38:39.000Z</time>
      </trkpt>
      <trkpt lat="47.30786" lon="-2.33972">
        <ele>92.800003051758</ele>
        <time>2021-05-30T09:38:46.000Z</time>
      </trkpt>
      <trkpt lat="47.30783" lon="-2.33976">
        <ele>92.800003051758</ele>
        <time>2021-05-30T09:38:47.000Z</time>
      </trkpt>
      <trkpt lat="47.30781" lon="-2.33986">
        <ele>92.800003051758</ele>
        <time>2021-05-30T09:38:49.000Z</time>
      </trkpt>
      <trkpt lat="47.30779" lon="-2.34026">
        <ele>92.800003051758</ele>
        <time>2021-05-30T09:38:56.000Z</time>
      </trkpt>
      <trkpt lat="47.30776" lon="-2.34079">
        <ele>92.800003051758</ele>
        <time>2021-05-30T09:39:03.000Z</time>
      </trkpt>
      <trkpt lat="47.30772" lon="-2.34131">
        <ele>92.800003051758</ele>
        <time>2021-05-30T09:39:10.000Z</time>
      </trkpt>
      <trkpt lat="47.3077" lon="-2.34174">
        <ele>93.199996948242</ele>
        <time>2021-05-30T09:39:16.000Z</time>
      </trkpt>
      <trkpt lat="47.3077" lon="-2.34181">
        <ele>94</ele>
        <time>2021-05-30T09:39:17.000Z</time>
      </trkpt>
      <trkpt lat="47.30769" lon="-2.34189">
        <ele>94.400001525879</ele>
        <time>2021-05-30T09:39:18.000Z</time>
      </trkpt>
      <trkpt lat="47.30769" lon="-2.34196">
        <ele>94.800003051758</ele>
        <time>2021-05-30T09:39:19.000Z</time>
      </trkpt>
      <trkpt lat="47.30768" lon="-2.34203">
        <ele>94.800003051758</ele>
        <time>2021-05-30T09:39:20.000Z</time>
      </trkpt>
      <trkpt lat="47.30762" lon="-2.34212">
        <ele>94.800003051758</ele>
        <time>2021-05-30T09:39:22.000Z</time>
      </trkpt>
      <trkpt lat="47.30752" lon="-2.34215">
        <ele>94.800003051758</ele>
        <time>2021-05-30T09:39:24.000Z</time>
      </trkpt>
      <trkpt lat="47.30742" lon="-2.34219">
        <ele>94.800003051758</ele>
        <time>2021-05-30T09:39:26.000Z</time>
      </trkpt>
      <trkpt lat="47.30733" lon="-2.34233">
        <ele>94.800003051758</ele>
        <time>2021-05-30T09:39:29.000Z</time>
      </trkpt>
      <trkpt lat="47.30733" lon="-2.34244">
        <ele>94.800003051758</ele>
        <time>2021-05-30T09:39:31.000Z</time>
      </trkpt>
      <trkpt lat="47.30732" lon="-2.34257">
        <ele>94.800003051758</ele>
        <time>2021-05-30T09:39:33.000Z</time>
      </trkpt>
      <trkpt lat="47.30724" lon="-2.34282">
        <ele>94.800003051758</ele>
        <time>2021-05-30T09:39:37.000Z</time>
      </trkpt>
      <trkpt lat="47.30706" lon="-2.3432">
        <ele>94.800003051758</ele>
        <time>2021-05-30T09:39:43.000Z</time>
      </trkpt>
      <trkpt lat="47.30684" lon="-2.3436">
        <ele>94.800003051758</ele>
        <time>2021-05-30T09:39:49.000Z</time>
      </trkpt>
      <trkpt lat="47.30657" lon="-2.34396">
        <ele>94.800003051758</ele>
        <time>2021-05-30T09:39:55.000Z</time>
      </trkpt>
      <trkpt lat="47.30634" lon="-2.34424">
        <ele>94.800003051758</ele>
        <time>2021-05-30T09:40:00.000Z</time>
      </trkpt>
      <trkpt lat="47.30612" lon="-2.34452">
        <ele>94.800003051758</ele>
        <time>2021-05-30T09:40:05.000Z</time>
      </trkpt>
      <trkpt lat="47.30608" lon="-2.34458">
        <ele>95.599998474121</ele>
        <time>2021-05-30T09:40:06.000Z</time>
      </trkpt>
      <trkpt lat="47.30605" lon="-2.34465">
        <ele>96</ele>
        <time>2021-05-30T09:40:07.000Z</time>
      </trkpt>
      <trkpt lat="47.30602" lon="-2.34473">
        <ele>96.400001525879</ele>
        <time>2021-05-30T09:40:08.000Z</time>
      </trkpt>
      <trkpt lat="47.30599" lon="-2.34481">
        <ele>96.800003051758</ele>
        <time>2021-05-30T09:40:09.000Z</time>
      </trkpt>
      <trkpt lat="47.3059" lon="-2.34504">
        <ele>96.800003051758</ele>
        <time>2021-05-30T09:40:12.000Z</time>
      </trkpt>
      <trkpt lat="47.30568" lon="-2.3455">
        <ele>96.800003051758</ele>
        <time>2021-05-30T09:40:18.000Z</time>
      </trkpt>
      <trkpt lat="47.30539" lon="-2.34596">
        <ele>96.800003051758</ele>
        <time>2021-05-30T09:40:24.000Z</time>
      </trkpt>
      <trkpt lat="47.30534" lon="-2.34602">
        <ele>96.400001525879</ele>
        <time>2021-05-30T09:40:25.000Z</time>
      </trkpt>
      <trkpt lat="47.3053" lon="-2.34609">
        <ele>95.800003051758</ele>
        <time>2021-05-30T09:40:26.000Z</time>
      </trkpt>
      <trkpt lat="47.30526" lon="-2.34615">
        <ele>95.400001525879</ele>
        <time>2021-05-30T09:40:27.000Z</time>
      </trkpt>
      <trkpt lat="47.30523" lon="-2.34622">
        <ele>95</ele>
        <time>2021-05-30T09:40:28.000Z</time>
      </trkpt>
      <trkpt lat="47.30519" lon="-2.34629">
        <ele>94.599998474121</ele>
        <time>2021-05-30T09:40:29.000Z</time>
      </trkpt>
      <trkpt lat="47.30516" lon="-2.34637">
        <ele>94.599998474121</ele>
        <time>2021-05-30T09:40:30.000Z</time>
      </trkpt>
      <trkpt lat="47.30494" lon="-2.34667">
        <ele>94.599998474121</ele>
        <time>2021-05-30T09:40:35.000Z</time>
      </trkpt>
      <trkpt lat="47.30488" lon="-2.34673">
        <ele>94.599998474121</ele>
        <time>2021-05-30T09:40:36.000Z</time>
      </trkpt>
      <trkpt lat="47.30448" lon="-2.34702">
        <ele>94.599998474121</ele>
        <time>2021-05-30T09:40:42.000Z</time>
      </trkpt>
      <trkpt lat="47.30442" lon="-2.34707">
        <ele>94.599998474121</ele>
        <time>2021-05-30T09:40:43.000Z</time>
      </trkpt>
      <trkpt lat="47.30427" lon="-2.34723">
        <ele>94.599998474121</ele>
        <time>2021-05-30T09:40:46.000Z</time>
      </trkpt>
      <trkpt lat="47.30422" lon="-2.34727">
        <ele>94.599998474121</ele>
        <time>2021-05-30T09:40:47.000Z</time>
      </trkpt>
      <trkpt lat="47.3038" lon="-2.34754">
        <ele>94.599998474121</ele>
        <time>2021-05-30T09:40:54.000Z</time>
      </trkpt>
      <trkpt lat="47.30354" lon="-2.34769">
        <ele>94.599998474121</ele>
        <time>2021-05-30T09:40:59.000Z</time>
      </trkpt>
      <trkpt lat="47.30349" lon="-2.34773">
        <ele>94.599998474121</ele>
        <time>2021-05-30T09:41:00.000Z</time>
      </trkpt>
      <trkpt lat="47.30337" lon="-2.34791">
        <ele>94.599998474121</ele>
        <time>2021-05-30T09:41:03.000Z</time>
      </trkpt>
      <trkpt lat="47.30325" lon="-2.34815">
        <ele>94.599998474121</ele>
        <time>2021-05-30T09:41:06.000Z</time>
      </trkpt>
      <trkpt lat="47.30314" lon="-2.34829">
        <ele>94.599998474121</ele>
        <time>2021-05-30T09:41:08.000Z</time>
      </trkpt>
      <trkpt lat="47.30299" lon="-2.34846">
        <ele>94.599998474121</ele>
        <time>2021-05-30T09:41:11.000Z</time>
      </trkpt>
      <trkpt lat="47.30289" lon="-2.34854">
        <ele>94.599998474121</ele>
        <time>2021-05-30T09:41:13.000Z</time>
      </trkpt>
      <trkpt lat="47.30275" lon="-2.34862">
        <ele>94.599998474121</ele>
        <time>2021-05-30T09:41:15.000Z</time>
      </trkpt>
      <trkpt lat="47.30263" lon="-2.34869">
        <ele>94.599998474121</ele>
        <time>2021-05-30T09:41:17.000Z</time>
      </trkpt>
      <trkpt lat="47.30231" lon="-2.34892">
        <ele>94.599998474121</ele>
        <time>2021-05-30T09:41:22.000Z</time>
      </trkpt>
      <trkpt lat="47.30224" lon="-2.34897">
        <ele>94.599998474121</ele>
        <time>2021-05-30T09:41:23.000Z</time>
      </trkpt>
      <trkpt lat="47.3021" lon="-2.34919">
        <ele>94.599998474121</ele>
        <time>2021-05-30T09:41:26.000Z</time>
      </trkpt>
      <trkpt lat="47.30205" lon="-2.34949">
        <ele>94.599998474121</ele>
        <time>2021-05-30T09:41:29.000Z</time>
      </trkpt>
      <trkpt lat="47.30206" lon="-2.3496">
        <ele>94.599998474121</ele>
        <time>2021-05-30T09:41:30.000Z</time>
      </trkpt>
      <trkpt lat="47.3021" lon="-2.35025">
        <ele>94.599998474121</ele>
        <time>2021-05-30T09:41:36.000Z</time>
      </trkpt>
      <trkpt lat="47.30211" lon="-2.35048">
        <ele>94.199996948242</ele>
        <time>2021-05-30T09:41:38.000Z</time>
      </trkpt>
      <trkpt lat="47.30211" lon="-2.35058">
        <ele>93.800003051758</ele>
        <time>2021-05-30T09:41:39.000Z</time>
      </trkpt>
      <trkpt lat="47.30211" lon="-2.35068">
        <ele>93.400001525879</ele>
        <time>2021-05-30T09:41:40.000Z</time>
      </trkpt>
      <trkpt lat="47.30211" lon="-2.35079">
        <ele>93</ele>
        <time>2021-05-30T09:41:41.000Z</time>
      </trkpt>
      <trkpt lat="47.30211" lon="-2.35088">
        <ele>92.599998474121</ele>
        <time>2021-05-30T09:41:42.000Z</time>
      </trkpt>
      <trkpt lat="47.3021" lon="-2.35143">
        <ele>92.599998474121</ele>
        <time>2021-05-30T09:41:48.000Z</time>
      </trkpt>
      <trkpt lat="47.30209" lon="-2.35161">
        <ele>92.199996948242</ele>
        <time>2021-05-30T09:41:50.000Z</time>
      </trkpt>
      <trkpt lat="47.30205" lon="-2.35167">
        <ele>91.800003051758</ele>
        <time>2021-05-30T09:41:51.000Z</time>
      </trkpt>
      <trkpt lat="47.30201" lon="-2.35169">
        <ele>91.199996948242</ele>
        <time>2021-05-30T09:41:52.000Z</time>
      </trkpt>
      <trkpt lat="47.30196" lon="-2.3517">
        <ele>90.800003051758</ele>
        <time>2021-05-30T09:41:53.000Z</time>
      </trkpt>
      <trkpt lat="47.30192" lon="-2.35172">
        <ele>90.400001525879</ele>
        <time>2021-05-30T09:41:54.000Z</time>
      </trkpt>
      <trkpt lat="47.30184" lon="-2.35175">
        <ele>90.400001525879</ele>
        <time>2021-05-30T09:41:56.000Z</time>
      </trkpt>
      <trkpt lat="47.3018" lon="-2.35176">
        <ele>90.400001525879</ele>
        <time>2021-05-30T09:41:57.000Z</time>
      </trkpt>
      <trkpt lat="47.3017" lon="-2.3518">
        <ele>90.400001525879</ele>
        <time>2021-05-30T09:41:59.000Z</time>
      </trkpt>
      <trkpt lat="47.30168" lon="-2.35182">
        <ele>90.400001525879</ele>
        <time>2021-05-30T09:42:00.000Z</time>
      </trkpt>
      <trkpt lat="47.30155" lon="-2.35193">
        <ele>90.400001525879</ele>
        <time>2021-05-30T09:42:05.000Z</time>
      </trkpt>
      <trkpt lat="47.30139" lon="-2.35193">
        <ele>90.400001525879</ele>
        <time>2021-05-30T09:42:11.000Z</time>
      </trkpt>
      <trkpt lat="47.30129" lon="-2.35196">
        <ele>90.400001525879</ele>
        <time>2021-05-30T09:42:13.000Z</time>
      </trkpt>
      <trkpt lat="47.30118" lon="-2.352">
        <ele>90.400001525879</ele>
        <time>2021-05-30T09:42:15.000Z</time>
      </trkpt>
      <trkpt lat="47.30107" lon="-2.35205">
        <ele>90.400001525879</ele>
        <time>2021-05-30T09:42:17.000Z</time>
      </trkpt>
      <trkpt lat="47.30089" lon="-2.35213">
        <ele>90.400001525879</ele>
        <time>2021-05-30T09:42:20.000Z</time>
      </trkpt>
      <trkpt lat="47.30062" lon="-2.35226">
        <ele>90.400001525879</ele>
        <time>2021-05-30T09:42:25.000Z</time>
      </trkpt>
      <trkpt lat="47.30031" lon="-2.35242">
        <ele>90.400001525879</ele>
        <time>2021-05-30T09:42:31.000Z</time>
      </trkpt>
      <trkpt lat="47.30028" lon="-2.35245">
        <ele>90</ele>
        <time>2021-05-30T09:42:33.000Z</time>
      </trkpt>
      <trkpt lat="47.30026" lon="-2.35245">
        <ele>89.599998474121</ele>
        <time>2021-05-30T09:42:34.000Z</time>
      </trkpt>
      <trkpt lat="47.30025" lon="-2.35245">
        <ele>89.199996948242</ele>
        <time>2021-05-30T09:42:35.000Z</time>
      </trkpt>
      <trkpt lat="47.30022" lon="-2.35246">
        <ele>88.800003051758</ele>
        <time>2021-05-30T09:42:36.000Z</time>
      </trkpt>
      <trkpt lat="47.30019" lon="-2.35248">
        <ele>88.400001525879</ele>
        <time>2021-05-30T09:42:37.000Z</time>
      </trkpt>
      <trkpt lat="47.30013" lon="-2.35253">
        <ele>88.400001525879</ele>
        <time>2021-05-30T09:42:39.000Z</time>
      </trkpt>
      <trkpt lat="47.29993" lon="-2.35267">
        <ele>88.400001525879</ele>
        <time>2021-05-30T09:42:45.000Z</time>
      </trkpt>
      <trkpt lat="47.29985" lon="-2.35277">
        <ele>88.400001525879</ele>
        <time>2021-05-30T09:42:50.000Z</time>
      </trkpt>
      <trkpt lat="47.29985" lon="-2.35277">
        <ele>88.400001525879</ele>
        <time>2021-05-30T09:42:51.000Z</time>
      </trkpt>
      <trkpt lat="47.29983" lon="-2.35279">
        <ele>88.400001525879</ele>
        <time>2021-05-30T09:44:44.000Z</time>
      </trkpt>
      <trkpt lat="47.2998" lon="-2.35281">
        <ele>88.400001525879</ele>
        <time>2021-05-30T09:44:46.000Z</time>
      </trkpt>
      <trkpt lat="47.29972" lon="-2.35294">
        <ele>88.400001525879</ele>
        <time>2021-05-30T09:44:50.000Z</time>
      </trkpt>
      <trkpt lat="47.2996" lon="-2.3531">
        <ele>88.400001525879</ele>
        <time>2021-05-30T09:44:54.000Z</time>
      </trkpt>
      <trkpt lat="47.29956" lon="-2.35314">
        <ele>88.400001525879</ele>
        <time>2021-05-30T09:44:55.000Z</time>
      </trkpt>
      <trkpt lat="47.29925" lon="-2.35355">
        <ele>88.400001525879</ele>
        <time>2021-05-30T09:45:04.000Z</time>
      </trkpt>
      <trkpt lat="47.29893" lon="-2.35392">
        <ele>88.400001525879</ele>
        <time>2021-05-30T09:45:12.000Z</time>
      </trkpt>
      <trkpt lat="47.29864" lon="-2.35421">
        <ele>88.400001525879</ele>
        <time>2021-05-30T09:45:19.000Z</time>
      </trkpt>
      <trkpt lat="47.29842" lon="-2.35444">
        <ele>88.800003051758</ele>
        <time>2021-05-30T09:45:24.000Z</time>
      </trkpt>
      <trkpt lat="47.29838" lon="-2.35448">
        <ele>89.199996948242</ele>
        <time>2021-05-30T09:45:25.000Z</time>
      </trkpt>
      <trkpt lat="47.29835" lon="-2.35453">
        <ele>89.599998474121</ele>
        <time>2021-05-30T09:45:26.000Z</time>
      </trkpt>
      <trkpt lat="47.29832" lon="-2.35458">
        <ele>90</ele>
        <time>2021-05-30T09:45:27.000Z</time>
      </trkpt>
      <trkpt lat="47.29829" lon="-2.35464">
        <ele>90.400001525879</ele>
        <time>2021-05-30T09:45:28.000Z</time>
      </trkpt>
      <trkpt lat="47.29826" lon="-2.35478">
        <ele>90.400001525879</ele>
        <time>2021-05-30T09:45:30.000Z</time>
      </trkpt>
      <trkpt lat="47.29829" lon="-2.35503">
        <ele>90.400001525879</ele>
        <time>2021-05-30T09:45:34.000Z</time>
      </trkpt>
      <trkpt lat="47.29832" lon="-2.35509">
        <ele>90.400001525879</ele>
        <time>2021-05-30T09:45:35.000Z</time>
      </trkpt>
      <trkpt lat="47.29848" lon="-2.35556">
        <ele>90.400001525879</ele>
        <time>2021-05-30T09:45:43.000Z</time>
      </trkpt>
      <trkpt lat="47.29856" lon="-2.35579">
        <ele>90.800003051758</ele>
        <time>2021-05-30T09:45:46.000Z</time>
      </trkpt>
      <trkpt lat="47.29858" lon="-2.35587">
        <ele>91.199996948242</ele>
        <time>2021-05-30T09:45:47.000Z</time>
      </trkpt>
      <trkpt lat="47.2986" lon="-2.35594">
        <ele>91.599998474121</ele>
        <time>2021-05-30T09:45:48.000Z</time>
      </trkpt>
      <trkpt lat="47.29862" lon="-2.35602">
        <ele>92.199996948242</ele>
        <time>2021-05-30T09:45:49.000Z</time>
      </trkpt>
      <trkpt lat="47.29865" lon="-2.35609">
        <ele>92.599998474121</ele>
        <time>2021-05-30T09:45:50.000Z</time>
      </trkpt>
      <trkpt lat="47.29872" lon="-2.35638">
        <ele>92.599998474121</ele>
        <time>2021-05-30T09:45:54.000Z</time>
      </trkpt>
      <trkpt lat="47.29882" lon="-2.35697">
        <ele>92.599998474121</ele>
        <time>2021-05-30T09:46:02.000Z</time>
      </trkpt>
      <trkpt lat="47.29887" lon="-2.35717">
        <ele>93</ele>
        <time>2021-05-30T09:46:05.000Z</time>
      </trkpt>
      <trkpt lat="47.29888" lon="-2.35724">
        <ele>93.400001525879</ele>
        <time>2021-05-30T09:46:06.000Z</time>
      </trkpt>
      <trkpt lat="47.2989" lon="-2.3573">
        <ele>93.800003051758</ele>
        <time>2021-05-30T09:46:07.000Z</time>
      </trkpt>
      <trkpt lat="47.29892" lon="-2.35736">
        <ele>94.199996948242</ele>
        <time>2021-05-30T09:46:08.000Z</time>
      </trkpt>
      <trkpt lat="47.29893" lon="-2.35742">
        <ele>94.599998474121</ele>
        <time>2021-05-30T09:46:09.000Z</time>
      </trkpt>
      <trkpt lat="47.29895" lon="-2.35751">
        <ele>94.599998474121</ele>
        <time>2021-05-30T09:46:12.000Z</time>
      </trkpt>
      <trkpt lat="47.29894" lon="-2.35753">
        <ele>94.599998474121</ele>
        <time>2021-05-30T09:46:15.000Z</time>
      </trkpt>
      <trkpt lat="47.29894" lon="-2.35756">
        <ele>94.599998474121</ele>
        <time>2021-05-30T09:46:17.000Z</time>
      </trkpt>
      <trkpt lat="47.29893" lon="-2.35759">
        <ele>94.599998474121</ele>
        <time>2021-05-30T09:46:18.000Z</time>
      </trkpt>
      <trkpt lat="47.29886" lon="-2.35764">
        <ele>94.599998474121</ele>
        <time>2021-05-30T09:46:21.000Z</time>
      </trkpt>
      <trkpt lat="47.29869" lon="-2.35772">
        <ele>94.599998474121</ele>
        <time>2021-05-30T09:46:27.000Z</time>
      </trkpt>
      <trkpt lat="47.29845" lon="-2.35782">
        <ele>94.599998474121</ele>
        <time>2021-05-30T09:46:34.000Z</time>
      </trkpt>
      <trkpt lat="47.29814" lon="-2.35792">
        <ele>94.599998474121</ele>
        <time>2021-05-30T09:46:42.000Z</time>
      </trkpt>
      <trkpt lat="47.29776" lon="-2.35805">
        <ele>94.599998474121</ele>
        <time>2021-05-30T09:46:51.000Z</time>
      </trkpt>
      <trkpt lat="47.29738" lon="-2.3582">
        <ele>94.599998474121</ele>
        <time>2021-05-30T09:46:59.000Z</time>
      </trkpt>
      <trkpt lat="47.29705" lon="-2.35839">
        <ele>94.599998474121</ele>
        <time>2021-05-30T09:47:05.000Z</time>
      </trkpt>
      <trkpt lat="47.2969" lon="-2.35846">
        <ele>94.599998474121</ele>
        <time>2021-05-30T09:47:08.000Z</time>
      </trkpt>
      <trkpt lat="47.29682" lon="-2.35848">
        <ele>94.599998474121</ele>
        <time>2021-05-30T09:47:10.000Z</time>
      </trkpt>
      <trkpt lat="47.29666" lon="-2.3586">
        <ele>94.599998474121</ele>
        <time>2021-05-30T09:47:15.000Z</time>
      </trkpt>
      <trkpt lat="47.29659" lon="-2.35867">
        <ele>94.599998474121</ele>
        <time>2021-05-30T09:47:17.000Z</time>
      </trkpt>
      <trkpt lat="47.29645" lon="-2.35874">
        <ele>94.599998474121</ele>
        <time>2021-05-30T09:47:20.000Z</time>
      </trkpt>
      <trkpt lat="47.29617" lon="-2.35888">
        <ele>94.199996948242</ele>
        <time>2021-05-30T09:47:26.000Z</time>
      </trkpt>
      <trkpt lat="47.29613" lon="-2.3589">
        <ele>93.800003051758</ele>
        <time>2021-05-30T09:47:27.000Z</time>
      </trkpt>
      <trkpt lat="47.29609" lon="-2.35893">
        <ele>93.400001525879</ele>
        <time>2021-05-30T09:47:28.000Z</time>
      </trkpt>
      <trkpt lat="47.29604" lon="-2.35895">
        <ele>93</ele>
        <time>2021-05-30T09:47:29.000Z</time>
      </trkpt>
      <trkpt lat="47.296" lon="-2.35897">
        <ele>92.599998474121</ele>
        <time>2021-05-30T09:47:30.000Z</time>
      </trkpt>
      <trkpt lat="47.29583" lon="-2.35907">
        <ele>92.599998474121</ele>
        <time>2021-05-30T09:47:34.000Z</time>
      </trkpt>
      <trkpt lat="47.29574" lon="-2.35912">
        <ele>92.599998474121</ele>
        <time>2021-05-30T09:47:36.000Z</time>
      </trkpt>
      <trkpt lat="47.29538" lon="-2.35933">
        <ele>92.599998474121</ele>
        <time>2021-05-30T09:47:44.000Z</time>
      </trkpt>
      <trkpt lat="47.29518" lon="-2.35944">
        <ele>92.599998474121</ele>
        <time>2021-05-30T09:47:50.000Z</time>
      </trkpt>
      <trkpt lat="47.29509" lon="-2.35942">
        <ele>92.599998474121</ele>
        <time>2021-05-30T09:47:55.000Z</time>
      </trkpt>
      <trkpt lat="47.29504" lon="-2.35927">
        <ele>92.599998474121</ele>
        <time>2021-05-30T09:47:59.000Z</time>
      </trkpt>
      <trkpt lat="47.29496" lon="-2.35902">
        <ele>92.599998474121</ele>
        <time>2021-05-30T09:48:05.000Z</time>
      </trkpt>
      <trkpt lat="47.29489" lon="-2.35899">
        <ele>92.599998474121</ele>
        <time>2021-05-30T09:48:07.000Z</time>
      </trkpt>
      <trkpt lat="47.29486" lon="-2.35898">
        <ele>92.599998474121</ele>
        <time>2021-05-30T09:48:08.000Z</time>
      </trkpt>
      <trkpt lat="47.29464" lon="-2.359">
        <ele>92.599998474121</ele>
        <time>2021-05-30T09:48:14.000Z</time>
      </trkpt>
      <trkpt lat="47.29458" lon="-2.35902">
        <ele>92.599998474121</ele>
        <time>2021-05-30T09:48:17.000Z</time>
      </trkpt>
      <trkpt lat="47.29455" lon="-2.35902">
        <ele>92.599998474121</ele>
        <time>2021-05-30T09:48:18.000Z</time>
      </trkpt>
      <trkpt lat="47.2945" lon="-2.35913">
        <ele>92.599998474121</ele>
        <time>2021-05-30T09:48:21.000Z</time>
      </trkpt>
      <trkpt lat="47.2944" lon="-2.35915">
        <ele>92.599998474121</ele>
        <time>2021-05-30T09:48:24.000Z</time>
      </trkpt>
      <trkpt lat="47.29431" lon="-2.359">
        <ele>92.599998474121</ele>
        <time>2021-05-30T09:48:27.000Z</time>
      </trkpt>
      <trkpt lat="47.29427" lon="-2.35895">
        <ele>92.599998474121</ele>
        <time>2021-05-30T09:48:28.000Z</time>
      </trkpt>
      <trkpt lat="47.29416" lon="-2.35881">
        <ele>92.599998474121</ele>
        <time>2021-05-30T09:48:31.000Z</time>
      </trkpt>
      <trkpt lat="47.29387" lon="-2.35845">
        <ele>92.599998474121</ele>
        <time>2021-05-30T09:48:39.000Z</time>
      </trkpt>
      <trkpt lat="47.29383" lon="-2.35841">
        <ele>92.599998474121</ele>
        <time>2021-05-30T09:48:40.000Z</time>
      </trkpt>
      <trkpt lat="47.29365" lon="-2.35824">
        <ele>92.599998474121</ele>
        <time>2021-05-30T09:48:44.000Z</time>
      </trkpt>
      <trkpt lat="47.29341" lon="-2.35804">
        <ele>92.599998474121</ele>
        <time>2021-05-30T09:48:49.000Z</time>
      </trkpt>
      <trkpt lat="47.29298" lon="-2.35768">
        <ele>92.599998474121</ele>
        <time>2021-05-30T09:48:58.000Z</time>
      </trkpt>
      <trkpt lat="47.29264" lon="-2.35736">
        <ele>92.599998474121</ele>
        <time>2021-05-30T09:49:06.000Z</time>
      </trkpt>
      <trkpt lat="47.2926" lon="-2.35733">
        <ele>92.599998474121</ele>
        <time>2021-05-30T09:49:07.000Z</time>
      </trkpt>
      <trkpt lat="47.29253" lon="-2.35733">
        <ele>92.599998474121</ele>
        <time>2021-05-30T09:49:09.000Z</time>
      </trkpt>
      <trkpt lat="47.29244" lon="-2.35752">
        <ele>92.599998474121</ele>
        <time>2021-05-30T09:49:12.000Z</time>
      </trkpt>
      <trkpt lat="47.29228" lon="-2.35773">
        <ele>92.599998474121</ele>
        <time>2021-05-30T09:49:15.000Z</time>
      </trkpt>
      <trkpt lat="47.29222" lon="-2.35779">
        <ele>92.599998474121</ele>
        <time>2021-05-30T09:49:16.000Z</time>
      </trkpt>
      <trkpt lat="47.29184" lon="-2.35812">
        <ele>92.599998474121</ele>
        <time>2021-05-30T09:49:22.000Z</time>
      </trkpt>
      <trkpt lat="47.29134" lon="-2.35854">
        <ele>92.599998474121</ele>
        <time>2021-05-30T09:49:30.000Z</time>
      </trkpt>
      <trkpt lat="47.29093" lon="-2.35902">
        <ele>92.599998474121</ele>
        <time>2021-05-30T09:49:38.000Z</time>
      </trkpt>
      <trkpt lat="47.29057" lon="-2.35941">
        <ele>92.599998474121</ele>
        <time>2021-05-30T09:49:45.000Z</time>
      </trkpt>
      <trkpt lat="47.2902" lon="-2.35981">
        <ele>92.599998474121</ele>
        <time>2021-05-30T09:49:52.000Z</time>
      </trkpt>
      <trkpt lat="47.28971" lon="-2.36028">
        <ele>92.599998474121</ele>
        <time>2021-05-30T09:50:01.000Z</time>
      </trkpt>
      <trkpt lat="47.28943" lon="-2.36051">
        <ele>92.599998474121</ele>
        <time>2021-05-30T09:50:06.000Z</time>
      </trkpt>
      <trkpt lat="47.28905" lon="-2.3608">
        <ele>92.599998474121</ele>
        <time>2021-05-30T09:50:13.000Z</time>
      </trkpt>
      <trkpt lat="47.28871" lon="-2.36113">
        <ele>92.599998474121</ele>
        <time>2021-05-30T09:50:20.000Z</time>
      </trkpt>
      <trkpt lat="47.28836" lon="-2.36151">
        <ele>92.599998474121</ele>
        <time>2021-05-30T09:50:27.000Z</time>
      </trkpt>
      <trkpt lat="47.28813" lon="-2.36181">
        <ele>92.599998474121</ele>
        <time>2021-05-30T09:50:32.000Z</time>
      </trkpt>
      <trkpt lat="47.28808" lon="-2.36185">
        <ele>92.599998474121</ele>
        <time>2021-05-30T09:50:33.000Z</time>
      </trkpt>
      <trkpt lat="47.28783" lon="-2.362">
        <ele>92.599998474121</ele>
        <time>2021-05-30T09:50:38.000Z</time>
      </trkpt>
      <trkpt lat="47.28755" lon="-2.3622">
        <ele>92.599998474121</ele>
        <time>2021-05-30T09:50:45.000Z</time>
      </trkpt>
      <trkpt lat="47.28737" lon="-2.36231">
        <ele>92.599998474121</ele>
        <time>2021-05-30T09:50:51.000Z</time>
      </trkpt>
      <trkpt lat="47.28723" lon="-2.36247">
        <ele>92.599998474121</ele>
        <time>2021-05-30T09:50:56.000Z</time>
      </trkpt>
      <trkpt lat="47.28709" lon="-2.36269">
        <ele>92.599998474121</ele>
        <time>2021-05-30T09:51:03.000Z</time>
      </trkpt>
      <trkpt lat="47.28706" lon="-2.36272">
        <ele>93</ele>
        <time>2021-05-30T09:51:04.000Z</time>
      </trkpt>
      <trkpt lat="47.28703" lon="-2.36275">
        <ele>93.400001525879</ele>
        <time>2021-05-30T09:51:05.000Z</time>
      </trkpt>
      <trkpt lat="47.287" lon="-2.36277">
        <ele>93.800003051758</ele>
        <time>2021-05-30T09:51:06.000Z</time>
      </trkpt>
      <trkpt lat="47.28697" lon="-2.36279">
        <ele>94.199996948242</ele>
        <time>2021-05-30T09:51:07.000Z</time>
      </trkpt>
      <trkpt lat="47.28693" lon="-2.36281">
        <ele>94.800003051758</ele>
        <time>2021-05-30T09:51:08.000Z</time>
      </trkpt>
      <trkpt lat="47.28686" lon="-2.36282">
        <ele>95.199996948242</ele>
        <time>2021-05-30T09:51:10.000Z</time>
      </trkpt>
      <trkpt lat="47.28681" lon="-2.3628">
        <ele>95.599998474121</ele>
        <time>2021-05-30T09:51:11.000Z</time>
      </trkpt>
      <trkpt lat="47.28678" lon="-2.36277">
        <ele>96</ele>
        <time>2021-05-30T09:51:12.000Z</time>
      </trkpt>
      <trkpt lat="47.28674" lon="-2.36273">
        <ele>96.400001525879</ele>
        <time>2021-05-30T09:51:13.000Z</time>
      </trkpt>
      <trkpt lat="47.28671" lon="-2.36267">
        <ele>96.800003051758</ele>
        <time>2021-05-30T09:51:14.000Z</time>
      </trkpt>
      <trkpt lat="47.28668" lon="-2.36257">
        <ele>96.800003051758</ele>
        <time>2021-05-30T09:51:16.000Z</time>
      </trkpt>
      <trkpt lat="47.28669" lon="-2.36243">
        <ele>97.199996948242</ele>
        <time>2021-05-30T09:51:19.000Z</time>
      </trkpt>
      <trkpt lat="47.2867" lon="-2.36237">
        <ele>97.599998474121</ele>
        <time>2021-05-30T09:51:20.000Z</time>
      </trkpt>
      <trkpt lat="47.28671" lon="-2.36232">
        <ele>98</ele>
        <time>2021-05-30T09:51:21.000Z</time>
      </trkpt>
      <trkpt lat="47.28671" lon="-2.36227">
        <ele>98.400001525879</ele>
        <time>2021-05-30T09:51:22.000Z</time>
      </trkpt>
      <trkpt lat="47.28671" lon="-2.36222">
        <ele>98.800003051758</ele>
        <time>2021-05-30T09:51:23.000Z</time>
      </trkpt>
      <trkpt lat="47.28667" lon="-2.36209">
        <ele>98.800003051758</ele>
        <time>2021-05-30T09:51:26.000Z</time>
      </trkpt>
      <trkpt lat="47.28655" lon="-2.36183">
        <ele>98.800003051758</ele>
        <time>2021-05-30T09:51:31.000Z</time>
      </trkpt>
      <trkpt lat="47.28645" lon="-2.36174">
        <ele>99.199996948242</ele>
        <time>2021-05-30T09:51:34.000Z</time>
      </trkpt>
      <trkpt lat="47.28642" lon="-2.3617">
        <ele>99.599998474121</ele>
        <time>2021-05-30T09:51:35.000Z</time>
      </trkpt>
      <trkpt lat="47.28639" lon="-2.36166">
        <ele>100</ele>
        <time>2021-05-30T09:51:36.000Z</time>
      </trkpt>
      <trkpt lat="47.28637" lon="-2.36163">
        <ele>100.40000152588</ele>
        <time>2021-05-30T09:51:37.000Z</time>
      </trkpt>
      <trkpt lat="47.28634" lon="-2.3616">
        <ele>101</ele>
        <time>2021-05-30T09:51:38.000Z</time>
      </trkpt>
      <trkpt lat="47.28627" lon="-2.36149">
        <ele>101</ele>
        <time>2021-05-30T09:51:40.000Z</time>
      </trkpt>
      <trkpt lat="47.28624" lon="-2.36149">
        <ele>101</ele>
        <time>2021-05-30T09:51:41.000Z</time>
      </trkpt>
      <trkpt lat="47.28614" lon="-2.36153">
        <ele>101</ele>
        <time>2021-05-30T09:51:44.000Z</time>
      </trkpt>
      <trkpt lat="47.2861" lon="-2.36156">
        <ele>101</ele>
        <time>2021-05-30T09:51:45.000Z</time>
      </trkpt>
      <trkpt lat="47.28598" lon="-2.36156">
        <ele>101.40000152588</ele>
        <time>2021-05-30T09:51:48.000Z</time>
      </trkpt>
      <trkpt lat="47.28594" lon="-2.36155">
        <ele>101.80000305176</ele>
        <time>2021-05-30T09:51:49.000Z</time>
      </trkpt>
      <trkpt lat="47.2859" lon="-2.36154">
        <ele>102.19999694824</ele>
        <time>2021-05-30T09:51:50.000Z</time>
      </trkpt>
      <trkpt lat="47.28586" lon="-2.36153">
        <ele>102.59999847412</ele>
        <time>2021-05-30T09:51:51.000Z</time>
      </trkpt>
      <trkpt lat="47.28583" lon="-2.36151">
        <ele>103</ele>
        <time>2021-05-30T09:51:52.000Z</time>
      </trkpt>
      <trkpt lat="47.28575" lon="-2.36149">
        <ele>103</ele>
        <time>2021-05-30T09:51:54.000Z</time>
      </trkpt>
      <trkpt lat="47.28559" lon="-2.36152">
        <ele>103</ele>
        <time>2021-05-30T09:51:58.000Z</time>
      </trkpt>
      <trkpt lat="47.28555" lon="-2.36153">
        <ele>102.40000152588</ele>
        <time>2021-05-30T09:51:59.000Z</time>
      </trkpt>
      <trkpt lat="47.28552" lon="-2.36151">
        <ele>102</ele>
        <time>2021-05-30T09:52:00.000Z</time>
      </trkpt>
      <trkpt lat="47.28548" lon="-2.36147">
        <ele>101.40000152588</ele>
        <time>2021-05-30T09:52:01.000Z</time>
      </trkpt>
      <trkpt lat="47.28544" lon="-2.36143">
        <ele>100.80000305176</ele>
        <time>2021-05-30T09:52:02.000Z</time>
      </trkpt>
      <trkpt lat="47.28542" lon="-2.36137">
        <ele>100.40000152588</ele>
        <time>2021-05-30T09:52:03.000Z</time>
      </trkpt>
      <trkpt lat="47.28537" lon="-2.3612">
        <ele>100.40000152588</ele>
        <time>2021-05-30T09:52:05.000Z</time>
      </trkpt>
      <trkpt lat="47.28535" lon="-2.36113">
        <ele>100.40000152588</ele>
        <time>2021-05-30T09:52:06.000Z</time>
      </trkpt>
      <trkpt lat="47.28529" lon="-2.36082">
        <ele>100.40000152588</ele>
        <time>2021-05-30T09:52:11.000Z</time>
      </trkpt>
      <trkpt lat="47.28513" lon="-2.36051">
        <ele>100.40000152588</ele>
        <time>2021-05-30T09:52:17.000Z</time>
      </trkpt>
      <trkpt lat="47.28502" lon="-2.3604">
        <ele>100.40000152588</ele>
        <time>2021-05-30T09:52:20.000Z</time>
      </trkpt>
      <trkpt lat="47.28492" lon="-2.36036">
        <ele>100.40000152588</ele>
        <time>2021-05-30T09:52:22.000Z</time>
      </trkpt>
      <trkpt lat="47.28482" lon="-2.36031">
        <ele>100.40000152588</ele>
        <time>2021-05-30T09:52:24.000Z</time>
      </trkpt>
      <trkpt lat="47.2847" lon="-2.36016">
        <ele>100.40000152588</ele>
        <time>2021-05-30T09:52:27.000Z</time>
      </trkpt>
      <trkpt lat="47.28463" lon="-2.36004">
        <ele>100.40000152588</ele>
        <time>2021-05-30T09:52:29.000Z</time>
      </trkpt>
      <trkpt lat="47.28459" lon="-2.35998">
        <ele>100.40000152588</ele>
        <time>2021-05-30T09:52:30.000Z</time>
      </trkpt>
      <trkpt lat="47.28454" lon="-2.35994">
        <ele>100.40000152588</ele>
        <time>2021-05-30T09:52:31.000Z</time>
      </trkpt>
      <trkpt lat="47.2844" lon="-2.35995">
        <ele>100.40000152588</ele>
        <time>2021-05-30T09:52:34.000Z</time>
      </trkpt>
      <trkpt lat="47.28426" lon="-2.36006">
        <ele>100.40000152588</ele>
        <time>2021-05-30T09:52:37.000Z</time>
      </trkpt>
      <trkpt lat="47.28421" lon="-2.36011">
        <ele>100.40000152588</ele>
        <time>2021-05-30T09:52:38.000Z</time>
      </trkpt>
      <trkpt lat="47.28405" lon="-2.36023">
        <ele>100.40000152588</ele>
        <time>2021-05-30T09:52:42.000Z</time>
      </trkpt>
      <trkpt lat="47.28395" lon="-2.36022">
        <ele>100</ele>
        <time>2021-05-30T09:52:44.000Z</time>
      </trkpt>
      <trkpt lat="47.2839" lon="-2.36022">
        <ele>99.599998474121</ele>
        <time>2021-05-30T09:52:45.000Z</time>
      </trkpt>
      <trkpt lat="47.28384" lon="-2.36022">
        <ele>99.199996948242</ele>
        <time>2021-05-30T09:52:46.000Z</time>
      </trkpt>
      <trkpt lat="47.28378" lon="-2.36023">
        <ele>98.800003051758</ele>
        <time>2021-05-30T09:52:47.000Z</time>
      </trkpt>
      <trkpt lat="47.2837" lon="-2.36023">
        <ele>98.199996948242</ele>
        <time>2021-05-30T09:52:48.000Z</time>
      </trkpt>
      <trkpt lat="47.28362" lon="-2.36024">
        <ele>97.599998474121</ele>
        <time>2021-05-30T09:52:49.000Z</time>
      </trkpt>
      <trkpt lat="47.28354" lon="-2.36028">
        <ele>97</ele>
        <time>2021-05-30T09:52:50.000Z</time>
      </trkpt>
      <trkpt lat="47.28346" lon="-2.36034">
        <ele>96.400001525879</ele>
        <time>2021-05-30T09:52:51.000Z</time>
      </trkpt>
      <trkpt lat="47.28339" lon="-2.36041">
        <ele>95.599998474121</ele>
        <time>2021-05-30T09:52:52.000Z</time>
      </trkpt>
      <trkpt lat="47.28333" lon="-2.36046">
        <ele>95</ele>
        <time>2021-05-30T09:52:53.000Z</time>
      </trkpt>
      <trkpt lat="47.28327" lon="-2.36048">
        <ele>93.800003051758</ele>
        <time>2021-05-30T09:52:54.000Z</time>
      </trkpt>
      <trkpt lat="47.28322" lon="-2.36049">
        <ele>93.199996948242</ele>
        <time>2021-05-30T09:52:55.000Z</time>
      </trkpt>
      <trkpt lat="47.28316" lon="-2.3605">
        <ele>92.599998474121</ele>
        <time>2021-05-30T09:52:56.000Z</time>
      </trkpt>
      <trkpt lat="47.28309" lon="-2.3605">
        <ele>92</ele>
        <time>2021-05-30T09:52:57.000Z</time>
      </trkpt>
      <trkpt lat="47.28303" lon="-2.3605">
        <ele>91.400001525879</ele>
        <time>2021-05-30T09:52:58.000Z</time>
      </trkpt>
      <trkpt lat="47.28297" lon="-2.36048">
        <ele>91.400001525879</ele>
        <time>2021-05-30T09:52:59.000Z</time>
      </trkpt>
      <trkpt lat="47.28289" lon="-2.36041">
        <ele>90.800003051758</ele>
        <time>2021-05-30T09:53:01.000Z</time>
      </trkpt>
      <trkpt lat="47.28285" lon="-2.36036">
        <ele>90.199996948242</ele>
        <time>2021-05-30T09:53:02.000Z</time>
      </trkpt>
      <trkpt lat="47.28282" lon="-2.3603">
        <ele>89.400001525879</ele>
        <time>2021-05-30T09:53:03.000Z</time>
      </trkpt>
      <trkpt lat="47.2828" lon="-2.36023">
        <ele>88.599998474121</ele>
        <time>2021-05-30T09:53:04.000Z</time>
      </trkpt>
      <trkpt lat="47.2828" lon="-2.36016">
        <ele>87.800003051758</ele>
        <time>2021-05-30T09:53:05.000Z</time>
      </trkpt>
      <trkpt lat="47.28281" lon="-2.36008">
        <ele>86.800003051758</ele>
        <time>2021-05-30T09:53:06.000Z</time>
      </trkpt>
      <trkpt lat="47.28282" lon="-2.36">
        <ele>86</ele>
        <time>2021-05-30T09:53:07.000Z</time>
      </trkpt>
      <trkpt lat="47.28282" lon="-2.35991">
        <ele>85</ele>
        <time>2021-05-30T09:53:08.000Z</time>
      </trkpt>
      <trkpt lat="47.28283" lon="-2.35984">
        <ele>84.400001525879</ele>
        <time>2021-05-30T09:53:09.000Z</time>
      </trkpt>
      <trkpt lat="47.28283" lon="-2.35978">
        <ele>83.800003051758</ele>
        <time>2021-05-30T09:53:10.000Z</time>
      </trkpt>
      <trkpt lat="47.28282" lon="-2.35972">
        <ele>83.199996948242</ele>
        <time>2021-05-30T09:53:11.000Z</time>
      </trkpt>
      <trkpt lat="47.28281" lon="-2.35967">
        <ele>82.599998474121</ele>
        <time>2021-05-30T09:53:12.000Z</time>
      </trkpt>
      <trkpt lat="47.28279" lon="-2.35961">
        <ele>82</ele>
        <time>2021-05-30T09:53:13.000Z</time>
      </trkpt>
      <trkpt lat="47.28277" lon="-2.35955">
        <ele>82</ele>
        <time>2021-05-30T09:53:14.000Z</time>
      </trkpt>
      <trkpt lat="47.28271" lon="-2.35939">
        <ele>82</ele>
        <time>2021-05-30T09:53:17.000Z</time>
      </trkpt>
      <trkpt lat="47.28266" lon="-2.35931">
        <ele>83</ele>
        <time>2021-05-30T09:53:19.000Z</time>
      </trkpt>
      <trkpt lat="47.28264" lon="-2.35927">
        <ele>83.400001525879</ele>
        <time>2021-05-30T09:53:20.000Z</time>
      </trkpt>
      <trkpt lat="47.28263" lon="-2.35921">
        <ele>83.800003051758</ele>
        <time>2021-05-30T09:53:21.000Z</time>
      </trkpt>
      <trkpt lat="47.2826" lon="-2.35916">
        <ele>84.199996948242</ele>
        <time>2021-05-30T09:53:22.000Z</time>
      </trkpt>
      <trkpt lat="47.28255" lon="-2.35915">
        <ele>84.199996948242</ele>
        <time>2021-05-30T09:53:23.000Z</time>
      </trkpt>
      <trkpt lat="47.28246" lon="-2.35916">
        <ele>84.199996948242</ele>
        <time>2021-05-30T09:53:25.000Z</time>
      </trkpt>
      <trkpt lat="47.28236" lon="-2.35915">
        <ele>84.199996948242</ele>
        <time>2021-05-30T09:53:27.000Z</time>
      </trkpt>
      <trkpt lat="47.2822" lon="-2.35913">
        <ele>84.199996948242</ele>
        <time>2021-05-30T09:53:30.000Z</time>
      </trkpt>
      <trkpt lat="47.28204" lon="-2.35911">
        <ele>84.199996948242</ele>
        <time>2021-05-30T09:53:33.000Z</time>
      </trkpt>
      <trkpt lat="47.28195" lon="-2.35911">
        <ele>84.199996948242</ele>
        <time>2021-05-30T09:53:35.000Z</time>
      </trkpt>
      <trkpt lat="47.28191" lon="-2.35909">
        <ele>83.800003051758</ele>
        <time>2021-05-30T09:53:36.000Z</time>
      </trkpt>
      <trkpt lat="47.28189" lon="-2.35904">
        <ele>83.400001525879</ele>
        <time>2021-05-30T09:53:37.000Z</time>
      </trkpt>
      <trkpt lat="47.28187" lon="-2.35897">
        <ele>82.800003051758</ele>
        <time>2021-05-30T09:53:38.000Z</time>
      </trkpt>
      <trkpt lat="47.28185" lon="-2.3589">
        <ele>82.400001525879</ele>
        <time>2021-05-30T09:53:39.000Z</time>
      </trkpt>
      <trkpt lat="47.28184" lon="-2.35883">
        <ele>82</ele>
        <time>2021-05-30T09:53:40.000Z</time>
      </trkpt>
      <trkpt lat="47.28182" lon="-2.3586">
        <ele>82</ele>
        <time>2021-05-30T09:53:44.000Z</time>
      </trkpt>
      <trkpt lat="47.28181" lon="-2.35857">
        <ele>82</ele>
        <time>2021-05-30T09:53:45.000Z</time>
      </trkpt>
      <trkpt lat="47.28178" lon="-2.35849">
        <ele>82</ele>
        <time>2021-05-30T09:53:48.000Z</time>
      </trkpt>
      <trkpt lat="47.28175" lon="-2.35846">
        <ele>82</ele>
        <time>2021-05-30T09:53:50.000Z</time>
      </trkpt>
      <trkpt lat="47.28165" lon="-2.35837">
        <ele>82</ele>
        <time>2021-05-30T09:53:53.000Z</time>
      </trkpt>
      <trkpt lat="47.28156" lon="-2.35817">
        <ele>82</ele>
        <time>2021-05-30T09:53:56.000Z</time>
      </trkpt>
      <trkpt lat="47.28154" lon="-2.35809">
        <ele>82</ele>
        <time>2021-05-30T09:53:57.000Z</time>
      </trkpt>
      <trkpt lat="47.28144" lon="-2.35769">
        <ele>82</ele>
        <time>2021-05-30T09:54:01.000Z</time>
      </trkpt>
      <trkpt lat="47.28132" lon="-2.35753">
        <ele>82</ele>
        <time>2021-05-30T09:54:04.000Z</time>
      </trkpt>
      <trkpt lat="47.28109" lon="-2.35764">
        <ele>82</ele>
        <time>2021-05-30T09:54:08.000Z</time>
      </trkpt>
      <trkpt lat="47.28105" lon="-2.35769">
        <ele>82</ele>
        <time>2021-05-30T09:54:09.000Z</time>
      </trkpt>
      <trkpt lat="47.28102" lon="-2.35775">
        <ele>82</ele>
        <time>2021-05-30T09:54:10.000Z</time>
      </trkpt>
      <trkpt lat="47.28094" lon="-2.35796">
        <ele>82</ele>
        <time>2021-05-30T09:54:13.000Z</time>
      </trkpt>
      <trkpt lat="47.28091" lon="-2.35802">
        <ele>82</ele>
        <time>2021-05-30T09:54:14.000Z</time>
      </trkpt>
      <trkpt lat="47.28085" lon="-2.3581">
        <ele>82</ele>
        <time>2021-05-30T09:54:16.000Z</time>
      </trkpt>
      <trkpt lat="47.28081" lon="-2.3581">
        <ele>82</ele>
        <time>2021-05-30T09:54:17.000Z</time>
      </trkpt>
      <trkpt lat="47.28075" lon="-2.35803">
        <ele>82</ele>
        <time>2021-05-30T09:54:20.000Z</time>
      </trkpt>
      <trkpt lat="47.28077" lon="-2.35789">
        <ele>82</ele>
        <time>2021-05-30T09:54:23.000Z</time>
      </trkpt>
      <trkpt lat="47.28079" lon="-2.35778">
        <ele>82</ele>
        <time>2021-05-30T09:54:25.000Z</time>
      </trkpt>
      <trkpt lat="47.28082" lon="-2.3576">
        <ele>82</ele>
        <time>2021-05-30T09:54:28.000Z</time>
      </trkpt>
      <trkpt lat="47.28085" lon="-2.35749">
        <ele>82.599998474121</ele>
        <time>2021-05-30T09:54:30.000Z</time>
      </trkpt>
      <trkpt lat="47.28085" lon="-2.35741">
        <ele>83</ele>
        <time>2021-05-30T09:54:31.000Z</time>
      </trkpt>
      <trkpt lat="47.28086" lon="-2.35734">
        <ele>83.400001525879</ele>
        <time>2021-05-30T09:54:32.000Z</time>
      </trkpt>
      <trkpt lat="47.28087" lon="-2.35728">
        <ele>84.400001525879</ele>
        <time>2021-05-30T09:54:33.000Z</time>
      </trkpt>
      <trkpt lat="47.28087" lon="-2.35699">
        <ele>84.400001525879</ele>
        <time>2021-05-30T09:54:38.000Z</time>
      </trkpt>
      <trkpt lat="47.28084" lon="-2.35692">
        <ele>84.400001525879</ele>
        <time>2021-05-30T09:54:39.000Z</time>
      </trkpt>
      <trkpt lat="47.2808" lon="-2.35666">
        <ele>84.400001525879</ele>
        <time>2021-05-30T09:54:42.000Z</time>
      </trkpt>
      <trkpt lat="47.28077" lon="-2.35647">
        <ele>84</ele>
        <time>2021-05-30T09:54:46.000Z</time>
      </trkpt>
      <trkpt lat="47.28077" lon="-2.35643">
        <ele>83.400001525879</ele>
        <time>2021-05-30T09:54:47.000Z</time>
      </trkpt>
      <trkpt lat="47.28074" lon="-2.35638">
        <ele>83</ele>
        <time>2021-05-30T09:54:48.000Z</time>
      </trkpt>
      <trkpt lat="47.28072" lon="-2.35634">
        <ele>82.599998474121</ele>
        <time>2021-05-30T09:54:49.000Z</time>
      </trkpt>
      <trkpt lat="47.28072" lon="-2.35628">
        <ele>82.199996948242</ele>
        <time>2021-05-30T09:54:50.000Z</time>
      </trkpt>
      <trkpt lat="47.28071" lon="-2.35622">
        <ele>81.599998474121</ele>
        <time>2021-05-30T09:54:51.000Z</time>
      </trkpt>
      <trkpt lat="47.2807" lon="-2.35617">
        <ele>81.199996948242</ele>
        <time>2021-05-30T09:54:52.000Z</time>
      </trkpt>
      <trkpt lat="47.2807" lon="-2.35613">
        <ele>80.800003051758</ele>
        <time>2021-05-30T09:54:53.000Z</time>
      </trkpt>
      <trkpt lat="47.28071" lon="-2.35611">
        <ele>80.400001525879</ele>
        <time>2021-05-30T09:54:54.000Z</time>
      </trkpt>
      <trkpt lat="47.2807" lon="-2.35609">
        <ele>80</ele>
        <time>2021-05-30T09:54:55.000Z</time>
      </trkpt>
      <trkpt lat="47.28071" lon="-2.35608">
        <ele>80</ele>
        <time>2021-05-30T09:54:56.000Z</time>
      </trkpt>
      <trkpt lat="47.28069" lon="-2.35596">
        <ele>80</ele>
        <time>2021-05-30T09:55:34.000Z</time>
      </trkpt>
      <trkpt lat="47.28065" lon="-2.35588">
        <ele>80</ele>
        <time>2021-05-30T09:55:36.000Z</time>
      </trkpt>
      <trkpt lat="47.28052" lon="-2.35581">
        <ele>80</ele>
        <time>2021-05-30T09:55:40.000Z</time>
      </trkpt>
      <trkpt lat="47.28047" lon="-2.3558">
        <ele>80</ele>
        <time>2021-05-30T09:55:41.000Z</time>
      </trkpt>
      <trkpt lat="47.28043" lon="-2.35579">
        <ele>79.599998474121</ele>
        <time>2021-05-30T09:55:42.000Z</time>
      </trkpt>
      <trkpt lat="47.28039" lon="-2.35577">
        <ele>79.199996948242</ele>
        <time>2021-05-30T09:55:43.000Z</time>
      </trkpt>
      <trkpt lat="47.28035" lon="-2.35575">
        <ele>78.800003051758</ele>
        <time>2021-05-30T09:55:44.000Z</time>
      </trkpt>
      <trkpt lat="47.2803" lon="-2.35571">
        <ele>78.400001525879</ele>
        <time>2021-05-30T09:55:45.000Z</time>
      </trkpt>
      <trkpt lat="47.28026" lon="-2.35568">
        <ele>78</ele>
        <time>2021-05-30T09:55:46.000Z</time>
      </trkpt>
      <trkpt lat="47.28021" lon="-2.35566">
        <ele>78</ele>
        <time>2021-05-30T09:55:47.000Z</time>
      </trkpt>
      <trkpt lat="47.28007" lon="-2.35569">
        <ele>78</ele>
        <time>2021-05-30T09:55:50.000Z</time>
      </trkpt>
      <trkpt lat="47.27997" lon="-2.35573">
        <ele>78</ele>
        <time>2021-05-30T09:55:52.000Z</time>
      </trkpt>
      <trkpt lat="47.2798" lon="-2.35579">
        <ele>78</ele>
        <time>2021-05-30T09:55:56.000Z</time>
      </trkpt>
      <trkpt lat="47.27954" lon="-2.35586">
        <ele>77.599998474121</ele>
        <time>2021-05-30T09:56:01.000Z</time>
      </trkpt>
      <trkpt lat="47.27949" lon="-2.35588">
        <ele>77.199996948242</ele>
        <time>2021-05-30T09:56:02.000Z</time>
      </trkpt>
      <trkpt lat="47.27943" lon="-2.3559">
        <ele>76.800003051758</ele>
        <time>2021-05-30T09:56:03.000Z</time>
      </trkpt>
      <trkpt lat="47.27938" lon="-2.35591">
        <ele>76.400001525879</ele>
        <time>2021-05-30T09:56:04.000Z</time>
      </trkpt>
      <trkpt lat="47.27931" lon="-2.35591">
        <ele>76</ele>
        <time>2021-05-30T09:56:05.000Z</time>
      </trkpt>
      <trkpt lat="47.27919" lon="-2.35592">
        <ele>76</ele>
        <time>2021-05-30T09:56:07.000Z</time>
      </trkpt>
      <trkpt lat="47.27869" lon="-2.35603">
        <ele>76</ele>
        <time>2021-05-30T09:56:15.000Z</time>
      </trkpt>
      <trkpt lat="47.27835" lon="-2.35614">
        <ele>75.400001525879</ele>
        <time>2021-05-30T09:56:20.000Z</time>
      </trkpt>
      <trkpt lat="47.27829" lon="-2.35616">
        <ele>75</ele>
        <time>2021-05-30T09:56:21.000Z</time>
      </trkpt>
      <trkpt lat="47.27822" lon="-2.35617">
        <ele>74.599998474121</ele>
        <time>2021-05-30T09:56:22.000Z</time>
      </trkpt>
      <trkpt lat="47.27815" lon="-2.35619">
        <ele>74.199996948242</ele>
        <time>2021-05-30T09:56:23.000Z</time>
      </trkpt>
      <trkpt lat="47.27808" lon="-2.35621">
        <ele>73.800003051758</ele>
        <time>2021-05-30T09:56:24.000Z</time>
      </trkpt>
      <trkpt lat="47.27781" lon="-2.3563">
        <ele>73.800003051758</ele>
        <time>2021-05-30T09:56:28.000Z</time>
      </trkpt>
      <trkpt lat="47.27774" lon="-2.35636">
        <ele>73.800003051758</ele>
        <time>2021-05-30T09:56:29.000Z</time>
      </trkpt>
      <trkpt lat="47.27767" lon="-2.35641">
        <ele>73.400001525879</ele>
        <time>2021-05-30T09:56:30.000Z</time>
      </trkpt>
      <trkpt lat="47.2776" lon="-2.35648">
        <ele>73</ele>
        <time>2021-05-30T09:56:31.000Z</time>
      </trkpt>
      <trkpt lat="47.27754" lon="-2.35656">
        <ele>72.400001525879</ele>
        <time>2021-05-30T09:56:32.000Z</time>
      </trkpt>
      <trkpt lat="47.27748" lon="-2.35664">
        <ele>72</ele>
        <time>2021-05-30T09:56:33.000Z</time>
      </trkpt>
      <trkpt lat="47.27743" lon="-2.35672">
        <ele>71.599998474121</ele>
        <time>2021-05-30T09:56:34.000Z</time>
      </trkpt>
      <trkpt lat="47.2771" lon="-2.35719">
        <ele>71.599998474121</ele>
        <time>2021-05-30T09:56:40.000Z</time>
      </trkpt>
      <trkpt lat="47.27703" lon="-2.35725">
        <ele>71.599998474121</ele>
        <time>2021-05-30T09:56:41.000Z</time>
      </trkpt>
      <trkpt lat="47.27696" lon="-2.35731">
        <ele>71.199996948242</ele>
        <time>2021-05-30T09:56:42.000Z</time>
      </trkpt>
      <trkpt lat="47.2769" lon="-2.35736">
        <ele>70.800003051758</ele>
        <time>2021-05-30T09:56:43.000Z</time>
      </trkpt>
      <trkpt lat="47.27683" lon="-2.35741">
        <ele>70.199996948242</ele>
        <time>2021-05-30T09:56:44.000Z</time>
      </trkpt>
      <trkpt lat="47.27678" lon="-2.35746">
        <ele>69.800003051758</ele>
        <time>2021-05-30T09:56:45.000Z</time>
      </trkpt>
      <trkpt lat="47.27672" lon="-2.35749">
        <ele>69.400001525879</ele>
        <time>2021-05-30T09:56:46.000Z</time>
      </trkpt>
      <trkpt lat="47.27666" lon="-2.35747">
        <ele>69.400001525879</ele>
        <time>2021-05-30T09:56:47.000Z</time>
      </trkpt>
      <trkpt lat="47.27659" lon="-2.35734">
        <ele>69.400001525879</ele>
        <time>2021-05-30T09:56:49.000Z</time>
      </trkpt>
      <trkpt lat="47.27655" lon="-2.35727">
        <ele>69.400001525879</ele>
        <time>2021-05-30T09:56:50.000Z</time>
      </trkpt>
      <trkpt lat="47.27649" lon="-2.35724">
        <ele>69.400001525879</ele>
        <time>2021-05-30T09:56:51.000Z</time>
      </trkpt>
      <trkpt lat="47.27636" lon="-2.35718">
        <ele>69.400001525879</ele>
        <time>2021-05-30T09:56:53.000Z</time>
      </trkpt>
      <trkpt lat="47.27621" lon="-2.35715">
        <ele>69</ele>
        <time>2021-05-30T09:56:55.000Z</time>
      </trkpt>
      <trkpt lat="47.27614" lon="-2.35713">
        <ele>68.599998474121</ele>
        <time>2021-05-30T09:56:56.000Z</time>
      </trkpt>
      <trkpt lat="47.27607" lon="-2.35712">
        <ele>68.199996948242</ele>
        <time>2021-05-30T09:56:57.000Z</time>
      </trkpt>
      <trkpt lat="47.276" lon="-2.3571">
        <ele>67.800003051758</ele>
        <time>2021-05-30T09:56:58.000Z</time>
      </trkpt>
      <trkpt lat="47.27594" lon="-2.35708">
        <ele>67.400001525879</ele>
        <time>2021-05-30T09:56:59.000Z</time>
      </trkpt>
      <trkpt lat="47.27559" lon="-2.35699">
        <ele>67.400001525879</ele>
        <time>2021-05-30T09:57:04.000Z</time>
      </trkpt>
      <trkpt lat="47.27546" lon="-2.35695">
        <ele>67</ele>
        <time>2021-05-30T09:57:06.000Z</time>
      </trkpt>
      <trkpt lat="47.2754" lon="-2.35693">
        <ele>66.599998474121</ele>
        <time>2021-05-30T09:57:07.000Z</time>
      </trkpt>
      <trkpt lat="47.27533" lon="-2.35692">
        <ele>66.199996948242</ele>
        <time>2021-05-30T09:57:08.000Z</time>
      </trkpt>
      <trkpt lat="47.27526" lon="-2.3569">
        <ele>65.599998474121</ele>
        <time>2021-05-30T09:57:09.000Z</time>
      </trkpt>
      <trkpt lat="47.27519" lon="-2.35688">
        <ele>65.199996948242</ele>
        <time>2021-05-30T09:57:10.000Z</time>
      </trkpt>
      <trkpt lat="47.27511" lon="-2.35686">
        <ele>65.199996948242</ele>
        <time>2021-05-30T09:57:11.000Z</time>
      </trkpt>
      <trkpt lat="47.27456" lon="-2.35674">
        <ele>65.199996948242</ele>
        <time>2021-05-30T09:57:19.000Z</time>
      </trkpt>
      <trkpt lat="47.2741" lon="-2.35667">
        <ele>64.800003051758</ele>
        <time>2021-05-30T09:57:26.000Z</time>
      </trkpt>
      <trkpt lat="47.27403" lon="-2.35668">
        <ele>64.400001525879</ele>
        <time>2021-05-30T09:57:27.000Z</time>
      </trkpt>
      <trkpt lat="47.27397" lon="-2.35671">
        <ele>64</ele>
        <time>2021-05-30T09:57:28.000Z</time>
      </trkpt>
      <trkpt lat="47.27391" lon="-2.35674">
        <ele>63.599998474121</ele>
        <time>2021-05-30T09:57:29.000Z</time>
      </trkpt>
      <trkpt lat="47.27384" lon="-2.35678">
        <ele>63.200000762939</ele>
        <time>2021-05-30T09:57:30.000Z</time>
      </trkpt>
      <trkpt lat="47.27378" lon="-2.35683">
        <ele>63.200000762939</ele>
        <time>2021-05-30T09:57:31.000Z</time>
      </trkpt>
      <trkpt lat="47.27365" lon="-2.35692">
        <ele>63.200000762939</ele>
        <time>2021-05-30T09:57:33.000Z</time>
      </trkpt>
      <trkpt lat="47.27346" lon="-2.35708">
        <ele>63.200000762939</ele>
        <time>2021-05-30T09:57:36.000Z</time>
      </trkpt>
      <trkpt lat="47.27323" lon="-2.35729">
        <ele>63.200000762939</ele>
        <time>2021-05-30T09:57:40.000Z</time>
      </trkpt>
      <trkpt lat="47.27315" lon="-2.35742">
        <ele>63.200000762939</ele>
        <time>2021-05-30T09:57:42.000Z</time>
      </trkpt>
      <trkpt lat="47.27311" lon="-2.35744">
        <ele>63.200000762939</ele>
        <time>2021-05-30T09:57:43.000Z</time>
      </trkpt>
      <trkpt lat="47.27302" lon="-2.35737">
        <ele>63.200000762939</ele>
        <time>2021-05-30T09:57:45.000Z</time>
      </trkpt>
      <trkpt lat="47.27297" lon="-2.35714">
        <ele>63.200000762939</ele>
        <time>2021-05-30T09:57:48.000Z</time>
      </trkpt>
      <trkpt lat="47.27285" lon="-2.35688">
        <ele>63.200000762939</ele>
        <time>2021-05-30T09:57:52.000Z</time>
      </trkpt>
      <trkpt lat="47.27264" lon="-2.3564">
        <ele>63.200000762939</ele>
        <time>2021-05-30T09:57:59.000Z</time>
      </trkpt>
      <trkpt lat="47.27252" lon="-2.35611">
        <ele>63.200000762939</ele>
        <time>2021-05-30T09:58:03.000Z</time>
      </trkpt>
      <trkpt lat="47.27243" lon="-2.3559">
        <ele>63.599998474121</ele>
        <time>2021-05-30T09:58:06.000Z</time>
      </trkpt>
      <trkpt lat="47.27239" lon="-2.35583">
        <ele>64</ele>
        <time>2021-05-30T09:58:07.000Z</time>
      </trkpt>
      <trkpt lat="47.27237" lon="-2.35576">
        <ele>64.599998474121</ele>
        <time>2021-05-30T09:58:08.000Z</time>
      </trkpt>
      <trkpt lat="47.27234" lon="-2.35569">
        <ele>65</ele>
        <time>2021-05-30T09:58:09.000Z</time>
      </trkpt>
      <trkpt lat="47.27231" lon="-2.35561">
        <ele>65.400001525879</ele>
        <time>2021-05-30T09:58:10.000Z</time>
      </trkpt>
      <trkpt lat="47.27217" lon="-2.35534">
        <ele>65.400001525879</ele>
        <time>2021-05-30T09:58:14.000Z</time>
      </trkpt>
      <trkpt lat="47.27194" lon="-2.35483">
        <ele>65.400001525879</ele>
        <time>2021-05-30T09:58:21.000Z</time>
      </trkpt>
      <trkpt lat="47.27168" lon="-2.35432">
        <ele>65.400001525879</ele>
        <time>2021-05-30T09:58:28.000Z</time>
      </trkpt>
      <trkpt lat="47.27141" lon="-2.35383">
        <ele>65.400001525879</ele>
        <time>2021-05-30T09:58:35.000Z</time>
      </trkpt>
      <trkpt lat="47.27108" lon="-2.35327">
        <ele>65.400001525879</ele>
        <time>2021-05-30T09:58:43.000Z</time>
      </trkpt>
      <trkpt lat="47.27073" lon="-2.35271">
        <ele>65.400001525879</ele>
        <time>2021-05-30T09:58:51.000Z</time>
      </trkpt>
      <trkpt lat="47.27032" lon="-2.35209">
        <ele>65.400001525879</ele>
        <time>2021-05-30T09:59:00.000Z</time>
      </trkpt>
      <trkpt lat="47.27023" lon="-2.35195">
        <ele>65.400001525879</ele>
        <time>2021-05-30T09:59:02.000Z</time>
      </trkpt>
      <trkpt lat="47.26983" lon="-2.35132">
        <ele>65.400001525879</ele>
        <time>2021-05-30T09:59:11.000Z</time>
      </trkpt>
      <trkpt lat="47.2696" lon="-2.35097">
        <ele>65.400001525879</ele>
        <time>2021-05-30T09:59:16.000Z</time>
      </trkpt>
      <trkpt lat="47.26951" lon="-2.35082">
        <ele>65.400001525879</ele>
        <time>2021-05-30T09:59:18.000Z</time>
      </trkpt>
      <trkpt lat="47.26922" lon="-2.35037">
        <ele>65.400001525879</ele>
        <time>2021-05-30T09:59:25.000Z</time>
      </trkpt>
      <trkpt lat="47.269" lon="-2.35004">
        <ele>65.400001525879</ele>
        <time>2021-05-30T09:59:31.000Z</time>
      </trkpt>
      <trkpt lat="47.26891" lon="-2.34993">
        <ele>65.400001525879</ele>
        <time>2021-05-30T09:59:33.000Z</time>
      </trkpt>
      <trkpt lat="47.26873" lon="-2.34967">
        <ele>65.400001525879</ele>
        <time>2021-05-30T09:59:37.000Z</time>
      </trkpt>
      <trkpt lat="47.26849" lon="-2.3493">
        <ele>65.400001525879</ele>
        <time>2021-05-30T09:59:43.000Z</time>
      </trkpt>
      <trkpt lat="47.2684" lon="-2.34917">
        <ele>65.400001525879</ele>
        <time>2021-05-30T09:59:45.000Z</time>
      </trkpt>
      <trkpt lat="47.26806" lon="-2.34867">
        <ele>65.400001525879</ele>
        <time>2021-05-30T09:59:53.000Z</time>
      </trkpt>
      <trkpt lat="47.26767" lon="-2.34813">
        <ele>65.400001525879</ele>
        <time>2021-05-30T10:00:02.000Z</time>
      </trkpt>
      <trkpt lat="47.26758" lon="-2.34802">
        <ele>65.400001525879</ele>
        <time>2021-05-30T10:00:04.000Z</time>
      </trkpt>
      <trkpt lat="47.26745" lon="-2.34783">
        <ele>65.400001525879</ele>
        <time>2021-05-30T10:00:07.000Z</time>
      </trkpt>
      <trkpt lat="47.26712" lon="-2.34744">
        <ele>65.400001525879</ele>
        <time>2021-05-30T10:00:14.000Z</time>
      </trkpt>
      <trkpt lat="47.26682" lon="-2.34707">
        <ele>65.400001525879</ele>
        <time>2021-05-30T10:00:21.000Z</time>
      </trkpt>
      <trkpt lat="47.26679" lon="-2.34706">
        <ele>65.400001525879</ele>
        <time>2021-05-30T10:00:22.000Z</time>
      </trkpt>
      <trkpt lat="47.26679" lon="-2.34707">
        <ele>65</ele>
        <time>2021-05-30T10:00:23.000Z</time>
      </trkpt>
      <trkpt lat="47.26678" lon="-2.34706">
        <ele>64.599998474121</ele>
        <time>2021-05-30T10:00:24.000Z</time>
      </trkpt>
      <trkpt lat="47.26678" lon="-2.34707">
        <ele>64.199996948242</ele>
        <time>2021-05-30T10:00:25.000Z</time>
      </trkpt>
      <trkpt lat="47.26679" lon="-2.34709">
        <ele>63.799999237061</ele>
        <time>2021-05-30T10:00:26.000Z</time>
      </trkpt>
      <trkpt lat="47.2668" lon="-2.34711">
        <ele>63.400001525879</ele>
        <time>2021-05-30T10:00:27.000Z</time>
      </trkpt>
      <trkpt lat="47.26685" lon="-2.34717">
        <ele>63.400001525879</ele>
        <time>2021-05-30T10:00:30.000Z</time>
      </trkpt>
      <trkpt lat="47.26692" lon="-2.3473">
        <ele>63.400001525879</ele>
        <time>2021-05-30T10:00:35.000Z</time>
      </trkpt>
      <trkpt lat="47.26692" lon="-2.3473">
        <ele>63.400001525879</ele>
        <time>2021-05-30T10:00:37.000Z</time>
      </trkpt>
      <trkpt lat="47.2669" lon="-2.34724">
        <ele>63.400001525879</ele>
        <time>2021-05-30T10:01:40.000Z</time>
      </trkpt>
      <trkpt lat="47.26689" lon="-2.34722">
        <ele>63.400001525879</ele>
        <time>2021-05-30T10:01:41.000Z</time>
      </trkpt>
      <trkpt lat="47.26679" lon="-2.34706">
        <ele>63.400001525879</ele>
        <time>2021-05-30T10:01:45.000Z</time>
      </trkpt>
      <trkpt lat="47.26677" lon="-2.34701">
        <ele>63.400001525879</ele>
        <time>2021-05-30T10:01:46.000Z</time>
      </trkpt>
      <trkpt lat="47.26663" lon="-2.34682">
        <ele>63.400001525879</ele>
        <time>2021-05-30T10:01:50.000Z</time>
      </trkpt>
      <trkpt lat="47.26658" lon="-2.34676">
        <ele>63.400001525879</ele>
        <time>2021-05-30T10:01:51.000Z</time>
      </trkpt>
      <trkpt lat="47.2664" lon="-2.34653">
        <ele>63.400001525879</ele>
        <time>2021-05-30T10:01:55.000Z</time>
      </trkpt>
      <trkpt lat="47.2661" lon="-2.34617">
        <ele>63.400001525879</ele>
        <time>2021-05-30T10:02:01.000Z</time>
      </trkpt>
      <trkpt lat="47.2657" lon="-2.34573">
        <ele>63.400001525879</ele>
        <time>2021-05-30T10:02:09.000Z</time>
      </trkpt>
      <trkpt lat="47.2653" lon="-2.34533">
        <ele>63.400001525879</ele>
        <time>2021-05-30T10:02:17.000Z</time>
      </trkpt>
      <trkpt lat="47.26486" lon="-2.34499">
        <ele>63.400001525879</ele>
        <time>2021-05-30T10:02:25.000Z</time>
      </trkpt>
      <trkpt lat="47.26435" lon="-2.34463">
        <ele>63.400001525879</ele>
        <time>2021-05-30T10:02:33.000Z</time>
      </trkpt>
      <trkpt lat="47.26423" lon="-2.34453">
        <ele>63.400001525879</ele>
        <time>2021-05-30T10:02:35.000Z</time>
      </trkpt>
      <trkpt lat="47.26374" lon="-2.34413">
        <ele>63.400001525879</ele>
        <time>2021-05-30T10:02:43.000Z</time>
      </trkpt>
      <trkpt lat="47.26362" lon="-2.34402">
        <ele>63.400001525879</ele>
        <time>2021-05-30T10:02:45.000Z</time>
      </trkpt>
      <trkpt lat="47.26345" lon="-2.34386">
        <ele>63.400001525879</ele>
        <time>2021-05-30T10:02:48.000Z</time>
      </trkpt>
      <trkpt lat="47.26332" lon="-2.34379">
        <ele>63.400001525879</ele>
        <time>2021-05-30T10:02:50.000Z</time>
      </trkpt>
      <trkpt lat="47.26326" lon="-2.34375">
        <ele>63.400001525879</ele>
        <time>2021-05-30T10:02:51.000Z</time>
      </trkpt>
      <trkpt lat="47.26314" lon="-2.34362">
        <ele>63.400001525879</ele>
        <time>2021-05-30T10:02:53.000Z</time>
      </trkpt>
      <trkpt lat="47.26309" lon="-2.34356">
        <ele>63.400001525879</ele>
        <time>2021-05-30T10:02:54.000Z</time>
      </trkpt>
      <trkpt lat="47.26268" lon="-2.34312">
        <ele>63.400001525879</ele>
        <time>2021-05-30T10:03:01.000Z</time>
      </trkpt>
      <trkpt lat="47.26226" lon="-2.34267">
        <ele>63.400001525879</ele>
        <time>2021-05-30T10:03:08.000Z</time>
      </trkpt>
      <trkpt lat="47.2618" lon="-2.34219">
        <ele>63.400001525879</ele>
        <time>2021-05-30T10:03:16.000Z</time>
      </trkpt>
      <trkpt lat="47.26175" lon="-2.34214">
        <ele>63.400001525879</ele>
        <time>2021-05-30T10:03:17.000Z</time>
      </trkpt>
      <trkpt lat="47.2615" lon="-2.34189">
        <ele>63.400001525879</ele>
        <time>2021-05-30T10:03:22.000Z</time>
      </trkpt>
      <trkpt lat="47.26144" lon="-2.34186">
        <ele>63.400001525879</ele>
        <time>2021-05-30T10:03:23.000Z</time>
      </trkpt>
      <trkpt lat="47.26121" lon="-2.34169">
        <ele>63.400001525879</ele>
        <time>2021-05-30T10:03:27.000Z</time>
      </trkpt>
      <trkpt lat="47.26116" lon="-2.34163">
        <ele>63.400001525879</ele>
        <time>2021-05-30T10:03:28.000Z</time>
      </trkpt>
      <trkpt lat="47.26097" lon="-2.34153">
        <ele>63.400001525879</ele>
        <time>2021-05-30T10:03:31.000Z</time>
      </trkpt>
      <trkpt lat="47.26071" lon="-2.34141">
        <ele>63.400001525879</ele>
        <time>2021-05-30T10:03:35.000Z</time>
      </trkpt>
      <trkpt lat="47.26045" lon="-2.34128">
        <ele>63.400001525879</ele>
        <time>2021-05-30T10:03:39.000Z</time>
      </trkpt>
      <trkpt lat="47.26" lon="-2.34107">
        <ele>63.400001525879</ele>
        <time>2021-05-30T10:03:46.000Z</time>
      </trkpt>
      <trkpt lat="47.2595" lon="-2.34083">
        <ele>63.400001525879</ele>
        <time>2021-05-30T10:03:54.000Z</time>
      </trkpt>
      <trkpt lat="47.25919" lon="-2.34074">
        <ele>63.400001525879</ele>
        <time>2021-05-30T10:03:59.000Z</time>
      </trkpt>
      <trkpt lat="47.25912" lon="-2.34077">
        <ele>63.400001525879</ele>
        <time>2021-05-30T10:04:00.000Z</time>
      </trkpt>
      <trkpt lat="47.25898" lon="-2.34098">
        <ele>63.400001525879</ele>
        <time>2021-05-30T10:04:03.000Z</time>
      </trkpt>
      <trkpt lat="47.25885" lon="-2.34132">
        <ele>63.400001525879</ele>
        <time>2021-05-30T10:04:07.000Z</time>
      </trkpt>
      <trkpt lat="47.25882" lon="-2.34141">
        <ele>63.400001525879</ele>
        <time>2021-05-30T10:04:08.000Z</time>
      </trkpt>
      <trkpt lat="47.25877" lon="-2.34158">
        <ele>63.400001525879</ele>
        <time>2021-05-30T10:04:10.000Z</time>
      </trkpt>
      <trkpt lat="47.2587" lon="-2.34165">
        <ele>63</ele>
        <time>2021-05-30T10:04:12.000Z</time>
      </trkpt>
      <trkpt lat="47.25866" lon="-2.34165">
        <ele>62.599998474121</ele>
        <time>2021-05-30T10:04:13.000Z</time>
      </trkpt>
      <trkpt lat="47.25862" lon="-2.34163">
        <ele>62.200000762939</ele>
        <time>2021-05-30T10:04:14.000Z</time>
      </trkpt>
      <trkpt lat="47.25859" lon="-2.34162">
        <ele>61.799999237061</ele>
        <time>2021-05-30T10:04:15.000Z</time>
      </trkpt>
      <trkpt lat="47.25855" lon="-2.3416">
        <ele>61.400001525879</ele>
        <time>2021-05-30T10:04:16.000Z</time>
      </trkpt>
      <trkpt lat="47.25836" lon="-2.34156">
        <ele>61.400001525879</ele>
        <time>2021-05-30T10:04:21.000Z</time>
      </trkpt>
      <trkpt lat="47.25832" lon="-2.34157">
        <ele>61.400001525879</ele>
        <time>2021-05-30T10:04:22.000Z</time>
      </trkpt>
      <trkpt lat="47.25827" lon="-2.34173">
        <ele>61.400001525879</ele>
        <time>2021-05-30T10:04:25.000Z</time>
      </trkpt>
      <trkpt lat="47.25823" lon="-2.34176">
        <ele>61.799999237061</ele>
        <time>2021-05-30T10:04:26.000Z</time>
      </trkpt>
      <trkpt lat="47.25819" lon="-2.34177">
        <ele>62.200000762939</ele>
        <time>2021-05-30T10:04:27.000Z</time>
      </trkpt>
      <trkpt lat="47.25815" lon="-2.34176">
        <ele>62.599998474121</ele>
        <time>2021-05-30T10:04:28.000Z</time>
      </trkpt>
      <trkpt lat="47.2581" lon="-2.34175">
        <ele>63</ele>
        <time>2021-05-30T10:04:29.000Z</time>
      </trkpt>
      <trkpt lat="47.25805" lon="-2.34174">
        <ele>63.400001525879</ele>
        <time>2021-05-30T10:04:30.000Z</time>
      </trkpt>
      <trkpt lat="47.25785" lon="-2.34172">
        <ele>63.400001525879</ele>
        <time>2021-05-30T10:04:34.000Z</time>
      </trkpt>
      <trkpt lat="47.25767" lon="-2.34174">
        <ele>63.400001525879</ele>
        <time>2021-05-30T10:04:37.000Z</time>
      </trkpt>
      <trkpt lat="47.25756" lon="-2.34178">
        <ele>63.400001525879</ele>
        <time>2021-05-30T10:04:39.000Z</time>
      </trkpt>
      <trkpt lat="47.25731" lon="-2.34186">
        <ele>63.400001525879</ele>
        <time>2021-05-30T10:04:44.000Z</time>
      </trkpt>
      <trkpt lat="47.25698" lon="-2.34192">
        <ele>63.400001525879</ele>
        <time>2021-05-30T10:04:50.000Z</time>
      </trkpt>
      <trkpt lat="47.25687" lon="-2.34194">
        <ele>63.400001525879</ele>
        <time>2021-05-30T10:04:52.000Z</time>
      </trkpt>
      <trkpt lat="47.25671" lon="-2.34189">
        <ele>63.400001525879</ele>
        <time>2021-05-30T10:04:55.000Z</time>
      </trkpt>
      <trkpt lat="47.2566" lon="-2.34171">
        <ele>63.400001525879</ele>
        <time>2021-05-30T10:04:58.000Z</time>
      </trkpt>
      <trkpt lat="47.25657" lon="-2.34164">
        <ele>63.400001525879</ele>
        <time>2021-05-30T10:04:59.000Z</time>
      </trkpt>
      <trkpt lat="47.25647" lon="-2.34144">
        <ele>63.400001525879</ele>
        <time>2021-05-30T10:05:02.000Z</time>
      </trkpt>
      <trkpt lat="47.25641" lon="-2.3412">
        <ele>63.400001525879</ele>
        <time>2021-05-30T10:05:05.000Z</time>
      </trkpt>
      <trkpt lat="47.2564" lon="-2.34112">
        <ele>63.400001525879</ele>
        <time>2021-05-30T10:05:06.000Z</time>
      </trkpt>
      <trkpt lat="47.25638" lon="-2.34088">
        <ele>63.400001525879</ele>
        <time>2021-05-30T10:05:09.000Z</time>
      </trkpt>
      <trkpt lat="47.25638" lon="-2.3408">
        <ele>63.400001525879</ele>
        <time>2021-05-30T10:05:10.000Z</time>
      </trkpt>
      <trkpt lat="47.25638" lon="-2.34072">
        <ele>63.799999237061</ele>
        <time>2021-05-30T10:05:11.000Z</time>
      </trkpt>
      <trkpt lat="47.25639" lon="-2.34065">
        <ele>64.199996948242</ele>
        <time>2021-05-30T10:05:12.000Z</time>
      </trkpt>
      <trkpt lat="47.25641" lon="-2.34057">
        <ele>64.800003051758</ele>
        <time>2021-05-30T10:05:13.000Z</time>
      </trkpt>
      <trkpt lat="47.25642" lon="-2.34049">
        <ele>65.199996948242</ele>
        <time>2021-05-30T10:05:14.000Z</time>
      </trkpt>
      <trkpt lat="47.25643" lon="-2.34041">
        <ele>65.599998474121</ele>
        <time>2021-05-30T10:05:15.000Z</time>
      </trkpt>
      <trkpt lat="47.25653" lon="-2.33985">
        <ele>65.599998474121</ele>
        <time>2021-05-30T10:05:22.000Z</time>
      </trkpt>
      <trkpt lat="47.25659" lon="-2.33955">
        <ele>65.599998474121</ele>
        <time>2021-05-30T10:05:26.000Z</time>
      </trkpt>
      <trkpt lat="47.25658" lon="-2.33939">
        <ele>65.599998474121</ele>
        <time>2021-05-30T10:05:28.000Z</time>
      </trkpt>
      <trkpt lat="47.25648" lon="-2.33883">
        <ele>65.599998474121</ele>
        <time>2021-05-30T10:05:35.000Z</time>
      </trkpt>
      <trkpt lat="47.25641" lon="-2.33843">
        <ele>65.599998474121</ele>
        <time>2021-05-30T10:05:40.000Z</time>
      </trkpt>
      <trkpt lat="47.25639" lon="-2.33826">
        <ele>65.599998474121</ele>
        <time>2021-05-30T10:05:42.000Z</time>
      </trkpt>
      <trkpt lat="47.25634" lon="-2.33795">
        <ele>65.599998474121</ele>
        <time>2021-05-30T10:05:46.000Z</time>
      </trkpt>
      <trkpt lat="47.25628" lon="-2.33773">
        <ele>65.599998474121</ele>
        <time>2021-05-30T10:05:49.000Z</time>
      </trkpt>
      <trkpt lat="47.25625" lon="-2.33767">
        <ele>65.599998474121</ele>
        <time>2021-05-30T10:05:50.000Z</time>
      </trkpt>
      <trkpt lat="47.25614" lon="-2.33754">
        <ele>65.599998474121</ele>
        <time>2021-05-30T10:05:53.000Z</time>
      </trkpt>
      <trkpt lat="47.25602" lon="-2.3375">
        <ele>65.599998474121</ele>
        <time>2021-05-30T10:05:55.000Z</time>
      </trkpt>
      <trkpt lat="47.25584" lon="-2.33747">
        <ele>65.599998474121</ele>
        <time>2021-05-30T10:05:58.000Z</time>
      </trkpt>
      <trkpt lat="47.2554" lon="-2.33751">
        <ele>65.599998474121</ele>
        <time>2021-05-30T10:06:05.000Z</time>
      </trkpt>
      <trkpt lat="47.25498" lon="-2.33751">
        <ele>65.599998474121</ele>
        <time>2021-05-30T10:06:11.000Z</time>
      </trkpt>
      <trkpt lat="47.25477" lon="-2.33748">
        <ele>65.599998474121</ele>
        <time>2021-05-30T10:06:14.000Z</time>
      </trkpt>
      <trkpt lat="47.25464" lon="-2.33742">
        <ele>65.599998474121</ele>
        <time>2021-05-30T10:06:16.000Z</time>
      </trkpt>
      <trkpt lat="47.25459" lon="-2.33738">
        <ele>65.599998474121</ele>
        <time>2021-05-30T10:06:17.000Z</time>
      </trkpt>
      <trkpt lat="47.25453" lon="-2.33722">
        <ele>65.599998474121</ele>
        <time>2021-05-30T10:06:19.000Z</time>
      </trkpt>
      <trkpt lat="47.25451" lon="-2.33704">
        <ele>65.599998474121</ele>
        <time>2021-05-30T10:06:21.000Z</time>
      </trkpt>
      <trkpt lat="47.25447" lon="-2.3367">
        <ele>65.599998474121</ele>
        <time>2021-05-30T10:06:25.000Z</time>
      </trkpt>
      <trkpt lat="47.25445" lon="-2.33654">
        <ele>65.599998474121</ele>
        <time>2021-05-30T10:06:27.000Z</time>
      </trkpt>
      <trkpt lat="47.2544" lon="-2.33626">
        <ele>65.599998474121</ele>
        <time>2021-05-30T10:06:31.000Z</time>
      </trkpt>
      <trkpt lat="47.2544" lon="-2.33618">
        <ele>65.599998474121</ele>
        <time>2021-05-30T10:06:32.000Z</time>
      </trkpt>
      <trkpt lat="47.25439" lon="-2.33591">
        <ele>65.599998474121</ele>
        <time>2021-05-30T10:06:36.000Z</time>
      </trkpt>
      <trkpt lat="47.25441" lon="-2.33583">
        <ele>65.599998474121</ele>
        <time>2021-05-30T10:06:38.000Z</time>
      </trkpt>
      <trkpt lat="47.25444" lon="-2.33582">
        <ele>65.599998474121</ele>
        <time>2021-05-30T10:06:39.000Z</time>
      </trkpt>
      <trkpt lat="47.25455" lon="-2.33577">
        <ele>65.199996948242</ele>
        <time>2021-05-30T10:06:42.000Z</time>
      </trkpt>
      <trkpt lat="47.25457" lon="-2.33573">
        <ele>64.800003051758</ele>
        <time>2021-05-30T10:06:43.000Z</time>
      </trkpt>
      <trkpt lat="47.25459" lon="-2.33567">
        <ele>64.400001525879</ele>
        <time>2021-05-30T10:06:44.000Z</time>
      </trkpt>
      <trkpt lat="47.2546" lon="-2.33561">
        <ele>64</ele>
        <time>2021-05-30T10:06:45.000Z</time>
      </trkpt>
      <trkpt lat="47.25459" lon="-2.33554">
        <ele>63.599998474121</ele>
        <time>2021-05-30T10:06:46.000Z</time>
      </trkpt>
      <trkpt lat="47.25457" lon="-2.33548">
        <ele>63.599998474121</ele>
        <time>2021-05-30T10:06:47.000Z</time>
      </trkpt>
      <trkpt lat="47.25456" lon="-2.33541">
        <ele>63.599998474121</ele>
        <time>2021-05-30T10:06:48.000Z</time>
      </trkpt>
      <trkpt lat="47.25452" lon="-2.33524">
        <ele>63.599998474121</ele>
        <time>2021-05-30T10:06:51.000Z</time>
      </trkpt>
      <trkpt lat="47.25448" lon="-2.33504">
        <ele>64</ele>
        <time>2021-05-30T10:06:54.000Z</time>
      </trkpt>
      <trkpt lat="47.25447" lon="-2.33498">
        <ele>64.400001525879</ele>
        <time>2021-05-30T10:06:55.000Z</time>
      </trkpt>
      <trkpt lat="47.25445" lon="-2.33491">
        <ele>64.800003051758</ele>
        <time>2021-05-30T10:06:56.000Z</time>
      </trkpt>
      <trkpt lat="47.25443" lon="-2.33485">
        <ele>65.199996948242</ele>
        <time>2021-05-30T10:06:57.000Z</time>
      </trkpt>
      <trkpt lat="47.25441" lon="-2.33479">
        <ele>65.599998474121</ele>
        <time>2021-05-30T10:06:58.000Z</time>
      </trkpt>
      <trkpt lat="47.25438" lon="-2.33473">
        <ele>65.599998474121</ele>
        <time>2021-05-30T10:06:59.000Z</time>
      </trkpt>
      <trkpt lat="47.25431" lon="-2.33447">
        <ele>65.599998474121</ele>
        <time>2021-05-30T10:07:03.000Z</time>
      </trkpt>
      <trkpt lat="47.25431" lon="-2.3343">
        <ele>65.599998474121</ele>
        <time>2021-05-30T10:07:05.000Z</time>
      </trkpt>
      <trkpt lat="47.25431" lon="-2.33405">
        <ele>65.599998474121</ele>
        <time>2021-05-30T10:07:08.000Z</time>
      </trkpt>
      <trkpt lat="47.2543" lon="-2.33356">
        <ele>65.599998474121</ele>
        <time>2021-05-30T10:07:14.000Z</time>
      </trkpt>
      <trkpt lat="47.25431" lon="-2.33348">
        <ele>65.599998474121</ele>
        <time>2021-05-30T10:07:15.000Z</time>
      </trkpt>
      <trkpt lat="47.25431" lon="-2.3334">
        <ele>65.599998474121</ele>
        <time>2021-05-30T10:07:16.000Z</time>
      </trkpt>
      <trkpt lat="47.25438" lon="-2.33319">
        <ele>65.599998474121</ele>
        <time>2021-05-30T10:07:19.000Z</time>
      </trkpt>
      <trkpt lat="47.25444" lon="-2.33299">
        <ele>65.599998474121</ele>
        <time>2021-05-30T10:07:22.000Z</time>
      </trkpt>
      <trkpt lat="47.25445" lon="-2.33285">
        <ele>65.599998474121</ele>
        <time>2021-05-30T10:07:24.000Z</time>
      </trkpt>
      <trkpt lat="47.25436" lon="-2.33255">
        <ele>65.599998474121</ele>
        <time>2021-05-30T10:07:28.000Z</time>
      </trkpt>
      <trkpt lat="47.25433" lon="-2.33248">
        <ele>65.599998474121</ele>
        <time>2021-05-30T10:07:29.000Z</time>
      </trkpt>
      <trkpt lat="47.25425" lon="-2.33227">
        <ele>65.599998474121</ele>
        <time>2021-05-30T10:07:32.000Z</time>
      </trkpt>
      <trkpt lat="47.25412" lon="-2.33201">
        <ele>65.599998474121</ele>
        <time>2021-05-30T10:07:36.000Z</time>
      </trkpt>
      <trkpt lat="47.2541" lon="-2.33194">
        <ele>65.599998474121</ele>
        <time>2021-05-30T10:07:37.000Z</time>
      </trkpt>
      <trkpt lat="47.25395" lon="-2.33161">
        <ele>65.599998474121</ele>
        <time>2021-05-30T10:07:42.000Z</time>
      </trkpt>
      <trkpt lat="47.25383" lon="-2.33136">
        <ele>65.599998474121</ele>
        <time>2021-05-30T10:07:47.000Z</time>
      </trkpt>
      <trkpt lat="47.2537" lon="-2.33113">
        <ele>65.599998474121</ele>
        <time>2021-05-30T10:07:54.000Z</time>
      </trkpt>
      <trkpt lat="47.25369" lon="-2.33113">
        <ele>65.599998474121</ele>
        <time>2021-05-30T10:07:55.000Z</time>
      </trkpt>
      <trkpt lat="47.2537" lon="-2.33109">
        <ele>63.599998474121</ele>
        <time>2021-05-30T10:23:44.000Z</time>
      </trkpt>
      <trkpt lat="47.25368" lon="-2.33103">
        <ele>63.599998474121</ele>
        <time>2021-05-30T10:23:46.000Z</time>
      </trkpt>
      <trkpt lat="47.25365" lon="-2.33093">
        <ele>63.599998474121</ele>
        <time>2021-05-30T10:23:49.000Z</time>
      </trkpt>
      <trkpt lat="47.25363" lon="-2.33088">
        <ele>63.599998474121</ele>
        <time>2021-05-30T10:23:50.000Z</time>
      </trkpt>
      <trkpt lat="47.25349" lon="-2.33048">
        <ele>63.599998474121</ele>
        <time>2021-05-30T10:23:58.000Z</time>
      </trkpt>
      <trkpt lat="47.25334" lon="-2.33006">
        <ele>63.599998474121</ele>
        <time>2021-05-30T10:24:06.000Z</time>
      </trkpt>
      <trkpt lat="47.25316" lon="-2.32963">
        <ele>63.599998474121</ele>
        <time>2021-05-30T10:24:14.000Z</time>
      </trkpt>
      <trkpt lat="47.25308" lon="-2.3294">
        <ele>63.599998474121</ele>
        <time>2021-05-30T10:24:18.000Z</time>
      </trkpt>
      <trkpt lat="47.25309" lon="-2.32927">
        <ele>63.599998474121</ele>
        <time>2021-05-30T10:24:20.000Z</time>
      </trkpt>
      <trkpt lat="47.25316" lon="-2.32914">
        <ele>63.599998474121</ele>
        <time>2021-05-30T10:24:23.000Z</time>
      </trkpt>
      <trkpt lat="47.25324" lon="-2.32907">
        <ele>63.599998474121</ele>
        <time>2021-05-30T10:24:25.000Z</time>
      </trkpt>
      <trkpt lat="47.25334" lon="-2.32897">
        <ele>63.599998474121</ele>
        <time>2021-05-30T10:24:28.000Z</time>
      </trkpt>
      <trkpt lat="47.25358" lon="-2.32872">
        <ele>63.599998474121</ele>
        <time>2021-05-30T10:24:35.000Z</time>
      </trkpt>
      <trkpt lat="47.2537" lon="-2.3286">
        <ele>63.599998474121</ele>
        <time>2021-05-30T10:24:38.000Z</time>
      </trkpt>
      <trkpt lat="47.25377" lon="-2.32851">
        <ele>63.599998474121</ele>
        <time>2021-05-30T10:24:40.000Z</time>
      </trkpt>
      <trkpt lat="47.25409" lon="-2.32813">
        <ele>63.599998474121</ele>
        <time>2021-05-30T10:24:49.000Z</time>
      </trkpt>
      <trkpt lat="47.25425" lon="-2.3279">
        <ele>64</ele>
        <time>2021-05-30T10:24:54.000Z</time>
      </trkpt>
      <trkpt lat="47.25427" lon="-2.32784">
        <ele>64.400001525879</ele>
        <time>2021-05-30T10:24:55.000Z</time>
      </trkpt>
      <trkpt lat="47.25429" lon="-2.32779">
        <ele>64.800003051758</ele>
        <time>2021-05-30T10:24:56.000Z</time>
      </trkpt>
      <trkpt lat="47.25431" lon="-2.32774">
        <ele>65.400001525879</ele>
        <time>2021-05-30T10:24:57.000Z</time>
      </trkpt>
      <trkpt lat="47.25434" lon="-2.3277">
        <ele>65.800003051758</ele>
        <time>2021-05-30T10:24:58.000Z</time>
      </trkpt>
      <trkpt lat="47.25439" lon="-2.32762">
        <ele>65.800003051758</ele>
        <time>2021-05-30T10:25:00.000Z</time>
      </trkpt>
      <trkpt lat="47.25463" lon="-2.32727">
        <ele>65.800003051758</ele>
        <time>2021-05-30T10:25:08.000Z</time>
      </trkpt>
      <trkpt lat="47.25487" lon="-2.32691">
        <ele>65.800003051758</ele>
        <time>2021-05-30T10:25:16.000Z</time>
      </trkpt>
      <trkpt lat="47.25489" lon="-2.32666">
        <ele>65.800003051758</ele>
        <time>2021-05-30T10:25:20.000Z</time>
      </trkpt>
      <trkpt lat="47.25488" lon="-2.3266">
        <ele>65.800003051758</ele>
        <time>2021-05-30T10:25:21.000Z</time>
      </trkpt>
      <trkpt lat="47.25485" lon="-2.32642">
        <ele>66.199996948242</ele>
        <time>2021-05-30T10:25:24.000Z</time>
      </trkpt>
      <trkpt lat="47.25484" lon="-2.32636">
        <ele>66.599998474121</ele>
        <time>2021-05-30T10:25:25.000Z</time>
      </trkpt>
      <trkpt lat="47.25483" lon="-2.3263">
        <ele>67</ele>
        <time>2021-05-30T10:25:26.000Z</time>
      </trkpt>
      <trkpt lat="47.25482" lon="-2.32624">
        <ele>67.800003051758</ele>
        <time>2021-05-30T10:25:27.000Z</time>
      </trkpt>
      <trkpt lat="47.25476" lon="-2.32586">
        <ele>67.800003051758</ele>
        <time>2021-05-30T10:25:33.000Z</time>
      </trkpt>
      <trkpt lat="47.25479" lon="-2.32566">
        <ele>67.800003051758</ele>
        <time>2021-05-30T10:25:37.000Z</time>
      </trkpt>
      <trkpt lat="47.25488" lon="-2.32554">
        <ele>67.800003051758</ele>
        <time>2021-05-30T10:25:40.000Z</time>
      </trkpt>
      <trkpt lat="47.25492" lon="-2.3255">
        <ele>67.800003051758</ele>
        <time>2021-05-30T10:25:41.000Z</time>
      </trkpt>
      <trkpt lat="47.25519" lon="-2.32523">
        <ele>67.800003051758</ele>
        <time>2021-05-30T10:25:48.000Z</time>
      </trkpt>
      <trkpt lat="47.25552" lon="-2.32494">
        <ele>67.800003051758</ele>
        <time>2021-05-30T10:25:55.000Z</time>
      </trkpt>
      <trkpt lat="47.25558" lon="-2.32489">
        <ele>67.400001525879</ele>
        <time>2021-05-30T10:25:56.000Z</time>
      </trkpt>
      <trkpt lat="47.25563" lon="-2.32484">
        <ele>67</ele>
        <time>2021-05-30T10:25:57.000Z</time>
      </trkpt>
      <trkpt lat="47.25569" lon="-2.3248">
        <ele>66.599998474121</ele>
        <time>2021-05-30T10:25:58.000Z</time>
      </trkpt>
      <trkpt lat="47.25574" lon="-2.32474">
        <ele>66.199996948242</ele>
        <time>2021-05-30T10:25:59.000Z</time>
      </trkpt>
      <trkpt lat="47.25579" lon="-2.32468">
        <ele>65.599998474121</ele>
        <time>2021-05-30T10:26:00.000Z</time>
      </trkpt>
      <trkpt lat="47.25585" lon="-2.32462">
        <ele>65.599998474121</ele>
        <time>2021-05-30T10:26:01.000Z</time>
      </trkpt>
      <trkpt lat="47.25623" lon="-2.32418">
        <ele>65.599998474121</ele>
        <time>2021-05-30T10:26:08.000Z</time>
      </trkpt>
      <trkpt lat="47.25634" lon="-2.32407">
        <ele>65.199996948242</ele>
        <time>2021-05-30T10:26:10.000Z</time>
      </trkpt>
      <trkpt lat="47.2564" lon="-2.32403">
        <ele>64.800003051758</ele>
        <time>2021-05-30T10:26:11.000Z</time>
      </trkpt>
      <trkpt lat="47.25645" lon="-2.324">
        <ele>64.199996948242</ele>
        <time>2021-05-30T10:26:12.000Z</time>
      </trkpt>
      <trkpt lat="47.25651" lon="-2.32399">
        <ele>63.799999237061</ele>
        <time>2021-05-30T10:26:13.000Z</time>
      </trkpt>
      <trkpt lat="47.25656" lon="-2.32398">
        <ele>63.400001525879</ele>
        <time>2021-05-30T10:26:14.000Z</time>
      </trkpt>
      <trkpt lat="47.2566" lon="-2.32398">
        <ele>63</ele>
        <time>2021-05-30T10:26:15.000Z</time>
      </trkpt>
      <trkpt lat="47.25665" lon="-2.324">
        <ele>62</ele>
        <time>2021-05-30T10:26:16.000Z</time>
      </trkpt>
      <trkpt lat="47.2567" lon="-2.32405">
        <ele>61.599998474121</ele>
        <time>2021-05-30T10:26:17.000Z</time>
      </trkpt>
      <trkpt lat="47.25674" lon="-2.3241">
        <ele>61</ele>
        <time>2021-05-30T10:26:18.000Z</time>
      </trkpt>
      <trkpt lat="47.25679" lon="-2.32414">
        <ele>61</ele>
        <time>2021-05-30T10:26:19.000Z</time>
      </trkpt>
      <trkpt lat="47.25691" lon="-2.32416">
        <ele>61</ele>
        <time>2021-05-30T10:26:21.000Z</time>
      </trkpt>
      <trkpt lat="47.25716" lon="-2.32418">
        <ele>61</ele>
        <time>2021-05-30T10:26:25.000Z</time>
      </trkpt>
      <trkpt lat="47.25734" lon="-2.32419">
        <ele>61</ele>
        <time>2021-05-30T10:26:28.000Z</time>
      </trkpt>
      <trkpt lat="47.25767" lon="-2.32415">
        <ele>61</ele>
        <time>2021-05-30T10:26:34.000Z</time>
      </trkpt>
      <trkpt lat="47.25784" lon="-2.32411">
        <ele>61</ele>
        <time>2021-05-30T10:26:38.000Z</time>
      </trkpt>
      <trkpt lat="47.25796" lon="-2.32426">
        <ele>61</ele>
        <time>2021-05-30T10:26:41.000Z</time>
      </trkpt>
      <trkpt lat="47.25799" lon="-2.32433">
        <ele>61</ele>
        <time>2021-05-30T10:26:42.000Z</time>
      </trkpt>
      <trkpt lat="47.25803" lon="-2.3244">
        <ele>61</ele>
        <time>2021-05-30T10:26:43.000Z</time>
      </trkpt>
      <trkpt lat="47.25814" lon="-2.3245">
        <ele>61</ele>
        <time>2021-05-30T10:26:45.000Z</time>
      </trkpt>
      <trkpt lat="47.25826" lon="-2.32458">
        <ele>61</ele>
        <time>2021-05-30T10:26:47.000Z</time>
      </trkpt>
      <trkpt lat="47.25844" lon="-2.32468">
        <ele>61</ele>
        <time>2021-05-30T10:26:50.000Z</time>
      </trkpt>
      <trkpt lat="47.25868" lon="-2.3247">
        <ele>61</ele>
        <time>2021-05-30T10:26:54.000Z</time>
      </trkpt>
      <trkpt lat="47.25874" lon="-2.32469">
        <ele>61</ele>
        <time>2021-05-30T10:26:55.000Z</time>
      </trkpt>
      <trkpt lat="47.25896" lon="-2.32464">
        <ele>61</ele>
        <time>2021-05-30T10:26:59.000Z</time>
      </trkpt>
      <trkpt lat="47.25901" lon="-2.32458">
        <ele>61</ele>
        <time>2021-05-30T10:27:00.000Z</time>
      </trkpt>
      <trkpt lat="47.25931" lon="-2.32417">
        <ele>61</ele>
        <time>2021-05-30T10:27:07.000Z</time>
      </trkpt>
      <trkpt lat="47.25969" lon="-2.32367">
        <ele>61</ele>
        <time>2021-05-30T10:27:16.000Z</time>
      </trkpt>
      <trkpt lat="47.26002" lon="-2.32324">
        <ele>61</ele>
        <time>2021-05-30T10:27:24.000Z</time>
      </trkpt>
      <trkpt lat="47.26009" lon="-2.32313">
        <ele>61</ele>
        <time>2021-05-30T10:27:26.000Z</time>
      </trkpt>
      <trkpt lat="47.26025" lon="-2.32294">
        <ele>61</ele>
        <time>2021-05-30T10:27:30.000Z</time>
      </trkpt>
      <trkpt lat="47.26064" lon="-2.32252">
        <ele>61</ele>
        <time>2021-05-30T10:27:39.000Z</time>
      </trkpt>
      <trkpt lat="47.26092" lon="-2.32218">
        <ele>61</ele>
        <time>2021-05-30T10:27:46.000Z</time>
      </trkpt>
      <trkpt lat="47.26102" lon="-2.32201">
        <ele>61</ele>
        <time>2021-05-30T10:27:49.000Z</time>
      </trkpt>
      <trkpt lat="47.26108" lon="-2.32188">
        <ele>61</ele>
        <time>2021-05-30T10:27:51.000Z</time>
      </trkpt>
      <trkpt lat="47.26127" lon="-2.32143">
        <ele>61</ele>
        <time>2021-05-30T10:27:58.000Z</time>
      </trkpt>
      <trkpt lat="47.26141" lon="-2.32095">
        <ele>61</ele>
        <time>2021-05-30T10:28:05.000Z</time>
      </trkpt>
      <trkpt lat="47.26159" lon="-2.32035">
        <ele>61</ele>
        <time>2021-05-30T10:28:14.000Z</time>
      </trkpt>
      <trkpt lat="47.26167" lon="-2.32017">
        <ele>61</ele>
        <time>2021-05-30T10:28:18.000Z</time>
      </trkpt>
      <trkpt lat="47.2617" lon="-2.32016">
        <ele>61</ele>
        <time>2021-05-30T10:28:19.000Z</time>
      </trkpt>
      <trkpt lat="47.26181" lon="-2.32019">
        <ele>61</ele>
        <time>2021-05-30T10:28:23.000Z</time>
      </trkpt>
      <trkpt lat="47.26187" lon="-2.32021">
        <ele>61</ele>
        <time>2021-05-30T10:28:25.000Z</time>
      </trkpt>
      <trkpt lat="47.26193" lon="-2.32023">
        <ele>61</ele>
        <time>2021-05-30T10:28:28.000Z</time>
      </trkpt>
      <trkpt lat="47.26196" lon="-2.3202">
        <ele>61</ele>
        <time>2021-05-30T10:28:30.000Z</time>
      </trkpt>
      <trkpt lat="47.26196" lon="-2.32013">
        <ele>61</ele>
        <time>2021-05-30T10:28:32.000Z</time>
      </trkpt>
      <trkpt lat="47.26199" lon="-2.32004">
        <ele>61</ele>
        <time>2021-05-30T10:28:37.000Z</time>
      </trkpt>
      <trkpt lat="47.26215" lon="-2.31988">
        <ele>59</ele>
        <time>2021-05-30T10:29:03.000Z</time>
      </trkpt>
      <trkpt lat="47.2622" lon="-2.3198">
        <ele>59</ele>
        <time>2021-05-30T10:29:06.000Z</time>
      </trkpt>
      <trkpt lat="47.26226" lon="-2.31977">
        <ele>59</ele>
        <time>2021-05-30T10:29:08.000Z</time>
      </trkpt>
      <trkpt lat="47.26233" lon="-2.31975">
        <ele>59</ele>
        <time>2021-05-30T10:29:10.000Z</time>
      </trkpt>
      <trkpt lat="47.26243" lon="-2.31959">
        <ele>59</ele>
        <time>2021-05-30T10:29:14.000Z</time>
      </trkpt>
      <trkpt lat="47.2626" lon="-2.31934">
        <ele>59</ele>
        <time>2021-05-30T10:29:20.000Z</time>
      </trkpt>
      <trkpt lat="47.26275" lon="-2.31912">
        <ele>59</ele>
        <time>2021-05-30T10:29:26.000Z</time>
      </trkpt>
      <trkpt lat="47.26293" lon="-2.31896">
        <ele>59</ele>
        <time>2021-05-30T10:29:31.000Z</time>
      </trkpt>
      <trkpt lat="47.26297" lon="-2.31888">
        <ele>59</ele>
        <time>2021-05-30T10:29:33.000Z</time>
      </trkpt>
      <trkpt lat="47.26299" lon="-2.31878">
        <ele>59</ele>
        <time>2021-05-30T10:29:35.000Z</time>
      </trkpt>
      <trkpt lat="47.26302" lon="-2.31863">
        <ele>59</ele>
        <time>2021-05-30T10:29:37.000Z</time>
      </trkpt>
      <trkpt lat="47.26301" lon="-2.31848">
        <ele>59.400001525879</ele>
        <time>2021-05-30T10:29:39.000Z</time>
      </trkpt>
      <trkpt lat="47.26301" lon="-2.31842">
        <ele>59.799999237061</ele>
        <time>2021-05-30T10:29:40.000Z</time>
      </trkpt>
      <trkpt lat="47.26301" lon="-2.31836">
        <ele>60.400001525879</ele>
        <time>2021-05-30T10:29:41.000Z</time>
      </trkpt>
      <trkpt lat="47.26301" lon="-2.3183">
        <ele>60.799999237061</ele>
        <time>2021-05-30T10:29:42.000Z</time>
      </trkpt>
      <trkpt lat="47.26301" lon="-2.31823">
        <ele>61.200000762939</ele>
        <time>2021-05-30T10:29:43.000Z</time>
      </trkpt>
      <trkpt lat="47.26302" lon="-2.31817">
        <ele>61.200000762939</ele>
        <time>2021-05-30T10:29:44.000Z</time>
      </trkpt>
      <trkpt lat="47.26302" lon="-2.31799">
        <ele>61.200000762939</ele>
        <time>2021-05-30T10:29:47.000Z</time>
      </trkpt>
      <trkpt lat="47.263" lon="-2.31772">
        <ele>61.200000762939</ele>
        <time>2021-05-30T10:29:51.000Z</time>
      </trkpt>
      <trkpt lat="47.263" lon="-2.31728">
        <ele>61.200000762939</ele>
        <time>2021-05-30T10:29:57.000Z</time>
      </trkpt>
      <trkpt lat="47.26307" lon="-2.31717">
        <ele>61.200000762939</ele>
        <time>2021-05-30T10:29:59.000Z</time>
      </trkpt>
      <trkpt lat="47.2633" lon="-2.31701">
        <ele>61.200000762939</ele>
        <time>2021-05-30T10:30:05.000Z</time>
      </trkpt>
      <trkpt lat="47.26331" lon="-2.31697">
        <ele>61.200000762939</ele>
        <time>2021-05-30T10:30:06.000Z</time>
      </trkpt>
      <trkpt lat="47.26335" lon="-2.31689">
        <ele>61.200000762939</ele>
        <time>2021-05-30T10:30:08.000Z</time>
      </trkpt>
      <trkpt lat="47.26346" lon="-2.31683">
        <ele>61.599998474121</ele>
        <time>2021-05-30T10:30:12.000Z</time>
      </trkpt>
      <trkpt lat="47.26348" lon="-2.31681">
        <ele>62</ele>
        <time>2021-05-30T10:30:13.000Z</time>
      </trkpt>
      <trkpt lat="47.26352" lon="-2.31679">
        <ele>62.400001525879</ele>
        <time>2021-05-30T10:30:14.000Z</time>
      </trkpt>
      <trkpt lat="47.26355" lon="-2.31678">
        <ele>62.799999237061</ele>
        <time>2021-05-30T10:30:15.000Z</time>
      </trkpt>
      <trkpt lat="47.26358" lon="-2.31676">
        <ele>63.200000762939</ele>
        <time>2021-05-30T10:30:16.000Z</time>
      </trkpt>
      <trkpt lat="47.26365" lon="-2.31673">
        <ele>63.200000762939</ele>
        <time>2021-05-30T10:30:18.000Z</time>
      </trkpt>
      <trkpt lat="47.26391" lon="-2.31661">
        <ele>63.599998474121</ele>
        <time>2021-05-30T10:30:25.000Z</time>
      </trkpt>
      <trkpt lat="47.26394" lon="-2.31659">
        <ele>64</ele>
        <time>2021-05-30T10:30:26.000Z</time>
      </trkpt>
      <trkpt lat="47.26397" lon="-2.31658">
        <ele>64.400001525879</ele>
        <time>2021-05-30T10:30:27.000Z</time>
      </trkpt>
      <trkpt lat="47.26399" lon="-2.31657">
        <ele>64.800003051758</ele>
        <time>2021-05-30T10:30:28.000Z</time>
      </trkpt>
      <trkpt lat="47.26402" lon="-2.31656">
        <ele>65.199996948242</ele>
        <time>2021-05-30T10:30:29.000Z</time>
      </trkpt>
      <trkpt lat="47.26408" lon="-2.31652">
        <ele>65.199996948242</ele>
        <time>2021-05-30T10:30:31.000Z</time>
      </trkpt>
      <trkpt lat="47.2641" lon="-2.31647">
        <ele>65.199996948242</ele>
        <time>2021-05-30T10:30:32.000Z</time>
      </trkpt>
      <trkpt lat="47.26412" lon="-2.31638">
        <ele>65.199996948242</ele>
        <time>2021-05-30T10:30:34.000Z</time>
      </trkpt>
      <trkpt lat="47.26412" lon="-2.31629">
        <ele>65.199996948242</ele>
        <time>2021-05-30T10:30:36.000Z</time>
      </trkpt>
      <trkpt lat="47.26411" lon="-2.3161">
        <ele>65.199996948242</ele>
        <time>2021-05-30T10:30:40.000Z</time>
      </trkpt>
      <trkpt lat="47.2641" lon="-2.3158">
        <ele>65.199996948242</ele>
        <time>2021-05-30T10:30:47.000Z</time>
      </trkpt>
      <trkpt lat="47.2641" lon="-2.31557">
        <ele>65.199996948242</ele>
        <time>2021-05-30T10:30:53.000Z</time>
      </trkpt>
      <trkpt lat="47.26413" lon="-2.31552">
        <ele>65.199996948242</ele>
        <time>2021-05-30T10:30:55.000Z</time>
      </trkpt>
      <trkpt lat="47.26416" lon="-2.31552">
        <ele>65.199996948242</ele>
        <time>2021-05-30T10:30:57.000Z</time>
      </trkpt>
      <trkpt lat="47.26416" lon="-2.31552">
        <ele>65.199996948242</ele>
        <time>2021-05-30T10:31:00.000Z</time>
      </trkpt>
      <trkpt lat="47.26429" lon="-2.31553">
        <ele>65.199996948242</ele>
        <time>2021-05-30T10:31:20.000Z</time>
      </trkpt>
      <trkpt lat="47.2643" lon="-2.31553">
        <ele>65.199996948242</ele>
        <time>2021-05-30T10:31:22.000Z</time>
      </trkpt>
      <trkpt lat="47.2643" lon="-2.31553">
        <ele>65.800003051758</ele>
        <time>2021-05-30T10:31:23.000Z</time>
      </trkpt>
    </trkseg>
  </trk>
</gpx>